<?xml version='1.0' encoding='UTF-8'?><gpx version="1.1" creator="JPX - https://github.com/jenetics/jpx" xmlns="http://www.topografix.com/GPX/1/1"><trk><trkseg><trkpt lat="44.33684361294985" lon="7.492870251663824"><ele>633.0</ele><time>2026-04-11T16:52:49Z</time></trkpt><trkpt lat="44.33690606177545" lon="7.4928927456694305"><ele>633.0</ele><time>2026-04-11T16:52:51Z</time></trkpt><trkpt lat="44.33699182456372" lon="7.492899405874574"><ele>633.0</ele><time>2026-04-11T16:52:53Z</time></trkpt><trkpt lat="44.33708212465526" lon="7.49292743413398"><ele>633.0</ele><time>2026-04-11T16:52:55Z</time></trkpt><trkpt lat="44.33714130302726" lon="7.492975397079582"><ele>633.0</ele><time>2026-04-11T16:52:59Z</time></trkpt><trkpt lat="44.33719121469407" lon="7.492861407765431"><ele>633.0</ele><time>2026-04-11T16:53:04Z</time></trkpt><trkpt lat="44.337191761955104" lon="7.492770152595005"><ele>633.0</ele><time>2026-04-11T16:53:05Z</time></trkpt><trkpt lat="44.337198522224455" lon="7.492603635891052"><ele>633.0</ele><time>2026-04-11T16:53:07Z</time></trkpt><trkpt lat="44.33720183997826" lon="7.4924344575608774"><ele>633.0</ele><time>2026-04-11T16:53:09Z</time></trkpt><trkpt lat="44.33720978058378" lon="7.4923149026698725"><ele>633.0</ele><time>2026-04-11T16:53:10Z</time></trkpt><trkpt lat="44.337221794717195" lon="7.492146562534206"><ele>633.0</ele><time>2026-04-11T16:53:11Z</time></trkpt><trkpt lat="44.337216282090395" lon="7.492044976094027"><ele>633.1666666666666</ele><time>2026-04-11T16:53:12Z</time></trkpt><trkpt lat="44.337201409934366" lon="7.491909375599152"><ele>633.3333333333334</ele><time>2026-04-11T16:53:14Z</time></trkpt><trkpt lat="44.33720274063571" lon="7.491777780603369"><ele>633.5</ele><time>2026-04-11T16:53:16Z</time></trkpt><trkpt lat="44.33720161979456" lon="7.491684307394788"><ele>633.6666666666667</ele><time>2026-04-11T16:53:17Z</time></trkpt><trkpt lat="44.33719909276224" lon="7.4915658154359095"><ele>633.8333333333334</ele><time>2026-04-11T16:53:18Z</time></trkpt><trkpt lat="44.337200275022354" lon="7.491437231967613"><ele>634.0</ele><time>2026-04-11T16:53:19Z</time></trkpt><trkpt lat="44.337202430822806" lon="7.49132966023609"><ele>634.0</ele><time>2026-04-11T16:53:20Z</time></trkpt><trkpt lat="44.33720133555897" lon="7.491219859959884"><ele>634.0</ele><time>2026-04-11T16:53:21Z</time></trkpt><trkpt lat="44.3371959493923" lon="7.491067619798889"><ele>634.0</ele><time>2026-04-11T16:53:22Z</time></trkpt><trkpt lat="44.337210908775646" lon="7.4908853879849975"><ele>634.0</ele><time>2026-04-11T16:53:23Z</time></trkpt><trkpt lat="44.33719654677329" lon="7.490675912545825"><ele>634.0</ele><time>2026-04-11T16:53:24Z</time></trkpt><trkpt lat="44.33720832422896" lon="7.49049778965398"><ele>634.0</ele><time>2026-04-11T16:53:25Z</time></trkpt><trkpt lat="44.33720748744484" lon="7.490363124967757"><ele>634.0</ele><time>2026-04-11T16:53:26Z</time></trkpt><trkpt lat="44.3372067796204" lon="7.490249214029205"><ele>634.0</ele><time>2026-04-11T16:53:27Z</time></trkpt><trkpt lat="44.33720617238286" lon="7.490151492599766"><ele>634.0</ele><time>2026-04-11T16:53:28Z</time></trkpt><trkpt lat="44.33720564413813" lon="7.490058390838367"><ele>634.0</ele><time>2026-04-11T16:53:29Z</time></trkpt><trkpt lat="44.33720509799904" lon="7.489966095960284"><ele>634.0</ele><time>2026-04-11T16:53:30Z</time></trkpt><trkpt lat="44.33720422778199" lon="7.48987798907248"><ele>634.0</ele><time>2026-04-11T16:53:31Z</time></trkpt><trkpt lat="44.33720353284037" lon="7.489789427496708"><ele>634.0</ele><time>2026-04-11T16:53:32Z</time></trkpt><trkpt lat="44.33720221955266" lon="7.489622065441095"><ele>634.0</ele><time>2026-04-11T16:53:34Z</time></trkpt><trkpt lat="44.337200924662135" lon="7.489457047950878"><ele>634.0</ele><time>2026-04-11T16:53:36Z</time></trkpt><trkpt lat="44.33719103244347" lon="7.489276499865063"><ele>634.0</ele><time>2026-04-11T16:53:38Z</time></trkpt><trkpt lat="44.33719035634627" lon="7.489158446740411"><ele>634.0</ele><time>2026-04-11T16:53:39Z</time></trkpt><trkpt lat="44.33718205960564" lon="7.48902026564922"><ele>634.0</ele><time>2026-04-11T16:53:40Z</time></trkpt><trkpt lat="44.337180071678326" lon="7.488912531555281"><ele>634.0</ele><time>2026-04-11T16:53:41Z</time></trkpt><trkpt lat="44.33718921523357" lon="7.4887920683869895"><ele>634.0</ele><time>2026-04-11T16:53:43Z</time></trkpt><trkpt lat="44.33721385565273" lon="7.4886865211354126"><ele>634.0</ele><time>2026-04-11T16:53:47.999Z</time></trkpt><trkpt lat="44.33723292158583" lon="7.488572716553645"><ele>634.0</ele><time>2026-04-11T16:53:48.999Z</time></trkpt><trkpt lat="44.33724080452696" lon="7.488390404841659"><ele>634.0</ele><time>2026-04-11T16:53:49.999Z</time></trkpt><trkpt lat="44.33724822903242" lon="7.488182719890435"><ele>634.0</ele><time>2026-04-11T16:53:50.999Z</time></trkpt><trkpt lat="44.33725933875076" lon="7.487923762151902"><ele>634.5</ele><time>2026-04-11T16:53:51.999Z</time></trkpt><trkpt lat="44.33727411974837" lon="7.487670060860354"><ele>635.0</ele><time>2026-04-11T16:53:52.999Z</time></trkpt><trkpt lat="44.33728106848621" lon="7.487472234796037"><ele>635.5</ele><time>2026-04-11T16:53:53.999Z</time></trkpt><trkpt lat="44.33728515332682" lon="7.487308088680274"><ele>636.0</ele><time>2026-04-11T16:53:54.999Z</time></trkpt><trkpt lat="44.33729764974415" lon="7.48716584393684"><ele>636.0</ele><time>2026-04-11T16:53:55.999Z</time></trkpt><trkpt lat="44.337301468000106" lon="7.487047798710287"><ele>636.0</ele><time>2026-04-11T16:53:56.999Z</time></trkpt><trkpt lat="44.337309609843004" lon="7.486920928526805"><ele>636.0</ele><time>2026-04-11T16:53:57.999Z</time></trkpt><trkpt lat="44.3373178425552" lon="7.4867733748694265"><ele>636.0</ele><time>2026-04-11T16:53:58.999Z</time></trkpt><trkpt lat="44.33733016559411" lon="7.486616806333304"><ele>636.0</ele><time>2026-04-11T16:53:59.999Z</time></trkpt><trkpt lat="44.337340255347584" lon="7.486428871615839"><ele>636.3333333333334</ele><time>2026-04-11T16:54:00.999Z</time></trkpt><trkpt lat="44.33735940658913" lon="7.486174406735624"><ele>636.6666666666667</ele><time>2026-04-11T16:54:01.999Z</time></trkpt><trkpt lat="44.337365358945156" lon="7.485912766596464"><ele>637.0</ele><time>2026-04-11T16:54:02.999Z</time></trkpt><trkpt lat="44.33737153025361" lon="7.4857157902231535"><ele>637.0</ele><time>2026-04-11T16:54:03.999Z</time></trkpt><trkpt lat="44.33737860448616" lon="7.4855678668993075"><ele>637.0</ele><time>2026-04-11T16:54:04.999Z</time></trkpt><trkpt lat="44.337386035195415" lon="7.48543079053815"><ele>637.0</ele><time>2026-04-11T16:54:06.999Z</time></trkpt><trkpt lat="44.33736506869504" lon="7.485261421402825"><ele>637.0</ele><time>2026-04-11T16:54:09.999Z</time></trkpt><trkpt lat="44.337381973603925" lon="7.485091244252283"><ele>638.0</ele><time>2026-04-11T16:54:10.999Z</time></trkpt><trkpt lat="44.33739039857513" lon="7.484868814391763"><ele>639.0</ele><time>2026-04-11T16:54:11.999Z</time></trkpt><trkpt lat="44.3374005065004" lon="7.484601952364225"><ele>640.0</ele><time>2026-04-11T16:54:12.999Z</time></trkpt><trkpt lat="44.33741027038595" lon="7.484344173438712"><ele>640.6666666666667</ele><time>2026-04-11T16:54:13.999Z</time></trkpt><trkpt lat="44.337420030123454" lon="7.484086503928516"><ele>641.3333333333334</ele><time>2026-04-11T16:54:14.999Z</time></trkpt><trkpt lat="44.33742849921523" lon="7.48386290919302"><ele>642.0</ele><time>2026-04-11T16:54:15.999Z</time></trkpt><trkpt lat="44.33742141762051" lon="7.483669181542001"><ele>642.0</ele><time>2026-04-11T16:54:16.999Z</time></trkpt><trkpt lat="44.33743632625138" lon="7.483496083988818"><ele>642.0</ele><time>2026-04-11T16:54:17.999Z</time></trkpt><trkpt lat="44.33745274326119" lon="7.483333797825208"><ele>642.0</ele><time>2026-04-11T16:54:18.999Z</time></trkpt><trkpt lat="44.33746028499805" lon="7.4831872931264884"><ele>642.0</ele><time>2026-04-11T16:54:19.999Z</time></trkpt><trkpt lat="44.33746189263425" lon="7.483082924220373"><ele>642.0</ele><time>2026-04-11T16:54:21Z</time></trkpt><trkpt lat="44.33741368837047" lon="7.482997028344251"><ele>642.0</ele><time>2026-04-11T16:54:28Z</time></trkpt><trkpt lat="44.337315663486606" lon="7.482972200621549"><ele>642.0</ele><time>2026-04-11T16:54:30Z</time></trkpt><trkpt lat="44.33729069456644" lon="7.482796384454032"><ele>642.0</ele><time>2026-04-11T16:54:33Z</time></trkpt><trkpt lat="44.33729080380403" lon="7.482633800885356"><ele>642.0</ele><time>2026-04-11T16:54:34Z</time></trkpt><trkpt lat="44.337280922424995" lon="7.482433292277889"><ele>642.0</ele><time>2026-04-11T16:54:35Z</time></trkpt><trkpt lat="44.337287527002374" lon="7.482206565696123"><ele>642.0</ele><time>2026-04-11T16:54:36Z</time></trkpt><trkpt lat="44.337295341937626" lon="7.481973763028075"><ele>642.0</ele><time>2026-04-11T16:54:37Z</time></trkpt><trkpt lat="44.337295319114226" lon="7.48176012971743"><ele>642.0</ele><time>2026-04-11T16:54:38Z</time></trkpt><trkpt lat="44.33728610135512" lon="7.481577220901596"><ele>642.0</ele><time>2026-04-11T16:54:39Z</time></trkpt><trkpt lat="44.337283205335424" lon="7.481409748217079"><ele>642.0</ele><time>2026-04-11T16:54:40Z</time></trkpt><trkpt lat="44.33728041389011" lon="7.481269973059075"><ele>642.0</ele><time>2026-04-11T16:54:41Z</time></trkpt><trkpt lat="44.33726731996608" lon="7.481169290499754"><ele>642.0</ele><time>2026-04-11T16:54:42Z</time></trkpt><trkpt lat="44.337181001628835" lon="7.481059613559403"><ele>642.3333333333334</ele><time>2026-04-11T16:54:44Z</time></trkpt><trkpt lat="44.33710582895849" lon="7.481034807413459"><ele>642.6666666666666</ele><time>2026-04-11T16:54:45Z</time></trkpt><trkpt lat="44.337019254022785" lon="7.480988401548275"><ele>643.0</ele><time>2026-04-11T16:54:46Z</time></trkpt><trkpt lat="44.336930516082596" lon="7.480948027890999"><ele>643.3333333333333</ele><time>2026-04-11T16:54:47Z</time></trkpt><trkpt lat="44.33686404898223" lon="7.480916882804037"><ele>643.6666666666666</ele><time>2026-04-11T16:54:48Z</time></trkpt><trkpt lat="44.33680173554408" lon="7.480861518122335"><ele>644.0</ele><time>2026-04-11T16:54:51Z</time></trkpt><trkpt lat="44.33684802832631" lon="7.480740838228022"><ele>644.0</ele><time>2026-04-11T16:54:52Z</time></trkpt><trkpt lat="44.336893925365125" lon="7.480602532804001"><ele>644.0</ele><time>2026-04-11T16:54:53Z</time></trkpt><trkpt lat="44.336956055577694" lon="7.480425612099991"><ele>644.0</ele><time>2026-04-11T16:54:54Z</time></trkpt><trkpt lat="44.33702630281578" lon="7.480235134095641"><ele>644.0</ele><time>2026-04-11T16:54:55Z</time></trkpt><trkpt lat="44.33709169743071" lon="7.480112929062432"><ele>644.25</ele><time>2026-04-11T16:54:56Z</time></trkpt><trkpt lat="44.33714215229871" lon="7.4800330042826415"><ele>644.5</ele><time>2026-04-11T16:54:57Z</time></trkpt><trkpt lat="44.33724874542904" lon="7.479939554627896"><ele>644.75</ele><time>2026-04-11T16:54:59Z</time></trkpt><trkpt lat="44.3373781107975" lon="7.479915940948807"><ele>645.0</ele><time>2026-04-11T16:55:01Z</time></trkpt><trkpt lat="44.33747012594226" lon="7.48009917454853"><ele>644.3333333333334</ele><time>2026-04-11T16:55:02Z</time></trkpt><trkpt lat="44.337570693344155" lon="7.480264209400223"><ele>643.6666666666667</ele><time>2026-04-11T16:55:03Z</time></trkpt><trkpt lat="44.337693410235374" lon="7.480473996762337"><ele>643.0</ele><time>2026-04-11T16:55:04Z</time></trkpt><trkpt lat="44.337844270912825" lon="7.480736100638765"><ele>642.5</ele><time>2026-04-11T16:55:05Z</time></trkpt><trkpt lat="44.33801437165039" lon="7.481030353715883"><ele>642.0</ele><time>2026-04-11T16:55:06Z</time></trkpt><trkpt lat="44.338194129903094" lon="7.481343230939387"><ele>641.5</ele><time>2026-04-11T16:55:07Z</time></trkpt><trkpt lat="44.33838362178132" lon="7.481678031679442"><ele>641.0</ele><time>2026-04-11T16:55:08Z</time></trkpt><trkpt lat="44.33858251963946" lon="7.482025265658949"><ele>641.0</ele><time>2026-04-11T16:55:09Z</time></trkpt><trkpt lat="44.338789401303394" lon="7.4823881648762205"><ele>641.0</ele><time>2026-04-11T16:55:10Z</time></trkpt><trkpt lat="44.33897743190638" lon="7.482719814416767"><ele>640.0</ele><time>2026-04-11T16:55:11Z</time></trkpt><trkpt lat="44.33914505074032" lon="7.483012527161706"><ele>639.0</ele><time>2026-04-11T16:55:12Z</time></trkpt><trkpt lat="44.339297939298774" lon="7.4832882516674415"><ele>639.0</ele><time>2026-04-11T16:55:13Z</time></trkpt><trkpt lat="44.33944713170465" lon="7.483559658774767"><ele>639.0</ele><time>2026-04-11T16:55:14Z</time></trkpt><trkpt lat="44.339603883292995" lon="7.483838018319898"><ele>639.0</ele><time>2026-04-11T16:55:15Z</time></trkpt><trkpt lat="44.33976564592008" lon="7.484111995607856"><ele>639.0</ele><time>2026-04-11T16:55:16Z</time></trkpt><trkpt lat="44.33993010912803" lon="7.484373992829481"><ele>637.0</ele><time>2026-04-11T16:55:17Z</time></trkpt><trkpt lat="44.34009803089298" lon="7.4846266785823"><ele>635.0</ele><time>2026-04-11T16:55:18Z</time></trkpt><trkpt lat="44.34026775244473" lon="7.484855541882147"><ele>635.0</ele><time>2026-04-11T16:55:19Z</time></trkpt><trkpt lat="44.340437933151755" lon="7.485056615487546"><ele>635.0</ele><time>2026-04-11T16:55:20Z</time></trkpt><trkpt lat="44.34061497928331" lon="7.485238690968008"><ele>635.0</ele><time>2026-04-11T16:55:21Z</time></trkpt><trkpt lat="44.340789818243685" lon="7.485394774552613"><ele>635.0</ele><time>2026-04-11T16:55:22Z</time></trkpt><trkpt lat="44.34097886101146" lon="7.48553275389764"><ele>635.0</ele><time>2026-04-11T16:55:23Z</time></trkpt><trkpt lat="44.341184779197896" lon="7.4856547884741955"><ele>635.0</ele><time>2026-04-11T16:55:24Z</time></trkpt><trkpt lat="44.34141389943023" lon="7.485771257730121"><ele>635.0</ele><time>2026-04-11T16:55:25Z</time></trkpt><trkpt lat="44.34165369041038" lon="7.485873654760634"><ele>635.0</ele><time>2026-04-11T16:55:26Z</time></trkpt><trkpt lat="44.3418958008635" lon="7.485965277487685"><ele>635.0</ele><time>2026-04-11T16:55:27Z</time></trkpt><trkpt lat="44.3421496870621" lon="7.486047046612575"><ele>635.0</ele><time>2026-04-11T16:55:28Z</time></trkpt><trkpt lat="44.34240944495665" lon="7.486123669557747"><ele>635.5</ele><time>2026-04-11T16:55:29Z</time></trkpt><trkpt lat="44.34265900109689" lon="7.486186516151037"><ele>636.0</ele><time>2026-04-11T16:55:30Z</time></trkpt><trkpt lat="44.34288344241153" lon="7.4862708166886"><ele>635.0</ele><time>2026-04-11T16:55:31Z</time></trkpt><trkpt lat="44.343111064473476" lon="7.486340543655001"><ele>634.0</ele><time>2026-04-11T16:55:32Z</time></trkpt><trkpt lat="44.34334058012175" lon="7.4864673035586025"><ele>634.0</ele><time>2026-04-11T16:55:33Z</time></trkpt><trkpt lat="44.343574266368975" lon="7.486622968837529"><ele>634.0</ele><time>2026-04-11T16:55:34Z</time></trkpt><trkpt lat="44.34380707909519" lon="7.486816133909733"><ele>633.0</ele><time>2026-04-11T16:55:35Z</time></trkpt><trkpt lat="44.344039053343515" lon="7.4870436536495655"><ele>632.0</ele><time>2026-04-11T16:55:36Z</time></trkpt><trkpt lat="44.34427469817402" lon="7.487286247159112"><ele>632.0</ele><time>2026-04-11T16:55:37Z</time></trkpt><trkpt lat="44.34449694776893" lon="7.4875208476572785"><ele>632.0</ele><time>2026-04-11T16:55:38Z</time></trkpt><trkpt lat="44.344714413315224" lon="7.487768050505865"><ele>630.5</ele><time>2026-04-11T16:55:39Z</time></trkpt><trkpt lat="44.3449235779207" lon="7.488005382467137"><ele>629.0</ele><time>2026-04-11T16:55:40Z</time></trkpt><trkpt lat="44.34512328569644" lon="7.488225419701791"><ele>629.0</ele><time>2026-04-11T16:55:41Z</time></trkpt><trkpt lat="44.34532750699048" lon="7.48843759502452"><ele>629.0</ele><time>2026-04-11T16:55:42Z</time></trkpt><trkpt lat="44.34553862677782" lon="7.488641086957933"><ele>630.0</ele><time>2026-04-11T16:55:43Z</time></trkpt><trkpt lat="44.3457574130693" lon="7.488828158521456"><ele>631.0</ele><time>2026-04-11T16:55:44Z</time></trkpt><trkpt lat="44.34598467827663" lon="7.489001167329658"><ele>631.0</ele><time>2026-04-11T16:55:45Z</time></trkpt><trkpt lat="44.34621878772225" lon="7.4891610202471215"><ele>631.0</ele><time>2026-04-11T16:55:46Z</time></trkpt><trkpt lat="44.346461611093" lon="7.4893063216076206"><ele>629.0</ele><time>2026-04-11T16:55:46.999Z</time></trkpt><trkpt lat="44.346725489489494" lon="7.489403865317388"><ele>627.0</ele><time>2026-04-11T16:55:47.999Z</time></trkpt><trkpt lat="44.346992349149815" lon="7.489514937257413"><ele>628.5</ele><time>2026-04-11T16:55:48.999Z</time></trkpt><trkpt lat="44.34727473991378" lon="7.489627393152179"><ele>630.0</ele><time>2026-04-11T16:55:49.999Z</time></trkpt><trkpt lat="44.34755685806595" lon="7.489727890675611"><ele>630.0</ele><time>2026-04-11T16:55:50.999Z</time></trkpt><trkpt lat="44.347836391516694" lon="7.489825017572914"><ele>630.0</ele><time>2026-04-11T16:55:51.999Z</time></trkpt><trkpt lat="44.34811103601665" lon="7.489912741834721"><ele>631.0</ele><time>2026-04-11T16:55:52.999Z</time></trkpt><trkpt lat="44.34837265307919" lon="7.489999400145941"><ele>632.0</ele><time>2026-04-11T16:55:53.999Z</time></trkpt><trkpt lat="44.34862544523638" lon="7.49008658571075"><ele>632.0</ele><time>2026-04-11T16:55:54.999Z</time></trkpt><trkpt lat="44.34887233347156" lon="7.490172395032007"><ele>632.0</ele><time>2026-04-11T16:55:55.999Z</time></trkpt><trkpt lat="44.349118463702005" lon="7.490265547633324"><ele>630.5</ele><time>2026-04-11T16:55:56.999Z</time></trkpt><trkpt lat="44.34936503885888" lon="7.490366134489943"><ele>629.0</ele><time>2026-04-11T16:55:57.999Z</time></trkpt><trkpt lat="44.34960589129792" lon="7.490482731035727"><ele>627.5</ele><time>2026-04-11T16:55:58.999Z</time></trkpt><trkpt lat="44.349835145992316" lon="7.4906292069555445"><ele>626.0</ele><time>2026-04-11T16:55:59.999Z</time></trkpt><trkpt lat="44.350068657304824" lon="7.4907980340676374"><ele>626.0</ele><time>2026-04-11T16:56:00.999Z</time></trkpt><trkpt lat="44.350309179592855" lon="7.490992343263883"><ele>626.0</ele><time>2026-04-11T16:56:01.999Z</time></trkpt><trkpt lat="44.350549944044054" lon="7.4912161765224"><ele>626.5</ele><time>2026-04-11T16:56:02.999Z</time></trkpt><trkpt lat="44.3507963675754" lon="7.491467990910928"><ele>627.0</ele><time>2026-04-11T16:56:03.999Z</time></trkpt><trkpt lat="44.35105006933659" lon="7.491743308602966"><ele>627.0</ele><time>2026-04-11T16:56:04.999Z</time></trkpt><trkpt lat="44.351316839325975" lon="7.492035186248017"><ele>627.0</ele><time>2026-04-11T16:56:05.999Z</time></trkpt><trkpt lat="44.35159359379327" lon="7.492338378332789"><ele>625.5</ele><time>2026-04-11T16:56:06.999Z</time></trkpt><trkpt lat="44.35187725676886" lon="7.492649160218229"><ele>624.0</ele><time>2026-04-11T16:56:07.999Z</time></trkpt><trkpt lat="44.35217537984836" lon="7.492967984041511"><ele>624.0</ele><time>2026-04-11T16:56:08.999Z</time></trkpt><trkpt lat="44.35245984266399" lon="7.493273920838541"><ele>624.0</ele><time>2026-04-11T16:56:09.999Z</time></trkpt><trkpt lat="44.352739221534435" lon="7.493585824818529"><ele>624.5</ele><time>2026-04-11T16:56:10.999Z</time></trkpt><trkpt lat="44.35292924726687" lon="7.493773720026946"><ele>625.0</ele><time>2026-04-11T16:56:11.999Z</time></trkpt><trkpt lat="44.35314168737294" lon="7.494011190844153"><ele>624.0</ele><time>2026-04-11T16:56:12.999Z</time></trkpt><trkpt lat="44.35333976843336" lon="7.494227523223621"><ele>623.0</ele><time>2026-04-11T16:56:13.999Z</time></trkpt><trkpt lat="44.35353579114188" lon="7.494438921931402"><ele>622.5</ele><time>2026-04-11T16:56:14.999Z</time></trkpt><trkpt lat="44.35373395960848" lon="7.4946440515711465"><ele>622.0</ele><time>2026-04-11T16:56:15.999Z</time></trkpt><trkpt lat="44.353923820062256" lon="7.49482923324887"><ele>621.6666666666667</ele><time>2026-04-11T16:56:16.999Z</time></trkpt><trkpt lat="44.354084758817876" lon="7.494981771793484"><ele>621.3333333333334</ele><time>2026-04-11T16:56:17.999Z</time></trkpt><trkpt lat="44.35421238589711" lon="7.495100809351081"><ele>621.0</ele><time>2026-04-11T16:56:18.999Z</time></trkpt><trkpt lat="44.35431012488732" lon="7.4951971904585255"><ele>621.0</ele><time>2026-04-11T16:56:19.999Z</time></trkpt><trkpt lat="44.35437743527636" lon="7.495276036639469"><ele>621.0</ele><time>2026-04-11T16:56:20.999Z</time></trkpt><trkpt lat="44.35444538955301" lon="7.495366882985035"><ele>621.0</ele><time>2026-04-11T16:56:21.999Z</time></trkpt><trkpt lat="44.354514036468444" lon="7.495508871817737"><ele>621.0</ele><time>2026-04-11T16:56:22.999Z</time></trkpt><trkpt lat="44.35457987264207" lon="7.495683633155215"><ele>621.0</ele><time>2026-04-11T16:56:23.999Z</time></trkpt><trkpt lat="44.35463147388026" lon="7.4958637929809715"><ele>620.3333333333334</ele><time>2026-04-11T16:56:24.999Z</time></trkpt><trkpt lat="44.35465460851618" lon="7.496054986782566"><ele>619.6666666666667</ele><time>2026-04-11T16:56:25.999Z</time></trkpt><trkpt lat="44.354614570503166" lon="7.496292412900087"><ele>619.0</ele><time>2026-04-11T16:56:27Z</time></trkpt><trkpt lat="44.35459083464334" lon="7.496571100748303"><ele>618.5</ele><time>2026-04-11T16:56:28Z</time></trkpt><trkpt lat="44.35456273720295" lon="7.496900998826263"><ele>618.0</ele><time>2026-04-11T16:56:29Z</time></trkpt><trkpt lat="44.354534896793" lon="7.497267699837925"><ele>618.0</ele><time>2026-04-11T16:56:30Z</time></trkpt><trkpt lat="44.35449923774744" lon="7.4976387318272995"><ele>618.0</ele><time>2026-04-11T16:56:31Z</time></trkpt><trkpt lat="44.35446148572618" lon="7.498028241756348"><ele>618.0</ele><time>2026-04-11T16:56:32Z</time></trkpt><trkpt lat="44.35442593536388" lon="7.498424087168637"><ele>618.0</ele><time>2026-04-11T16:56:33Z</time></trkpt><trkpt lat="44.3543910211914" lon="7.4988393031780385"><ele>617.0</ele><time>2026-04-11T16:56:34Z</time></trkpt><trkpt lat="44.354354859051824" lon="7.4992657778795575"><ele>616.0</ele><time>2026-04-11T16:56:35Z</time></trkpt><trkpt lat="44.354322313175075" lon="7.499699779815856"><ele>615.0</ele><time>2026-04-11T16:56:36Z</time></trkpt><trkpt lat="44.35428886415896" lon="7.500136440117735"><ele>614.0</ele><time>2026-04-11T16:56:37Z</time></trkpt><trkpt lat="44.354257388055316" lon="7.500578261564461"><ele>614.0</ele><time>2026-04-11T16:56:38Z</time></trkpt><trkpt lat="44.35422392846914" lon="7.501021603580389"><ele>614.0</ele><time>2026-04-11T16:56:39Z</time></trkpt><trkpt lat="44.354191918561476" lon="7.501453384645085"><ele>613.5</ele><time>2026-04-11T16:56:40Z</time></trkpt><trkpt lat="44.35416329672716" lon="7.50187151391593"><ele>613.0</ele><time>2026-04-11T16:56:41Z</time></trkpt><trkpt lat="44.35413520585733" lon="7.502285380839784"><ele>613.0</ele><time>2026-04-11T16:56:42Z</time></trkpt><trkpt lat="44.35410464880689" lon="7.502717315953322"><ele>613.0</ele><time>2026-04-11T16:56:43Z</time></trkpt><trkpt lat="44.35406334005127" lon="7.503134760780783"><ele>612.5</ele><time>2026-04-11T16:56:44Z</time></trkpt><trkpt lat="44.35402612727777" lon="7.503564477082267"><ele>612.0</ele><time>2026-04-11T16:56:45Z</time></trkpt><trkpt lat="44.353988546458744" lon="7.503989419812124"><ele>611.5</ele><time>2026-04-11T16:56:46Z</time></trkpt><trkpt lat="44.353951113518605" lon="7.504419531866081"><ele>611.0</ele><time>2026-04-11T16:56:47Z</time></trkpt><trkpt lat="44.35392255307971" lon="7.504843648213825"><ele>610.0</ele><time>2026-04-11T16:56:48Z</time></trkpt><trkpt lat="44.35389613366577" lon="7.505259810721576"><ele>609.0</ele><time>2026-04-11T16:56:49Z</time></trkpt><trkpt lat="44.35386991541133" lon="7.505682022462588"><ele>608.0</ele><time>2026-04-11T16:56:50Z</time></trkpt><trkpt lat="44.35385120091419" lon="7.506124868391557"><ele>607.0</ele><time>2026-04-11T16:56:51Z</time></trkpt><trkpt lat="44.35383370656019" lon="7.506569062427653"><ele>607.0</ele><time>2026-04-11T16:56:52Z</time></trkpt><trkpt lat="44.35381541621576" lon="7.506998155511702"><ele>607.0</ele><time>2026-04-11T16:56:53Z</time></trkpt><trkpt lat="44.353799592687764" lon="7.507406645341169"><ele>607.0</ele><time>2026-04-11T16:56:54Z</time></trkpt><trkpt lat="44.353780093373636" lon="7.5077809911632745"><ele>607.0</ele><time>2026-04-11T16:56:55Z</time></trkpt><trkpt lat="44.353764588452925" lon="7.508114867299973"><ele>607.0</ele><time>2026-04-11T16:56:56Z</time></trkpt><trkpt lat="44.35375223711503" lon="7.508432245051849"><ele>607.0</ele><time>2026-04-11T16:56:57Z</time></trkpt><trkpt lat="44.353740324630046" lon="7.508731054103867"><ele>607.0</ele><time>2026-04-11T16:56:58Z</time></trkpt><trkpt lat="44.353726610685605" lon="7.509008918860393"><ele>606.6666666666667</ele><time>2026-04-11T16:56:59Z</time></trkpt><trkpt lat="44.35371020842747" lon="7.509262684130787"><ele>606.3333333333334</ele><time>2026-04-11T16:57:00Z</time></trkpt><trkpt lat="44.35369641714758" lon="7.509498394222216"><ele>606.0</ele><time>2026-04-11T16:57:01Z</time></trkpt><trkpt lat="44.35369268786521" lon="7.509722943201082"><ele>605.75</ele><time>2026-04-11T16:57:02Z</time></trkpt><trkpt lat="44.353697685053234" lon="7.5099369530342175"><ele>605.5</ele><time>2026-04-11T16:57:03Z</time></trkpt><trkpt lat="44.35370737390603" lon="7.510129710304888"><ele>605.25</ele><time>2026-04-11T16:57:04Z</time></trkpt><trkpt lat="44.353706694309714" lon="7.510288733601339"><ele>605.0</ele><time>2026-04-11T16:57:05Z</time></trkpt><trkpt lat="44.35369664546624" lon="7.510427674018248"><ele>604.8333333333333</ele><time>2026-04-11T16:57:06Z</time></trkpt><trkpt lat="44.35367949986246" lon="7.510560719873594"><ele>604.6666666666666</ele><time>2026-04-11T16:57:07Z</time></trkpt><trkpt lat="44.35365660412315" lon="7.510669098279192"><ele>604.5</ele><time>2026-04-11T16:57:08Z</time></trkpt><trkpt lat="44.35362318052615" lon="7.510747613174674"><ele>604.3333333333334</ele><time>2026-04-11T16:57:09Z</time></trkpt><trkpt lat="44.353568289143396" lon="7.510851877415814"><ele>604.1666666666667</ele><time>2026-04-11T16:57:10Z</time></trkpt><trkpt lat="44.35352009592384" lon="7.510967454382182"><ele>604.0</ele><time>2026-04-11T16:57:11Z</time></trkpt><trkpt lat="44.3534901413726" lon="7.511100981196783"><ele>604.0</ele><time>2026-04-11T16:57:12Z</time></trkpt><trkpt lat="44.35348319391049" lon="7.511220382450208"><ele>604.0</ele><time>2026-04-11T16:57:13Z</time></trkpt><trkpt lat="44.35350238016191" lon="7.511339635948163"><ele>604.0</ele><time>2026-04-11T16:57:14Z</time></trkpt><trkpt lat="44.35354609744283" lon="7.511433975488013"><ele>604.0</ele><time>2026-04-11T16:57:15Z</time></trkpt><trkpt lat="44.35360836063316" lon="7.51151120653526"><ele>604.0</ele><time>2026-04-11T16:57:16Z</time></trkpt><trkpt lat="44.35369262199794" lon="7.51157276771123"><ele>604.0</ele><time>2026-04-11T16:57:17Z</time></trkpt><trkpt lat="44.353786757270086" lon="7.511600723525354"><ele>603.4</ele><time>2026-04-11T16:57:18Z</time></trkpt><trkpt lat="44.353883019272615" lon="7.511597512049802"><ele>602.8</ele><time>2026-04-11T16:57:19Z</time></trkpt><trkpt lat="44.353987271039024" lon="7.5115849940707875"><ele>602.2</ele><time>2026-04-11T16:57:20Z</time></trkpt><trkpt lat="44.35410722861673" lon="7.511591324738174"><ele>601.6</ele><time>2026-04-11T16:57:21Z</time></trkpt><trkpt lat="44.35422851128919" lon="7.5116453136919015"><ele>601.0</ele><time>2026-04-11T16:57:22Z</time></trkpt><trkpt lat="44.354347826144696" lon="7.511756082175895"><ele>601.0</ele><time>2026-04-11T16:57:23Z</time></trkpt><trkpt lat="44.35446933523272" lon="7.51190005409521"><ele>601.0</ele><time>2026-04-11T16:57:24Z</time></trkpt><trkpt lat="44.354602727525226" lon="7.512050106863646"><ele>601.0</ele><time>2026-04-11T16:57:25Z</time></trkpt><trkpt lat="44.354736204884496" lon="7.512181231728708"><ele>601.0</ele><time>2026-04-11T16:57:26Z</time></trkpt><trkpt lat="44.35487619041591" lon="7.512319338182265"><ele>601.0</ele><time>2026-04-11T16:57:27Z</time></trkpt><trkpt lat="44.35504149813923" lon="7.512494831918554"><ele>601.0</ele><time>2026-04-11T16:57:28Z</time></trkpt><trkpt lat="44.35520881060096" lon="7.512666784479649"><ele>601.0</ele><time>2026-04-11T16:57:29Z</time></trkpt><trkpt lat="44.355378064046995" lon="7.512839312621403"><ele>601.0</ele><time>2026-04-11T16:57:30Z</time></trkpt><trkpt lat="44.355557705410455" lon="7.51301839663927"><ele>601.0</ele><time>2026-04-11T16:57:31Z</time></trkpt><trkpt lat="44.3557540926235" lon="7.513222955542367"><ele>600.5</ele><time>2026-04-11T16:57:32Z</time></trkpt><trkpt lat="44.35595159614159" lon="7.513433969386117"><ele>600.0</ele><time>2026-04-11T16:57:33Z</time></trkpt><trkpt lat="44.35613513829941" lon="7.513626800371615"><ele>600.0</ele><time>2026-04-11T16:57:34Z</time></trkpt><trkpt lat="44.35629392626925" lon="7.513793097365605"><ele>600.0</ele><time>2026-04-11T16:57:35Z</time></trkpt><trkpt lat="44.35644329307304" lon="7.513952650888715"><ele>600.0</ele><time>2026-04-11T16:57:36Z</time></trkpt><trkpt lat="44.356602293775325" lon="7.514109181797743"><ele>599.6666666666666</ele><time>2026-04-11T16:57:37Z</time></trkpt><trkpt lat="44.35677786164158" lon="7.514282881057797"><ele>599.3333333333333</ele><time>2026-04-11T16:57:38Z</time></trkpt><trkpt lat="44.356953831629134" lon="7.514461162310858"><ele>599.0</ele><time>2026-04-11T16:57:39Z</time></trkpt><trkpt lat="44.35713478683819" lon="7.514642884719254"><ele>598.0</ele><time>2026-04-11T16:57:40Z</time></trkpt><trkpt lat="44.35731465167621" lon="7.514827772372193"><ele>597.0</ele><time>2026-04-11T16:57:41Z</time></trkpt><trkpt lat="44.35750377300986" lon="7.515020498187952"><ele>597.0</ele><time>2026-04-11T16:57:42Z</time></trkpt><trkpt lat="44.357697789207485" lon="7.515217074612551"><ele>597.0</ele><time>2026-04-11T16:57:43Z</time></trkpt><trkpt lat="44.357872601420546" lon="7.515391549970934"><ele>596.6666666666666</ele><time>2026-04-11T16:57:44Z</time></trkpt><trkpt lat="44.35803669363845" lon="7.5155608332685055"><ele>596.3333333333333</ele><time>2026-04-11T16:57:45Z</time></trkpt><trkpt lat="44.358197167544326" lon="7.515734788249634"><ele>596.0</ele><time>2026-04-11T16:57:46Z</time></trkpt><trkpt lat="44.35834384733292" lon="7.515887749944061"><ele>596.0</ele><time>2026-04-11T16:57:47Z</time></trkpt><trkpt lat="44.35848965777526" lon="7.516040468849985"><ele>596.0</ele><time>2026-04-11T16:57:48Z</time></trkpt><trkpt lat="44.358638171356375" lon="7.516211393726648"><ele>596.0</ele><time>2026-04-11T16:57:49Z</time></trkpt><trkpt lat="44.35878603623707" lon="7.5163669818309"><ele>595.3333333333333</ele><time>2026-04-11T16:57:50Z</time></trkpt><trkpt lat="44.35892443939432" lon="7.51650557508325"><ele>594.6666666666666</ele><time>2026-04-11T16:57:51Z</time></trkpt><trkpt lat="44.35906266699843" lon="7.516647064133249"><ele>594.0</ele><time>2026-04-11T16:57:52Z</time></trkpt><trkpt lat="44.359203431716374" lon="7.516796498988418"><ele>594.0</ele><time>2026-04-11T16:57:53Z</time></trkpt><trkpt lat="44.359345288231616" lon="7.5169433707839906"><ele>594.0</ele><time>2026-04-11T16:57:54Z</time></trkpt><trkpt lat="44.35949650339695" lon="7.517089561633554"><ele>594.0</ele><time>2026-04-11T16:57:55Z</time></trkpt><trkpt lat="44.35964329892596" lon="7.517221923446777"><ele>594.0</ele><time>2026-04-11T16:57:56Z</time></trkpt><trkpt lat="44.359773274965114" lon="7.517342169351358"><ele>594.0</ele><time>2026-04-11T16:57:57Z</time></trkpt><trkpt lat="44.359890762374405" lon="7.517462623568207"><ele>594.0</ele><time>2026-04-11T16:57:58Z</time></trkpt><trkpt lat="44.36001840104096" lon="7.517591874229069"><ele>594.0</ele><time>2026-04-11T16:57:59Z</time></trkpt><trkpt lat="44.36014363012656" lon="7.517717004378965"><ele>594.0</ele><time>2026-04-11T16:58:00Z</time></trkpt><trkpt lat="44.360255675339715" lon="7.517834058980598"><ele>594.0</ele><time>2026-04-11T16:58:01Z</time></trkpt><trkpt lat="44.360354383185154" lon="7.517933373529132"><ele>594.0</ele><time>2026-04-11T16:58:02Z</time></trkpt><trkpt lat="44.36044901199235" lon="7.518032825336203"><ele>593.5</ele><time>2026-04-11T16:58:03Z</time></trkpt><trkpt lat="44.3605585552679" lon="7.518145199322025"><ele>593.0</ele><time>2026-04-11T16:58:04Z</time></trkpt><trkpt lat="44.360669027652406" lon="7.518266376874677"><ele>592.5</ele><time>2026-04-11T16:58:05Z</time></trkpt><trkpt lat="44.36077126387595" lon="7.518372889016218"><ele>592.0</ele><time>2026-04-11T16:58:06Z</time></trkpt><trkpt lat="44.36088548415549" lon="7.518482992954127"><ele>592.0</ele><time>2026-04-11T16:58:07Z</time></trkpt><trkpt lat="44.36102991317548" lon="7.518628619955874"><ele>592.0</ele><time>2026-04-11T16:58:08Z</time></trkpt><trkpt lat="44.36117437411681" lon="7.518783583401806"><ele>592.0</ele><time>2026-04-11T16:58:09Z</time></trkpt><trkpt lat="44.3612990587283" lon="7.518906904879223"><ele>590.3333333333334</ele><time>2026-04-11T16:58:10Z</time></trkpt><trkpt lat="44.36143203355696" lon="7.519044492680798"><ele>588.6666666666666</ele><time>2026-04-11T16:58:11Z</time></trkpt><trkpt lat="44.36157505426249" lon="7.519197141084095"><ele>587.0</ele><time>2026-04-11T16:58:12Z</time></trkpt><trkpt lat="44.36173316034219" lon="7.519364512818814"><ele>587.0</ele><time>2026-04-11T16:58:13Z</time></trkpt><trkpt lat="44.36191065806136" lon="7.519542489544771"><ele>587.0</ele><time>2026-04-11T16:58:14Z</time></trkpt><trkpt lat="44.36209754916274" lon="7.519736947617898"><ele>587.0</ele><time>2026-04-11T16:58:15Z</time></trkpt><trkpt lat="44.362282766435285" lon="7.51992880804195"><ele>587.0</ele><time>2026-04-11T16:58:16Z</time></trkpt><trkpt lat="44.36246994386513" lon="7.520118192248593"><ele>587.0</ele><time>2026-04-11T16:58:17Z</time></trkpt><trkpt lat="44.36266165516764" lon="7.520315849547904"><ele>587.0</ele><time>2026-04-11T16:58:18Z</time></trkpt><trkpt lat="44.36285885232672" lon="7.520518356638293"><ele>587.5</ele><time>2026-04-11T16:58:19Z</time></trkpt><trkpt lat="44.363055015065356" lon="7.5207193016082945"><ele>588.0</ele><time>2026-04-11T16:58:20Z</time></trkpt><trkpt lat="44.363233504724334" lon="7.520902051593186"><ele>588.0</ele><time>2026-04-11T16:58:20.999Z</time></trkpt><trkpt lat="44.36339212739488" lon="7.521064904558979"><ele>588.0</ele><time>2026-04-11T16:58:21.999Z</time></trkpt><trkpt lat="44.36353330436388" lon="7.521207948686347"><ele>588.0</ele><time>2026-04-11T16:58:22.999Z</time></trkpt><trkpt lat="44.36366694288546" lon="7.521342417113503"><ele>587.25</ele><time>2026-04-11T16:58:23.999Z</time></trkpt><trkpt lat="44.363785723544524" lon="7.521473071051109"><ele>586.5</ele><time>2026-04-11T16:58:24.999Z</time></trkpt><trkpt lat="44.36389808044599" lon="7.521598074484723"><ele>585.75</ele><time>2026-04-11T16:58:25.999Z</time></trkpt><trkpt lat="44.36400585513615" lon="7.521713570744557"><ele>585.0</ele><time>2026-04-11T16:58:26.999Z</time></trkpt><trkpt lat="44.364109984123964" lon="7.521813707670583"><ele>585.0</ele><time>2026-04-11T16:58:27.999Z</time></trkpt><trkpt lat="44.36420896437701" lon="7.52190485013972"><ele>585.0</ele><time>2026-04-11T16:58:28.999Z</time></trkpt><trkpt lat="44.36430085876386" lon="7.521990732368257"><ele>585.0</ele><time>2026-04-11T16:58:29.999Z</time></trkpt><trkpt lat="44.36438546760025" lon="7.522075987130878"><ele>585.0</ele><time>2026-04-11T16:58:30.999Z</time></trkpt><trkpt lat="44.36446926855423" lon="7.522149678137498"><ele>585.0</ele><time>2026-04-11T16:58:31.999Z</time></trkpt><trkpt lat="44.364535156207026" lon="7.522243854800935"><ele>585.0</ele><time>2026-04-11T16:58:33Z</time></trkpt><trkpt lat="44.364608865023406" lon="7.522318784084969"><ele>585.0</ele><time>2026-04-11T16:58:34Z</time></trkpt><trkpt lat="44.36468410369137" lon="7.5223766524348905"><ele>585.0</ele><time>2026-04-11T16:58:35Z</time></trkpt><trkpt lat="44.36475006723973" lon="7.522441805274796"><ele>585.0</ele><time>2026-04-11T16:58:36Z</time></trkpt><trkpt lat="44.36480020873613" lon="7.522504083382386"><ele>585.0</ele><time>2026-04-11T16:58:37Z</time></trkpt><trkpt lat="44.364864771017174" lon="7.522574588929742"><ele>585.0</ele><time>2026-04-11T16:58:39Z</time></trkpt><trkpt lat="44.364947929051105" lon="7.522649379734292"><ele>585.0</ele><time>2026-04-11T16:59:03Z</time></trkpt><trkpt lat="44.36503071730211" lon="7.522728914626645"><ele>585.0</ele><time>2026-04-11T16:59:04Z</time></trkpt><trkpt lat="44.36511165304226" lon="7.522824463369526"><ele>585.0</ele><time>2026-04-11T16:59:05Z</time></trkpt><trkpt lat="44.365212540304064" lon="7.522941942243037"><ele>585.0</ele><time>2026-04-11T16:59:06Z</time></trkpt><trkpt lat="44.365345411410885" lon="7.523089365468252"><ele>584.0</ele><time>2026-04-11T16:59:07Z</time></trkpt><trkpt lat="44.365501913106655" lon="7.5232467444077935"><ele>583.0</ele><time>2026-04-11T16:59:08Z</time></trkpt><trkpt lat="44.36565261597976" lon="7.523400362241274"><ele>582.0</ele><time>2026-04-11T16:59:09Z</time></trkpt><trkpt lat="44.36581258095496" lon="7.523565227433093"><ele>582.0</ele><time>2026-04-11T16:59:10Z</time></trkpt><trkpt lat="44.36597431260465" lon="7.523730954253448"><ele>582.0</ele><time>2026-04-11T16:59:11Z</time></trkpt><trkpt lat="44.3661525710006" lon="7.523911786590086"><ele>582.0</ele><time>2026-04-11T16:59:12Z</time></trkpt><trkpt lat="44.366344329368324" lon="7.5241085915441515"><ele>581.0</ele><time>2026-04-11T16:59:13Z</time></trkpt><trkpt lat="44.36653658341129" lon="7.524304713711767"><ele>580.0</ele><time>2026-04-11T16:59:14Z</time></trkpt><trkpt lat="44.366732903554514" lon="7.524499785594844"><ele>579.6666666666667</ele><time>2026-04-11T16:59:15Z</time></trkpt><trkpt lat="44.36691950025253" lon="7.524682145443655"><ele>579.3333333333334</ele><time>2026-04-11T16:59:16Z</time></trkpt><trkpt lat="44.36706791655537" lon="7.524850682733567"><ele>579.0</ele><time>2026-04-11T16:59:17Z</time></trkpt><trkpt lat="44.36721040415043" lon="7.525000115117856"><ele>579.0</ele><time>2026-04-11T16:59:18Z</time></trkpt><trkpt lat="44.36735985125117" lon="7.5251331432822"><ele>579.0</ele><time>2026-04-11T16:59:19Z</time></trkpt><trkpt lat="44.36748339251753" lon="7.525266438702686"><ele>579.0</ele><time>2026-04-11T16:59:20Z</time></trkpt><trkpt lat="44.36761079241042" lon="7.525398046920349"><ele>578.5</ele><time>2026-04-11T16:59:21Z</time></trkpt><trkpt lat="44.36772938900086" lon="7.525529481911806"><ele>578.0</ele><time>2026-04-11T16:59:22Z</time></trkpt><trkpt lat="44.36783083688947" lon="7.525640002808919"><ele>577.5</ele><time>2026-04-11T16:59:23Z</time></trkpt><trkpt lat="44.367919611730606" lon="7.52571790616497"><ele>577.0</ele><time>2026-04-11T16:59:24Z</time></trkpt><trkpt lat="44.367996099349824" lon="7.525796388732369"><ele>577.2</ele><time>2026-04-11T16:59:25Z</time></trkpt><trkpt lat="44.36810271955885" lon="7.52578885796955"><ele>577.4000000000001</ele><time>2026-04-11T16:59:26Z</time></trkpt><trkpt lat="44.36818595384896" lon="7.525792709740832"><ele>577.5999999999999</ele><time>2026-04-11T16:59:27Z</time></trkpt><trkpt lat="44.36825960728922" lon="7.525814684052949"><ele>577.8</ele><time>2026-04-11T16:59:28Z</time></trkpt><trkpt lat="44.36832038289602" lon="7.525875601824643"><ele>578.0</ele><time>2026-04-11T16:59:29Z</time></trkpt><trkpt lat="44.3682889575266" lon="7.526095176840287"><ele>578.0</ele><time>2026-04-11T16:59:30Z</time></trkpt><trkpt lat="44.36841375493327" lon="7.526212448370242"><ele>578.0</ele><time>2026-04-11T16:59:32Z</time></trkpt><trkpt lat="44.36848997461741" lon="7.5263176111738455"><ele>578.0</ele><time>2026-04-11T16:59:33Z</time></trkpt><trkpt lat="44.3686000128196" lon="7.526416791064579"><ele>578.0</ele><time>2026-04-11T16:59:34Z</time></trkpt><trkpt lat="44.36873942707277" lon="7.52655625815639"><ele>577.6666666666666</ele><time>2026-04-11T16:59:35Z</time></trkpt><trkpt lat="44.36890441721478" lon="7.526725478130638"><ele>577.3333333333334</ele><time>2026-04-11T16:59:36Z</time></trkpt><trkpt lat="44.369092478338814" lon="7.526921651467631"><ele>577.0</ele><time>2026-04-11T16:59:37Z</time></trkpt><trkpt lat="44.369284277125224" lon="7.527114435956612"><ele>576.3333333333334</ele><time>2026-04-11T16:59:38Z</time></trkpt><trkpt lat="44.369455965902915" lon="7.527289150346132"><ele>575.6666666666666</ele><time>2026-04-11T16:59:39Z</time></trkpt><trkpt lat="44.36962802046298" lon="7.5274712787785"><ele>575.0</ele><time>2026-04-11T16:59:40Z</time></trkpt><trkpt lat="44.36981191293524" lon="7.527655126798851"><ele>575.0</ele><time>2026-04-11T16:59:41Z</time></trkpt><trkpt lat="44.36999922349967" lon="7.527850744477707"><ele>575.0</ele><time>2026-04-11T16:59:42Z</time></trkpt><trkpt lat="44.37014711798377" lon="7.527991605322123"><ele>575.0</ele><time>2026-04-11T16:59:43Z</time></trkpt><trkpt lat="44.370286509644714" lon="7.528130204772569"><ele>575.0</ele><time>2026-04-11T16:59:44Z</time></trkpt><trkpt lat="44.37043533342689" lon="7.528279174735578"><ele>575.0</ele><time>2026-04-11T16:59:45Z</time></trkpt><trkpt lat="44.37058499895322" lon="7.528438605901074"><ele>575.0</ele><time>2026-04-11T16:59:46Z</time></trkpt><trkpt lat="44.37072548280436" lon="7.528580155555285"><ele>575.0</ele><time>2026-04-11T16:59:47Z</time></trkpt><trkpt lat="44.37085528856303" lon="7.5287061645020845"><ele>575.0</ele><time>2026-04-11T16:59:48Z</time></trkpt><trkpt lat="44.370973994616556" lon="7.528825666867221"><ele>575.0</ele><time>2026-04-11T16:59:49Z</time></trkpt><trkpt lat="44.371085583672915" lon="7.528936479043022"><ele>575.0</ele><time>2026-04-11T16:59:50Z</time></trkpt><trkpt lat="44.371189009512236" lon="7.529046880704062"><ele>574.8</ele><time>2026-04-11T16:59:51Z</time></trkpt><trkpt lat="44.37128528954976" lon="7.529151528855715"><ele>574.6</ele><time>2026-04-11T16:59:52Z</time></trkpt><trkpt lat="44.37136635694267" lon="7.529230825289815"><ele>574.4</ele><time>2026-04-11T16:59:53Z</time></trkpt><trkpt lat="44.37142997271702" lon="7.5292946736820925"><ele>574.2</ele><time>2026-04-11T16:59:54Z</time></trkpt><trkpt lat="44.37153115072011" lon="7.529396037392585"><ele>574.0</ele><time>2026-04-11T16:59:56Z</time></trkpt><trkpt lat="44.37161747051881" lon="7.529481911004786"><ele>573.4</ele><time>2026-04-11T16:59:58Z</time></trkpt><trkpt lat="44.37169026019985" lon="7.529561333088551"><ele>572.8</ele><time>2026-04-11T17:00:00Z</time></trkpt><trkpt lat="44.37172951955311" lon="7.5296804717864205"><ele>572.2</ele><time>2026-04-11T17:00:02Z</time></trkpt><trkpt lat="44.37176869506896" lon="7.529804695978289"><ele>571.6</ele><time>2026-04-11T17:00:04Z</time></trkpt><trkpt lat="44.37186916891706" lon="7.5298522496988936"><ele>571.0</ele><time>2026-04-11T17:00:06Z</time></trkpt><trkpt lat="44.37194499965002" lon="7.529870715048829"><ele>571.0</ele><time>2026-04-11T17:00:07Z</time></trkpt><trkpt lat="44.372040149443244" lon="7.529925145200444"><ele>571.0</ele><time>2026-04-11T17:00:08Z</time></trkpt><trkpt lat="44.37212978719606" lon="7.530023328102307"><ele>571.0</ele><time>2026-04-11T17:00:09Z</time></trkpt><trkpt lat="44.37224541363391" lon="7.53015834126795"><ele>571.0</ele><time>2026-04-11T17:00:10Z</time></trkpt><trkpt lat="44.37237843004491" lon="7.530291054238104"><ele>570.3333333333334</ele><time>2026-04-11T17:00:11Z</time></trkpt><trkpt lat="44.37251685738871" lon="7.530422872443768"><ele>569.6666666666666</ele><time>2026-04-11T17:00:12Z</time></trkpt><trkpt lat="44.372671175279216" lon="7.53056841791932"><ele>569.0</ele><time>2026-04-11T17:00:13Z</time></trkpt><trkpt lat="44.3728235100104" lon="7.530710147815359"><ele>569.0</ele><time>2026-04-11T17:00:14Z</time></trkpt><trkpt lat="44.37294495376598" lon="7.5308363352939365"><ele>569.0</ele><time>2026-04-11T17:00:15Z</time></trkpt><trkpt lat="44.373046881094375" lon="7.5309659464414755"><ele>569.0</ele><time>2026-04-11T17:00:16Z</time></trkpt><trkpt lat="44.37316375005519" lon="7.531086666492788"><ele>569.0</ele><time>2026-04-11T17:00:17Z</time></trkpt><trkpt lat="44.37328408076021" lon="7.531211171465534"><ele>568.75</ele><time>2026-04-11T17:00:18Z</time></trkpt><trkpt lat="44.373401446286486" lon="7.531332608533438"><ele>568.5</ele><time>2026-04-11T17:00:19Z</time></trkpt><trkpt lat="44.373510701668664" lon="7.53142407156882"><ele>568.25</ele><time>2026-04-11T17:00:20Z</time></trkpt><trkpt lat="44.37359018857895" lon="7.531522644851224"><ele>568.0</ele><time>2026-04-11T17:00:21Z</time></trkpt><trkpt lat="44.373677568333804" lon="7.531602458016944"><ele>568.0</ele><time>2026-04-11T17:00:22Z</time></trkpt><trkpt lat="44.37376364904608" lon="7.53168814240232"><ele>568.0</ele><time>2026-04-11T17:00:23Z</time></trkpt><trkpt lat="44.373852781442565" lon="7.531786811768902"><ele>568.0</ele><time>2026-04-11T17:00:24Z</time></trkpt><trkpt lat="44.373942257286004" lon="7.531882026373495"><ele>568.0</ele><time>2026-04-11T17:00:25Z</time></trkpt><trkpt lat="44.374021368059964" lon="7.531967188283262"><ele>568.0</ele><time>2026-04-11T17:00:26Z</time></trkpt><trkpt lat="44.374088179843625" lon="7.532034993662361"><ele>567.6666666666667</ele><time>2026-04-11T17:00:27Z</time></trkpt><trkpt lat="44.374164455869284" lon="7.532121316988255"><ele>567.3333333333334</ele><time>2026-04-11T17:00:29Z</time></trkpt><trkpt lat="44.37422381862415" lon="7.53220548014753"><ele>567.0</ele><time>2026-04-11T17:00:32Z</time></trkpt><trkpt lat="44.37425054836156" lon="7.532294929323709"><ele>566.6666666666666</ele><time>2026-04-11T17:00:33Z</time></trkpt><trkpt lat="44.3742878234842" lon="7.532369924469323"><ele>566.3333333333333</ele><time>2026-04-11T17:00:34Z</time></trkpt><trkpt lat="44.37435930352651" lon="7.532408478923886"><ele>566.0</ele><time>2026-04-11T17:00:35Z</time></trkpt><trkpt lat="44.37444570692083" lon="7.532442454290268"><ele>566.0</ele><time>2026-04-11T17:00:36Z</time></trkpt><trkpt lat="44.37455687214864" lon="7.532523195518958"><ele>566.0</ele><time>2026-04-11T17:00:37Z</time></trkpt><trkpt lat="44.37469173662047" lon="7.5326511903642634"><ele>566.0</ele><time>2026-04-11T17:00:38Z</time></trkpt><trkpt lat="44.37484696393085" lon="7.532807193210767"><ele>565.6666666666666</ele><time>2026-04-11T17:00:39Z</time></trkpt><trkpt lat="44.37499772436065" lon="7.532963910536913"><ele>565.3333333333334</ele><time>2026-04-11T17:00:40Z</time></trkpt><trkpt lat="44.375132706511415" lon="7.533100999887311"><ele>565.0</ele><time>2026-04-11T17:00:41Z</time></trkpt><trkpt lat="44.37525461057736" lon="7.533235410307463"><ele>565.0</ele><time>2026-04-11T17:00:42Z</time></trkpt><trkpt lat="44.37537875396114" lon="7.5333735854570785"><ele>565.0</ele><time>2026-04-11T17:00:43Z</time></trkpt><trkpt lat="44.375511243583794" lon="7.533503980112368"><ele>565.0</ele><time>2026-04-11T17:00:44Z</time></trkpt><trkpt lat="44.37563937837553" lon="7.533629267075401"><ele>564.0</ele><time>2026-04-11T17:00:45Z</time></trkpt><trkpt lat="44.375773456296436" lon="7.533763310207609"><ele>563.0</ele><time>2026-04-11T17:00:46Z</time></trkpt><trkpt lat="44.37591436609221" lon="7.533918705688555"><ele>562.0</ele><time>2026-04-11T17:00:47Z</time></trkpt><trkpt lat="44.376032951190396" lon="7.534071701411684"><ele>562.0</ele><time>2026-04-11T17:00:48Z</time></trkpt><trkpt lat="44.37615084471106" lon="7.534195059521958"><ele>562.0</ele><time>2026-04-11T17:00:49Z</time></trkpt><trkpt lat="44.376294199178545" lon="7.5343219930049194"><ele>562.0</ele><time>2026-04-11T17:00:50Z</time></trkpt><trkpt lat="44.37645338157429" lon="7.534469921990248"><ele>562.5</ele><time>2026-04-11T17:00:51Z</time></trkpt><trkpt lat="44.37659543144042" lon="7.5346183107846905"><ele>563.0</ele><time>2026-04-11T17:00:52Z</time></trkpt><trkpt lat="44.376704726077946" lon="7.534745658464101"><ele>563.5</ele><time>2026-04-11T17:00:53Z</time></trkpt><trkpt lat="44.37678024008342" lon="7.534843762289413"><ele>564.0</ele><time>2026-04-11T17:00:54Z</time></trkpt><trkpt lat="44.376844978537" lon="7.534953784688445"><ele>564.0</ele><time>2026-04-11T17:00:55Z</time></trkpt><trkpt lat="44.376892079059246" lon="7.53507123481242"><ele>564.0</ele><time>2026-04-11T17:00:56Z</time></trkpt><trkpt lat="44.37695016774694" lon="7.535160358652322"><ele>564.0</ele><time>2026-04-11T17:00:57Z</time></trkpt><trkpt lat="44.37701948106648" lon="7.535223005919494"><ele>564.0</ele><time>2026-04-11T17:00:58Z</time></trkpt><trkpt lat="44.37708970952321" lon="7.535269176583283"><ele>564.0</ele><time>2026-04-11T17:00:59Z</time></trkpt><trkpt lat="44.37716776316103" lon="7.535303169481562"><ele>564.0</ele><time>2026-04-11T17:01:00Z</time></trkpt><trkpt lat="44.377259806487444" lon="7.535367442354625"><ele>563.25</ele><time>2026-04-11T17:01:01Z</time></trkpt><trkpt lat="44.3773698721513" lon="7.535460220016819"><ele>562.5</ele><time>2026-04-11T17:01:02Z</time></trkpt><trkpt lat="44.37749625399957" lon="7.535584277146785"><ele>561.75</ele><time>2026-04-11T17:01:03Z</time></trkpt><trkpt lat="44.377619565188816" lon="7.535715601592513"><ele>561.0</ele><time>2026-04-11T17:01:04Z</time></trkpt><trkpt lat="44.37772061135459" lon="7.53581979748021"><ele>561.0</ele><time>2026-04-11T17:01:05Z</time></trkpt><trkpt lat="44.37779392888539" lon="7.535899480966326"><ele>561.0</ele><time>2026-04-11T17:01:06Z</time></trkpt><trkpt lat="44.37786689125544" lon="7.536004205005589"><ele>561.0</ele><time>2026-04-11T17:01:08Z</time></trkpt><trkpt lat="44.37791478852376" lon="7.536103452342375"><ele>561.0</ele><time>2026-04-11T17:01:10Z</time></trkpt><trkpt lat="44.37800345713014" lon="7.536180065663085"><ele>561.0</ele><time>2026-04-11T17:01:12Z</time></trkpt><trkpt lat="44.37810427336899" lon="7.536210333906879"><ele>561.2</ele><time>2026-04-11T17:01:14Z</time></trkpt><trkpt lat="44.378199330441696" lon="7.536269501562698"><ele>561.4000000000001</ele><time>2026-04-11T17:01:16Z</time></trkpt><trkpt lat="44.37826521607041" lon="7.5363282165899825"><ele>561.6</ele><time>2026-04-11T17:01:17Z</time></trkpt><trkpt lat="44.378343778788796" lon="7.53640074390862"><ele>561.8000000000001</ele><time>2026-04-11T17:01:18Z</time></trkpt><trkpt lat="44.37842995618493" lon="7.536479109662316"><ele>562.0</ele><time>2026-04-11T17:01:19Z</time></trkpt><trkpt lat="44.378503604069" lon="7.536581487917848"><ele>562.0</ele><time>2026-04-11T17:01:20Z</time></trkpt><trkpt lat="44.37857872852694" lon="7.53665821762899"><ele>562.0</ele><time>2026-04-11T17:01:21Z</time></trkpt><trkpt lat="44.37865347931706" lon="7.536733904294553"><ele>562.0</ele><time>2026-04-11T17:01:22Z</time></trkpt><trkpt lat="44.37872138448101" lon="7.5368026597036595"><ele>562.0</ele><time>2026-04-11T17:01:23Z</time></trkpt><trkpt lat="44.37877271791408" lon="7.536854635667023"><ele>562.0</ele><time>2026-04-11T17:01:24Z</time></trkpt><trkpt lat="44.378823799824566" lon="7.536906356851053"><ele>562.0</ele><time>2026-04-11T17:01:25Z</time></trkpt><trkpt lat="44.3789174011866" lon="7.5370032879450655"><ele>562.0</ele><time>2026-04-11T17:01:27Z</time></trkpt><trkpt lat="44.37902176685729" lon="7.537104612084312"><ele>562.0</ele><time>2026-04-11T17:01:29Z</time></trkpt><trkpt lat="44.37908359058585" lon="7.537161932659638"><ele>562.0</ele><time>2026-04-11T17:01:30Z</time></trkpt><trkpt lat="44.37916368174039" lon="7.537197807434883"><ele>562.0</ele><time>2026-04-11T17:01:31Z</time></trkpt><trkpt lat="44.3792237935276" lon="7.537257157039008"><ele>562.0</ele><time>2026-04-11T17:01:32Z</time></trkpt><trkpt lat="44.37927956574984" lon="7.537312804354074"><ele>562.0</ele><time>2026-04-11T17:01:33Z</time></trkpt><trkpt lat="44.37934602048594" lon="7.5373752031044035"><ele>562.0000000000001</ele><time>2026-04-11T17:01:34Z</time></trkpt><trkpt lat="44.37939880311518" lon="7.537424162617728"><ele>562.0</ele><time>2026-04-11T17:01:35Z</time></trkpt><trkpt lat="44.379454169378455" lon="7.537483464543059"><ele>562.0</ele><time>2026-04-11T17:01:36Z</time></trkpt><trkpt lat="44.37948833619066" lon="7.537588360596054"><ele>562.0</ele><time>2026-04-11T17:01:37Z</time></trkpt><trkpt lat="44.37954243301859" lon="7.537641176150457"><ele>562.0</ele><time>2026-04-11T17:01:38Z</time></trkpt><trkpt lat="44.379599429079875" lon="7.537699126393646"><ele>562.0000000000001</ele><time>2026-04-11T17:01:39Z</time></trkpt><trkpt lat="44.37966956358806" lon="7.537771345530332"><ele>562.0</ele><time>2026-04-11T17:01:41Z</time></trkpt><trkpt lat="44.379754840648616" lon="7.537859157256828"><ele>562.2</ele><time>2026-04-11T17:01:44Z</time></trkpt><trkpt lat="44.37982733943555" lon="7.537933810909303"><ele>562.4000000000001</ele><time>2026-04-11T17:01:45Z</time></trkpt><trkpt lat="44.37993630948484" lon="7.538019771301174"><ele>562.5999999999999</ele><time>2026-04-11T17:01:46Z</time></trkpt><trkpt lat="44.380031203367274" lon="7.538124682203305"><ele>562.8</ele><time>2026-04-11T17:01:47Z</time></trkpt><trkpt lat="44.380105560441926" lon="7.538200968500244"><ele>563.0</ele><time>2026-04-11T17:01:48Z</time></trkpt><trkpt lat="44.380162535828546" lon="7.538268642304335"><ele>563.0</ele><time>2026-04-11T17:01:49Z</time></trkpt><trkpt lat="44.38023246414604" lon="7.53833078834018"><ele>563.0</ele><time>2026-04-11T17:01:50Z</time></trkpt><trkpt lat="44.38031242979597" lon="7.538411325659196"><ele>563.0</ele><time>2026-04-11T17:01:51Z</time></trkpt><trkpt lat="44.38042474401372" lon="7.53852219937273"><ele>563.0</ele><time>2026-04-11T17:01:52Z</time></trkpt><trkpt lat="44.38053436204237" lon="7.538649854207544"><ele>562.4</ele><time>2026-04-11T17:01:53Z</time></trkpt><trkpt lat="44.38064055753042" lon="7.538752098131711"><ele>561.8</ele><time>2026-04-11T17:01:54Z</time></trkpt><trkpt lat="44.380733287738316" lon="7.538854674886324"><ele>561.2</ele><time>2026-04-11T17:01:55Z</time></trkpt><trkpt lat="44.38080676703633" lon="7.53893344542345"><ele>560.6</ele><time>2026-04-11T17:01:56Z</time></trkpt><trkpt lat="44.380867019794394" lon="7.538992505789716"><ele>560.0</ele><time>2026-04-11T17:01:57Z</time></trkpt><trkpt lat="44.38092188578483" lon="7.539049274081723"><ele>560.0</ele><time>2026-04-11T17:01:58Z</time></trkpt><trkpt lat="44.38100902494942" lon="7.539139057317406"><ele>560.0</ele><time>2026-04-11T17:02:00Z</time></trkpt><trkpt lat="44.38109679557519" lon="7.539242135383903"><ele>560.0</ele><time>2026-04-11T17:02:02Z</time></trkpt><trkpt lat="44.38115570667814" lon="7.539305922788555"><ele>560.0</ele><time>2026-04-11T17:02:04Z</time></trkpt><trkpt lat="44.38124676842591" lon="7.5393746352092945"><ele>560.0</ele><time>2026-04-11T17:02:18Z</time></trkpt><trkpt lat="44.38134880467208" lon="7.539490956362322"><ele>559.8</ele><time>2026-04-11T17:02:19Z</time></trkpt><trkpt lat="44.38147464966227" lon="7.539619636315371"><ele>559.6</ele><time>2026-04-11T17:02:20Z</time></trkpt><trkpt lat="44.38153096350455" lon="7.539668974569568"><ele>559.4</ele><time>2026-04-11T17:02:23Z</time></trkpt><trkpt lat="44.38158048310299" lon="7.539735534162395"><ele>559.2</ele><time>2026-04-11T17:02:24Z</time></trkpt><trkpt lat="44.381646911843326" lon="7.539798743030423"><ele>559.0</ele><time>2026-04-11T17:02:25Z</time></trkpt><trkpt lat="44.381709330558145" lon="7.539869812363857"><ele>559.0</ele><time>2026-04-11T17:02:26Z</time></trkpt><trkpt lat="44.381770905484075" lon="7.539934872578261"><ele>559.0</ele><time>2026-04-11T17:02:27Z</time></trkpt><trkpt lat="44.38182879421147" lon="7.5399884339059815"><ele>559.0</ele><time>2026-04-11T17:02:28Z</time></trkpt><trkpt lat="44.38187801888703" lon="7.5400434563732555"><ele>559.0</ele><time>2026-04-11T17:02:29Z</time></trkpt><trkpt lat="44.381936882704714" lon="7.540110657014018"><ele>559.0</ele><time>2026-04-11T17:02:30Z</time></trkpt><trkpt lat="44.381995003403006" lon="7.540160047924714"><ele>559.0</ele><time>2026-04-11T17:02:31Z</time></trkpt><trkpt lat="44.38205726840486" lon="7.540217050208563"><ele>559.0</ele><time>2026-04-11T17:02:32Z</time></trkpt><trkpt lat="44.38212712780481" lon="7.540301351384421"><ele>558.6</ele><time>2026-04-11T17:02:33Z</time></trkpt><trkpt lat="44.3822211883279" lon="7.540389521479333"><ele>558.2</ele><time>2026-04-11T17:02:34Z</time></trkpt><trkpt lat="44.382308525658225" lon="7.540479043053391"><ele>557.8000000000001</ele><time>2026-04-11T17:02:35Z</time></trkpt><trkpt lat="44.38238941123169" lon="7.540558352159048"><ele>557.4</ele><time>2026-04-11T17:02:36Z</time></trkpt><trkpt lat="44.38246586590577" lon="7.540650349135711"><ele>557.0</ele><time>2026-04-11T17:02:37Z</time></trkpt><trkpt lat="44.38254974872901" lon="7.540728814400097"><ele>557.0</ele><time>2026-04-11T17:02:38Z</time></trkpt><trkpt lat="44.382631764134324" lon="7.540803635093475"><ele>557.0</ele><time>2026-04-11T17:02:39Z</time></trkpt><trkpt lat="44.382713575612975" lon="7.540890268540894"><ele>557.0</ele><time>2026-04-11T17:02:40Z</time></trkpt><trkpt lat="44.38279409740112" lon="7.540975924437019"><ele>557.0</ele><time>2026-04-11T17:02:41Z</time></trkpt><trkpt lat="44.38287120698482" lon="7.541060229715884"><ele>557.0</ele><time>2026-04-11T17:02:42Z</time></trkpt><trkpt lat="44.38295262025906" lon="7.541131423280498"><ele>557.0</ele><time>2026-04-11T17:02:42.999Z</time></trkpt><trkpt lat="44.383006170677874" lon="7.5412117432003845"><ele>557.0</ele><time>2026-04-11T17:02:43.999Z</time></trkpt><trkpt lat="44.38307726030995" lon="7.541292273806485"><ele>557.0</ele><time>2026-04-11T17:02:45Z</time></trkpt><trkpt lat="44.383154410472216" lon="7.541360783841446"><ele>557.0</ele><time>2026-04-11T17:02:46Z</time></trkpt><trkpt lat="44.38323379702413" lon="7.541441353915776"><ele>557.0</ele><time>2026-04-11T17:02:47Z</time></trkpt><trkpt lat="44.383324773787926" lon="7.541529726173079"><ele>556.5</ele><time>2026-04-11T17:02:48Z</time></trkpt><trkpt lat="44.383408566697675" lon="7.541626769746726"><ele>556.0</ele><time>2026-04-11T17:02:49Z</time></trkpt><trkpt lat="44.383498961812066" lon="7.541725256537981"><ele>555.5</ele><time>2026-04-11T17:02:50Z</time></trkpt><trkpt lat="44.383583531032315" lon="7.541830824043154"><ele>555.0</ele><time>2026-04-11T17:02:51Z</time></trkpt><trkpt lat="44.38367236527911" lon="7.5419295078474935"><ele>555.0</ele><time>2026-04-11T17:02:52Z</time></trkpt><trkpt lat="44.38376168968686" lon="7.542018761849722"><ele>555.0</ele><time>2026-04-11T17:02:53Z</time></trkpt><trkpt lat="44.383838203333084" lon="7.542100730472059"><ele>555.0</ele><time>2026-04-11T17:02:54Z</time></trkpt><trkpt lat="44.38391837248625" lon="7.5421903958209064"><ele>555.0</ele><time>2026-04-11T17:02:55Z</time></trkpt><trkpt lat="44.3840068073509" lon="7.542283699564027"><ele>555.0</ele><time>2026-04-11T17:02:56Z</time></trkpt><trkpt lat="44.38409209491803" lon="7.5423716755421015"><ele>554.8</ele><time>2026-04-11T17:02:57Z</time></trkpt><trkpt lat="44.38417377994301" lon="7.542455447558881"><ele>554.6</ele><time>2026-04-11T17:02:58Z</time></trkpt><trkpt lat="44.38425688875914" lon="7.542537997120991"><ele>554.4</ele><time>2026-04-11T17:02:59Z</time></trkpt><trkpt lat="44.38434943755344" lon="7.542613773611737"><ele>554.2</ele><time>2026-04-11T17:03:00Z</time></trkpt><trkpt lat="44.38443194711866" lon="7.542683371882097"><ele>554.0</ele><time>2026-04-11T17:03:01Z</time></trkpt><trkpt lat="44.384500068192494" lon="7.542741577144156"><ele>554.0</ele><time>2026-04-11T17:03:03Z</time></trkpt><trkpt lat="44.3845924934993" lon="7.542830010106156"><ele>554.0</ele><time>2026-04-11T17:03:05Z</time></trkpt><trkpt lat="44.38466320657365" lon="7.542888454734048"><ele>554.0</ele><time>2026-04-11T17:03:06Z</time></trkpt><trkpt lat="44.38476371897306" lon="7.542978594631095"><ele>554.0</ele><time>2026-04-11T17:03:07Z</time></trkpt><trkpt lat="44.3848916651725" lon="7.543114428018017"><ele>553.5</ele><time>2026-04-11T17:03:08Z</time></trkpt><trkpt lat="44.3850409779528" lon="7.543257576200984"><ele>553.0</ele><time>2026-04-11T17:03:09Z</time></trkpt><trkpt lat="44.385146114796264" lon="7.543375648491712"><ele>552.5</ele><time>2026-04-11T17:03:10Z</time></trkpt><trkpt lat="44.38522321206647" lon="7.543462150986516"><ele>552.0</ele><time>2026-04-11T17:03:11Z</time></trkpt><trkpt lat="44.38528992956806" lon="7.543534015822914"><ele>552.0</ele><time>2026-04-11T17:03:12Z</time></trkpt><trkpt lat="44.38534426308417" lon="7.543589121882881"><ele>552.0</ele><time>2026-04-11T17:03:13Z</time></trkpt><trkpt lat="44.385406582948185" lon="7.543651931443998"><ele>552.0</ele><time>2026-04-11T17:03:14Z</time></trkpt><trkpt lat="44.38548867654519" lon="7.543738271437865"><ele>552.0</ele><time>2026-04-11T17:03:15Z</time></trkpt><trkpt lat="44.385585995961314" lon="7.543823353045464"><ele>552.0</ele><time>2026-04-11T17:03:16Z</time></trkpt><trkpt lat="44.385696696150106" lon="7.543938929371655"><ele>551.8000000000001</ele><time>2026-04-11T17:03:17Z</time></trkpt><trkpt lat="44.38580393540182" lon="7.544053811153417"><ele>551.6</ele><time>2026-04-11T17:03:18Z</time></trkpt><trkpt lat="44.38588690767271" lon="7.544139264343404"><ele>551.4000000000001</ele><time>2026-04-11T17:03:19Z</time></trkpt><trkpt lat="44.38595036232796" lon="7.54420662834661"><ele>551.2</ele><time>2026-04-11T17:03:20Z</time></trkpt><trkpt lat="44.38601792739696" lon="7.544280730745084"><ele>551.0</ele><time>2026-04-11T17:03:22Z</time></trkpt><trkpt lat="44.38608478099453" lon="7.544369177004477"><ele>551.0</ele><time>2026-04-11T17:03:24Z</time></trkpt><trkpt lat="44.38617990639688" lon="7.544447645935208"><ele>551.0</ele><time>2026-04-11T17:03:26Z</time></trkpt><trkpt lat="44.386243322572334" lon="7.544501832117037"><ele>551.0</ele><time>2026-04-11T17:03:28Z</time></trkpt><trkpt lat="44.38631196201991" lon="7.544561933950821"><ele>551.0</ele><time>2026-04-11T17:03:32Z</time></trkpt><trkpt lat="44.386357983619334" lon="7.54463763190648"><ele>551.0</ele><time>2026-04-11T17:03:33Z</time></trkpt><trkpt lat="44.38641375496451" lon="7.544694973966405"><ele>551.0</ele><time>2026-04-11T17:03:34Z</time></trkpt><trkpt lat="44.38646502377663" lon="7.544747686840134"><ele>550.4</ele><time>2026-04-11T17:03:35Z</time></trkpt><trkpt lat="44.38652483498848" lon="7.544789011419965"><ele>549.8</ele><time>2026-04-11T17:03:36Z</time></trkpt><trkpt lat="44.386606689960765" lon="7.544872461247578"><ele>549.1999999999999</ele><time>2026-04-11T17:03:37Z</time></trkpt><trkpt lat="44.38670355778715" lon="7.544978709023606"><ele>548.6</ele><time>2026-04-11T17:03:38Z</time></trkpt><trkpt lat="44.38680228556033" lon="7.545086774855565"><ele>548.0</ele><time>2026-04-11T17:03:39Z</time></trkpt><trkpt lat="44.38687359688128" lon="7.545163306571219"><ele>548.0</ele><time>2026-04-11T17:03:40Z</time></trkpt><trkpt lat="44.386936757502085" lon="7.545224319784382"><ele>548.0</ele><time>2026-04-11T17:03:41Z</time></trkpt><trkpt lat="44.38700162272269" lon="7.545289967376518"><ele>548.0</ele><time>2026-04-11T17:03:42Z</time></trkpt><trkpt lat="44.38707409356416" lon="7.5453616745644725"><ele>548.0</ele><time>2026-04-11T17:03:43Z</time></trkpt><trkpt lat="44.38714312848819" lon="7.54542879091809"><ele>548.0</ele><time>2026-04-11T17:03:44Z</time></trkpt><trkpt lat="44.38721007830655" lon="7.545502037560296"><ele>548.0</ele><time>2026-04-11T17:03:45Z</time></trkpt><trkpt lat="44.387270633486004" lon="7.54557021652598"><ele>548.25</ele><time>2026-04-11T17:03:46Z</time></trkpt><trkpt lat="44.38734283632082" lon="7.545649629907589"><ele>548.5</ele><time>2026-04-11T17:03:47Z</time></trkpt><trkpt lat="44.38744742209425" lon="7.545756295596308"><ele>548.75</ele><time>2026-04-11T17:03:48Z</time></trkpt><trkpt lat="44.387543406439995" lon="7.54585112017069"><ele>549.0</ele><time>2026-04-11T17:03:49Z</time></trkpt><trkpt lat="44.387647167311066" lon="7.545963918854734"><ele>549.0</ele><time>2026-04-11T17:03:50Z</time></trkpt><trkpt lat="44.387745058702066" lon="7.546052526876509"><ele>549.0</ele><time>2026-04-11T17:03:51Z</time></trkpt><trkpt lat="44.387819315631354" lon="7.546132301626878"><ele>549.0</ele><time>2026-04-11T17:03:52Z</time></trkpt><trkpt lat="44.38787275680142" lon="7.546191722826583"><ele>549.0</ele><time>2026-04-11T17:03:53Z</time></trkpt><trkpt lat="44.38793366957323" lon="7.546252619695794"><ele>549.0</ele><time>2026-04-11T17:03:54Z</time></trkpt><trkpt lat="44.38800880993783" lon="7.546333596848673"><ele>549.0</ele><time>2026-04-11T17:03:55Z</time></trkpt><trkpt lat="44.38807436065965" lon="7.546409552483013"><ele>548.8</ele><time>2026-04-11T17:03:56Z</time></trkpt><trkpt lat="44.38814584371327" lon="7.546494815098412"><ele>548.5999999999999</ele><time>2026-04-11T17:03:57Z</time></trkpt><trkpt lat="44.3882275524707" lon="7.546599514687878"><ele>548.4</ele><time>2026-04-11T17:03:58Z</time></trkpt><trkpt lat="44.38831896278497" lon="7.54670321338263"><ele>548.1999999999999</ele><time>2026-04-11T17:03:59Z</time></trkpt><trkpt lat="44.38839206218868" lon="7.546776159557458"><ele>548.0</ele><time>2026-04-11T17:04:00Z</time></trkpt><trkpt lat="44.388453037578095" lon="7.54683935709301"><ele>548.0</ele><time>2026-04-11T17:04:01Z</time></trkpt><trkpt lat="44.388508293469634" lon="7.5468932574115195"><ele>548.0</ele><time>2026-04-11T17:04:02Z</time></trkpt><trkpt lat="44.388566275718524" lon="7.546955427183135"><ele>548.0</ele><time>2026-04-11T17:04:03Z</time></trkpt><trkpt lat="44.38862808050123" lon="7.54701523530963"><ele>548.0</ele><time>2026-04-11T17:04:04Z</time></trkpt><trkpt lat="44.38871689621019" lon="7.547107969254259"><ele>548.0</ele><time>2026-04-11T17:04:06Z</time></trkpt><trkpt lat="44.38876533763554" lon="7.54724129472803"><ele>548.0</ele><time>2026-04-11T17:04:08Z</time></trkpt><trkpt lat="44.3887025964607" lon="7.5473723038991"><ele>547.8333333333333</ele><time>2026-04-11T17:04:10Z</time></trkpt><trkpt lat="44.388652916534575" lon="7.5474616560069405"><ele>547.6666666666666</ele><time>2026-04-11T17:04:11Z</time></trkpt><trkpt lat="44.38861576685763" lon="7.547536068403232"><ele>547.5</ele><time>2026-04-11T17:04:12Z</time></trkpt><trkpt lat="44.388562374545835" lon="7.547602966078227"><ele>547.3333333333334</ele><time>2026-04-11T17:04:16Z</time></trkpt><trkpt lat="44.38850082757004" lon="7.547709682551588"><ele>547.1666666666667</ele><time>2026-04-11T17:04:21Z</time></trkpt><trkpt lat="44.38847466970661" lon="7.5477940745789525"><ele>547.0</ele><time>2026-04-11T17:04:22Z</time></trkpt><trkpt lat="44.388388271208846" lon="7.547943604208868"><ele>547.0</ele><time>2026-04-11T17:04:24Z</time></trkpt><trkpt lat="44.388351730371184" lon="7.548026874567227"><ele>547.0</ele><time>2026-04-11T17:04:25Z</time></trkpt><trkpt lat="44.3883034618708" lon="7.548104620279858"><ele>547.0</ele><time>2026-04-11T17:04:26Z</time></trkpt><trkpt lat="44.38827024218224" lon="7.548190613809508"><ele>547.0</ele><time>2026-04-11T17:04:27Z</time></trkpt><trkpt lat="44.38823003703748" lon="7.5482637161912995"><ele>547.0</ele><time>2026-04-11T17:04:28Z</time></trkpt><trkpt lat="44.38818901442234" lon="7.548345680841542"><ele>547.0</ele><time>2026-04-11T17:04:29Z</time></trkpt><trkpt lat="44.3881521562844" lon="7.548419324946134"><ele>547.0</ele><time>2026-04-11T17:04:30Z</time></trkpt><trkpt lat="44.38811483771302" lon="7.548493889162959"><ele>547.0</ele><time>2026-04-11T17:04:31Z</time></trkpt><trkpt lat="44.388075566328766" lon="7.548572353501647"><ele>547.0</ele><time>2026-04-11T17:04:31.999Z</time></trkpt><trkpt lat="44.38802940276612" lon="7.548692676009267"><ele>547.0</ele><time>2026-04-11T17:04:33.999Z</time></trkpt><trkpt lat="44.387975238800855" lon="7.548753976870427"><ele>547.0</ele><time>2026-04-11T17:04:35.999Z</time></trkpt><trkpt lat="44.38785562738815" lon="7.548784860314456"><ele>547.0</ele><time>2026-04-11T17:04:38.999Z</time></trkpt><trkpt lat="44.38778745796757" lon="7.548844197749298"><ele>547.0</ele><time>2026-04-11T17:04:39.999Z</time></trkpt><trkpt lat="44.38778349033689" lon="7.5489781789039965"><ele>546.4</ele><time>2026-04-11T17:04:40.999Z</time></trkpt><trkpt lat="44.38775714951801" lon="7.54908730846277"><ele>545.8000000000001</ele><time>2026-04-11T17:04:41.999Z</time></trkpt><trkpt lat="44.38773419248981" lon="7.549200217556454"><ele>545.2</ele><time>2026-04-11T17:04:42.999Z</time></trkpt><trkpt lat="44.38770747630792" lon="7.549322823808699"><ele>544.6</ele><time>2026-04-11T17:04:43.999Z</time></trkpt><trkpt lat="44.38765687064619" lon="7.549457770814909"><ele>544.0</ele><time>2026-04-11T17:04:44.999Z</time></trkpt><trkpt lat="44.38757106783881" lon="7.549587719630676"><ele>544.0</ele><time>2026-04-11T17:04:45.999Z</time></trkpt><trkpt lat="44.38751487479424" lon="7.549699235639287"><ele>544.0</ele><time>2026-04-11T17:04:46.999Z</time></trkpt><trkpt lat="44.387470910758" lon="7.549784245320501"><ele>544.0</ele><time>2026-04-11T17:04:47.999Z</time></trkpt><trkpt lat="44.38744947538736" lon="7.549878595807548"><ele>544.0</ele><time>2026-04-11T17:04:48.999Z</time></trkpt><trkpt lat="44.38739174904358" lon="7.550025500594568"><ele>544.0</ele><time>2026-04-11T17:04:51Z</time></trkpt><trkpt lat="44.38735500323059" lon="7.55020226106622"><ele>544.0</ele><time>2026-04-11T17:04:53Z</time></trkpt><trkpt lat="44.38741058298217" lon="7.550295237776781"><ele>544.0</ele><time>2026-04-11T17:04:54Z</time></trkpt><trkpt lat="44.38749641380075" lon="7.5503428091430695"><ele>544.0</ele><time>2026-04-11T17:04:55Z</time></trkpt><trkpt lat="44.38757214621784" lon="7.550435205395522"><ele>544.0</ele><time>2026-04-11T17:04:56Z</time></trkpt><trkpt lat="44.38767571684929" lon="7.550524517160923"><ele>544.0</ele><time>2026-04-11T17:04:57Z</time></trkpt><trkpt lat="44.3878002787945" lon="7.55063193025828"><ele>542.5</ele><time>2026-04-11T17:04:58Z</time></trkpt><trkpt lat="44.38792279456702" lon="7.550737870700871"><ele>541.0</ele><time>2026-04-11T17:04:59Z</time></trkpt><trkpt lat="44.38802991486121" lon="7.550815297394849"><ele>539.5</ele><time>2026-04-11T17:05:00Z</time></trkpt><trkpt lat="44.38813887498983" lon="7.550904417643216"><ele>538.0</ele><time>2026-04-11T17:05:01Z</time></trkpt><trkpt lat="44.388250734566526" lon="7.551013571500883"><ele>538.0</ele><time>2026-04-11T17:05:02Z</time></trkpt><trkpt lat="44.38837419917048" lon="7.551116655247658"><ele>538.0</ele><time>2026-04-11T17:05:03Z</time></trkpt><trkpt lat="44.388496648365674" lon="7.551220784821205"><ele>538.0</ele><time>2026-04-11T17:05:04Z</time></trkpt><trkpt lat="44.38861674290692" lon="7.551322664761813"><ele>538.0</ele><time>2026-04-11T17:05:05Z</time></trkpt><trkpt lat="44.38876238735999" lon="7.551438195122704"><ele>536.3333333333334</ele><time>2026-04-11T17:05:06Z</time></trkpt><trkpt lat="44.38893439884945" lon="7.551611092010725"><ele>534.6666666666666</ele><time>2026-04-11T17:05:07Z</time></trkpt><trkpt lat="44.389080772754035" lon="7.55173669667794"><ele>533.0</ele><time>2026-04-11T17:05:08Z</time></trkpt><trkpt lat="44.38920500565706" lon="7.551844381132739"><ele>533.0</ele><time>2026-04-11T17:05:09Z</time></trkpt><trkpt lat="44.389313733681966" lon="7.551912757600622"><ele>533.0</ele><time>2026-04-11T17:05:10Z</time></trkpt><trkpt lat="44.38940310220412" lon="7.551999597784708"><ele>533.0</ele><time>2026-04-11T17:05:11Z</time></trkpt><trkpt lat="44.38949097712969" lon="7.5520742794646"><ele>533.0</ele><time>2026-04-11T17:05:12Z</time></trkpt><trkpt lat="44.38958486694345" lon="7.552163844431724"><ele>533.0</ele><time>2026-04-11T17:05:13Z</time></trkpt><trkpt lat="44.38968511520527" lon="7.552246997132182"><ele>531.4</ele><time>2026-04-11T17:05:14Z</time></trkpt><trkpt lat="44.389777205558055" lon="7.552327549197299"><ele>529.8</ele><time>2026-04-11T17:05:15Z</time></trkpt><trkpt lat="44.389866419505864" lon="7.552401818184859"><ele>528.2</ele><time>2026-04-11T17:05:16Z</time></trkpt><trkpt lat="44.38995191805093" lon="7.552474086356788"><ele>526.6</ele><time>2026-04-11T17:05:17Z</time></trkpt><trkpt lat="44.390037476948294" lon="7.552546995267197"><ele>525.0</ele><time>2026-04-11T17:05:18Z</time></trkpt><trkpt lat="44.39012088997598" lon="7.552620713772734"><ele>525.0</ele><time>2026-04-11T17:05:19Z</time></trkpt><trkpt lat="44.39021722600655" lon="7.5527035434947445"><ele>525.0</ele><time>2026-04-11T17:05:20Z</time></trkpt><trkpt lat="44.39032331186827" lon="7.55279751231394"><ele>525.0</ele><time>2026-04-11T17:05:21Z</time></trkpt><trkpt lat="44.39043638544918" lon="7.552894919247406"><ele>525.0</ele><time>2026-04-11T17:05:22Z</time></trkpt><trkpt lat="44.39054633731871" lon="7.553017583043461"><ele>523.3333333333334</ele><time>2026-04-11T17:05:23Z</time></trkpt><trkpt lat="44.3906660419357" lon="7.5531345118901925"><ele>521.6666666666667</ele><time>2026-04-11T17:05:24Z</time></trkpt><trkpt lat="44.39078843421771" lon="7.553257217331458"><ele>520.0</ele><time>2026-04-11T17:05:25Z</time></trkpt><trkpt lat="44.39091165990888" lon="7.553384113274486"><ele>520.0</ele><time>2026-04-11T17:05:26Z</time></trkpt><trkpt lat="44.39103029358259" lon="7.553508781651863"><ele>520.0</ele><time>2026-04-11T17:05:27Z</time></trkpt><trkpt lat="44.39114665505175" lon="7.553635912552554"><ele>520.0</ele><time>2026-04-11T17:05:28Z</time></trkpt><trkpt lat="44.39126442216341" lon="7.553756175668373"><ele>520.0</ele><time>2026-04-11T17:05:29Z</time></trkpt><trkpt lat="44.39137056681071" lon="7.553860633533999"><ele>518.6</ele><time>2026-04-11T17:05:30Z</time></trkpt><trkpt lat="44.39146420137354" lon="7.553962107529063"><ele>517.2</ele><time>2026-04-11T17:05:31Z</time></trkpt><trkpt lat="44.39155058958484" lon="7.554049830118022"><ele>515.8</ele><time>2026-04-11T17:05:32Z</time></trkpt><trkpt lat="44.39163445746929" lon="7.554133636721897"><ele>514.4</ele><time>2026-04-11T17:05:33Z</time></trkpt><trkpt lat="44.391716574202455" lon="7.554214362909683"><ele>513.0</ele><time>2026-04-11T17:05:34Z</time></trkpt><trkpt lat="44.391797172604015" lon="7.554305210697409"><ele>513.0</ele><time>2026-04-11T17:05:35Z</time></trkpt><trkpt lat="44.39185326919259" lon="7.55437721101153"><ele>513.0</ele><time>2026-04-11T17:05:36Z</time></trkpt><trkpt lat="44.39189936926323" lon="7.5544378610979575"><ele>513.0</ele><time>2026-04-11T17:05:37Z</time></trkpt><trkpt lat="44.39199249959006" lon="7.554560690294676"><ele>513.0</ele><time>2026-04-11T17:05:39Z</time></trkpt><trkpt lat="44.392041219552176" lon="7.5546304840931375"><ele>513.0</ele><time>2026-04-11T17:05:40Z</time></trkpt><trkpt lat="44.39210461638469" lon="7.554740375404485"><ele>513.0</ele><time>2026-04-11T17:05:42Z</time></trkpt><trkpt lat="44.39215219939773" lon="7.554826003626919"><ele>512.4</ele><time>2026-04-11T17:05:44Z</time></trkpt><trkpt lat="44.39219746440783" lon="7.554947559335833"><ele>511.79999999999995</ele><time>2026-04-11T17:05:46Z</time></trkpt><trkpt lat="44.39221150251605" lon="7.555055096332116"><ele>511.2</ele><time>2026-04-11T17:05:47Z</time></trkpt><trkpt lat="44.39222674148375" lon="7.555182718874304"><ele>510.6</ele><time>2026-04-11T17:05:48Z</time></trkpt><trkpt lat="44.3922603204755" lon="7.555309843126839"><ele>510.0</ele><time>2026-04-11T17:05:49Z</time></trkpt><trkpt lat="44.39224007923822" lon="7.555474145889417"><ele>509.0</ele><time>2026-04-11T17:05:50Z</time></trkpt><trkpt lat="44.39217329173722" lon="7.555627096876395"><ele>508.0</ele><time>2026-04-11T17:05:51Z</time></trkpt><trkpt lat="44.39210786680794" lon="7.555818174827299"><ele>507.0</ele><time>2026-04-11T17:05:52Z</time></trkpt><trkpt lat="44.392033620336136" lon="7.55602012181171"><ele>506.0</ele><time>2026-04-11T17:05:53Z</time></trkpt><trkpt lat="44.39195991914612" lon="7.556198249012921"><ele>504.75</ele><time>2026-04-11T17:05:54Z</time></trkpt><trkpt lat="44.39188865306447" lon="7.556382746584538"><ele>503.5</ele><time>2026-04-11T17:05:55Z</time></trkpt><trkpt lat="44.39182132088139" lon="7.556568298234325"><ele>502.25</ele><time>2026-04-11T17:05:56Z</time></trkpt><trkpt lat="44.39176444044863" lon="7.556730126085986"><ele>501.0</ele><time>2026-04-11T17:05:57Z</time></trkpt><trkpt lat="44.39171150047066" lon="7.556885186531367"><ele>501.5</ele><time>2026-04-11T17:05:58Z</time></trkpt><trkpt lat="44.39165501524842" lon="7.557045194970553"><ele>502.0</ele><time>2026-04-11T17:05:59Z</time></trkpt><trkpt lat="44.39159972165514" lon="7.557195268390385"><ele>502.5</ele><time>2026-04-11T17:06:00Z</time></trkpt><trkpt lat="44.39154419499036" lon="7.55733873815696"><ele>503.0</ele><time>2026-04-11T17:06:01Z</time></trkpt><trkpt lat="44.39148818697948" lon="7.557486982426801"><ele>503.0</ele><time>2026-04-11T17:06:02Z</time></trkpt><trkpt lat="44.39143757629319" lon="7.557629907368248"><ele>502.99999999999994</ele><time>2026-04-11T17:06:03Z</time></trkpt><trkpt lat="44.39139429283192" lon="7.557761686207559"><ele>502.99999999999994</ele><time>2026-04-11T17:06:04Z</time></trkpt><trkpt lat="44.391349557651395" lon="7.557891815437194"><ele>503.0</ele><time>2026-04-11T17:06:05Z</time></trkpt><trkpt lat="44.39131130368705" lon="7.5579998677685465"><ele>503.0</ele><time>2026-04-11T17:06:06Z</time></trkpt><trkpt lat="44.39127425502846" lon="7.55809312572142"><ele>502.59999999999997</ele><time>2026-04-11T17:06:07Z</time></trkpt><trkpt lat="44.39122136670945" lon="7.558170364968657"><ele>502.19999999999993</ele><time>2026-04-11T17:06:08Z</time></trkpt><trkpt lat="44.39115677920819" lon="7.558234391039816"><ele>501.8</ele><time>2026-04-11T17:06:09Z</time></trkpt><trkpt lat="44.39110005682763" lon="7.558291322836122"><ele>501.4</ele><time>2026-04-11T17:06:10Z</time></trkpt><trkpt lat="44.3910526924814" lon="7.5584136668480175"><ele>501.0</ele><time>2026-04-11T17:06:12Z</time></trkpt><trkpt lat="44.39108525979001" lon="7.558583881992337"><ele>501.0</ele><time>2026-04-11T17:06:14Z</time></trkpt><trkpt lat="44.391116542191234" lon="7.55867541955042"><ele>501.0</ele><time>2026-04-11T17:06:15Z</time></trkpt><trkpt lat="44.39113684414419" lon="7.558764537171846"><ele>501.0</ele><time>2026-04-11T17:06:16Z</time></trkpt><trkpt lat="44.39113855334929" lon="7.558889610360138"><ele>501.0</ele><time>2026-04-11T17:06:17Z</time></trkpt><trkpt lat="44.3911223408998" lon="7.559071895762084"><ele>501.0</ele><time>2026-04-11T17:06:18Z</time></trkpt><trkpt lat="44.391116721441" lon="7.5592659200762204"><ele>501.25</ele><time>2026-04-11T17:06:19Z</time></trkpt><trkpt lat="44.39112087214124" lon="7.559409557391556"><ele>501.5</ele><time>2026-04-11T17:06:20Z</time></trkpt><trkpt lat="44.391132658408274" lon="7.559570758305017"><ele>501.75</ele><time>2026-04-11T17:06:21Z</time></trkpt><trkpt lat="44.3911535882887" lon="7.559775800861044"><ele>502.0</ele><time>2026-04-11T17:06:22Z</time></trkpt><trkpt lat="44.391172096499005" lon="7.559999223888966"><ele>501.6666666666667</ele><time>2026-04-11T17:06:23Z</time></trkpt><trkpt lat="44.391198473058665" lon="7.5602675610218935"><ele>501.33333333333337</ele><time>2026-04-11T17:06:24Z</time></trkpt><trkpt lat="44.391216162449766" lon="7.560492027597604"><ele>501.0</ele><time>2026-04-11T17:06:25Z</time></trkpt><trkpt lat="44.391232074295324" lon="7.560696935211458"><ele>501.0</ele><time>2026-04-11T17:06:26Z</time></trkpt><trkpt lat="44.39125025717438" lon="7.560879661561644"><ele>501.0</ele><time>2026-04-11T17:06:27Z</time></trkpt><trkpt lat="44.39126289093904" lon="7.561055267402836"><ele>501.0</ele><time>2026-04-11T17:06:28Z</time></trkpt><trkpt lat="44.39127678116508" lon="7.561256520183325"><ele>501.0</ele><time>2026-04-11T17:06:28.999Z</time></trkpt><trkpt lat="44.391288730122014" lon="7.561456586510861"><ele>501.0</ele><time>2026-04-11T17:06:29.999Z</time></trkpt><trkpt lat="44.39129687527118" lon="7.561634520080133"><ele>501.0</ele><time>2026-04-11T17:06:30.999Z</time></trkpt><trkpt lat="44.391298018206825" lon="7.5617752532875615"><ele>501.0</ele><time>2026-04-11T17:06:31.999Z</time></trkpt><trkpt lat="44.391299084823316" lon="7.561904081872758"><ele>501.0</ele><time>2026-04-11T17:06:32.999Z</time></trkpt><trkpt lat="44.39129334120123" lon="7.5620177131322635"><ele>501.0</ele><time>2026-04-11T17:06:33.999Z</time></trkpt><trkpt lat="44.39128709710255" lon="7.562124563050201"><ele>501.0</ele><time>2026-04-11T17:06:34.999Z</time></trkpt><trkpt lat="44.39127764263687" lon="7.562217786846981"><ele>501.0</ele><time>2026-04-11T17:06:35.999Z</time></trkpt><trkpt lat="44.3912321876102" lon="7.5623436497621945"><ele>501.0</ele><time>2026-04-11T17:06:37.999Z</time></trkpt><trkpt lat="44.39112705555612" lon="7.562439942624104"><ele>501.0</ele><time>2026-04-11T17:06:39.999Z</time></trkpt><trkpt lat="44.39108774680545" lon="7.562511793009377"><ele>501.0</ele><time>2026-04-11T17:06:40.999Z</time></trkpt><trkpt lat="44.39104419831038" lon="7.562622090314071"><ele>501.0</ele><time>2026-04-11T17:06:42.999Z</time></trkpt><trkpt lat="44.39102995334703" lon="7.562766110235904"><ele>501.0</ele><time>2026-04-11T17:06:44.999Z</time></trkpt><trkpt lat="44.39110826308282" lon="7.562839894377435"><ele>501.0</ele><time>2026-04-11T17:06:45.999Z</time></trkpt><trkpt lat="44.39116467559955" lon="7.562896837871402"><ele>501.0</ele><time>2026-04-11T17:06:46.999Z</time></trkpt><trkpt lat="44.39122609613434" lon="7.5629454898812085"><ele>501.0</ele><time>2026-04-11T17:06:47.999Z</time></trkpt><trkpt lat="44.391284236245276" lon="7.563021289634521"><ele>501.0</ele><time>2026-04-11T17:06:48.999Z</time></trkpt><trkpt lat="44.39133857290994" lon="7.563114212454622"><ele>501.0</ele><time>2026-04-11T17:06:49.999Z</time></trkpt><trkpt lat="44.39137497746272" lon="7.563232464128105"><ele>501.0</ele><time>2026-04-11T17:06:50.999Z</time></trkpt><trkpt lat="44.39139780636814" lon="7.563397674922277"><ele>501.0</ele><time>2026-04-11T17:06:51.999Z</time></trkpt><trkpt lat="44.39139813538689" lon="7.5635988343581095"><ele>501.0</ele><time>2026-04-11T17:06:52.999Z</time></trkpt><trkpt lat="44.391387386472225" lon="7.563838527658238"><ele>501.0</ele><time>2026-04-11T17:06:53.999Z</time></trkpt><trkpt lat="44.391380163343676" lon="7.564064244876771"><ele>501.0</ele><time>2026-04-11T17:06:54.999Z</time></trkpt><trkpt lat="44.39137146758772" lon="7.564236308879809"><ele>501.0</ele><time>2026-04-11T17:06:55.999Z</time></trkpt><trkpt lat="44.39136746467979" lon="7.564390203017748"><ele>501.0</ele><time>2026-04-11T17:06:57Z</time></trkpt><trkpt lat="44.39136419542163" lon="7.564528689282713"><ele>501.0</ele><time>2026-04-11T17:06:58Z</time></trkpt><trkpt lat="44.39135481022375" lon="7.5646943625750716"><ele>501.25</ele><time>2026-04-11T17:06:59Z</time></trkpt><trkpt lat="44.39135072860955" lon="7.56489375458175"><ele>501.5</ele><time>2026-04-11T17:07:00Z</time></trkpt><trkpt lat="44.39135318856973" lon="7.565075429220679"><ele>501.75</ele><time>2026-04-11T17:07:01Z</time></trkpt><trkpt lat="44.391351313994484" lon="7.565261586906444"><ele>502.0</ele><time>2026-04-11T17:07:02Z</time></trkpt><trkpt lat="44.39134370283802" lon="7.565444831097992"><ele>502.0</ele><time>2026-04-11T17:07:03Z</time></trkpt><trkpt lat="44.391363568281136" lon="7.565644023239909"><ele>502.0</ele><time>2026-04-11T17:07:04Z</time></trkpt><trkpt lat="44.391376241496616" lon="7.565831444147727"><ele>502.0</ele><time>2026-04-11T17:07:05Z</time></trkpt><trkpt lat="44.39139451522837" lon="7.5660329065464715"><ele>502.0</ele><time>2026-04-11T17:07:06Z</time></trkpt><trkpt lat="44.39140648739742" lon="7.566246081127056"><ele>502.5</ele><time>2026-04-11T17:07:07Z</time></trkpt><trkpt lat="44.39142450452227" lon="7.566453482948802"><ele>503.0</ele><time>2026-04-11T17:07:08Z</time></trkpt><trkpt lat="44.39143869002276" lon="7.5666490595171965"><ele>503.5</ele><time>2026-04-11T17:07:09Z</time></trkpt><trkpt lat="44.39145055285804" lon="7.56685637389022"><ele>504.0</ele><time>2026-04-11T17:07:10Z</time></trkpt><trkpt lat="44.391457946870766" lon="7.567046965111528"><ele>504.4</ele><time>2026-04-11T17:07:11Z</time></trkpt><trkpt lat="44.391455702407704" lon="7.5672332980359105"><ele>504.79999999999995</ele><time>2026-04-11T17:07:12Z</time></trkpt><trkpt lat="44.39144966829457" lon="7.567395650904377"><ele>505.20000000000005</ele><time>2026-04-11T17:07:13Z</time></trkpt><trkpt lat="44.391446974121045" lon="7.5675186060475905"><ele>505.6</ele><time>2026-04-11T17:07:14Z</time></trkpt><trkpt lat="44.39144219318919" lon="7.567617250960228"><ele>506.0</ele><time>2026-04-11T17:07:15Z</time></trkpt><trkpt lat="44.39143428167066" lon="7.567746847970281"><ele>506.0</ele><time>2026-04-11T17:07:17Z</time></trkpt><trkpt lat="44.391427730092126" lon="7.567850461805895"><ele>506.0</ele><time>2026-04-11T17:07:21Z</time></trkpt><trkpt lat="44.39153482909323" lon="7.567908485562659"><ele>506.0</ele><time>2026-04-11T17:07:25Z</time></trkpt><trkpt lat="44.391620618150164" lon="7.567921993786289"><ele>506.0</ele><time>2026-04-11T17:07:27Z</time></trkpt><trkpt lat="44.3914425835813" lon="7.567872712196945"><ele>506.0</ele><time>2026-04-11T17:07:45Z</time></trkpt><trkpt lat="44.39170769387857" lon="7.567802713538929"><ele>506.0</ele><time>2026-04-11T17:08:42.999Z</time></trkpt><trkpt lat="44.39162240529997" lon="7.56780358607733"><ele>506.0</ele><time>2026-04-11T17:08:50.999Z</time></trkpt><trkpt lat="44.391672063524034" lon="7.567738031613816"><ele>506.0</ele><time>2026-04-11T17:09:17Z</time></trkpt><trkpt lat="44.391584796677044" lon="7.567770812429621"><ele>505.99999999999994</ele><time>2026-04-11T17:10:07Z</time></trkpt><trkpt lat="44.391667539530076" lon="7.567782751321872"><ele>506.0</ele><time>2026-04-11T17:10:27Z</time></trkpt><trkpt lat="44.391599841087185" lon="7.5678781575816805"><ele>506.0</ele><time>2026-04-11T17:10:48.999Z</time></trkpt><trkpt lat="44.391606930426256" lon="7.567729273471391"><ele>506.0</ele><time>2026-04-11T17:12:28Z</time></trkpt><trkpt lat="44.39152304428727" lon="7.567716443770697"><ele>505.99999999999994</ele><time>2026-04-11T17:12:30Z</time></trkpt><trkpt lat="44.39147872742509" lon="7.567802797990839"><ele>506.0</ele><time>2026-04-11T17:14:24Z</time></trkpt><trkpt lat="44.39140190128514" lon="7.567990673467218"><ele>506.20000000000005</ele><time>2026-04-11T17:14:26Z</time></trkpt><trkpt lat="44.391403070405985" lon="7.568118028946461"><ele>506.40000000000003</ele><time>2026-04-11T17:14:28Z</time></trkpt><trkpt lat="44.39139934840608" lon="7.568287782709444"><ele>506.6</ele><time>2026-04-11T17:14:30Z</time></trkpt><trkpt lat="44.39138527770985" lon="7.568385748050497"><ele>506.8</ele><time>2026-04-11T17:14:31Z</time></trkpt><trkpt lat="44.39137408015613" lon="7.5685092395248565"><ele>507.0</ele><time>2026-04-11T17:14:32Z</time></trkpt><trkpt lat="44.39136059981336" lon="7.568628060137223"><ele>506.75</ele><time>2026-04-11T17:14:33Z</time></trkpt><trkpt lat="44.39134845750549" lon="7.568744965811614"><ele>506.5</ele><time>2026-04-11T17:14:34Z</time></trkpt><trkpt lat="44.391333189348835" lon="7.568897491460452"><ele>506.25</ele><time>2026-04-11T17:14:35Z</time></trkpt><trkpt lat="44.39131464810619" lon="7.569080773871565"><ele>506.0</ele><time>2026-04-11T17:14:36Z</time></trkpt><trkpt lat="44.391298844456735" lon="7.569276914734658"><ele>506.0</ele><time>2026-04-11T17:14:37Z</time></trkpt><trkpt lat="44.39128169229924" lon="7.569466637569563"><ele>506.0</ele><time>2026-04-11T17:14:38Z</time></trkpt><trkpt lat="44.39126915613724" lon="7.569642873547211"><ele>506.0</ele><time>2026-04-11T17:14:39Z</time></trkpt><trkpt lat="44.39125264552535" lon="7.5698277506633005"><ele>506.0</ele><time>2026-04-11T17:14:40Z</time></trkpt><trkpt lat="44.39124141909487" lon="7.570034661937727"><ele>506.66666666666663</ele><time>2026-04-11T17:14:41Z</time></trkpt><trkpt lat="44.39123167554088" lon="7.570249693802434"><ele>507.33333333333337</ele><time>2026-04-11T17:14:42Z</time></trkpt><trkpt lat="44.39122103987936" lon="7.570496338038366"><ele>508.0</ele><time>2026-04-11T17:14:43Z</time></trkpt><trkpt lat="44.39120953375144" lon="7.570789778585421"><ele>509.6666666666667</ele><time>2026-04-11T17:14:44Z</time></trkpt><trkpt lat="44.3911977124743" lon="7.571097072498552"><ele>511.33333333333337</ele><time>2026-04-11T17:14:45Z</time></trkpt><trkpt lat="44.39119044885556" lon="7.571382737812034"><ele>513.0</ele><time>2026-04-11T17:14:46Z</time></trkpt><trkpt lat="44.391188920259225" lon="7.571612148148143"><ele>513.0</ele><time>2026-04-11T17:14:46.999Z</time></trkpt><trkpt lat="44.391182812303555" lon="7.571816597350574"><ele>513.0</ele><time>2026-04-11T17:14:47.999Z</time></trkpt><trkpt lat="44.39117363491515" lon="7.572008486900885"><ele>513.0</ele><time>2026-04-11T17:14:48.999Z</time></trkpt><trkpt lat="44.391161680355324" lon="7.572193103129636"><ele>513.0</ele><time>2026-04-11T17:14:49.999Z</time></trkpt><trkpt lat="44.391146344881925" lon="7.572381838032445"><ele>513.0</ele><time>2026-04-11T17:14:50.999Z</time></trkpt><trkpt lat="44.39112096742223" lon="7.572553551457553"><ele>513.0</ele><time>2026-04-11T17:14:51.999Z</time></trkpt><trkpt lat="44.39109211131628" lon="7.572726980325602"><ele>513.0</ele><time>2026-04-11T17:14:52.999Z</time></trkpt><trkpt lat="44.39105522134882" lon="7.572905004871229"><ele>513.0</ele><time>2026-04-11T17:14:53.999Z</time></trkpt><trkpt lat="44.391003303370596" lon="7.573074042339551"><ele>513.0</ele><time>2026-04-11T17:14:54.999Z</time></trkpt><trkpt lat="44.39094865583973" lon="7.57322635435362"><ele>513.0</ele><time>2026-04-11T17:14:55.999Z</time></trkpt><trkpt lat="44.390897660063814" lon="7.573355087295057"><ele>513.0</ele><time>2026-04-11T17:14:56.999Z</time></trkpt><trkpt lat="44.39084523655154" lon="7.5734776634913645"><ele>513.0</ele><time>2026-04-11T17:14:57.999Z</time></trkpt><trkpt lat="44.39078326076853" lon="7.573593431241695"><ele>513.0</ele><time>2026-04-11T17:14:58.999Z</time></trkpt><trkpt lat="44.39071198327717" lon="7.573696060949707"><ele>513.3333333333334</ele><time>2026-04-11T17:14:59.999Z</time></trkpt><trkpt lat="44.39063430234356" lon="7.573772731106887"><ele>513.6666666666666</ele><time>2026-04-11T17:15:00.999Z</time></trkpt><trkpt lat="44.39054781831698" lon="7.573816838998157"><ele>514.0</ele><time>2026-04-11T17:15:01.999Z</time></trkpt><trkpt lat="44.39046625456667" lon="7.573819726951158"><ele>514.3333333333333</ele><time>2026-04-11T17:15:02.999Z</time></trkpt><trkpt lat="44.39039923458114" lon="7.573787288245057"><ele>514.6666666666666</ele><time>2026-04-11T17:15:03.999Z</time></trkpt><trkpt lat="44.39032614476171" lon="7.57371428062572"><ele>515.0</ele><time>2026-04-11T17:15:04.999Z</time></trkpt><trkpt lat="44.3902577266981" lon="7.573614694486894"><ele>515.0</ele><time>2026-04-11T17:15:05.999Z</time></trkpt><trkpt lat="44.39018334973436" lon="7.57348303573587"><ele>515.0</ele><time>2026-04-11T17:15:06.999Z</time></trkpt><trkpt lat="44.39010323063135" lon="7.573323871819005"><ele>515.0</ele><time>2026-04-11T17:15:07.999Z</time></trkpt><trkpt lat="44.39002820948178" lon="7.5731678023501585"><ele>515.0</ele><time>2026-04-11T17:15:08.999Z</time></trkpt><trkpt lat="44.389942436857076" lon="7.572966240306624"><ele>514.75</ele><time>2026-04-11T17:15:09.999Z</time></trkpt><trkpt lat="44.38985526685878" lon="7.572818577583652"><ele>514.5</ele><time>2026-04-11T17:15:10.999Z</time></trkpt><trkpt lat="44.38977331151224" lon="7.57266005527298"><ele>514.25</ele><time>2026-04-11T17:15:11.999Z</time></trkpt><trkpt lat="44.38968824478756" lon="7.572489474314263"><ele>514.0</ele><time>2026-04-11T17:15:12.999Z</time></trkpt><trkpt lat="44.38959642533859" lon="7.572326578523637"><ele>514.0</ele><time>2026-04-11T17:15:13.999Z</time></trkpt><trkpt lat="44.389503101936405" lon="7.572166865214843"><ele>514.0</ele><time>2026-04-11T17:15:14.999Z</time></trkpt><trkpt lat="44.389406010320386" lon="7.572011118907982"><ele>514.0</ele><time>2026-04-11T17:15:15.999Z</time></trkpt><trkpt lat="44.389289536926704" lon="7.5718471187296785"><ele>513.3333333333334</ele><time>2026-04-11T17:15:16.999Z</time></trkpt><trkpt lat="44.38915130825488" lon="7.571689723389849"><ele>512.6666666666666</ele><time>2026-04-11T17:15:17.999Z</time></trkpt><trkpt lat="44.38901345004217" lon="7.571521406020124"><ele>512.0</ele><time>2026-04-11T17:15:18.999Z</time></trkpt><trkpt lat="44.38888165509597" lon="7.571349247051043"><ele>512.3333333333333</ele><time>2026-04-11T17:15:19.999Z</time></trkpt><trkpt lat="44.38873856490827" lon="7.571191868879797"><ele>512.6666666666666</ele><time>2026-04-11T17:15:21Z</time></trkpt><trkpt lat="44.38859444026463" lon="7.571047373855166"><ele>513.0</ele><time>2026-04-11T17:15:22Z</time></trkpt><trkpt lat="44.38845408967461" lon="7.570897413086363"><ele>513.3333333333334</ele><time>2026-04-11T17:15:23Z</time></trkpt><trkpt lat="44.388322253465304" lon="7.570731363026709"><ele>513.6666666666667</ele><time>2026-04-11T17:15:24Z</time></trkpt><trkpt lat="44.38818782520876" lon="7.570566378196892"><ele>514.0</ele><time>2026-04-11T17:15:25Z</time></trkpt><trkpt lat="44.3880322731527" lon="7.570403558949945"><ele>514.0</ele><time>2026-04-11T17:15:26Z</time></trkpt><trkpt lat="44.387858043464284" lon="7.570232275997279"><ele>514.0</ele><time>2026-04-11T17:15:27Z</time></trkpt><trkpt lat="44.38768993594724" lon="7.570059731239346"><ele>514.0</ele><time>2026-04-11T17:15:28Z</time></trkpt><trkpt lat="44.387546035722714" lon="7.56989581037322"><ele>514.0</ele><time>2026-04-11T17:15:29Z</time></trkpt><trkpt lat="44.38741887733852" lon="7.569740781171599"><ele>514.0</ele><time>2026-04-11T17:15:30Z</time></trkpt><trkpt lat="44.3872866546988" lon="7.569603616612717"><ele>514.0</ele><time>2026-04-11T17:15:31Z</time></trkpt><trkpt lat="44.38714166184153" lon="7.569459182005678"><ele>514.6666666666667</ele><time>2026-04-11T17:15:32Z</time></trkpt><trkpt lat="44.38699396448581" lon="7.569305395491746"><ele>515.3333333333334</ele><time>2026-04-11T17:15:33Z</time></trkpt><trkpt lat="44.38683419188635" lon="7.569132730353947"><ele>516.0</ele><time>2026-04-11T17:15:34Z</time></trkpt><trkpt lat="44.38665730145728" lon="7.568940387494511"><ele>516.0</ele><time>2026-04-11T17:15:35Z</time></trkpt><trkpt lat="44.3864748984206" lon="7.568734791653394"><ele>516.0</ele><time>2026-04-11T17:15:36Z</time></trkpt><trkpt lat="44.38629092154748" lon="7.568531995842643"><ele>514.5</ele><time>2026-04-11T17:15:37Z</time></trkpt><trkpt lat="44.386102500316014" lon="7.568324001161347"><ele>513.0</ele><time>2026-04-11T17:15:38Z</time></trkpt><trkpt lat="44.38591219749643" lon="7.568124352480116"><ele>513.0</ele><time>2026-04-11T17:15:39Z</time></trkpt><trkpt lat="44.38573157216173" lon="7.56793211339084"><ele>513.0</ele><time>2026-04-11T17:15:40Z</time></trkpt><trkpt lat="44.385567165739296" lon="7.567751422624366"><ele>513.0</ele><time>2026-04-11T17:15:41Z</time></trkpt><trkpt lat="44.38541249795349" lon="7.56758728022935"><ele>513.0</ele><time>2026-04-11T17:15:42Z</time></trkpt><trkpt lat="44.385270375293715" lon="7.567439609066975"><ele>513.0</ele><time>2026-04-11T17:15:43Z</time></trkpt><trkpt lat="44.38514328345" lon="7.567303695369368"><ele>513.0</ele><time>2026-04-11T17:15:44Z</time></trkpt><trkpt lat="44.38503544641214" lon="7.567183103708195"><ele>513.0</ele><time>2026-04-11T17:15:45Z</time></trkpt><trkpt lat="44.38494115508127" lon="7.567070715712761"><ele>513.0</ele><time>2026-04-11T17:15:46Z</time></trkpt><trkpt lat="44.3848603233549" lon="7.566974545263681"><ele>513.0</ele><time>2026-04-11T17:15:47Z</time></trkpt><trkpt lat="44.38479056682283" lon="7.566887615116927"><ele>513.0</ele><time>2026-04-11T17:15:48Z</time></trkpt><trkpt lat="44.38472911302068" lon="7.5667933999334895"><ele>513.0</ele><time>2026-04-11T17:15:49Z</time></trkpt><trkpt lat="44.3846629203558" lon="7.566687234459624"><ele>513.5</ele><time>2026-04-11T17:15:50Z</time></trkpt><trkpt lat="44.3845974015645" lon="7.566542527308409"><ele>514.0</ele><time>2026-04-11T17:15:51Z</time></trkpt><trkpt lat="44.38455401128159" lon="7.566377908586557"><ele>514.5</ele><time>2026-04-11T17:15:52Z</time></trkpt><trkpt lat="44.38450674607979" lon="7.566239734038966"><ele>515.0</ele><time>2026-04-11T17:15:53Z</time></trkpt><trkpt lat="44.384443834675935" lon="7.5661308088072055"><ele>515.0</ele><time>2026-04-11T17:15:54Z</time></trkpt><trkpt lat="44.38435701653212" lon="7.5660331531253995"><ele>515.0</ele><time>2026-04-11T17:15:55Z</time></trkpt><trkpt lat="44.38424261962713" lon="7.565947659249259"><ele>515.0</ele><time>2026-04-11T17:15:56Z</time></trkpt><trkpt lat="44.38411580609792" lon="7.565875332725232"><ele>515.0</ele><time>2026-04-11T17:15:57Z</time></trkpt><trkpt lat="44.384000586447925" lon="7.565780302231449"><ele>515.0</ele><time>2026-04-11T17:15:58Z</time></trkpt><trkpt lat="44.3838931549723" lon="7.565664019529043"><ele>515.0</ele><time>2026-04-11T17:15:59Z</time></trkpt><trkpt lat="44.383818635865104" lon="7.565438704893437"><ele>515.0</ele><time>2026-04-11T17:16:00Z</time></trkpt><trkpt lat="44.38373764572216" lon="7.56521587239665"><ele>515.3333333333333</ele><time>2026-04-11T17:16:01Z</time></trkpt><trkpt lat="44.38365830621393" lon="7.564970114021371"><ele>515.6666666666666</ele><time>2026-04-11T17:16:02Z</time></trkpt><trkpt lat="44.38361011363856" lon="7.564709903401152"><ele>516.0</ele><time>2026-04-11T17:16:03Z</time></trkpt><trkpt lat="44.38355075458882" lon="7.564437704423783"><ele>515.3333333333334</ele><time>2026-04-11T17:16:04Z</time></trkpt><trkpt lat="44.38347424135426" lon="7.564162622376021"><ele>514.6666666666667</ele><time>2026-04-11T17:16:05Z</time></trkpt><trkpt lat="44.38342458529976" lon="7.563881889346967"><ele>514.0</ele><time>2026-04-11T17:16:06Z</time></trkpt><trkpt lat="44.38337131165672" lon="7.5636498506041105"><ele>514.0</ele><time>2026-04-11T17:16:07Z</time></trkpt><trkpt lat="44.38332526666909" lon="7.563443631320769"><ele>514.0</ele><time>2026-04-11T17:16:08Z</time></trkpt><trkpt lat="44.383282319145046" lon="7.563246979746933"><ele>514.0</ele><time>2026-04-11T17:16:09Z</time></trkpt><trkpt lat="44.383243244050625" lon="7.563043504582285"><ele>515.0</ele><time>2026-04-11T17:16:10Z</time></trkpt><trkpt lat="44.383198086679315" lon="7.562828288653522"><ele>516.0</ele><time>2026-04-11T17:16:11Z</time></trkpt><trkpt lat="44.3831531135225" lon="7.562623310638305"><ele>517.0</ele><time>2026-04-11T17:16:12Z</time></trkpt><trkpt lat="44.383112278041146" lon="7.562431057128326"><ele>517.0</ele><time>2026-04-11T17:16:13Z</time></trkpt><trkpt lat="44.383071732566876" lon="7.562246283961766"><ele>517.0</ele><time>2026-04-11T17:16:14Z</time></trkpt><trkpt lat="44.38302992595116" lon="7.562066446863021"><ele>517.0</ele><time>2026-04-11T17:16:15Z</time></trkpt><trkpt lat="44.3829944646704" lon="7.56189427955037"><ele>517.0</ele><time>2026-04-11T17:16:16Z</time></trkpt><trkpt lat="44.38296799053916" lon="7.561744959073294"><ele>517.0</ele><time>2026-04-11T17:16:17Z</time></trkpt><trkpt lat="44.38294466785792" lon="7.561601855796684"><ele>517.0</ele><time>2026-04-11T17:16:18Z</time></trkpt><trkpt lat="44.38292387597925" lon="7.561467480714939"><ele>517.0</ele><time>2026-04-11T17:16:19Z</time></trkpt><trkpt lat="44.38291257301612" lon="7.561343636936506"><ele>517.0</ele><time>2026-04-11T17:16:20Z</time></trkpt><trkpt lat="44.38291459143513" lon="7.561227202397646"><ele>517.0</ele><time>2026-04-11T17:16:21Z</time></trkpt><trkpt lat="44.38293754664249" lon="7.561093816834094"><ele>516.8000000000001</ele><time>2026-04-11T17:16:22Z</time></trkpt><trkpt lat="44.3830080136344" lon="7.56097447269272"><ele>516.6</ele><time>2026-04-11T17:16:23Z</time></trkpt><trkpt lat="44.38304169627808" lon="7.560847447252302"><ele>516.4000000000001</ele><time>2026-04-11T17:16:24Z</time></trkpt><trkpt lat="44.38305560259061" lon="7.560722877299256"><ele>516.2</ele><time>2026-04-11T17:16:25Z</time></trkpt><trkpt lat="44.38304556023177" lon="7.560587789846511"><ele>516.0</ele><time>2026-04-11T17:16:26Z</time></trkpt><trkpt lat="44.382977695657914" lon="7.560483787611912"><ele>516.0</ele><time>2026-04-11T17:16:27Z</time></trkpt><trkpt lat="44.38293622634007" lon="7.560378830892989"><ele>516.0</ele><time>2026-04-11T17:16:28Z</time></trkpt><trkpt lat="44.38284175251183" lon="7.56033003345753"><ele>516.0</ele><time>2026-04-11T17:16:29Z</time></trkpt><trkpt lat="44.38275416627097" lon="7.560298657168772"><ele>516.0</ele><time>2026-04-11T17:16:30Z</time></trkpt><trkpt lat="44.38265931035296" lon="7.5603007169838135"><ele>516.0</ele><time>2026-04-11T17:16:31Z</time></trkpt><trkpt lat="44.382553257237916" lon="7.5603259991902325"><ele>515.75</ele><time>2026-04-11T17:16:32Z</time></trkpt><trkpt lat="44.38244031241663" lon="7.560342245967845"><ele>515.5</ele><time>2026-04-11T17:16:33Z</time></trkpt><trkpt lat="44.38230868143357" lon="7.560308418091252"><ele>515.25</ele><time>2026-04-11T17:16:34Z</time></trkpt><trkpt lat="44.38216868447" lon="7.5603072665807165"><ele>515.0</ele><time>2026-04-11T17:16:35Z</time></trkpt><trkpt lat="44.38202434528979" lon="7.56013425246764"><ele>516.3333333333333</ele><time>2026-04-11T17:16:36Z</time></trkpt><trkpt lat="44.38187758251934" lon="7.560015712928484"><ele>517.6666666666666</ele><time>2026-04-11T17:16:37Z</time></trkpt><trkpt lat="44.38172432109249" lon="7.55989167284402"><ele>519.0</ele><time>2026-04-11T17:16:38Z</time></trkpt><trkpt lat="44.38156183937908" lon="7.559757089370659"><ele>519.0</ele><time>2026-04-11T17:16:39Z</time></trkpt><trkpt lat="44.381380047912046" lon="7.559616372730484"><ele>519.0</ele><time>2026-04-11T17:16:40Z</time></trkpt><trkpt lat="44.38117374776625" lon="7.559442479333225"><ele>519.0</ele><time>2026-04-11T17:16:41Z</time></trkpt><trkpt lat="44.38097038673544" lon="7.559263348976962"><ele>520.0</ele><time>2026-04-11T17:16:42Z</time></trkpt><trkpt lat="44.38076629457296" lon="7.559095567362633"><ele>521.0</ele><time>2026-04-11T17:16:43Z</time></trkpt><trkpt lat="44.38056560430737" lon="7.558930615261756"><ele>521.0</ele><time>2026-04-11T17:16:44Z</time></trkpt><trkpt lat="44.38036938759715" lon="7.558766451283994"><ele>521.0</ele><time>2026-04-11T17:16:45Z</time></trkpt><trkpt lat="44.38017371900108" lon="7.558603642176081"><ele>520.6666666666666</ele><time>2026-04-11T17:16:46Z</time></trkpt><trkpt lat="44.379983532262884" lon="7.558449165268583"><ele>520.3333333333334</ele><time>2026-04-11T17:16:47Z</time></trkpt><trkpt lat="44.37980577545394" lon="7.55830429776356"><ele>520.0</ele><time>2026-04-11T17:16:48Z</time></trkpt><trkpt lat="44.37963449592428" lon="7.558162343313767"><ele>520.6666666666667</ele><time>2026-04-11T17:16:49Z</time></trkpt><trkpt lat="44.3794602871923" lon="7.558019814579545"><ele>521.3333333333334</ele><time>2026-04-11T17:16:50Z</time></trkpt><trkpt lat="44.37928096427267" lon="7.557870556626547"><ele>522.0</ele><time>2026-04-11T17:16:51Z</time></trkpt><trkpt lat="44.37910362040713" lon="7.557722329113214"><ele>522.0</ele><time>2026-04-11T17:16:52Z</time></trkpt><trkpt lat="44.37892861910915" lon="7.5575738133478"><ele>522.0</ele><time>2026-04-11T17:16:53Z</time></trkpt><trkpt lat="44.37874730391185" lon="7.557421109229452"><ele>522.0</ele><time>2026-04-11T17:16:54Z</time></trkpt><trkpt lat="44.37856706171602" lon="7.557272546865826"><ele>522.0</ele><time>2026-04-11T17:16:55Z</time></trkpt><trkpt lat="44.37838033707124" lon="7.557125630873948"><ele>522.0</ele><time>2026-04-11T17:16:56Z</time></trkpt><trkpt lat="44.378194005457715" lon="7.556979032110314"><ele>522.0</ele><time>2026-04-11T17:16:56.999Z</time></trkpt><trkpt lat="44.378005264109575" lon="7.556822317921358"><ele>522.0</ele><time>2026-04-11T17:16:57.999Z</time></trkpt><trkpt lat="44.37780569010676" lon="7.556662624086145"><ele>522.0</ele><time>2026-04-11T17:16:58.999Z</time></trkpt><trkpt lat="44.37759614889374" lon="7.556495539475441"><ele>522.0</ele><time>2026-04-11T17:16:59.999Z</time></trkpt><trkpt lat="44.37738742125978" lon="7.556327725279658"><ele>522.0</ele><time>2026-04-11T17:17:00.999Z</time></trkpt><trkpt lat="44.37718903372206" lon="7.556169141514543"><ele>523.0</ele><time>2026-04-11T17:17:01.999Z</time></trkpt><trkpt lat="44.3769895674645" lon="7.556011795673214"><ele>524.0</ele><time>2026-04-11T17:17:02.999Z</time></trkpt><trkpt lat="44.37678639889417" lon="7.5558580591583535"><ele>524.0</ele><time>2026-04-11T17:17:03.999Z</time></trkpt><trkpt lat="44.37657951966669" lon="7.555708037194992"><ele>524.0</ele><time>2026-04-11T17:17:04.999Z</time></trkpt><trkpt lat="44.37637596140172" lon="7.5555652058119955"><ele>524.3333333333333</ele><time>2026-04-11T17:17:05.999Z</time></trkpt><trkpt lat="44.376185011603184" lon="7.555432732692647"><ele>524.6666666666666</ele><time>2026-04-11T17:17:06.999Z</time></trkpt><trkpt lat="44.376015385176075" lon="7.555314630995652"><ele>525.0</ele><time>2026-04-11T17:17:07.999Z</time></trkpt><trkpt lat="44.37585432474758" lon="7.555205088242629"><ele>525.0</ele><time>2026-04-11T17:17:08.999Z</time></trkpt><trkpt lat="44.37568724374019" lon="7.555097447501376"><ele>525.0</ele><time>2026-04-11T17:17:09.999Z</time></trkpt><trkpt lat="44.37550753021172" lon="7.554989511990792"><ele>525.0</ele><time>2026-04-11T17:17:10.999Z</time></trkpt><trkpt lat="44.37532462051707" lon="7.554875405490398"><ele>525.0</ele><time>2026-04-11T17:17:11.999Z</time></trkpt><trkpt lat="44.375130507013154" lon="7.554758760221938"><ele>525.0</ele><time>2026-04-11T17:17:12.999Z</time></trkpt><trkpt lat="44.3749250289791" lon="7.5546463310893195"><ele>525.0</ele><time>2026-04-11T17:17:13.999Z</time></trkpt><trkpt lat="44.37470375028811" lon="7.554530336884294"><ele>526.5</ele><time>2026-04-11T17:17:14.999Z</time></trkpt><trkpt lat="44.37446348872997" lon="7.554413256472015"><ele>528.0</ele><time>2026-04-11T17:17:15.999Z</time></trkpt><trkpt lat="44.37420566254303" lon="7.554292462950611"><ele>528.0</ele><time>2026-04-11T17:17:16.999Z</time></trkpt><trkpt lat="44.373934829054555" lon="7.55415763824858"><ele>528.0</ele><time>2026-04-11T17:17:17.999Z</time></trkpt><trkpt lat="44.37369998927243" lon="7.55404271679433"><ele>529.0</ele><time>2026-04-11T17:17:18.999Z</time></trkpt><trkpt lat="44.37347391820643" lon="7.5539443570612725"><ele>530.0</ele><time>2026-04-11T17:17:19.999Z</time></trkpt><trkpt lat="44.373223041435594" lon="7.553838237766408"><ele>530.5</ele><time>2026-04-11T17:17:20.999Z</time></trkpt><trkpt lat="44.37297725231455" lon="7.553742685932795"><ele>531.0</ele><time>2026-04-11T17:17:21.999Z</time></trkpt><trkpt lat="44.37274004954396" lon="7.553657847269893"><ele>531.0</ele><time>2026-04-11T17:17:22.999Z</time></trkpt><trkpt lat="44.372505171893394" lon="7.553574568153545"><ele>531.0</ele><time>2026-04-11T17:17:23.999Z</time></trkpt><trkpt lat="44.372261239373714" lon="7.553493980506357"><ele>530.5</ele><time>2026-04-11T17:17:24.999Z</time></trkpt><trkpt lat="44.372016461887675" lon="7.553420270080053"><ele>530.0</ele><time>2026-04-11T17:17:25.999Z</time></trkpt><trkpt lat="44.37176199189233" lon="7.5533407892887015"><ele>530.0</ele><time>2026-04-11T17:17:27Z</time></trkpt><trkpt lat="44.3715016575871" lon="7.553251457932516"><ele>530.0</ele><time>2026-04-11T17:17:28Z</time></trkpt><trkpt lat="44.37123269115905" lon="7.553163278239241"><ele>532.5</ele><time>2026-04-11T17:17:29Z</time></trkpt><trkpt lat="44.37094123351471" lon="7.553071076095196"><ele>535.0</ele><time>2026-04-11T17:17:30Z</time></trkpt><trkpt lat="44.37063632214919" lon="7.552974631943839"><ele>535.5</ele><time>2026-04-11T17:17:31Z</time></trkpt><trkpt lat="44.37034398466774" lon="7.552889427096046"><ele>536.0</ele><time>2026-04-11T17:17:32Z</time></trkpt><trkpt lat="44.36996997478485" lon="7.552758353117798"><ele>537.0</ele><time>2026-04-11T17:17:33Z</time></trkpt><trkpt lat="44.369631005054536" lon="7.552647589645306"><ele>538.0</ele><time>2026-04-11T17:17:34Z</time></trkpt><trkpt lat="44.36928289267063" lon="7.552538732130866"><ele>538.0</ele><time>2026-04-11T17:17:35Z</time></trkpt><trkpt lat="44.368931178016666" lon="7.552421775305854"><ele>538.0</ele><time>2026-04-11T17:17:36Z</time></trkpt><trkpt lat="44.368569957044215" lon="7.552305731780882"><ele>538.5</ele><time>2026-04-11T17:17:37Z</time></trkpt><trkpt lat="44.36819233173338" lon="7.5521840164386065"><ele>539.0</ele><time>2026-04-11T17:17:38Z</time></trkpt><trkpt lat="44.36781515696465" lon="7.552068798100359"><ele>539.5</ele><time>2026-04-11T17:17:39Z</time></trkpt><trkpt lat="44.36744133465855" lon="7.551925538209895"><ele>540.0</ele><time>2026-04-11T17:17:40Z</time></trkpt><trkpt lat="44.36706363734852" lon="7.551801987285976"><ele>540.0</ele><time>2026-04-11T17:17:41Z</time></trkpt><trkpt lat="44.36674832717283" lon="7.551719105138657"><ele>540.0</ele><time>2026-04-11T17:17:42Z</time></trkpt><trkpt lat="44.36637321706906" lon="7.5515977822839995"><ele>542.0</ele><time>2026-04-11T17:17:43Z</time></trkpt><trkpt lat="44.36602500066746" lon="7.551485994265787"><ele>544.0</ele><time>2026-04-11T17:17:44Z</time></trkpt><trkpt lat="44.36567307628551" lon="7.551346872325364"><ele>543.5</ele><time>2026-04-11T17:17:45Z</time></trkpt><trkpt lat="44.36531425647529" lon="7.551252785959029"><ele>543.0</ele><time>2026-04-11T17:17:46Z</time></trkpt><trkpt lat="44.364956171761634" lon="7.551135317604839"><ele>544.5</ele><time>2026-04-11T17:17:47Z</time></trkpt><trkpt lat="44.364628983497354" lon="7.55101943423157"><ele>546.0</ele><time>2026-04-11T17:17:48Z</time></trkpt><trkpt lat="44.36433075445368" lon="7.550914414092447"><ele>546.0</ele><time>2026-04-11T17:17:49Z</time></trkpt><trkpt lat="44.36404867872552" lon="7.550820948835463"><ele>546.0</ele><time>2026-04-11T17:17:50Z</time></trkpt><trkpt lat="44.36377859136997" lon="7.550733804310629"><ele>545.5</ele><time>2026-04-11T17:17:51Z</time></trkpt><trkpt lat="44.36352635003301" lon="7.5506508355742925"><ele>545.0</ele><time>2026-04-11T17:17:52Z</time></trkpt><trkpt lat="44.363277936223184" lon="7.5505678620928744"><ele>545.0</ele><time>2026-04-11T17:17:53Z</time></trkpt><trkpt lat="44.36303328449528" lon="7.550486012877142"><ele>545.0</ele><time>2026-04-11T17:17:54Z</time></trkpt><trkpt lat="44.362793537691374" lon="7.550408401833209"><ele>546.5</ele><time>2026-04-11T17:17:55Z</time></trkpt><trkpt lat="44.362557545726965" lon="7.550330260339029"><ele>548.0</ele><time>2026-04-11T17:17:56Z</time></trkpt><trkpt lat="44.362326257248405" lon="7.550256917411534"><ele>548.0</ele><time>2026-04-11T17:17:57Z</time></trkpt><trkpt lat="44.362090866081466" lon="7.550182012822979"><ele>548.0</ele><time>2026-04-11T17:17:58Z</time></trkpt><trkpt lat="44.361855627173156" lon="7.550105685924559"><ele>548.0</ele><time>2026-04-11T17:17:59Z</time></trkpt><trkpt lat="44.3616161688989" lon="7.550024314153324"><ele>548.0</ele><time>2026-04-11T17:18:00Z</time></trkpt><trkpt lat="44.361358818475665" lon="7.549940755574603"><ele>548.0</ele><time>2026-04-11T17:18:01Z</time></trkpt><trkpt lat="44.36112021418988" lon="7.5498584306133765"><ele>548.0</ele><time>2026-04-11T17:18:02Z</time></trkpt><trkpt lat="44.36086942372806" lon="7.549776924171919"><ele>548.0</ele><time>2026-04-11T17:18:03Z</time></trkpt><trkpt lat="44.36060850222671" lon="7.549694247272809"><ele>548.0</ele><time>2026-04-11T17:18:04Z</time></trkpt><trkpt lat="44.36035043923133" lon="7.549615894980847"><ele>549.5</ele><time>2026-04-11T17:18:05Z</time></trkpt><trkpt lat="44.36008680918484" lon="7.549532204175263"><ele>551.0</ele><time>2026-04-11T17:18:06Z</time></trkpt><trkpt lat="44.35982147547191" lon="7.549448449609748"><ele>551.5</ele><time>2026-04-11T17:18:07Z</time></trkpt><trkpt lat="44.35956089652971" lon="7.549367260760154"><ele>552.0</ele><time>2026-04-11T17:18:08Z</time></trkpt><trkpt lat="44.359304392623834" lon="7.549280391648154"><ele>552.0</ele><time>2026-04-11T17:18:09Z</time></trkpt><trkpt lat="44.35906146107828" lon="7.549204334681243"><ele>552.0</ele><time>2026-04-11T17:18:10Z</time></trkpt><trkpt lat="44.35883039174584" lon="7.549139741198265"><ele>553.5</ele><time>2026-04-11T17:18:11Z</time></trkpt><trkpt lat="44.35857200127706" lon="7.549036587522632"><ele>555.0</ele><time>2026-04-11T17:18:12Z</time></trkpt><trkpt lat="44.358331972507294" lon="7.548959757994376"><ele>555.0</ele><time>2026-04-11T17:18:13Z</time></trkpt><trkpt lat="44.35808633354997" lon="7.548883928361814"><ele>555.0</ele><time>2026-04-11T17:18:14Z</time></trkpt><trkpt lat="44.35786091071805" lon="7.5488118489591125"><ele>555.6666666666666</ele><time>2026-04-11T17:18:15Z</time></trkpt><trkpt lat="44.35765946437647" lon="7.5487440084822275"><ele>556.3333333333333</ele><time>2026-04-11T17:18:16Z</time></trkpt><trkpt lat="44.35746408156696" lon="7.548679400679288"><ele>557.0</ele><time>2026-04-11T17:18:17Z</time></trkpt><trkpt lat="44.357248122722076" lon="7.54861001650526"><ele>560.5</ele><time>2026-04-11T17:18:18Z</time></trkpt><trkpt lat="44.357004612409604" lon="7.548528542336879"><ele>564.0</ele><time>2026-04-11T17:18:19Z</time></trkpt><trkpt lat="44.35674636035955" lon="7.548445262629087"><ele>564.0</ele><time>2026-04-11T17:18:20Z</time></trkpt><trkpt lat="44.35648424033884" lon="7.548346796394093"><ele>564.0</ele><time>2026-04-11T17:18:21Z</time></trkpt><trkpt lat="44.35620803359023" lon="7.5482560969630335"><ele>563.5</ele><time>2026-04-11T17:18:22Z</time></trkpt><trkpt lat="44.355925804288226" lon="7.548169020570014"><ele>563.0</ele><time>2026-04-11T17:18:23Z</time></trkpt><trkpt lat="44.35564014174333" lon="7.548077627752287"><ele>564.0</ele><time>2026-04-11T17:18:24Z</time></trkpt><trkpt lat="44.35534518624579" lon="7.5479825009494155"><ele>565.0</ele><time>2026-04-11T17:18:25Z</time></trkpt><trkpt lat="44.35504442362669" lon="7.547893326065002"><ele>565.5</ele><time>2026-04-11T17:18:26Z</time></trkpt><trkpt lat="44.354737220814265" lon="7.547794309542689"><ele>566.0</ele><time>2026-04-11T17:18:27Z</time></trkpt><trkpt lat="44.35443344545983" lon="7.547683485264682"><ele>566.0</ele><time>2026-04-11T17:18:28Z</time></trkpt><trkpt lat="44.354117418655186" lon="7.547598008757496"><ele>566.0</ele><time>2026-04-11T17:18:29Z</time></trkpt><trkpt lat="44.35380851881419" lon="7.547495843678388"><ele>566.0</ele><time>2026-04-11T17:18:30Z</time></trkpt><trkpt lat="44.35350918512936" lon="7.54739779198432"><ele>566.0</ele><time>2026-04-11T17:18:31Z</time></trkpt><trkpt lat="44.35321364031304" lon="7.5472969362620805"><ele>566.5</ele><time>2026-04-11T17:18:32Z</time></trkpt><trkpt lat="44.35291884618609" lon="7.5472057057782775"><ele>567.0</ele><time>2026-04-11T17:18:33Z</time></trkpt><trkpt lat="44.352631301122855" lon="7.547111494648087"><ele>568.0</ele><time>2026-04-11T17:18:34Z</time></trkpt><trkpt lat="44.35234345485244" lon="7.547019995268358"><ele>569.0</ele><time>2026-04-11T17:18:35Z</time></trkpt><trkpt lat="44.352054985622026" lon="7.546929218442378"><ele>569.5</ele><time>2026-04-11T17:18:36Z</time></trkpt><trkpt lat="44.351771489384205" lon="7.5468469110587035"><ele>570.0</ele><time>2026-04-11T17:18:37Z</time></trkpt><trkpt lat="44.351493680294375" lon="7.546766449337419"><ele>571.0</ele><time>2026-04-11T17:18:38Z</time></trkpt><trkpt lat="44.35123213636766" lon="7.546699418430317"><ele>572.0</ele><time>2026-04-11T17:18:39Z</time></trkpt><trkpt lat="44.35098445648044" lon="7.5466377111963565"><ele>572.0</ele><time>2026-04-11T17:18:40Z</time></trkpt><trkpt lat="44.35074092943672" lon="7.546574170281895"><ele>572.0</ele><time>2026-04-11T17:18:41Z</time></trkpt><trkpt lat="44.35050990389443" lon="7.546529093321519"><ele>571.0</ele><time>2026-04-11T17:18:42Z</time></trkpt><trkpt lat="44.35025572946427" lon="7.546466387899558"><ele>570.0</ele><time>2026-04-11T17:18:43Z</time></trkpt><trkpt lat="44.350023790663" lon="7.5464227298455"><ele>570.0</ele><time>2026-04-11T17:18:44Z</time></trkpt><trkpt lat="44.34982653741647" lon="7.546367556339233"><ele>570.0</ele><time>2026-04-11T17:18:45Z</time></trkpt><trkpt lat="44.3496442305237" lon="7.546331205150666"><ele>570.0</ele><time>2026-04-11T17:18:46Z</time></trkpt><trkpt lat="44.34943942677279" lon="7.546292113694891"><ele>570.3333333333334</ele><time>2026-04-11T17:18:47Z</time></trkpt><trkpt lat="44.34922493340592" lon="7.546255345590462"><ele>570.6666666666667</ele><time>2026-04-11T17:18:48Z</time></trkpt><trkpt lat="44.34900617607752" lon="7.546233113313759"><ele>571.0</ele><time>2026-04-11T17:18:49Z</time></trkpt><trkpt lat="44.34879769857904" lon="7.5462002439125175"><ele>571.0</ele><time>2026-04-11T17:18:50Z</time></trkpt><trkpt lat="44.34859053935153" lon="7.546174334392382"><ele>571.0</ele><time>2026-04-11T17:18:51Z</time></trkpt><trkpt lat="44.34839479611927" lon="7.546144086872265"><ele>571.0</ele><time>2026-04-11T17:18:52Z</time></trkpt><trkpt lat="44.34819957667799" lon="7.546113802574275"><ele>571.0</ele><time>2026-04-11T17:18:53Z</time></trkpt><trkpt lat="44.34800867848253" lon="7.546087482970588"><ele>571.0</ele><time>2026-04-11T17:18:54Z</time></trkpt><trkpt lat="44.34782254135681" lon="7.546042817308"><ele>571.0</ele><time>2026-04-11T17:18:55Z</time></trkpt><trkpt lat="44.34763680829206" lon="7.546040692753461"><ele>571.0</ele><time>2026-04-11T17:18:56Z</time></trkpt><trkpt lat="44.34745243101099" lon="7.546013844777698"><ele>571.0</ele><time>2026-04-11T17:18:57Z</time></trkpt><trkpt lat="44.347264629993845" lon="7.545986835997732"><ele>571.0</ele><time>2026-04-11T17:18:58Z</time></trkpt><trkpt lat="44.34708599171222" lon="7.545965850398915"><ele>571.0</ele><time>2026-04-11T17:18:59Z</time></trkpt><trkpt lat="44.34688337762612" lon="7.545934268776347"><ele>571.0</ele><time>2026-04-11T17:19:00Z</time></trkpt><trkpt lat="44.3466578106002" lon="7.545906038802403"><ele>571.0</ele><time>2026-04-11T17:19:00.999Z</time></trkpt><trkpt lat="44.34642253728398" lon="7.545876048988931"><ele>571.5</ele><time>2026-04-11T17:19:01.999Z</time></trkpt><trkpt lat="44.346188448658765" lon="7.545843622199865"><ele>572.0</ele><time>2026-04-11T17:19:02.999Z</time></trkpt><trkpt lat="44.345958119065806" lon="7.54580723363693"><ele>572.0</ele><time>2026-04-11T17:19:03.999Z</time></trkpt><trkpt lat="44.3457368594051" lon="7.545772994956149"><ele>572.0</ele><time>2026-04-11T17:19:04.999Z</time></trkpt><trkpt lat="44.3455123206671" lon="7.545741272953927"><ele>572.0</ele><time>2026-04-11T17:19:05.999Z</time></trkpt><trkpt lat="44.345282773873976" lon="7.545711730967576"><ele>572.5</ele><time>2026-04-11T17:19:06.999Z</time></trkpt><trkpt lat="44.345044729168904" lon="7.545680488936097"><ele>573.0</ele><time>2026-04-11T17:19:07.999Z</time></trkpt><trkpt lat="44.34480320005821" lon="7.545649670098235"><ele>573.5</ele><time>2026-04-11T17:19:08.999Z</time></trkpt><trkpt lat="44.34456140527542" lon="7.545616645982306"><ele>574.0</ele><time>2026-04-11T17:19:09.999Z</time></trkpt><trkpt lat="44.34431129356854" lon="7.545585214835107"><ele>574.0</ele><time>2026-04-11T17:19:10.999Z</time></trkpt><trkpt lat="44.34403771972285" lon="7.545553777765782"><ele>574.0</ele><time>2026-04-11T17:19:11.999Z</time></trkpt><trkpt lat="44.34376075666598" lon="7.545517409597341"><ele>574.0</ele><time>2026-04-11T17:19:12.999Z</time></trkpt><trkpt lat="44.34351265517852" lon="7.545474001604464"><ele>574.0</ele><time>2026-04-11T17:19:13.999Z</time></trkpt><trkpt lat="44.343270506146375" lon="7.545435047588393"><ele>574.6666666666667</ele><time>2026-04-11T17:19:14.999Z</time></trkpt><trkpt lat="44.34303932017835" lon="7.545402090007653"><ele>575.3333333333334</ele><time>2026-04-11T17:19:15.999Z</time></trkpt><trkpt lat="44.34283259479249" lon="7.5453691037804695"><ele>576.0</ele><time>2026-04-11T17:19:16.999Z</time></trkpt><trkpt lat="44.34264400937797" lon="7.54533203113293"><ele>576.0</ele><time>2026-04-11T17:19:17.999Z</time></trkpt><trkpt lat="44.34246413275667" lon="7.545306778148864"><ele>576.0</ele><time>2026-04-11T17:19:18.999Z</time></trkpt><trkpt lat="44.34229479440988" lon="7.545282595068518"><ele>576.0</ele><time>2026-04-11T17:19:19.999Z</time></trkpt><trkpt lat="44.34213181421996" lon="7.545255572166768"><ele>576.0</ele><time>2026-04-11T17:19:20.999Z</time></trkpt><trkpt lat="44.34196825506213" lon="7.545242456400331"><ele>576.0</ele><time>2026-04-11T17:19:21.999Z</time></trkpt><trkpt lat="44.341785353296935" lon="7.545217967064208"><ele>576.0</ele><time>2026-04-11T17:19:22.999Z</time></trkpt><trkpt lat="44.341592085355465" lon="7.545197060986123"><ele>576.0</ele><time>2026-04-11T17:19:23.999Z</time></trkpt><trkpt lat="44.34138450113768" lon="7.545167110930482"><ele>576.0</ele><time>2026-04-11T17:19:24.999Z</time></trkpt><trkpt lat="44.34116844857847" lon="7.545138931832119"><ele>576.0</ele><time>2026-04-11T17:19:25.999Z</time></trkpt><trkpt lat="44.34094764382909" lon="7.545112198290984"><ele>576.6666666666666</ele><time>2026-04-11T17:19:26.999Z</time></trkpt><trkpt lat="44.3407262146353" lon="7.545082730489738"><ele>577.3333333333333</ele><time>2026-04-11T17:19:27.999Z</time></trkpt><trkpt lat="44.34051266419724" lon="7.545048178598494"><ele>578.0</ele><time>2026-04-11T17:19:28.999Z</time></trkpt><trkpt lat="44.340317544105346" lon="7.545009732583583"><ele>578.0</ele><time>2026-04-11T17:19:29.999Z</time></trkpt><trkpt lat="44.34013405707209" lon="7.544958263374037"><ele>578.0</ele><time>2026-04-11T17:19:30.999Z</time></trkpt><trkpt lat="44.33995326291194" lon="7.544896341928758"><ele>578.0</ele><time>2026-04-11T17:19:31.999Z</time></trkpt><trkpt lat="44.339771220805126" lon="7.544818293135669"><ele>578.6666666666666</ele><time>2026-04-11T17:19:33Z</time></trkpt><trkpt lat="44.33959045671257" lon="7.544730130195501"><ele>579.3333333333334</ele><time>2026-04-11T17:19:34Z</time></trkpt><trkpt lat="44.33941269138526" lon="7.544641286423763"><ele>580.0</ele><time>2026-04-11T17:19:35Z</time></trkpt><trkpt lat="44.339238944465095" lon="7.544549876398683"><ele>580.3333333333334</ele><time>2026-04-11T17:19:36Z</time></trkpt><trkpt lat="44.33908045400455" lon="7.544460311107629"><ele>580.6666666666666</ele><time>2026-04-11T17:19:37Z</time></trkpt><trkpt lat="44.338945125739436" lon="7.544378182441382"><ele>581.0</ele><time>2026-04-11T17:19:38Z</time></trkpt><trkpt lat="44.33882071830461" lon="7.544298626768705"><ele>581.5</ele><time>2026-04-11T17:19:39Z</time></trkpt><trkpt lat="44.33870601547566" lon="7.544226025643953"><ele>582.0</ele><time>2026-04-11T17:19:40Z</time></trkpt><trkpt lat="44.3385975479195" lon="7.5441594118326325"><ele>582.5</ele><time>2026-04-11T17:19:41Z</time></trkpt><trkpt lat="44.33848716124486" lon="7.54409052350489"><ele>583.0</ele><time>2026-04-11T17:19:42Z</time></trkpt><trkpt lat="44.33839818646298" lon="7.544025569516008"><ele>583.0</ele><time>2026-04-11T17:19:43Z</time></trkpt><trkpt lat="44.338332313279295" lon="7.54396895943691"><ele>583.0</ele><time>2026-04-11T17:19:44Z</time></trkpt><trkpt lat="44.33827883498827" lon="7.5439187995215375"><ele>583.0</ele><time>2026-04-11T17:19:45Z</time></trkpt><trkpt lat="44.3381715673439" lon="7.543817405234279"><ele>583.0</ele><time>2026-04-11T17:19:47Z</time></trkpt><trkpt lat="44.33810729625491" lon="7.543722253380541"><ele>583.0</ele><time>2026-04-11T17:19:48Z</time></trkpt><trkpt lat="44.33804378017" lon="7.543617253988207"><ele>582.5</ele><time>2026-04-11T17:19:49Z</time></trkpt><trkpt lat="44.33796750684933" lon="7.543528522138645"><ele>582.0</ele><time>2026-04-11T17:19:50Z</time></trkpt><trkpt lat="44.33786597425501" lon="7.543457432046291"><ele>581.5</ele><time>2026-04-11T17:19:51Z</time></trkpt><trkpt lat="44.33775630778182" lon="7.543359293259151"><ele>581.0</ele><time>2026-04-11T17:19:52Z</time></trkpt><trkpt lat="44.33766075488921" lon="7.543218128196221"><ele>581.0</ele><time>2026-04-11T17:19:53Z</time></trkpt><trkpt lat="44.33757369494724" lon="7.543056226840277"><ele>581.0</ele><time>2026-04-11T17:19:54Z</time></trkpt><trkpt lat="44.337494416114176" lon="7.542851705984737"><ele>581.0</ele><time>2026-04-11T17:19:55Z</time></trkpt><trkpt lat="44.337386497197826" lon="7.5426199557051135"><ele>580.5</ele><time>2026-04-11T17:19:56Z</time></trkpt><trkpt lat="44.33726248566495" lon="7.542351707566711"><ele>580.0</ele><time>2026-04-11T17:19:57Z</time></trkpt><trkpt lat="44.337137083664125" lon="7.542064484551705"><ele>580.6666666666667</ele><time>2026-04-11T17:19:58Z</time></trkpt><trkpt lat="44.33702150003139" lon="7.541781659745073"><ele>581.3333333333334</ele><time>2026-04-11T17:19:59Z</time></trkpt><trkpt lat="44.33693069748828" lon="7.541530615935515"><ele>582.0</ele><time>2026-04-11T17:20:00Z</time></trkpt><trkpt lat="44.336850933301534" lon="7.541278534655146"><ele>582.0</ele><time>2026-04-11T17:20:01Z</time></trkpt><trkpt lat="44.3367684042049" lon="7.541002015518758"><ele>582.0</ele><time>2026-04-11T17:20:02Z</time></trkpt><trkpt lat="44.33669841269438" lon="7.540709972952567"><ele>582.0</ele><time>2026-04-11T17:20:03Z</time></trkpt><trkpt lat="44.336636280088804" lon="7.540409169187388"><ele>582.0</ele><time>2026-04-11T17:20:04Z</time></trkpt><trkpt lat="44.336587205742205" lon="7.5401114888183844"><ele>582.0</ele><time>2026-04-11T17:20:05Z</time></trkpt><trkpt lat="44.3365469582713" lon="7.539807009516771"><ele>582.0</ele><time>2026-04-11T17:20:06Z</time></trkpt><trkpt lat="44.33651899629851" lon="7.539487986688489"><ele>582.5</ele><time>2026-04-11T17:20:07Z</time></trkpt><trkpt lat="44.33648176992284" lon="7.53915836601925"><ele>583.0</ele><time>2026-04-11T17:20:08Z</time></trkpt><trkpt lat="44.33647131465847" lon="7.538818549527569"><ele>583.5</ele><time>2026-04-11T17:20:09Z</time></trkpt><trkpt lat="44.336465244884685" lon="7.538490197264915"><ele>584.0</ele><time>2026-04-11T17:20:10Z</time></trkpt><trkpt lat="44.3364856850849" lon="7.538185921010235"><ele>584.0</ele><time>2026-04-11T17:20:11Z</time></trkpt><trkpt lat="44.33649710802895" lon="7.537909633315671"><ele>584.0</ele><time>2026-04-11T17:20:12Z</time></trkpt><trkpt lat="44.33650878010665" lon="7.53765274162612"><ele>584.0</ele><time>2026-04-11T17:20:13Z</time></trkpt><trkpt lat="44.3365193038689" lon="7.5373900557613664"><ele>584.0</ele><time>2026-04-11T17:20:14Z</time></trkpt><trkpt lat="44.33652954760804" lon="7.537120912293386"><ele>584.0</ele><time>2026-04-11T17:20:15Z</time></trkpt><trkpt lat="44.33653992632943" lon="7.536848221731463"><ele>584.0</ele><time>2026-04-11T17:20:16Z</time></trkpt><trkpt lat="44.33655000652721" lon="7.536584837439764"><ele>584.0</ele><time>2026-04-11T17:20:17Z</time></trkpt><trkpt lat="44.336560217399644" lon="7.536326622637917"><ele>584.0</ele><time>2026-04-11T17:20:18Z</time></trkpt><trkpt lat="44.3365705637325" lon="7.53606498278563"><ele>584.0</ele><time>2026-04-11T17:20:19Z</time></trkpt><trkpt lat="44.336580944618056" lon="7.535800615323097"><ele>584.3333333333333</ele><time>2026-04-11T17:20:20Z</time></trkpt><trkpt lat="44.336591577354596" lon="7.535526290613863"><ele>584.6666666666666</ele><time>2026-04-11T17:20:21Z</time></trkpt><trkpt lat="44.3366030297613" lon="7.535230818549611"><ele>585.0</ele><time>2026-04-11T17:20:22Z</time></trkpt><trkpt lat="44.336614970388524" lon="7.534922750349838"><ele>586.0</ele><time>2026-04-11T17:20:23Z</time></trkpt><trkpt lat="44.33662741563334" lon="7.534601662845451"><ele>587.0</ele><time>2026-04-11T17:20:24Z</time></trkpt><trkpt lat="44.33661262483338" lon="7.53425376165994"><ele>588.0</ele><time>2026-04-11T17:20:25Z</time></trkpt><trkpt lat="44.33662674022446" lon="7.533896933579086"><ele>589.0</ele><time>2026-04-11T17:20:26Z</time></trkpt><trkpt lat="44.33664500973159" lon="7.53354586593336"><ele>589.0</ele><time>2026-04-11T17:20:27Z</time></trkpt><trkpt lat="44.33666263213009" lon="7.533205481090021"><ele>589.0</ele><time>2026-04-11T17:20:28Z</time></trkpt><trkpt lat="44.33667893007974" lon="7.532878007298009"><ele>589.0</ele><time>2026-04-11T17:20:29Z</time></trkpt><trkpt lat="44.33669452758711" lon="7.532549940809277"><ele>589.0</ele><time>2026-04-11T17:20:30Z</time></trkpt><trkpt lat="44.33670713378807" lon="7.532217023269798"><ele>590.0</ele><time>2026-04-11T17:20:31Z</time></trkpt><trkpt lat="44.33671907478066" lon="7.5318772075700124"><ele>591.0</ele><time>2026-04-11T17:20:32Z</time></trkpt><trkpt lat="44.33672975264619" lon="7.531545854231901"><ele>591.0</ele><time>2026-04-11T17:20:33Z</time></trkpt><trkpt lat="44.336737265572324" lon="7.531226263011527"><ele>591.0</ele><time>2026-04-11T17:20:34Z</time></trkpt><trkpt lat="44.336754544900074" lon="7.5309244303980805"><ele>591.0</ele><time>2026-04-11T17:20:35Z</time></trkpt><trkpt lat="44.336746705886114" lon="7.5306178205722665"><ele>592.0</ele><time>2026-04-11T17:20:36Z</time></trkpt><trkpt lat="44.33670512964573" lon="7.530305258377364"><ele>593.0</ele><time>2026-04-11T17:20:37Z</time></trkpt><trkpt lat="44.336676925081164" lon="7.529984719851768"><ele>593.0</ele><time>2026-04-11T17:20:38Z</time></trkpt><trkpt lat="44.336638550691035" lon="7.52967164108844"><ele>593.0</ele><time>2026-04-11T17:20:39Z</time></trkpt><trkpt lat="44.33658662502649" lon="7.52935904912661"><ele>593.5</ele><time>2026-04-11T17:20:40Z</time></trkpt><trkpt lat="44.33652742153948" lon="7.529044551367286"><ele>594.0</ele><time>2026-04-11T17:20:41Z</time></trkpt><trkpt lat="44.33645735802375" lon="7.528739490340521"><ele>597.0</ele><time>2026-04-11T17:20:42Z</time></trkpt><trkpt lat="44.33637083681241" lon="7.52844309273144"><ele>600.0</ele><time>2026-04-11T17:20:43Z</time></trkpt><trkpt lat="44.33626954909491" lon="7.528147384963635"><ele>597.5</ele><time>2026-04-11T17:20:44Z</time></trkpt><trkpt lat="44.33615962613404" lon="7.527845718527267"><ele>595.0</ele><time>2026-04-11T17:20:45Z</time></trkpt><trkpt lat="44.33604471101765" lon="7.527551102071489"><ele>595.0</ele><time>2026-04-11T17:20:46Z</time></trkpt><trkpt lat="44.335930222636364" lon="7.527277018847221"><ele>595.0</ele><time>2026-04-11T17:20:47Z</time></trkpt><trkpt lat="44.335826924814654" lon="7.527021894476048"><ele>595.0</ele><time>2026-04-11T17:20:48Z</time></trkpt><trkpt lat="44.33572484407509" lon="7.526765970860968"><ele>595.0</ele><time>2026-04-11T17:20:49Z</time></trkpt><trkpt lat="44.33562640983097" lon="7.526515483690265"><ele>595.0</ele><time>2026-04-11T17:20:50Z</time></trkpt><trkpt lat="44.335518796787106" lon="7.526256374897114"><ele>595.0</ele><time>2026-04-11T17:20:51Z</time></trkpt><trkpt lat="44.33541197568436" lon="7.525992774611925"><ele>595.0</ele><time>2026-04-11T17:20:52Z</time></trkpt><trkpt lat="44.335300842789515" lon="7.525717432517477"><ele>595.0</ele><time>2026-04-11T17:20:53Z</time></trkpt><trkpt lat="44.33519027047981" lon="7.525443984346726"><ele>595.3333333333334</ele><time>2026-04-11T17:20:54Z</time></trkpt><trkpt lat="44.33509597702254" lon="7.52516171040027"><ele>595.6666666666666</ele><time>2026-04-11T17:20:55Z</time></trkpt><trkpt lat="44.33498870444881" lon="7.52489402943224"><ele>596.0</ele><time>2026-04-11T17:20:56Z</time></trkpt><trkpt lat="44.334880043415424" lon="7.524622883706094"><ele>596.3333333333333</ele><time>2026-04-11T17:20:57Z</time></trkpt><trkpt lat="44.33477316345773" lon="7.524356182370758"><ele>596.6666666666666</ele><time>2026-04-11T17:20:58Z</time></trkpt><trkpt lat="44.33466648322481" lon="7.5240909321643255"><ele>597.0</ele><time>2026-04-11T17:20:59Z</time></trkpt><trkpt lat="44.334563611561975" lon="7.523835947948582"><ele>597.0</ele><time>2026-04-11T17:21:00Z</time></trkpt><trkpt lat="44.33445483518996" lon="7.52356633270767"><ele>597.0</ele><time>2026-04-11T17:21:01Z</time></trkpt><trkpt lat="44.334334759813004" lon="7.5232839590774745"><ele>597.0</ele><time>2026-04-11T17:21:02Z</time></trkpt><trkpt lat="44.334211371615844" lon="7.522992926560064"><ele>597.0</ele><time>2026-04-11T17:21:03Z</time></trkpt><trkpt lat="44.334092359230276" lon="7.522714484567686"><ele>596.5</ele><time>2026-04-11T17:21:04Z</time></trkpt><trkpt lat="44.33396360769655" lon="7.522419206428689"><ele>596.0</ele><time>2026-04-11T17:21:05Z</time></trkpt><trkpt lat="44.33382512680793" lon="7.522102948299176"><ele>597.5</ele><time>2026-04-11T17:21:06Z</time></trkpt><trkpt lat="44.33369921149931" lon="7.521815449673555"><ele>599.0</ele><time>2026-04-11T17:21:07Z</time></trkpt><trkpt lat="44.33356897632764" lon="7.521517663088113"><ele>599.0</ele><time>2026-04-11T17:21:07.999Z</time></trkpt><trkpt lat="44.33342051796328" lon="7.521240209358498"><ele>599.0</ele><time>2026-04-11T17:21:08.999Z</time></trkpt><trkpt lat="44.333299281708335" lon="7.520953407584043"><ele>598.5</ele><time>2026-04-11T17:21:09.999Z</time></trkpt><trkpt lat="44.333182731689384" lon="7.520652402703495"><ele>598.0</ele><time>2026-04-11T17:21:10.999Z</time></trkpt><trkpt lat="44.33306316704681" lon="7.520378479388525"><ele>599.0</ele><time>2026-04-11T17:21:11.999Z</time></trkpt><trkpt lat="44.33294471149865" lon="7.520109812305643"><ele>600.0</ele><time>2026-04-11T17:21:12.999Z</time></trkpt><trkpt lat="44.3328285543363" lon="7.519840980259052"><ele>600.0</ele><time>2026-04-11T17:21:13.999Z</time></trkpt><trkpt lat="44.33271570094441" lon="7.519578858126358"><ele>600.0</ele><time>2026-04-11T17:21:14.999Z</time></trkpt><trkpt lat="44.3326127529322" lon="7.519344611207649"><ele>600.0</ele><time>2026-04-11T17:21:15.999Z</time></trkpt><trkpt lat="44.332519154170555" lon="7.519126368500875"><ele>599.3333333333334</ele><time>2026-04-11T17:21:16.999Z</time></trkpt><trkpt lat="44.332434888663805" lon="7.518922241801303"><ele>598.6666666666667</ele><time>2026-04-11T17:21:17.999Z</time></trkpt><trkpt lat="44.332354838389655" lon="7.518729497226197"><ele>598.0</ele><time>2026-04-11T17:21:18.999Z</time></trkpt><trkpt lat="44.332283711163306" lon="7.5185484080563025"><ele>598.3333333333334</ele><time>2026-04-11T17:21:19.999Z</time></trkpt><trkpt lat="44.332208990785404" lon="7.518357879437368"><ele>598.6666666666666</ele><time>2026-04-11T17:21:20.999Z</time></trkpt><trkpt lat="44.332135884886824" lon="7.518170176281262"><ele>599.0</ele><time>2026-04-11T17:21:21.999Z</time></trkpt><trkpt lat="44.33206224587578" lon="7.517978041812827"><ele>599.3333333333333</ele><time>2026-04-11T17:21:22.999Z</time></trkpt><trkpt lat="44.331989231954104" lon="7.517784944115092"><ele>599.6666666666666</ele><time>2026-04-11T17:21:23.999Z</time></trkpt><trkpt lat="44.33191278054621" lon="7.517584944694066"><ele>600.0</ele><time>2026-04-11T17:21:24.999Z</time></trkpt><trkpt lat="44.331840685967045" lon="7.517394373168274"><ele>600.0</ele><time>2026-04-11T17:21:25.999Z</time></trkpt><trkpt lat="44.331773987185954" lon="7.517217648699871"><ele>600.0</ele><time>2026-04-11T17:21:26.999Z</time></trkpt><trkpt lat="44.33171642944389" lon="7.517047732080585"><ele>600.0</ele><time>2026-04-11T17:21:27.999Z</time></trkpt><trkpt lat="44.33166684243501" lon="7.516887739180861"><ele>600.0</ele><time>2026-04-11T17:21:28.999Z</time></trkpt><trkpt lat="44.3316301113035" lon="7.516743521517609"><ele>599.8</ele><time>2026-04-11T17:21:29.999Z</time></trkpt><trkpt lat="44.331605902415916" lon="7.516620509952698"><ele>599.6</ele><time>2026-04-11T17:21:30.999Z</time></trkpt><trkpt lat="44.33158918673736" lon="7.516500573135421"><ele>599.4</ele><time>2026-04-11T17:21:31.999Z</time></trkpt><trkpt lat="44.33156161519461" lon="7.5163959431519505"><ele>599.2</ele><time>2026-04-11T17:21:32.999Z</time></trkpt><trkpt lat="44.331455971211646" lon="7.516242478209052"><ele>599.0</ele><time>2026-04-11T17:21:34.999Z</time></trkpt><trkpt lat="44.33144918007624" lon="7.516021877360421"><ele>599.0</ele><time>2026-04-11T17:21:35.999Z</time></trkpt><trkpt lat="44.3313064598834" lon="7.515971759323025"><ele>599.0</ele><time>2026-04-11T17:21:36.999Z</time></trkpt><trkpt lat="44.3312505677959" lon="7.515797732405665"><ele>599.0</ele><time>2026-04-11T17:21:37.999Z</time></trkpt><trkpt lat="44.331188635719315" lon="7.515609438594124"><ele>599.0</ele><time>2026-04-11T17:21:39Z</time></trkpt><trkpt lat="44.331111152859194" lon="7.515398783075562"><ele>599.0</ele><time>2026-04-11T17:21:40Z</time></trkpt><trkpt lat="44.33104585286835" lon="7.515149632646461"><ele>599.0</ele><time>2026-04-11T17:21:41Z</time></trkpt><trkpt lat="44.33098668714432" lon="7.514876645346033"><ele>599.0</ele><time>2026-04-11T17:21:42Z</time></trkpt><trkpt lat="44.33093804928775" lon="7.514594219572669"><ele>599.0</ele><time>2026-04-11T17:21:43Z</time></trkpt><trkpt lat="44.33090023687928" lon="7.5143117687047685"><ele>599.0</ele><time>2026-04-11T17:21:44Z</time></trkpt><trkpt lat="44.33086952684048" lon="7.514017341201915"><ele>599.0</ele><time>2026-04-11T17:21:45Z</time></trkpt><trkpt lat="44.33085213717299" lon="7.513718321257292"><ele>598.6666666666666</ele><time>2026-04-11T17:21:46Z</time></trkpt><trkpt lat="44.33084944187921" lon="7.513416186492219"><ele>598.3333333333334</ele><time>2026-04-11T17:21:47Z</time></trkpt><trkpt lat="44.33085987960631" lon="7.513110096302127"><ele>598.0</ele><time>2026-04-11T17:21:48Z</time></trkpt><trkpt lat="44.330886646527794" lon="7.512804489091748"><ele>598.0</ele><time>2026-04-11T17:21:49Z</time></trkpt><trkpt lat="44.33093060618478" lon="7.512494822977083"><ele>598.0</ele><time>2026-04-11T17:21:50Z</time></trkpt><trkpt lat="44.3309860955335" lon="7.512186619610574"><ele>598.0</ele><time>2026-04-11T17:21:51Z</time></trkpt><trkpt lat="44.33105873725715" lon="7.511876723292684"><ele>598.0</ele><time>2026-04-11T17:21:52Z</time></trkpt><trkpt lat="44.3311522916134" lon="7.5115630621442335"><ele>598.0</ele><time>2026-04-11T17:21:53Z</time></trkpt><trkpt lat="44.3312631746372" lon="7.511245778327118"><ele>598.0</ele><time>2026-04-11T17:21:54Z</time></trkpt><trkpt lat="44.33138783444901" lon="7.510929326348371"><ele>598.0</ele><time>2026-04-11T17:21:55Z</time></trkpt><trkpt lat="44.331524772471184" lon="7.510624938249676"><ele>598.0</ele><time>2026-04-11T17:21:56Z</time></trkpt><trkpt lat="44.331661449470076" lon="7.510315327238528"><ele>598.0</ele><time>2026-04-11T17:21:57Z</time></trkpt><trkpt lat="44.33179916719812" lon="7.50999907972033"><ele>598.0</ele><time>2026-04-11T17:21:58Z</time></trkpt><trkpt lat="44.3319362779051" lon="7.509675927923456"><ele>598.5</ele><time>2026-04-11T17:21:59Z</time></trkpt><trkpt lat="44.33206900267741" lon="7.509362034105901"><ele>599.0</ele><time>2026-04-11T17:22:00Z</time></trkpt><trkpt lat="44.332198683926244" lon="7.5090701512019775"><ele>598.0</ele><time>2026-04-11T17:22:01Z</time></trkpt><trkpt lat="44.3323270209253" lon="7.508754871160268"><ele>597.0</ele><time>2026-04-11T17:22:02Z</time></trkpt><trkpt lat="44.33247429857911" lon="7.50839627223561"><ele>597.0</ele><time>2026-04-11T17:22:03Z</time></trkpt><trkpt lat="44.33260885878208" lon="7.508071976307988"><ele>597.0</ele><time>2026-04-11T17:22:04Z</time></trkpt><trkpt lat="44.33273864485909" lon="7.507755143721319"><ele>596.5</ele><time>2026-04-11T17:22:05Z</time></trkpt><trkpt lat="44.33286374853262" lon="7.50744974116801"><ele>596.0</ele><time>2026-04-11T17:22:06Z</time></trkpt><trkpt lat="44.332975946049906" lon="7.507179736222672"><ele>597.6666666666666</ele><time>2026-04-11T17:22:07Z</time></trkpt><trkpt lat="44.3330810518391" lon="7.506929208821943"><ele>599.3333333333334</ele><time>2026-04-11T17:22:08Z</time></trkpt><trkpt lat="44.33318917125816" lon="7.5066735164815945"><ele>601.0</ele><time>2026-04-11T17:22:09Z</time></trkpt><trkpt lat="44.33331352611399" lon="7.506379729621075"><ele>602.0</ele><time>2026-04-11T17:22:10Z</time></trkpt><trkpt lat="44.33342781048034" lon="7.506115070523225"><ele>603.0</ele><time>2026-04-11T17:22:11Z</time></trkpt><trkpt lat="44.333527475090804" lon="7.505885541444001"><ele>604.0</ele><time>2026-04-11T17:22:12Z</time></trkpt><trkpt lat="44.33362097906203" lon="7.505668147891744"><ele>604.0</ele><time>2026-04-11T17:22:13Z</time></trkpt><trkpt lat="44.333715735301084" lon="7.505444880053178"><ele>604.0</ele><time>2026-04-11T17:22:14Z</time></trkpt><trkpt lat="44.33381956036801" lon="7.505198362218339"><ele>604.0</ele><time>2026-04-11T17:22:15Z</time></trkpt><trkpt lat="44.33392467390493" lon="7.504948141755591"><ele>604.6666666666667</ele><time>2026-04-11T17:22:16Z</time></trkpt><trkpt lat="44.334018321255314" lon="7.504722108236593"><ele>605.3333333333334</ele><time>2026-04-11T17:22:17Z</time></trkpt><trkpt lat="44.33410033770613" lon="7.504514114652807"><ele>606.0</ele><time>2026-04-11T17:22:18Z</time></trkpt><trkpt lat="44.33417379646103" lon="7.504313371959998"><ele>607.3333333333334</ele><time>2026-04-11T17:22:19Z</time></trkpt><trkpt lat="44.33423558093121" lon="7.504095665815702"><ele>608.6666666666667</ele><time>2026-04-11T17:22:20Z</time></trkpt><trkpt lat="44.3342897862135" lon="7.503870404441785"><ele>610.0</ele><time>2026-04-11T17:22:21Z</time></trkpt><trkpt lat="44.334329167181906" lon="7.503637531744073"><ele>610.25</ele><time>2026-04-11T17:22:22Z</time></trkpt><trkpt lat="44.33436106134694" lon="7.503408079329561"><ele>610.5</ele><time>2026-04-11T17:22:23Z</time></trkpt><trkpt lat="44.334378582297404" lon="7.5032041036037525"><ele>610.75</ele><time>2026-04-11T17:22:24Z</time></trkpt><trkpt lat="44.334382188634414" lon="7.503021844660987"><ele>611.0</ele><time>2026-04-11T17:22:25Z</time></trkpt><trkpt lat="44.33440808276157" lon="7.5028626504210525"><ele>611.4</ele><time>2026-04-11T17:22:26Z</time></trkpt><trkpt lat="44.33444241923244" lon="7.502706870626322"><ele>611.8</ele><time>2026-04-11T17:22:27Z</time></trkpt><trkpt lat="44.33448221421571" lon="7.502562100924176"><ele>612.1999999999999</ele><time>2026-04-11T17:22:28Z</time></trkpt><trkpt lat="44.3345278027444" lon="7.502434227646661"><ele>612.6</ele><time>2026-04-11T17:22:29Z</time></trkpt><trkpt lat="44.33456602535391" lon="7.502325201040563"><ele>613.0</ele><time>2026-04-11T17:22:30Z</time></trkpt><trkpt lat="44.33459371833613" lon="7.502242868619306"><ele>613.0</ele><time>2026-04-11T17:22:31Z</time></trkpt><trkpt lat="44.33458585917828" lon="7.502149900025845"><ele>613.0</ele><time>2026-04-11T17:22:32Z</time></trkpt><trkpt lat="44.334511990631896" lon="7.50206889619155"><ele>613.0</ele><time>2026-04-11T17:22:33Z</time></trkpt><trkpt lat="44.334443189856884" lon="7.501988801861246"><ele>613.0</ele><time>2026-04-11T17:22:34Z</time></trkpt><trkpt lat="44.33435372257158" lon="7.5018923251860565"><ele>613.0</ele><time>2026-04-11T17:22:35Z</time></trkpt><trkpt lat="44.334281541858594" lon="7.501745623609773"><ele>614.0</ele><time>2026-04-11T17:22:36Z</time></trkpt><trkpt lat="44.3342074058175" lon="7.501552434551894"><ele>615.0</ele><time>2026-04-11T17:22:37Z</time></trkpt><trkpt lat="44.33412204092218" lon="7.501343196854599"><ele>616.0</ele><time>2026-04-11T17:22:38Z</time></trkpt><trkpt lat="44.33402744323276" lon="7.501118929290284"><ele>615.6666666666667</ele><time>2026-04-11T17:22:39Z</time></trkpt><trkpt lat="44.33393221443591" lon="7.50085806971068"><ele>615.3333333333334</ele><time>2026-04-11T17:22:40Z</time></trkpt><trkpt lat="44.333801008445676" lon="7.5006175764147125"><ele>615.0</ele><time>2026-04-11T17:22:41Z</time></trkpt><trkpt lat="44.333692903305334" lon="7.5003800297860606"><ele>616.3333333333334</ele><time>2026-04-11T17:22:42Z</time></trkpt><trkpt lat="44.33359138727777" lon="7.500162662237258"><ele>617.6666666666667</ele><time>2026-04-11T17:22:43Z</time></trkpt><trkpt lat="44.33350400725115" lon="7.499967621983101"><ele>619.0</ele><time>2026-04-11T17:22:44Z</time></trkpt><trkpt lat="44.33342939518183" lon="7.4997872743687335"><ele>619.0</ele><time>2026-04-11T17:22:45Z</time></trkpt><trkpt lat="44.333366684146235" lon="7.499642690181232"><ele>619.0</ele><time>2026-04-11T17:22:46Z</time></trkpt><trkpt lat="44.33332035913618" lon="7.49953703470984"><ele>619.0</ele><time>2026-04-11T17:22:47Z</time></trkpt><trkpt lat="44.33328228904366" lon="7.499439335263379"><ele>619.0</ele><time>2026-04-11T17:22:48Z</time></trkpt><trkpt lat="44.3332445461404" lon="7.499353255912"><ele>619.0</ele><time>2026-04-11T17:22:49Z</time></trkpt><trkpt lat="44.33320654685574" lon="7.499255756171542"><ele>619.0</ele><time>2026-04-11T17:22:50Z</time></trkpt><trkpt lat="44.333153951846214" lon="7.499132454435319"><ele>619.0</ele><time>2026-04-11T17:22:51Z</time></trkpt><trkpt lat="44.333086698226104" lon="7.498985030104523"><ele>619.0</ele><time>2026-04-11T17:22:52Z</time></trkpt><trkpt lat="44.33300215580508" lon="7.498791509947288"><ele>619.0</ele><time>2026-04-11T17:22:53Z</time></trkpt><trkpt lat="44.33290477093704" lon="7.498580921654414"><ele>619.0</ele><time>2026-04-11T17:22:54Z</time></trkpt><trkpt lat="44.332816690249174" lon="7.498385315552989"><ele>619.0</ele><time>2026-04-11T17:22:55Z</time></trkpt><trkpt lat="44.332743097304416" lon="7.498228443642751"><ele>619.0</ele><time>2026-04-11T17:22:56Z</time></trkpt><trkpt lat="44.33268168207956" lon="7.498089638761631"><ele>619.0</ele><time>2026-04-11T17:22:57Z</time></trkpt><trkpt lat="44.33261077560364" lon="7.4979329137083734"><ele>620.25</ele><time>2026-04-11T17:22:58Z</time></trkpt><trkpt lat="44.33253486578602" lon="7.497740921911969"><ele>621.5</ele><time>2026-04-11T17:22:59Z</time></trkpt><trkpt lat="44.332472412636804" lon="7.497549240132347"><ele>622.75</ele><time>2026-04-11T17:23:00Z</time></trkpt><trkpt lat="44.33243896665172" lon="7.497371023231626"><ele>624.0</ele><time>2026-04-11T17:23:01Z</time></trkpt><trkpt lat="44.33242085092834" lon="7.497222713906866"><ele>624.0</ele><time>2026-04-11T17:23:02Z</time></trkpt><trkpt lat="44.33241406726543" lon="7.497099793266255"><ele>624.0</ele><time>2026-04-11T17:23:03Z</time></trkpt><trkpt lat="44.33241895500993" lon="7.496996519606082"><ele>624.0</ele><time>2026-04-11T17:23:04Z</time></trkpt><trkpt lat="44.3324531634891" lon="7.496919526801666"><ele>624.0</ele><time>2026-04-11T17:23:07Z</time></trkpt><trkpt lat="44.33251255810126" lon="7.496752064718611"><ele>624.0</ele><time>2026-04-11T17:23:09Z</time></trkpt><trkpt lat="44.33252291803728" lon="7.496633076650934"><ele>624.0</ele><time>2026-04-11T17:23:10Z</time></trkpt><trkpt lat="44.33250367510571" lon="7.4965163800330705"><ele>623.75</ele><time>2026-04-11T17:23:11Z</time></trkpt><trkpt lat="44.33246704745441" lon="7.496404841527387"><ele>623.5</ele><time>2026-04-11T17:23:12Z</time></trkpt><trkpt lat="44.33236326873448" lon="7.496293956310988"><ele>623.25</ele><time>2026-04-11T17:23:13Z</time></trkpt><trkpt lat="44.33227140739994" lon="7.496157318303002"><ele>623.0</ele><time>2026-04-11T17:23:13.999Z</time></trkpt><trkpt lat="44.33220399598755" lon="7.495984892644688"><ele>623.0</ele><time>2026-04-11T17:23:14.999Z</time></trkpt><trkpt lat="44.33215106747394" lon="7.495805766961671"><ele>623.0</ele><time>2026-04-11T17:23:15.999Z</time></trkpt><trkpt lat="44.332075416283836" lon="7.495619381997244"><ele>623.0</ele><time>2026-04-11T17:23:16.999Z</time></trkpt><trkpt lat="44.33205121611922" lon="7.495388406216485"><ele>623.6666666666666</ele><time>2026-04-11T17:23:17.999Z</time></trkpt><trkpt lat="44.33200720357598" lon="7.495178917664552"><ele>624.3333333333334</ele><time>2026-04-11T17:23:18.999Z</time></trkpt><trkpt lat="44.33197053675857" lon="7.494949933381755"><ele>625.0</ele><time>2026-04-11T17:23:19.999Z</time></trkpt><trkpt lat="44.331938149435686" lon="7.4947048248415635"><ele>625.6666666666667</ele><time>2026-04-11T17:23:20.999Z</time></trkpt><trkpt lat="44.33190847199903" lon="7.494455652121174"><ele>626.3333333333334</ele><time>2026-04-11T17:23:21.999Z</time></trkpt><trkpt lat="44.331881131179074" lon="7.494217832170348"><ele>627.0</ele><time>2026-04-11T17:23:22.999Z</time></trkpt><trkpt lat="44.33186677649172" lon="7.493992332461777"><ele>627.0</ele><time>2026-04-11T17:23:23.999Z</time></trkpt><trkpt lat="44.331848790380874" lon="7.493780833155334"><ele>627.0</ele><time>2026-04-11T17:23:24.999Z</time></trkpt><trkpt lat="44.331832005303816" lon="7.493578436644954"><ele>627.0</ele><time>2026-04-11T17:23:25.999Z</time></trkpt><trkpt lat="44.33181427832925" lon="7.493396266134856"><ele>627.0</ele><time>2026-04-11T17:23:26.999Z</time></trkpt><trkpt lat="44.331794342008216" lon="7.493236989574058"><ele>627.5</ele><time>2026-04-11T17:23:27.999Z</time></trkpt><trkpt lat="44.33177689726519" lon="7.493072122019247"><ele>628.0</ele><time>2026-04-11T17:23:28.999Z</time></trkpt><trkpt lat="44.331762194746695" lon="7.492890042410748"><ele>628.5</ele><time>2026-04-11T17:23:29.999Z</time></trkpt><trkpt lat="44.33174431796072" lon="7.492692402951736"><ele>629.0</ele><time>2026-04-11T17:23:30.999Z</time></trkpt><trkpt lat="44.331727786337005" lon="7.492491518785763"><ele>629.4</ele><time>2026-04-11T17:23:31.999Z</time></trkpt><trkpt lat="44.33171889101718" lon="7.4923212603393115"><ele>629.8</ele><time>2026-04-11T17:23:32.999Z</time></trkpt><trkpt lat="44.33171660073035" lon="7.492163888287312"><ele>630.2</ele><time>2026-04-11T17:23:33.999Z</time></trkpt><trkpt lat="44.33171146643332" lon="7.492022092138656"><ele>630.6</ele><time>2026-04-11T17:23:34.999Z</time></trkpt><trkpt lat="44.33170160690084" lon="7.491895596524951"><ele>631.0</ele><time>2026-04-11T17:23:35.999Z</time></trkpt><trkpt lat="44.33170091747826" lon="7.491777196707321"><ele>631.25</ele><time>2026-04-11T17:23:36.999Z</time></trkpt><trkpt lat="44.33169504109355" lon="7.491647743972349"><ele>631.5</ele><time>2026-04-11T17:23:37.999Z</time></trkpt><trkpt lat="44.331707578838966" lon="7.491476805508474"><ele>631.75</ele><time>2026-04-11T17:23:38.999Z</time></trkpt><trkpt lat="44.33168942234151" lon="7.491285711991508"><ele>632.0</ele><time>2026-04-11T17:23:39.999Z</time></trkpt><trkpt lat="44.331681809901454" lon="7.491063795868409"><ele>632.25</ele><time>2026-04-11T17:23:40.999Z</time></trkpt><trkpt lat="44.331679770189886" lon="7.490853394289429"><ele>632.5</ele><time>2026-04-11T17:23:41.999Z</time></trkpt><trkpt lat="44.33167456717051" lon="7.49067913169065"><ele>632.75</ele><time>2026-04-11T17:23:42.999Z</time></trkpt><trkpt lat="44.33167907217683" lon="7.490507609440862"><ele>633.0</ele><time>2026-04-11T17:23:43.999Z</time></trkpt><trkpt lat="44.33167206683298" lon="7.490333947376512"><ele>633.3333333333334</ele><time>2026-04-11T17:23:45Z</time></trkpt><trkpt lat="44.33165897631452" lon="7.490185656875542"><ele>633.6666666666666</ele><time>2026-04-11T17:23:46Z</time></trkpt><trkpt lat="44.331644397687626" lon="7.4900665042561645"><ele>634.0</ele><time>2026-04-11T17:23:47Z</time></trkpt><trkpt lat="44.33163580409434" lon="7.489963078736428"><ele>634.3333333333333</ele><time>2026-04-11T17:23:48Z</time></trkpt><trkpt lat="44.33163717905267" lon="7.48985162892109"><ele>634.6666666666666</ele><time>2026-04-11T17:23:50Z</time></trkpt><trkpt lat="44.33159839004107" lon="7.48973820812541"><ele>635.0</ele><time>2026-04-11T17:23:53Z</time></trkpt><trkpt lat="44.33165193925703" lon="7.489635259871093"><ele>635.1666666666666</ele><time>2026-04-11T17:23:54Z</time></trkpt><trkpt lat="44.33168972133862" lon="7.4895583205802065"><ele>635.3333333333333</ele><time>2026-04-11T17:23:55Z</time></trkpt><trkpt lat="44.33171320307689" lon="7.4894393200525915"><ele>635.5</ele><time>2026-04-11T17:23:57Z</time></trkpt><trkpt lat="44.33172938663775" lon="7.489350217599697"><ele>635.6666666666666</ele><time>2026-04-11T17:23:59Z</time></trkpt><trkpt lat="44.3317392997526" lon="7.489251749793095"><ele>635.8333333333334</ele><time>2026-04-11T17:24:02Z</time></trkpt><trkpt lat="44.33176324764127" lon="7.489125936647876"><ele>636.0</ele><time>2026-04-11T17:24:05Z</time></trkpt><trkpt lat="44.331807125956026" lon="7.489043770571321"><ele>636.0</ele><time>2026-04-11T17:24:07Z</time></trkpt><trkpt lat="44.33191139716696" lon="7.489006552063997"><ele>636.0</ele><time>2026-04-11T17:24:09Z</time></trkpt><trkpt lat="44.331996079470585" lon="7.4889678798844725"><ele>636.0</ele><time>2026-04-11T17:24:11Z</time></trkpt><trkpt lat="44.3320265172513" lon="7.488825653002293"><ele>636.0</ele><time>2026-04-11T17:24:13Z</time></trkpt><trkpt lat="44.33196016596862" lon="7.488710068256182"><ele>636.0</ele><time>2026-04-11T17:24:15Z</time></trkpt><trkpt lat="44.33188153963685" lon="7.488714748676403"><ele>636.0</ele><time>2026-04-11T17:24:16Z</time></trkpt><trkpt lat="44.33179653450112" lon="7.4888338267952665"><ele>636.0</ele><time>2026-04-11T17:24:18Z</time></trkpt><trkpt lat="44.33172210703763" lon="7.488929789877815"><ele>636.0</ele><time>2026-04-11T17:24:20Z</time></trkpt><trkpt lat="44.33160862897358" lon="7.488918408225327"><ele>636.0</ele><time>2026-04-11T17:24:22Z</time></trkpt><trkpt lat="44.3315380078211" lon="7.488891927841616"><ele>636.0</ele><time>2026-04-11T17:24:23Z</time></trkpt><trkpt lat="44.33145607928244" lon="7.488864736380646"><ele>636.4</ele><time>2026-04-11T17:24:24Z</time></trkpt><trkpt lat="44.331374741960595" lon="7.4888387043397415"><ele>636.8</ele><time>2026-04-11T17:24:25Z</time></trkpt><trkpt lat="44.33125029159378" lon="7.488807145694973"><ele>637.1999999999999</ele><time>2026-04-11T17:24:27Z</time></trkpt><trkpt lat="44.33113511777372" lon="7.488769943214934"><ele>637.6</ele><time>2026-04-11T17:24:29Z</time></trkpt><trkpt lat="44.33105084473784" lon="7.4887371591155585"><ele>638.0</ele><time>2026-04-11T17:24:31Z</time></trkpt><trkpt lat="44.33098062134321" lon="7.488707489988798"><ele>638.1666666666666</ele><time>2026-04-11T17:24:33Z</time></trkpt><trkpt lat="44.330871925398945" lon="7.48871431178669"><ele>638.3333333333333</ele><time>2026-04-11T17:24:36Z</time></trkpt><trkpt lat="44.330805808881074" lon="7.488714999739376"><ele>638.5</ele><time>2026-04-11T17:24:37Z</time></trkpt><trkpt lat="44.33072176439928" lon="7.488689013205847"><ele>638.6666666666666</ele><time>2026-04-11T17:24:38Z</time></trkpt><trkpt lat="44.330637214871146" lon="7.48865129043175"><ele>638.8333333333334</ele><time>2026-04-11T17:24:39Z</time></trkpt><trkpt lat="44.33057021092326" lon="7.488613673812789"><ele>639.0</ele><time>2026-04-11T17:24:40Z</time></trkpt><trkpt lat="44.330509059022035" lon="7.488588475036983"><ele>639.0</ele><time>2026-04-11T17:24:41Z</time></trkpt><trkpt lat="44.330454385999076" lon="7.488542610305081"><ele>639.0</ele><time>2026-04-11T17:24:42Z</time></trkpt><trkpt lat="44.33033754554532" lon="7.488488858493826"><ele>639.0</ele><time>2026-04-11T17:24:44Z</time></trkpt><trkpt lat="44.330218520241914" lon="7.488475130647166"><ele>639.0</ele><time>2026-04-11T17:24:46Z</time></trkpt><trkpt lat="44.33008854099822" lon="7.4884670257100145"><ele>639.0</ele><time>2026-04-11T17:24:48Z</time></trkpt><trkpt lat="44.32999841048796" lon="7.4884636808656575"><ele>639.0</ele><time>2026-04-11T17:24:49Z</time></trkpt><trkpt lat="44.32993490316775" lon="7.488450879319451"><ele>639.0</ele><time>2026-04-11T17:24:50Z</time></trkpt><trkpt lat="44.329835243162925" lon="7.488448386042501"><ele>639.0</ele><time>2026-04-11T17:24:52Z</time></trkpt><trkpt lat="44.32976868239225" lon="7.48843208549429"><ele>639.0</ele><time>2026-04-11T17:24:54Z</time></trkpt><trkpt lat="44.329774042129095" lon="7.488185345982178"><ele>639.0</ele><time>2026-04-11T17:25:01Z</time></trkpt><trkpt lat="44.329804599433665" lon="7.488070426289682"><ele>639.0</ele><time>2026-04-11T17:25:03Z</time></trkpt><trkpt lat="44.32981920680191" lon="7.48794079406207"><ele>639.0</ele><time>2026-04-11T17:25:05Z</time></trkpt><trkpt lat="44.329848120502376" lon="7.487794143221067"><ele>639.0</ele><time>2026-04-11T17:25:07Z</time></trkpt><trkpt lat="44.329866125115075" lon="7.487643589180568"><ele>639.0</ele><time>2026-04-11T17:25:09Z</time></trkpt><trkpt lat="44.32988517976236" lon="7.487474210204435"><ele>639.0</ele><time>2026-04-11T17:25:11Z</time></trkpt><trkpt lat="44.32991118151012" lon="7.48737650464129"><ele>639.0000000000001</ele><time>2026-04-11T17:25:12Z</time></trkpt><trkpt lat="44.32990473504503" lon="7.487284036468374"><ele>639.0</ele><time>2026-04-11T17:25:13Z</time></trkpt><trkpt lat="44.32991404997491" lon="7.487193034484325"><ele>639.0</ele><time>2026-04-11T17:25:14Z</time></trkpt><trkpt lat="44.32992276806566" lon="7.487085454524847"><ele>639.0</ele><time>2026-04-11T17:25:15Z</time></trkpt><trkpt lat="44.32993144909349" lon="7.48697929490238"><ele>639.0</ele><time>2026-04-11T17:25:16Z</time></trkpt><trkpt lat="44.32993899547306" lon="7.486886953573467"><ele>639.0000000000001</ele><time>2026-04-11T17:25:17Z</time></trkpt><trkpt lat="44.32994735126232" lon="7.486783646177921"><ele>639.0</ele><time>2026-04-11T17:25:18Z</time></trkpt><trkpt lat="44.32997189248654" lon="7.486678085997824"><ele>639.0</ele><time>2026-04-11T17:25:19Z</time></trkpt><trkpt lat="44.32996880850463" lon="7.486503826388163"><ele>639.0</ele><time>2026-04-11T17:25:21Z</time></trkpt><trkpt lat="44.32999189033993" lon="7.486404522827482"><ele>639.0</ele><time>2026-04-11T17:25:22Z</time></trkpt><trkpt lat="44.32998406578297" lon="7.4863053535664195"><ele>639.0</ele><time>2026-04-11T17:25:23Z</time></trkpt><trkpt lat="44.32998836024" lon="7.4862004117543055"><ele>639.0</ele><time>2026-04-11T17:25:23.999Z</time></trkpt><trkpt lat="44.329999047148114" lon="7.486097755091878"><ele>639.0</ele><time>2026-04-11T17:25:24.999Z</time></trkpt><trkpt lat="44.33000885356363" lon="7.4860004131769315"><ele>639.0</ele><time>2026-04-11T17:25:25.999Z</time></trkpt><trkpt lat="44.330018280188796" lon="7.485899231413058"><ele>639.0</ele><time>2026-04-11T17:25:26.999Z</time></trkpt><trkpt lat="44.33002815583947" lon="7.485807354279233"><ele>639.0</ele><time>2026-04-11T17:25:27.999Z</time></trkpt><trkpt lat="44.33003864593021" lon="7.485635456774098"><ele>639.0</ele><time>2026-04-11T17:25:29.999Z</time></trkpt><trkpt lat="44.33004541094021" lon="7.485479996362692"><ele>639.0</ele><time>2026-04-11T17:25:31.999Z</time></trkpt><trkpt lat="44.33005471160201" lon="7.485310061544439"><ele>639.3333333333334</ele><time>2026-04-11T17:25:33.999Z</time></trkpt><trkpt lat="44.330042038143844" lon="7.485174955645782"><ele>639.6666666666666</ele><time>2026-04-11T17:25:35.999Z</time></trkpt><trkpt lat="44.330030571223716" lon="7.485087529266091"><ele>640.0</ele><time>2026-04-11T17:25:37.999Z</time></trkpt><trkpt lat="44.33002582285312" lon="7.4849593073871"><ele>640.3333333333333</ele><time>2026-04-11T17:25:40.999Z</time></trkpt><trkpt lat="44.3300163427698" lon="7.484862980915075"><ele>640.6666666666666</ele><time>2026-04-11T17:25:42.999Z</time></trkpt><trkpt lat="44.33001996505302" lon="7.484768416061984"><ele>641.0</ele><time>2026-04-11T17:25:44.999Z</time></trkpt><trkpt lat="44.330010554481355" lon="7.484647366747395"><ele>641.1999999999999</ele><time>2026-04-11T17:25:46.999Z</time></trkpt><trkpt lat="44.330024911054906" lon="7.484534754230716"><ele>641.4</ele><time>2026-04-11T17:25:49.999Z</time></trkpt><trkpt lat="44.33005794449666" lon="7.484447894795099"><ele>641.6</ele><time>2026-04-11T17:25:55Z</time></trkpt><trkpt lat="44.330146500544416" lon="7.484348454547546"><ele>641.8</ele><time>2026-04-11T17:26:02Z</time></trkpt><trkpt lat="44.33021852141426" lon="7.48422767466438"><ele>642.0</ele><time>2026-04-11T17:26:04Z</time></trkpt><trkpt lat="44.33021047068772" lon="7.484127602253265"><ele>642.0</ele><time>2026-04-11T17:26:05Z</time></trkpt><trkpt lat="44.3301964987943" lon="7.484001856894116"><ele>642.0</ele><time>2026-04-11T17:26:06Z</time></trkpt><trkpt lat="44.33020421895669" lon="7.483863345423549"><ele>642.0</ele><time>2026-04-11T17:26:07Z</time></trkpt><trkpt lat="44.33022944834527" lon="7.4837229882679885"><ele>642.0</ele><time>2026-04-11T17:26:08Z</time></trkpt><trkpt lat="44.33026473407529" lon="7.4835650325085945"><ele>642.0</ele><time>2026-04-11T17:26:09Z</time></trkpt><trkpt lat="44.330296567218895" lon="7.483438618166992"><ele>642.0</ele><time>2026-04-11T17:26:10Z</time></trkpt><trkpt lat="44.330315133087225" lon="7.483310481753119"><ele>642.0</ele><time>2026-04-11T17:26:11Z</time></trkpt><trkpt lat="44.33034962342734" lon="7.48319169919774"><ele>642.0</ele><time>2026-04-11T17:26:12Z</time></trkpt><trkpt lat="44.33037755895806" lon="7.483073910364952"><ele>642.0</ele><time>2026-04-11T17:26:13Z</time></trkpt><trkpt lat="44.330406999644296" lon="7.482953682531289"><ele>642.0</ele><time>2026-04-11T17:26:14Z</time></trkpt><trkpt lat="44.33045364523787" lon="7.482837670540906"><ele>642.4000000000001</ele><time>2026-04-11T17:26:15Z</time></trkpt><trkpt lat="44.33048483418757" lon="7.482704448573092"><ele>642.8000000000001</ele><time>2026-04-11T17:26:16Z</time></trkpt><trkpt lat="44.33051123940608" lon="7.482544543032108"><ele>643.2</ele><time>2026-04-11T17:26:17Z</time></trkpt><trkpt lat="44.33055520301785" lon="7.482403718590843"><ele>643.6</ele><time>2026-04-11T17:26:18Z</time></trkpt><trkpt lat="44.33058438574982" lon="7.4822804990083185"><ele>644.0</ele><time>2026-04-11T17:26:19Z</time></trkpt><trkpt lat="44.33062115463017" lon="7.4821269874103535"><ele>644.0</ele><time>2026-04-11T17:26:20Z</time></trkpt><trkpt lat="44.33064963355842" lon="7.481944592055604"><ele>644.0</ele><time>2026-04-11T17:26:21Z</time></trkpt><trkpt lat="44.33070103957936" lon="7.481728217882085"><ele>644.0</ele><time>2026-04-11T17:26:22Z</time></trkpt><trkpt lat="44.33076312588023" lon="7.481491216440244"><ele>644.0</ele><time>2026-04-11T17:26:23Z</time></trkpt><trkpt lat="44.330813069619474" lon="7.481266144921707"><ele>644.0</ele><time>2026-04-11T17:26:24Z</time></trkpt><trkpt lat="44.33086970508531" lon="7.481040993558761"><ele>644.0</ele><time>2026-04-11T17:26:25Z</time></trkpt><trkpt lat="44.33092560680111" lon="7.480825558573125"><ele>644.0</ele><time>2026-04-11T17:26:26Z</time></trkpt><trkpt lat="44.330968989613574" lon="7.480615383910336"><ele>644.0</ele><time>2026-04-11T17:26:27Z</time></trkpt><trkpt lat="44.33102045027637" lon="7.480404532072685"><ele>644.0</ele><time>2026-04-11T17:26:28Z</time></trkpt><trkpt lat="44.331070737780955" lon="7.4802014412022375"><ele>644.75</ele><time>2026-04-11T17:26:29Z</time></trkpt><trkpt lat="44.3311133817728" lon="7.4799920618623075"><ele>645.5</ele><time>2026-04-11T17:26:30Z</time></trkpt><trkpt lat="44.3311581430176" lon="7.479788597784119"><ele>646.25</ele><time>2026-04-11T17:26:31Z</time></trkpt><trkpt lat="44.33120130854659" lon="7.4796135510937205"><ele>647.0</ele><time>2026-04-11T17:26:32Z</time></trkpt><trkpt lat="44.33123947887207" lon="7.479450089552941"><ele>647.0</ele><time>2026-04-11T17:26:33Z</time></trkpt><trkpt lat="44.33127989968023" lon="7.479298221444075"><ele>647.0</ele><time>2026-04-11T17:26:34Z</time></trkpt><trkpt lat="44.331316657881224" lon="7.47913352867819"><ele>647.0</ele><time>2026-04-11T17:26:35Z</time></trkpt><trkpt lat="44.33135540037968" lon="7.478951691989127"><ele>647.0</ele><time>2026-04-11T17:26:36Z</time></trkpt><trkpt lat="44.33139330777935" lon="7.47878035051793"><ele>647.0</ele><time>2026-04-11T17:26:37Z</time></trkpt><trkpt lat="44.33143073576762" lon="7.4786372587495045"><ele>647.0</ele><time>2026-04-11T17:26:38Z</time></trkpt><trkpt lat="44.33146397651865" lon="7.478497010759906"><ele>647.0</ele><time>2026-04-11T17:26:39Z</time></trkpt><trkpt lat="44.33149135635295" lon="7.4783605147467975"><ele>647.0</ele><time>2026-04-11T17:26:40Z</time></trkpt><trkpt lat="44.3315273451521" lon="7.478228434955515"><ele>647.0</ele><time>2026-04-11T17:26:41Z</time></trkpt><trkpt lat="44.3315620644897" lon="7.478084848954546"><ele>647.0</ele><time>2026-04-11T17:26:42Z</time></trkpt><trkpt lat="44.33160145918825" lon="7.47791647673812"><ele>647.0</ele><time>2026-04-11T17:26:43Z</time></trkpt><trkpt lat="44.33164115028109" lon="7.477740416915641"><ele>647.0</ele><time>2026-04-11T17:26:44Z</time></trkpt><trkpt lat="44.33167459810225" lon="7.47757659012142"><ele>647.0</ele><time>2026-04-11T17:26:45Z</time></trkpt><trkpt lat="44.33171630716404" lon="7.477419123865054"><ele>647.0</ele><time>2026-04-11T17:26:46Z</time></trkpt><trkpt lat="44.33175572887868" lon="7.4772695157700655"><ele>647.0</ele><time>2026-04-11T17:26:47Z</time></trkpt><trkpt lat="44.33179357519263" lon="7.477108268029312"><ele>647.0</ele><time>2026-04-11T17:26:48Z</time></trkpt><trkpt lat="44.33183668477071" lon="7.4769336427082145"><ele>647.0</ele><time>2026-04-11T17:26:49Z</time></trkpt><trkpt lat="44.331878800258096" lon="7.4767527059387495"><ele>647.5</ele><time>2026-04-11T17:26:50Z</time></trkpt><trkpt lat="44.33192026132522" lon="7.476568232205811"><ele>648.0</ele><time>2026-04-11T17:26:51Z</time></trkpt><trkpt lat="44.33195885239998" lon="7.4764040180897"><ele>648.5</ele><time>2026-04-11T17:26:52Z</time></trkpt><trkpt lat="44.332004830688746" lon="7.47623684295738"><ele>649.0</ele><time>2026-04-11T17:26:53Z</time></trkpt><trkpt lat="44.33205177325984" lon="7.476072043773445"><ele>649.0</ele><time>2026-04-11T17:26:54Z</time></trkpt><trkpt lat="44.33209516389878" lon="7.47592647964862"><ele>649.0</ele><time>2026-04-11T17:26:55Z</time></trkpt><trkpt lat="44.332142240994926" lon="7.4757775890782545"><ele>649.0</ele><time>2026-04-11T17:26:56Z</time></trkpt><trkpt lat="44.332194540768015" lon="7.475631186006306"><ele>649.0</ele><time>2026-04-11T17:26:57Z</time></trkpt><trkpt lat="44.33224616425139" lon="7.475492733449775"><ele>649.25</ele><time>2026-04-11T17:26:58Z</time></trkpt><trkpt lat="44.33229432591922" lon="7.475360832410907"><ele>649.5</ele><time>2026-04-11T17:26:59Z</time></trkpt><trkpt lat="44.33235111088519" lon="7.4752214508307295"><ele>649.75</ele><time>2026-04-11T17:27:00Z</time></trkpt><trkpt lat="44.33242640021834" lon="7.475069740416463"><ele>650.0</ele><time>2026-04-11T17:27:01Z</time></trkpt><trkpt lat="44.332522628847094" lon="7.474917460248839"><ele>650.0</ele><time>2026-04-11T17:27:02Z</time></trkpt><trkpt lat="44.332664996856316" lon="7.474817756976865"><ele>650.0</ele><time>2026-04-11T17:27:03Z</time></trkpt><trkpt lat="44.33274683948247" lon="7.4746333096423205"><ele>650.0</ele><time>2026-04-11T17:27:04Z</time></trkpt><trkpt lat="44.332669103034554" lon="7.474846644522256"><ele>650.0</ele><time>2026-04-11T17:27:05Z</time></trkpt><trkpt lat="44.33269923290555" lon="7.474745304643348"><ele>650.0</ele><time>2026-04-11T17:27:06Z</time></trkpt><trkpt lat="44.33272235360649" lon="7.474649291251477"><ele>650.0</ele><time>2026-04-11T17:27:07Z</time></trkpt><trkpt lat="44.33272783867709" lon="7.474535913544787"><ele>650.0</ele><time>2026-04-11T17:27:08Z</time></trkpt><trkpt lat="44.33260073574297" lon="7.474444619940497"><ele>650.0</ele><time>2026-04-11T17:27:09Z</time></trkpt><trkpt lat="44.33254437290398" lon="7.474331217146414"><ele>650.75</ele><time>2026-04-11T17:27:10Z</time></trkpt><trkpt lat="44.33251905354374" lon="7.47417468857245"><ele>651.5</ele><time>2026-04-11T17:27:11Z</time></trkpt><trkpt lat="44.33252388167569" lon="7.4739918079137055"><ele>652.25</ele><time>2026-04-11T17:27:12Z</time></trkpt><trkpt lat="44.33255869060111" lon="7.473776558034878"><ele>653.0</ele><time>2026-04-11T17:27:13Z</time></trkpt><trkpt lat="44.33261727400834" lon="7.4735136351587235"><ele>653.0</ele><time>2026-04-11T17:27:14Z</time></trkpt><trkpt lat="44.33269977910146" lon="7.473212010292838"><ele>653.0</ele><time>2026-04-11T17:27:15Z</time></trkpt><trkpt lat="44.332777501044866" lon="7.4729048760514845"><ele>653.0</ele><time>2026-04-11T17:27:16Z</time></trkpt><trkpt lat="44.33284953584296" lon="7.472595683656397"><ele>653.0</ele><time>2026-04-11T17:27:17Z</time></trkpt><trkpt lat="44.33291980587351" lon="7.472299281265313"><ele>653.0</ele><time>2026-04-11T17:27:18Z</time></trkpt><trkpt lat="44.33298019615199" lon="7.47204289429269"><ele>653.0</ele><time>2026-04-11T17:27:19Z</time></trkpt><trkpt lat="44.33303969898185" lon="7.471785023328513"><ele>653.0</ele><time>2026-04-11T17:27:20Z</time></trkpt><trkpt lat="44.33310187708687" lon="7.471523627749364"><ele>653.6666666666666</ele><time>2026-04-11T17:27:21Z</time></trkpt><trkpt lat="44.33318115329638" lon="7.4712588782914295"><ele>654.3333333333334</ele><time>2026-04-11T17:27:22Z</time></trkpt><trkpt lat="44.33324517298007" lon="7.470988226058331"><ele>655.0</ele><time>2026-04-11T17:27:23Z</time></trkpt><trkpt lat="44.333311873303565" lon="7.470705843552739"><ele>655.6666666666667</ele><time>2026-04-11T17:27:24Z</time></trkpt><trkpt lat="44.33336659699338" lon="7.470403005349974"><ele>656.3333333333334</ele><time>2026-04-11T17:27:25Z</time></trkpt><trkpt lat="44.33344425549124" lon="7.470107915879892"><ele>657.0</ele><time>2026-04-11T17:27:26Z</time></trkpt><trkpt lat="44.33351938312501" lon="7.46980804603479"><ele>657.0</ele><time>2026-04-11T17:27:27Z</time></trkpt><trkpt lat="44.3335924777694" lon="7.469513245835184"><ele>657.0</ele><time>2026-04-11T17:27:27.999Z</time></trkpt><trkpt lat="44.33365013384536" lon="7.469258052284952"><ele>657.0</ele><time>2026-04-11T17:27:28.999Z</time></trkpt><trkpt lat="44.33371325147734" lon="7.469014822677044"><ele>657.0</ele><time>2026-04-11T17:27:29.999Z</time></trkpt><trkpt lat="44.33377210028812" lon="7.468771445948236"><ele>657.0</ele><time>2026-04-11T17:27:30.999Z</time></trkpt><trkpt lat="44.333825620255894" lon="7.468530367488123"><ele>657.0</ele><time>2026-04-11T17:27:31.999Z</time></trkpt><trkpt lat="44.33387517942047" lon="7.468297434854266"><ele>657.3333333333334</ele><time>2026-04-11T17:27:32.999Z</time></trkpt><trkpt lat="44.333926990284645" lon="7.468059224129094"><ele>657.6666666666667</ele><time>2026-04-11T17:27:33.999Z</time></trkpt><trkpt lat="44.33398391263753" lon="7.467817696524643"><ele>658.0</ele><time>2026-04-11T17:27:34.999Z</time></trkpt><trkpt lat="44.33403959279861" lon="7.467567670038351"><ele>658.0</ele><time>2026-04-11T17:27:35.999Z</time></trkpt><trkpt lat="44.33409359178273" lon="7.467303521554504"><ele>658.0</ele><time>2026-04-11T17:27:36.999Z</time></trkpt><trkpt lat="44.334141412207195" lon="7.467024805092659"><ele>658.0</ele><time>2026-04-11T17:27:37.999Z</time></trkpt><trkpt lat="44.33418636711102" lon="7.466742516612373"><ele>658.6666666666667</ele><time>2026-04-11T17:27:38.999Z</time></trkpt><trkpt lat="44.33422595899675" lon="7.4664636539250315"><ele>659.3333333333334</ele><time>2026-04-11T17:27:39.999Z</time></trkpt><trkpt lat="44.33426207194893" lon="7.466190100231776"><ele>660.0</ele><time>2026-04-11T17:27:40.999Z</time></trkpt><trkpt lat="44.334290606109654" lon="7.465918370514547"><ele>660.3333333333334</ele><time>2026-04-11T17:27:41.999Z</time></trkpt><trkpt lat="44.33431268452971" lon="7.465640234452905"><ele>660.6666666666667</ele><time>2026-04-11T17:27:42.999Z</time></trkpt><trkpt lat="44.334334238134254" lon="7.465367696258844"><ele>661.0</ele><time>2026-04-11T17:27:43.999Z</time></trkpt><trkpt lat="44.33435802749641" lon="7.465119788197891"><ele>661.3333333333334</ele><time>2026-04-11T17:27:44.999Z</time></trkpt><trkpt lat="44.33438043676491" lon="7.464885833241954"><ele>661.6666666666666</ele><time>2026-04-11T17:27:45.999Z</time></trkpt><trkpt lat="44.33440379800173" lon="7.46461932296771"><ele>662.0</ele><time>2026-04-11T17:27:46.999Z</time></trkpt><trkpt lat="44.33442781656157" lon="7.464337000319109"><ele>662.0</ele><time>2026-04-11T17:27:47.999Z</time></trkpt><trkpt lat="44.33445233015078" lon="7.464049254150719"><ele>662.0</ele><time>2026-04-11T17:27:48.999Z</time></trkpt><trkpt lat="44.33447829299194" lon="7.463755799984885"><ele>662.0</ele><time>2026-04-11T17:27:49.999Z</time></trkpt><trkpt lat="44.334505900920526" lon="7.463468380803698"><ele>661.6666666666666</ele><time>2026-04-11T17:27:50.999Z</time></trkpt><trkpt lat="44.33452934071818" lon="7.463215679348597"><ele>661.3333333333334</ele><time>2026-04-11T17:27:51.999Z</time></trkpt><trkpt lat="44.334551223319465" lon="7.462982023840102"><ele>661.0</ele><time>2026-04-11T17:27:52.999Z</time></trkpt><trkpt lat="44.33456879186543" lon="7.462781510625093"><ele>661.75</ele><time>2026-04-11T17:27:53.999Z</time></trkpt><trkpt lat="44.334587813917764" lon="7.462593503429891"><ele>662.5</ele><time>2026-04-11T17:27:54.999Z</time></trkpt><trkpt lat="44.33460389094774" lon="7.462410805509236"><ele>663.25</ele><time>2026-04-11T17:27:55.999Z</time></trkpt><trkpt lat="44.334617399231746" lon="7.462240569128762"><ele>664.0</ele><time>2026-04-11T17:27:57Z</time></trkpt><trkpt lat="44.33462982819925" lon="7.462084679961212"><ele>664.5</ele><time>2026-04-11T17:27:58Z</time></trkpt><trkpt lat="44.33464832452647" lon="7.4619234532465475"><ele>665.0</ele><time>2026-04-11T17:27:59Z</time></trkpt><trkpt lat="44.334667717127374" lon="7.46174132498469"><ele>665.5</ele><time>2026-04-11T17:28:00Z</time></trkpt><trkpt lat="44.334686784439995" lon="7.46155172113016"><ele>666.0</ele><time>2026-04-11T17:28:01Z</time></trkpt><trkpt lat="44.33470537099341" lon="7.461340560227473"><ele>666.3333333333334</ele><time>2026-04-11T17:28:02Z</time></trkpt><trkpt lat="44.33471852381508" lon="7.461122330295419"><ele>666.6666666666667</ele><time>2026-04-11T17:28:03Z</time></trkpt><trkpt lat="44.33472781127964" lon="7.460892787955768"><ele>667.0</ele><time>2026-04-11T17:28:04Z</time></trkpt><trkpt lat="44.334732371693754" lon="7.4606555975298905"><ele>667.0</ele><time>2026-04-11T17:28:05Z</time></trkpt><trkpt lat="44.33473096679354" lon="7.460418546726217"><ele>667.0</ele><time>2026-04-11T17:28:06Z</time></trkpt><trkpt lat="44.33472074309034" lon="7.460188257386282"><ele>667.0</ele><time>2026-04-11T17:28:07Z</time></trkpt><trkpt lat="44.33470805201784" lon="7.459969739037805"><ele>667.5</ele><time>2026-04-11T17:28:08Z</time></trkpt><trkpt lat="44.33469374892983" lon="7.459752642278319"><ele>668.0</ele><time>2026-04-11T17:28:09Z</time></trkpt><trkpt lat="44.33467694826598" lon="7.459557645496438"><ele>668.5</ele><time>2026-04-11T17:28:10Z</time></trkpt><trkpt lat="44.33466037362342" lon="7.459380746288801"><ele>669.0</ele><time>2026-04-11T17:28:11Z</time></trkpt><trkpt lat="44.33464667603802" lon="7.459217800842264"><ele>669.0</ele><time>2026-04-11T17:28:12Z</time></trkpt><trkpt lat="44.33462824492711" lon="7.4590458150996275"><ele>669.0</ele><time>2026-04-11T17:28:13Z</time></trkpt><trkpt lat="44.33461686639068" lon="7.458874186210933"><ele>669.0</ele><time>2026-04-11T17:28:14Z</time></trkpt><trkpt lat="44.33461062477036" lon="7.458693471534691"><ele>669.0</ele><time>2026-04-11T17:28:15Z</time></trkpt><trkpt lat="44.33459035983441" lon="7.458485841395386"><ele>669.0</ele><time>2026-04-11T17:28:16Z</time></trkpt><trkpt lat="44.33457488280156" lon="7.45826619454865"><ele>669.0</ele><time>2026-04-11T17:28:17Z</time></trkpt><trkpt lat="44.33456211585348" lon="7.458028482196721"><ele>669.0</ele><time>2026-04-11T17:28:18Z</time></trkpt><trkpt lat="44.33454134068198" lon="7.45777161318838"><ele>670.0</ele><time>2026-04-11T17:28:19Z</time></trkpt><trkpt lat="44.33452495011084" lon="7.457509456041329"><ele>671.0</ele><time>2026-04-11T17:28:20Z</time></trkpt><trkpt lat="44.3345036591822" lon="7.457258352093924"><ele>672.0</ele><time>2026-04-11T17:28:21Z</time></trkpt><trkpt lat="44.33448580471325" lon="7.456997868414816"><ele>672.0</ele><time>2026-04-11T17:28:22Z</time></trkpt><trkpt lat="44.334462629251966" lon="7.456726568924021"><ele>672.0</ele><time>2026-04-11T17:28:23Z</time></trkpt><trkpt lat="44.3344419112745" lon="7.456442334317634"><ele>672.0</ele><time>2026-04-11T17:28:24Z</time></trkpt><trkpt lat="44.33442040753893" lon="7.456163567987676"><ele>672.0</ele><time>2026-04-11T17:28:25Z</time></trkpt><trkpt lat="44.334399951627326" lon="7.455884154502678"><ele>672.0</ele><time>2026-04-11T17:28:26Z</time></trkpt><trkpt lat="44.334378830756606" lon="7.45561828108326"><ele>672.0</ele><time>2026-04-11T17:28:27Z</time></trkpt><trkpt lat="44.33435676951849" lon="7.455352313768105"><ele>672.0</ele><time>2026-04-11T17:28:28Z</time></trkpt><trkpt lat="44.33433414533938" lon="7.455067179886931"><ele>672.0</ele><time>2026-04-11T17:28:29Z</time></trkpt><trkpt lat="44.33431213891343" lon="7.4547725946161405"><ele>672.0</ele><time>2026-04-11T17:28:30Z</time></trkpt><trkpt lat="44.33428892144796" lon="7.4544628420565715"><ele>673.0</ele><time>2026-04-11T17:28:31Z</time></trkpt><trkpt lat="44.33426320651225" lon="7.454136656458012"><ele>674.0</ele><time>2026-04-11T17:28:32Z</time></trkpt><trkpt lat="44.334244211155486" lon="7.453814163333392"><ele>673.6666666666666</ele><time>2026-04-11T17:28:33Z</time></trkpt><trkpt lat="44.33422119099469" lon="7.453505378353254"><ele>673.3333333333334</ele><time>2026-04-11T17:28:34Z</time></trkpt><trkpt lat="44.334197461390055" lon="7.453208750975172"><ele>673.0</ele><time>2026-04-11T17:28:35Z</time></trkpt><trkpt lat="44.334173108910065" lon="7.452915620034916"><ele>673.0</ele><time>2026-04-11T17:28:36Z</time></trkpt><trkpt lat="44.33414977801289" lon="7.4526197229472135"><ele>673.0</ele><time>2026-04-11T17:28:37Z</time></trkpt><trkpt lat="44.33412682453089" lon="7.452322014998089"><ele>673.0</ele><time>2026-04-11T17:28:38Z</time></trkpt><trkpt lat="44.33410653256707" lon="7.452032241108881"><ele>673.0</ele><time>2026-04-11T17:28:39Z</time></trkpt><trkpt lat="44.334087054143374" lon="7.451758949711479"><ele>673.0</ele><time>2026-04-11T17:28:40Z</time></trkpt><trkpt lat="44.3340674927899" lon="7.451483141490656"><ele>673.0</ele><time>2026-04-11T17:28:41Z</time></trkpt><trkpt lat="44.334043526937926" lon="7.4512006132218875"><ele>673.3333333333334</ele><time>2026-04-11T17:28:42Z</time></trkpt><trkpt lat="44.33401963230035" lon="7.450921145877663"><ele>673.6666666666666</ele><time>2026-04-11T17:28:43Z</time></trkpt><trkpt lat="44.3339989429725" lon="7.450633444116855"><ele>674.0</ele><time>2026-04-11T17:28:44Z</time></trkpt><trkpt lat="44.333977954231486" lon="7.45034824694421"><ele>675.3333333333333</ele><time>2026-04-11T17:28:45Z</time></trkpt><trkpt lat="44.333955765171105" lon="7.450053977197958"><ele>676.6666666666666</ele><time>2026-04-11T17:28:46Z</time></trkpt><trkpt lat="44.33393086487799" lon="7.4497491725047595"><ele>678.0</ele><time>2026-04-11T17:28:47Z</time></trkpt><trkpt lat="44.33390714028179" lon="7.449444013445965"><ele>679.0</ele><time>2026-04-11T17:28:48Z</time></trkpt><trkpt lat="44.33388523892506" lon="7.449136179966293"><ele>680.0</ele><time>2026-04-11T17:28:49Z</time></trkpt><trkpt lat="44.33385952633977" lon="7.448814144838389"><ele>681.0</ele><time>2026-04-11T17:28:50Z</time></trkpt><trkpt lat="44.333830030446315" lon="7.448479249610337"><ele>682.0</ele><time>2026-04-11T17:28:51Z</time></trkpt><trkpt lat="44.33379808080415" lon="7.4481267568680805"><ele>681.5</ele><time>2026-04-11T17:28:52Z</time></trkpt><trkpt lat="44.333789730126995" lon="7.4477014216965305"><ele>681.0</ele><time>2026-04-11T17:28:53Z</time></trkpt><trkpt lat="44.333755568212176" lon="7.447246252241234"><ele>681.0</ele><time>2026-04-11T17:28:54Z</time></trkpt><trkpt lat="44.33372139060474" lon="7.446791512216656"><ele>681.0</ele><time>2026-04-11T17:28:55Z</time></trkpt><trkpt lat="44.33368566505919" lon="7.446316154938256"><ele>681.5</ele><time>2026-04-11T17:28:56Z</time></trkpt><trkpt lat="44.33365002459122" lon="7.445841929739428"><ele>682.0</ele><time>2026-04-11T17:28:57Z</time></trkpt><trkpt lat="44.33361399692054" lon="7.445362552267828"><ele>682.0</ele><time>2026-04-11T17:28:58Z</time></trkpt><trkpt lat="44.333579525482406" lon="7.444904001402162"><ele>682.0</ele><time>2026-04-11T17:28:59Z</time></trkpt><trkpt lat="44.333546499407454" lon="7.444466983855033"><ele>683.0</ele><time>2026-04-11T17:29:00Z</time></trkpt><trkpt lat="44.333516872458624" lon="7.444074945751051"><ele>684.0</ele><time>2026-04-11T17:29:01Z</time></trkpt><trkpt lat="44.33347659935351" lon="7.443714838348938"><ele>684.5</ele><time>2026-04-11T17:29:02Z</time></trkpt><trkpt lat="44.33345215694186" lon="7.443372088805392"><ele>685.0</ele><time>2026-04-11T17:29:03Z</time></trkpt><trkpt lat="44.33342644873527" lon="7.443051276696909"><ele>685.6666666666667</ele><time>2026-04-11T17:29:04Z</time></trkpt><trkpt lat="44.33340173189022" lon="7.4427334054627154"><ele>686.3333333333334</ele><time>2026-04-11T17:29:05Z</time></trkpt><trkpt lat="44.33338074537376" lon="7.442441139165368"><ele>687.0</ele><time>2026-04-11T17:29:06Z</time></trkpt><trkpt lat="44.333361566127074" lon="7.442175068803575"><ele>686.6666666666666</ele><time>2026-04-11T17:29:07Z</time></trkpt><trkpt lat="44.33334506649656" lon="7.441926457342337"><ele>686.3333333333333</ele><time>2026-04-11T17:29:08Z</time></trkpt><trkpt lat="44.33333037045139" lon="7.441710135656772"><ele>686.0</ele><time>2026-04-11T17:29:09Z</time></trkpt><trkpt lat="44.33331522632464" lon="7.441511395179768"><ele>686.0</ele><time>2026-04-11T17:29:10Z</time></trkpt><trkpt lat="44.333303868436026" lon="7.44135567129209"><ele>686.0</ele><time>2026-04-11T17:29:11Z</time></trkpt><trkpt lat="44.333296912353184" lon="7.441238916200668"><ele>686.0</ele><time>2026-04-11T17:29:12Z</time></trkpt><trkpt lat="44.3332890673644" lon="7.441145128046813"><ele>686.0</ele><time>2026-04-11T17:29:13Z</time></trkpt><trkpt lat="44.333282231424015" lon="7.441049170576222"><ele>686.0</ele><time>2026-04-11T17:29:14Z</time></trkpt><trkpt lat="44.33327399160669" lon="7.440945651032985"><ele>686.0</ele><time>2026-04-11T17:29:15Z</time></trkpt><trkpt lat="44.3332683782971" lon="7.4408213451783345"><ele>686.0</ele><time>2026-04-11T17:29:16Z</time></trkpt><trkpt lat="44.333273448863096" lon="7.4406784598616875"><ele>686.0</ele><time>2026-04-11T17:29:17Z</time></trkpt><trkpt lat="44.333282042417814" lon="7.4405240274442"><ele>686.0</ele><time>2026-04-11T17:29:18Z</time></trkpt><trkpt lat="44.33330516344199" lon="7.44034652926594"><ele>686.0</ele><time>2026-04-11T17:29:19Z</time></trkpt><trkpt lat="44.333345915293854" lon="7.440156465546969"><ele>686.6666666666666</ele><time>2026-04-11T17:29:20Z</time></trkpt><trkpt lat="44.33341071136568" lon="7.439934685978316"><ele>687.3333333333334</ele><time>2026-04-11T17:29:21Z</time></trkpt><trkpt lat="44.333474076530806" lon="7.439666044042048"><ele>688.0</ele><time>2026-04-11T17:29:22Z</time></trkpt><trkpt lat="44.33354709322584" lon="7.439360091368921"><ele>688.5</ele><time>2026-04-11T17:29:23Z</time></trkpt><trkpt lat="44.33361280772525" lon="7.439025182564672"><ele>689.0</ele><time>2026-04-11T17:29:24Z</time></trkpt><trkpt lat="44.33369779224152" lon="7.438721642344257"><ele>689.3333333333333</ele><time>2026-04-11T17:29:25Z</time></trkpt><trkpt lat="44.33377499004974" lon="7.438436053173304"><ele>689.6666666666666</ele><time>2026-04-11T17:29:26Z</time></trkpt><trkpt lat="44.333846147947085" lon="7.438153047218514"><ele>690.0</ele><time>2026-04-11T17:29:27Z</time></trkpt><trkpt lat="44.33391120299626" lon="7.437878498235561"><ele>690.0</ele><time>2026-04-11T17:29:28Z</time></trkpt><trkpt lat="44.33397136084148" lon="7.437603043546329"><ele>690.0</ele><time>2026-04-11T17:29:29Z</time></trkpt><trkpt lat="44.33402434394403" lon="7.4373279469402"><ele>690.0</ele><time>2026-04-11T17:29:30Z</time></trkpt><trkpt lat="44.33407433641901" lon="7.437041460012787"><ele>691.0</ele><time>2026-04-11T17:29:31Z</time></trkpt><trkpt lat="44.334117599643875" lon="7.4367582575323565"><ele>692.0</ele><time>2026-04-11T17:29:32Z</time></trkpt><trkpt lat="44.33416494391144" lon="7.436468907569396"><ele>693.0</ele><time>2026-04-11T17:29:33Z</time></trkpt><trkpt lat="44.33421105437014" lon="7.436161442684651"><ele>693.5</ele><time>2026-04-11T17:29:34Z</time></trkpt><trkpt lat="44.33425868743676" lon="7.435849181558801"><ele>694.0</ele><time>2026-04-11T17:29:35Z</time></trkpt><trkpt lat="44.33430899001045" lon="7.435525625345521"><ele>694.0</ele><time>2026-04-11T17:29:36Z</time></trkpt><trkpt lat="44.33436077078528" lon="7.4351936835596515"><ele>694.0</ele><time>2026-04-11T17:29:36.999Z</time></trkpt><trkpt lat="44.33440952530922" lon="7.434869357092819"><ele>694.3333333333334</ele><time>2026-04-11T17:29:37.999Z</time></trkpt><trkpt lat="44.33445915844515" lon="7.434555602924583"><ele>694.6666666666666</ele><time>2026-04-11T17:29:38.999Z</time></trkpt><trkpt lat="44.33449978761434" lon="7.4342823031189615"><ele>695.0</ele><time>2026-04-11T17:29:39.999Z</time></trkpt><trkpt lat="44.33453648261128" lon="7.434024517067991"><ele>695.0</ele><time>2026-04-11T17:29:40.999Z</time></trkpt><trkpt lat="44.33457378513654" lon="7.433792987532711"><ele>695.0</ele><time>2026-04-11T17:29:41.999Z</time></trkpt><trkpt lat="44.33461135101652" lon="7.433571995518278"><ele>695.0</ele><time>2026-04-11T17:29:42.999Z</time></trkpt><trkpt lat="44.33464052331156" lon="7.433374237854587"><ele>695.0</ele><time>2026-04-11T17:29:43.999Z</time></trkpt><trkpt lat="44.33466207548221" lon="7.433201674906667"><ele>695.0</ele><time>2026-04-11T17:29:44.999Z</time></trkpt><trkpt lat="44.33470648302458" lon="7.43293857758142"><ele>695.0</ele><time>2026-04-11T17:29:45.999Z</time></trkpt><trkpt lat="44.33474105064856" lon="7.432711516404878"><ele>695.0</ele><time>2026-04-11T17:29:46.999Z</time></trkpt><trkpt lat="44.334781242898835" lon="7.432470670937032"><ele>695.0</ele><time>2026-04-11T17:29:47.999Z</time></trkpt><trkpt lat="44.33482377944334" lon="7.4322089310801"><ele>695.0</ele><time>2026-04-11T17:29:48.999Z</time></trkpt><trkpt lat="44.334865408982445" lon="7.431934091765214"><ele>695.0</ele><time>2026-04-11T17:29:49.999Z</time></trkpt><trkpt lat="44.334910941914984" lon="7.431642339700283"><ele>695.0</ele><time>2026-04-11T17:29:50.999Z</time></trkpt><trkpt lat="44.334956467264625" lon="7.431348341094913"><ele>695.0</ele><time>2026-04-11T17:29:51.999Z</time></trkpt><trkpt lat="44.33500563973245" lon="7.431051583075919"><ele>695.5</ele><time>2026-04-11T17:29:52.999Z</time></trkpt><trkpt lat="44.33505531249925" lon="7.430741722244054"><ele>696.0</ele><time>2026-04-11T17:29:53.999Z</time></trkpt><trkpt lat="44.33510366707019" lon="7.4304315172551645"><ele>696.6666666666666</ele><time>2026-04-11T17:29:54.999Z</time></trkpt><trkpt lat="44.335148145433884" lon="7.4301272061636325"><ele>697.3333333333333</ele><time>2026-04-11T17:29:55.999Z</time></trkpt><trkpt lat="44.33519201094218" lon="7.4298511257380975"><ele>698.0</ele><time>2026-04-11T17:29:56.999Z</time></trkpt><trkpt lat="44.335231107063116" lon="7.429595260609476"><ele>698.0</ele><time>2026-04-11T17:29:57.999Z</time></trkpt><trkpt lat="44.33525450897924" lon="7.429350543051161"><ele>698.0</ele><time>2026-04-11T17:29:58.999Z</time></trkpt><trkpt lat="44.33526192405829" lon="7.429100152954955"><ele>698.0</ele><time>2026-04-11T17:29:59.999Z</time></trkpt><trkpt lat="44.335248302671296" lon="7.428839642568251"><ele>697.6666666666666</ele><time>2026-04-11T17:30:00.999Z</time></trkpt><trkpt lat="44.3352169651118" lon="7.428557886939999"><ele>697.3333333333334</ele><time>2026-04-11T17:30:01.999Z</time></trkpt><trkpt lat="44.33517135137775" lon="7.428236422287468"><ele>697.0</ele><time>2026-04-11T17:30:03Z</time></trkpt><trkpt lat="44.3351190617421" lon="7.4278700932630874"><ele>697.0</ele><time>2026-04-11T17:30:04Z</time></trkpt><trkpt lat="44.33506939491389" lon="7.427473922944959"><ele>697.0</ele><time>2026-04-11T17:30:05Z</time></trkpt><trkpt lat="44.335019100237155" lon="7.427053935940742"><ele>698.0</ele><time>2026-04-11T17:30:06Z</time></trkpt><trkpt lat="44.33495955420908" lon="7.426608278943547"><ele>699.0</ele><time>2026-04-11T17:30:07Z</time></trkpt><trkpt lat="44.334887402527194" lon="7.426126888324939"><ele>699.0</ele><time>2026-04-11T17:30:08Z</time></trkpt><trkpt lat="44.334834462524945" lon="7.425698091652692"><ele>699.0</ele><time>2026-04-11T17:30:09Z</time></trkpt><trkpt lat="44.33478395948662" lon="7.425289293000795"><ele>699.0</ele><time>2026-04-11T17:30:10Z</time></trkpt><trkpt lat="44.33473822892457" lon="7.424902951410148"><ele>699.0</ele><time>2026-04-11T17:30:11Z</time></trkpt><trkpt lat="44.334695291971656" lon="7.424550208308831"><ele>702.5</ele><time>2026-04-11T17:30:12Z</time></trkpt><trkpt lat="44.334656809629266" lon="7.4242197191610195"><ele>706.0</ele><time>2026-04-11T17:30:13Z</time></trkpt><trkpt lat="44.33461958850081" lon="7.423902617776777"><ele>705.5</ele><time>2026-04-11T17:30:14Z</time></trkpt><trkpt lat="44.33457972637995" lon="7.423574663416165"><ele>705.0</ele><time>2026-04-11T17:30:15Z</time></trkpt><trkpt lat="44.334534925197765" lon="7.423233255633662"><ele>704.0</ele><time>2026-04-11T17:30:16Z</time></trkpt><trkpt lat="44.334488103720275" lon="7.422889566936986"><ele>703.0</ele><time>2026-04-11T17:30:17Z</time></trkpt><trkpt lat="44.3344428204715" lon="7.422532897089202"><ele>703.0</ele><time>2026-04-11T17:30:18Z</time></trkpt><trkpt lat="44.334395302763426" lon="7.422176946124664"><ele>703.0</ele><time>2026-04-11T17:30:19Z</time></trkpt><trkpt lat="44.334351204469286" lon="7.421836425324959"><ele>702.6666666666667</ele><time>2026-04-11T17:30:20Z</time></trkpt><trkpt lat="44.3343125443879" lon="7.421529230976099"><ele>702.3333333333334</ele><time>2026-04-11T17:30:21Z</time></trkpt><trkpt lat="44.33427831965406" lon="7.4212569137513436"><ele>702.0</ele><time>2026-04-11T17:30:22Z</time></trkpt><trkpt lat="44.334246403465734" lon="7.421007466670555"><ele>700.75</ele><time>2026-04-11T17:30:23Z</time></trkpt><trkpt lat="44.33421785734586" lon="7.420816373002141"><ele>699.5</ele><time>2026-04-11T17:30:24Z</time></trkpt><trkpt lat="44.334231475787384" lon="7.4206731309034994"><ele>698.25</ele><time>2026-04-11T17:30:25Z</time></trkpt><trkpt lat="44.33420502357104" lon="7.42045683601892"><ele>697.0</ele><time>2026-04-11T17:30:26Z</time></trkpt><trkpt lat="44.33422505075405" lon="7.420287102709732"><ele>695.5</ele><time>2026-04-11T17:30:27Z</time></trkpt><trkpt lat="44.33425874497631" lon="7.420111454605834"><ele>694.0</ele><time>2026-04-11T17:30:28Z</time></trkpt><trkpt lat="44.334316203708276" lon="7.419938063340378"><ele>692.5</ele><time>2026-04-11T17:30:29Z</time></trkpt><trkpt lat="44.33438934683009" lon="7.419771537714147"><ele>691.0</ele><time>2026-04-11T17:30:30Z</time></trkpt><trkpt lat="44.33447638517426" lon="7.419623844702331"><ele>689.25</ele><time>2026-04-11T17:30:31Z</time></trkpt><trkpt lat="44.33457949513806" lon="7.419484237552404"><ele>687.5</ele><time>2026-04-11T17:30:32Z</time></trkpt><trkpt lat="44.33470210966581" lon="7.4193967819020346"><ele>685.75</ele><time>2026-04-11T17:30:33Z</time></trkpt><trkpt lat="44.334807464685376" lon="7.419286599367714"><ele>684.0</ele><time>2026-04-11T17:30:34Z</time></trkpt><trkpt lat="44.334933171032176" lon="7.419207842851281"><ele>683.3333333333334</ele><time>2026-04-11T17:30:35Z</time></trkpt><trkpt lat="44.33506766629199" lon="7.419107195309267"><ele>682.6666666666667</ele><time>2026-04-11T17:30:36Z</time></trkpt><trkpt lat="44.33521442512141" lon="7.418988227246355"><ele>682.0</ele><time>2026-04-11T17:30:37Z</time></trkpt><trkpt lat="44.33536561253743" lon="7.418865789021587"><ele>680.6666666666667</ele><time>2026-04-11T17:30:38Z</time></trkpt><trkpt lat="44.33552046466655" lon="7.418754439547542"><ele>679.3333333333334</ele><time>2026-04-11T17:30:39Z</time></trkpt><trkpt lat="44.3356672308551" lon="7.4186431977036795"><ele>678.0</ele><time>2026-04-11T17:30:40Z</time></trkpt><trkpt lat="44.335808814051525" lon="7.41852349399255"><ele>678.0</ele><time>2026-04-11T17:30:41Z</time></trkpt><trkpt lat="44.33592604826778" lon="7.418408408085058"><ele>678.0</ele><time>2026-04-11T17:30:42Z</time></trkpt><trkpt lat="44.336037252850055" lon="7.418258802105834"><ele>678.0</ele><time>2026-04-11T17:30:43Z</time></trkpt><trkpt lat="44.336140433866746" lon="7.418071015377137"><ele>674.3333333333334</ele><time>2026-04-11T17:30:44Z</time></trkpt><trkpt lat="44.33623287692022" lon="7.417865807797225"><ele>670.6666666666667</ele><time>2026-04-11T17:30:45Z</time></trkpt><trkpt lat="44.33630842399919" lon="7.417639016933069"><ele>667.0</ele><time>2026-04-11T17:30:46Z</time></trkpt><trkpt lat="44.33638751488882" lon="7.4173723946050085"><ele>665.5</ele><time>2026-04-11T17:30:47Z</time></trkpt><trkpt lat="44.336484724197895" lon="7.417055618618627"><ele>664.0</ele><time>2026-04-11T17:30:48Z</time></trkpt><trkpt lat="44.33659807913765" lon="7.416705759288723"><ele>664.0</ele><time>2026-04-11T17:30:49Z</time></trkpt><trkpt lat="44.336708634436285" lon="7.416383191702936"><ele>664.0</ele><time>2026-04-11T17:30:50Z</time></trkpt><trkpt lat="44.336799461724986" lon="7.416087093765124"><ele>668.0</ele><time>2026-04-11T17:30:51Z</time></trkpt><trkpt lat="44.33688748782392" lon="7.415819825785287"><ele>672.0</ele><time>2026-04-11T17:30:52Z</time></trkpt><trkpt lat="44.33697211477173" lon="7.415577693788924"><ele>676.0</ele><time>2026-04-11T17:30:53Z</time></trkpt><trkpt lat="44.337054323495614" lon="7.415349346982276"><ele>677.3333333333334</ele><time>2026-04-11T17:30:54Z</time></trkpt><trkpt lat="44.33713181310678" lon="7.415128226469093"><ele>678.6666666666666</ele><time>2026-04-11T17:30:55Z</time></trkpt><trkpt lat="44.33719766178327" lon="7.414912865880782"><ele>680.0</ele><time>2026-04-11T17:30:56Z</time></trkpt><trkpt lat="44.337249952412044" lon="7.4147177516079905"><ele>680.75</ele><time>2026-04-11T17:30:57Z</time></trkpt><trkpt lat="44.33728526737902" lon="7.414544588401925"><ele>681.5</ele><time>2026-04-11T17:30:58Z</time></trkpt><trkpt lat="44.33730694419142" lon="7.414367107894171"><ele>682.25</ele><time>2026-04-11T17:30:59Z</time></trkpt><trkpt lat="44.3373079406373" lon="7.4141924201205"><ele>683.0</ele><time>2026-04-11T17:31:00Z</time></trkpt><trkpt lat="44.33728875895243" lon="7.4140014653608"><ele>683.0</ele><time>2026-04-11T17:31:01Z</time></trkpt><trkpt lat="44.3372389904064" lon="7.413795157279916"><ele>683.0</ele><time>2026-04-11T17:31:02Z</time></trkpt><trkpt lat="44.337168823900534" lon="7.41357877089505"><ele>683.0</ele><time>2026-04-11T17:31:03Z</time></trkpt><trkpt lat="44.33708213006813" lon="7.413354586266478"><ele>683.0</ele><time>2026-04-11T17:31:04Z</time></trkpt><trkpt lat="44.336993727578474" lon="7.413128230849682"><ele>683.0</ele><time>2026-04-11T17:31:05Z</time></trkpt><trkpt lat="44.33689992025636" lon="7.4128851593853975"><ele>683.0</ele><time>2026-04-11T17:31:06Z</time></trkpt><trkpt lat="44.336807110745546" lon="7.412638415646492"><ele>683.6666666666666</ele><time>2026-04-11T17:31:07Z</time></trkpt><trkpt lat="44.33670999526206" lon="7.412374383671807"><ele>684.3333333333334</ele><time>2026-04-11T17:31:08Z</time></trkpt><trkpt lat="44.33660895901318" lon="7.412102173696272"><ele>685.0</ele><time>2026-04-11T17:31:09Z</time></trkpt><trkpt lat="44.33650028761923" lon="7.411815879711335"><ele>686.0</ele><time>2026-04-11T17:31:10Z</time></trkpt><trkpt lat="44.336397893287995" lon="7.411524683373211"><ele>687.0</ele><time>2026-04-11T17:31:11Z</time></trkpt><trkpt lat="44.336297946974874" lon="7.411248004347835"><ele>687.3333333333334</ele><time>2026-04-11T17:31:12Z</time></trkpt><trkpt lat="44.33620939029471" lon="7.411002888441195"><ele>687.6666666666667</ele><time>2026-04-11T17:31:13Z</time></trkpt><trkpt lat="44.336129981820214" lon="7.410778952573695"><ele>688.0</ele><time>2026-04-11T17:31:14Z</time></trkpt><trkpt lat="44.336055961228475" lon="7.410573010009622"><ele>688.75</ele><time>2026-04-11T17:31:15Z</time></trkpt><trkpt lat="44.335983538018006" lon="7.410376465732328"><ele>689.5</ele><time>2026-04-11T17:31:16Z</time></trkpt><trkpt lat="44.33591864534259" lon="7.410194043644427"><ele>690.25</ele><time>2026-04-11T17:31:17Z</time></trkpt><trkpt lat="44.33585067876824" lon="7.410028618333257"><ele>691.0</ele><time>2026-04-11T17:31:18Z</time></trkpt><trkpt lat="44.33578050719804" lon="7.409878215052227"><ele>691.0</ele><time>2026-04-11T17:31:19Z</time></trkpt><trkpt lat="44.335705432837685" lon="7.409740643689067"><ele>691.0</ele><time>2026-04-11T17:31:20Z</time></trkpt><trkpt lat="44.33562859027162" lon="7.409609066463026"><ele>691.0</ele><time>2026-04-11T17:31:21Z</time></trkpt><trkpt lat="44.33554114047027" lon="7.409474429957249"><ele>691.0</ele><time>2026-04-11T17:31:22Z</time></trkpt><trkpt lat="44.335437441050836" lon="7.409328505862331"><ele>691.6666666666667</ele><time>2026-04-11T17:31:23Z</time></trkpt><trkpt lat="44.33533014521314" lon="7.40917676875104"><ele>692.3333333333334</ele><time>2026-04-11T17:31:24Z</time></trkpt><trkpt lat="44.33522466434419" lon="7.4090173291146435"><ele>693.0</ele><time>2026-04-11T17:31:25Z</time></trkpt><trkpt lat="44.33511604008634" lon="7.4088586501083675"><ele>693.0</ele><time>2026-04-11T17:31:26Z</time></trkpt><trkpt lat="44.33500362883751" lon="7.408696695154208"><ele>693.0</ele><time>2026-04-11T17:31:27Z</time></trkpt><trkpt lat="44.3348855235793" lon="7.408527265685418"><ele>693.0</ele><time>2026-04-11T17:31:28Z</time></trkpt><trkpt lat="44.334768634681744" lon="7.408350168920385"><ele>693.6666666666666</ele><time>2026-04-11T17:31:29Z</time></trkpt><trkpt lat="44.33464448072812" lon="7.408173834031747"><ele>694.3333333333333</ele><time>2026-04-11T17:31:30Z</time></trkpt><trkpt lat="44.33452019607032" lon="7.407987905365411"><ele>695.0</ele><time>2026-04-11T17:31:31Z</time></trkpt><trkpt lat="44.33439182295073" lon="7.40779870880148"><ele>695.0</ele><time>2026-04-11T17:31:32Z</time></trkpt><trkpt lat="44.334256307355425" lon="7.407606446558679"><ele>695.0</ele><time>2026-04-11T17:31:33Z</time></trkpt><trkpt lat="44.33412324404066" lon="7.407414068184971"><ele>695.0</ele><time>2026-04-11T17:31:34Z</time></trkpt><trkpt lat="44.33399460376233" lon="7.407223890477"><ele>695.6666666666666</ele><time>2026-04-11T17:31:35Z</time></trkpt><trkpt lat="44.3338750825451" lon="7.407044512846575"><ele>696.3333333333334</ele><time>2026-04-11T17:31:36Z</time></trkpt><trkpt lat="44.33377053962161" lon="7.406882856941922"><ele>697.0</ele><time>2026-04-11T17:31:37Z</time></trkpt><trkpt lat="44.333677893323205" lon="7.406726480282794"><ele>697.0</ele><time>2026-04-11T17:31:37.999Z</time></trkpt><trkpt lat="44.33358457881367" lon="7.40654692702451"><ele>697.0</ele><time>2026-04-11T17:31:38.999Z</time></trkpt><trkpt lat="44.33350176491223" lon="7.4063427128026325"><ele>697.0</ele><time>2026-04-11T17:31:39.999Z</time></trkpt><trkpt lat="44.333426970899204" lon="7.406112286924628"><ele>697.3333333333334</ele><time>2026-04-11T17:31:40.999Z</time></trkpt><trkpt lat="44.33336798579477" lon="7.405851900499918"><ele>697.6666666666666</ele><time>2026-04-11T17:31:41.999Z</time></trkpt><trkpt lat="44.333320278176615" lon="7.405569266333032"><ele>698.0</ele><time>2026-04-11T17:31:42.999Z</time></trkpt><trkpt lat="44.333275241800415" lon="7.405248830077103"><ele>698.0</ele><time>2026-04-11T17:31:43.999Z</time></trkpt><trkpt lat="44.33322910117113" lon="7.404916500414304"><ele>698.0</ele><time>2026-04-11T17:31:44.999Z</time></trkpt><trkpt lat="44.333183272302236" lon="7.404586712410513"><ele>699.0</ele><time>2026-04-11T17:31:45.999Z</time></trkpt><trkpt lat="44.333135168775925" lon="7.4042671266528535"><ele>700.0</ele><time>2026-04-11T17:31:46.999Z</time></trkpt><trkpt lat="44.33308471553509" lon="7.403939736819216"><ele>699.5</ele><time>2026-04-11T17:31:47.999Z</time></trkpt><trkpt lat="44.333032453366215" lon="7.403590278412958"><ele>699.0</ele><time>2026-04-11T17:31:48.999Z</time></trkpt><trkpt lat="44.33297224306142" lon="7.403222512552236"><ele>699.0</ele><time>2026-04-11T17:31:49.999Z</time></trkpt><trkpt lat="44.33290954920108" lon="7.402859755528529"><ele>699.0</ele><time>2026-04-11T17:31:50.999Z</time></trkpt><trkpt lat="44.33285780157649" lon="7.402535218474356"><ele>699.0</ele><time>2026-04-11T17:31:51.999Z</time></trkpt><trkpt lat="44.33281438649697" lon="7.402246686012019"><ele>699.0</ele><time>2026-04-11T17:31:52.999Z</time></trkpt><trkpt lat="44.33277573030495" lon="7.40198757596007"><ele>699.0</ele><time>2026-04-11T17:31:53.999Z</time></trkpt><trkpt lat="44.332748764440346" lon="7.4017366383240235"><ele>700.0</ele><time>2026-04-11T17:31:54.999Z</time></trkpt><trkpt lat="44.3327086115313" lon="7.401475784315492"><ele>701.0</ele><time>2026-04-11T17:31:55.999Z</time></trkpt><trkpt lat="44.332655283958516" lon="7.401218859075895"><ele>702.0</ele><time>2026-04-11T17:31:56.999Z</time></trkpt><trkpt lat="44.332618304799524" lon="7.400964677622505"><ele>702.6666666666666</ele><time>2026-04-11T17:31:57.999Z</time></trkpt><trkpt lat="44.33258827270606" lon="7.400722648968758"><ele>703.3333333333333</ele><time>2026-04-11T17:31:58.999Z</time></trkpt><trkpt lat="44.33255685927694" lon="7.400506854554865"><ele>704.0</ele><time>2026-04-11T17:31:59.999Z</time></trkpt><trkpt lat="44.332524940964234" lon="7.400306345273877"><ele>704.75</ele><time>2026-04-11T17:32:00.999Z</time></trkpt><trkpt lat="44.332495537947956" lon="7.400106456888571"><ele>705.5</ele><time>2026-04-11T17:32:01.999Z</time></trkpt><trkpt lat="44.33246565351966" lon="7.399905021524874"><ele>706.25</ele><time>2026-04-11T17:32:02.999Z</time></trkpt><trkpt lat="44.33243567864694" lon="7.399701313423432"><ele>707.0</ele><time>2026-04-11T17:32:03.999Z</time></trkpt><trkpt lat="44.33240239941175" lon="7.399493957402606"><ele>708.0</ele><time>2026-04-11T17:32:04.999Z</time></trkpt><trkpt lat="44.33237066636059" lon="7.399271808367891"><ele>709.0</ele><time>2026-04-11T17:32:05.999Z</time></trkpt><trkpt lat="44.332334294257095" lon="7.399038868680214"><ele>710.0</ele><time>2026-04-11T17:32:06.999Z</time></trkpt><trkpt lat="44.33229417073755" lon="7.3987917177784"><ele>711.6666666666666</ele><time>2026-04-11T17:32:07.999Z</time></trkpt><trkpt lat="44.33225451992616" lon="7.398538444507693"><ele>713.3333333333334</ele><time>2026-04-11T17:32:09Z</time></trkpt><trkpt lat="44.33221837532706" lon="7.398298822342"><ele>715.0</ele><time>2026-04-11T17:32:10Z</time></trkpt><trkpt lat="44.332182808063216" lon="7.398081697476236"><ele>712.0</ele><time>2026-04-11T17:32:11Z</time></trkpt><trkpt lat="44.33214490724695" lon="7.397864341832063"><ele>709.0</ele><time>2026-04-11T17:32:12Z</time></trkpt><trkpt lat="44.332090719833865" lon="7.397651852034433"><ele>706.0</ele><time>2026-04-11T17:32:13Z</time></trkpt><trkpt lat="44.3320178451677" lon="7.397442943810431"><ele>706.0</ele><time>2026-04-11T17:32:14Z</time></trkpt><trkpt lat="44.33192550603319" lon="7.397247718371624"><ele>706.0</ele><time>2026-04-11T17:32:15Z</time></trkpt><trkpt lat="44.33182315315868" lon="7.397058756383684"><ele>706.0</ele><time>2026-04-11T17:32:16Z</time></trkpt><trkpt lat="44.331710391433546" lon="7.396886095750494"><ele>705.6666666666667</ele><time>2026-04-11T17:32:17Z</time></trkpt><trkpt lat="44.331574867276075" lon="7.396724090428916"><ele>705.3333333333334</ele><time>2026-04-11T17:32:18Z</time></trkpt><trkpt lat="44.33140898622416" lon="7.396566304911499"><ele>705.0</ele><time>2026-04-11T17:32:19Z</time></trkpt><trkpt lat="44.33123567812907" lon="7.396404141126545"><ele>706.3333333333334</ele><time>2026-04-11T17:32:20Z</time></trkpt><trkpt lat="44.331073937491084" lon="7.396251289888432"><ele>707.6666666666667</ele><time>2026-04-11T17:32:21Z</time></trkpt><trkpt lat="44.33093426488527" lon="7.3961171521548845"><ele>709.0</ele><time>2026-04-11T17:32:22Z</time></trkpt><trkpt lat="44.33078563242784" lon="7.395980065363538"><ele>709.0</ele><time>2026-04-11T17:32:23Z</time></trkpt><trkpt lat="44.330636119698376" lon="7.395864504852961"><ele>709.0</ele><time>2026-04-11T17:32:24Z</time></trkpt><trkpt lat="44.33047852921078" lon="7.395778374286346"><ele>709.0</ele><time>2026-04-11T17:32:25Z</time></trkpt><trkpt lat="44.330303319773066" lon="7.395714485978506"><ele>707.6666666666667</ele><time>2026-04-11T17:32:26Z</time></trkpt><trkpt lat="44.330132598896455" lon="7.39566442974558"><ele>706.3333333333334</ele><time>2026-04-11T17:32:27Z</time></trkpt><trkpt lat="44.329968660500235" lon="7.395617266027937"><ele>705.0</ele><time>2026-04-11T17:32:28Z</time></trkpt><trkpt lat="44.329792102048984" lon="7.395610507471867"><ele>704.6666666666666</ele><time>2026-04-11T17:32:29Z</time></trkpt><trkpt lat="44.329613665334556" lon="7.395628839633993"><ele>704.3333333333333</ele><time>2026-04-11T17:32:30Z</time></trkpt><trkpt lat="44.3294302300909" lon="7.395691495795754"><ele>704.0</ele><time>2026-04-11T17:32:31Z</time></trkpt><trkpt lat="44.32923893777606" lon="7.395754845565762"><ele>704.0</ele><time>2026-04-11T17:32:32Z</time></trkpt><trkpt lat="44.3290397179532" lon="7.39583437634281"><ele>704.0</ele><time>2026-04-11T17:32:33Z</time></trkpt><trkpt lat="44.32882265567963" lon="7.39592611581735"><ele>704.0</ele><time>2026-04-11T17:32:34Z</time></trkpt><trkpt lat="44.328606476739736" lon="7.396015189631127"><ele>704.3333333333333</ele><time>2026-04-11T17:32:35Z</time></trkpt><trkpt lat="44.32839903526039" lon="7.3960965782087476"><ele>704.6666666666666</ele><time>2026-04-11T17:32:36Z</time></trkpt><trkpt lat="44.328191522627165" lon="7.396181377240984"><ele>705.0</ele><time>2026-04-11T17:32:37Z</time></trkpt><trkpt lat="44.32809375307917" lon="7.3962348331833"><ele>702.0</ele><time>2026-04-11T17:32:38Z</time></trkpt><trkpt lat="44.327911916976674" lon="7.39631468802008"><ele>699.0</ele><time>2026-04-11T17:32:39Z</time></trkpt><trkpt lat="44.32773026273017" lon="7.3963934293408835"><ele>696.0</ele><time>2026-04-11T17:32:40Z</time></trkpt><trkpt lat="44.327557461271105" lon="7.39647235789676"><ele>696.0</ele><time>2026-04-11T17:32:41Z</time></trkpt><trkpt lat="44.32739241685526" lon="7.396539027727244"><ele>696.0</ele><time>2026-04-11T17:32:42Z</time></trkpt><trkpt lat="44.327226667589834" lon="7.396607051291225"><ele>696.0</ele><time>2026-04-11T17:32:43Z</time></trkpt><trkpt lat="44.327064579041725" lon="7.396673275755163"><ele>699.0</ele><time>2026-04-11T17:32:44Z</time></trkpt><trkpt lat="44.32691203695047" lon="7.396736231712117"><ele>702.0</ele><time>2026-04-11T17:32:45Z</time></trkpt><trkpt lat="44.32677034462886" lon="7.396795445896796"><ele>705.0</ele><time>2026-04-11T17:32:46Z</time></trkpt><trkpt lat="44.32663992415559" lon="7.396851336612579"><ele>708.0</ele><time>2026-04-11T17:32:47Z</time></trkpt><trkpt lat="44.326511506119324" lon="7.396899825500249"><ele>706.0</ele><time>2026-04-11T17:32:48Z</time></trkpt><trkpt lat="44.32638263244777" lon="7.396918509188619"><ele>704.0</ele><time>2026-04-11T17:32:49Z</time></trkpt><trkpt lat="44.32624177179782" lon="7.396959176026807"><ele>702.0</ele><time>2026-04-11T17:32:50Z</time></trkpt><trkpt lat="44.326087445728774" lon="7.396916205123469"><ele>700.0</ele><time>2026-04-11T17:32:51Z</time></trkpt><trkpt lat="44.325933357058084" lon="7.396857144256796"><ele>700.0</ele><time>2026-04-11T17:32:52Z</time></trkpt><trkpt lat="44.32577992170625" lon="7.396758482747655"><ele>700.0</ele><time>2026-04-11T17:32:53Z</time></trkpt><trkpt lat="44.32565705010295" lon="7.396635222881827"><ele>700.0</ele><time>2026-04-11T17:32:54Z</time></trkpt><trkpt lat="44.32552881102597" lon="7.396473316515154"><ele>698.0</ele><time>2026-04-11T17:32:55Z</time></trkpt><trkpt lat="44.32539689988409" lon="7.396281109348987"><ele>696.0</ele><time>2026-04-11T17:32:56Z</time></trkpt><trkpt lat="44.325268963207044" lon="7.396062221302842"><ele>694.0</ele><time>2026-04-11T17:32:57Z</time></trkpt><trkpt lat="44.325151393989294" lon="7.395819826661873"><ele>694.0</ele><time>2026-04-11T17:32:58Z</time></trkpt><trkpt lat="44.325039625752545" lon="7.395566471900645"><ele>694.0</ele><time>2026-04-11T17:32:59Z</time></trkpt><trkpt lat="44.324938214556134" lon="7.395310527364036"><ele>694.0</ele><time>2026-04-11T17:33:00Z</time></trkpt><trkpt lat="44.324839661411765" lon="7.3950649786364595"><ele>693.6666666666667</ele><time>2026-04-11T17:33:01Z</time></trkpt><trkpt lat="44.324748044675424" lon="7.394839443077021"><ele>693.3333333333334</ele><time>2026-04-11T17:33:02Z</time></trkpt><trkpt lat="44.324651607421075" lon="7.394608551549712"><ele>693.0</ele><time>2026-04-11T17:33:03Z</time></trkpt><trkpt lat="44.32455021011209" lon="7.394385822956512"><ele>693.0</ele><time>2026-04-11T17:33:04Z</time></trkpt><trkpt lat="44.32445215932273" lon="7.394181379289391"><ele>693.0</ele><time>2026-04-11T17:33:05Z</time></trkpt><trkpt lat="44.32435439065166" lon="7.393986171707719"><ele>693.0</ele><time>2026-04-11T17:33:06Z</time></trkpt><trkpt lat="44.324239162009555" lon="7.393801849133821"><ele>690.6666666666666</ele><time>2026-04-11T17:33:07Z</time></trkpt><trkpt lat="44.324103737295026" lon="7.393625537207397"><ele>688.3333333333333</ele><time>2026-04-11T17:33:08Z</time></trkpt><trkpt lat="44.323953038394706" lon="7.393460642705283"><ele>686.0</ele><time>2026-04-11T17:33:09Z</time></trkpt><trkpt lat="44.323782664048665" lon="7.393307125676494"><ele>686.0</ele><time>2026-04-11T17:33:10Z</time></trkpt><trkpt lat="44.32360519557076" lon="7.393161450562514"><ele>686.0</ele><time>2026-04-11T17:33:11Z</time></trkpt><trkpt lat="44.323429025105554" lon="7.393019895479959"><ele>686.0</ele><time>2026-04-11T17:33:12Z</time></trkpt><trkpt lat="44.32325389409735" lon="7.392875847628013"><ele>687.0</ele><time>2026-04-11T17:33:13Z</time></trkpt><trkpt lat="44.323081286088296" lon="7.392728809449854"><ele>688.0</ele><time>2026-04-11T17:33:14Z</time></trkpt><trkpt lat="44.3229182759102" lon="7.392593894909947"><ele>689.0</ele><time>2026-04-11T17:33:15Z</time></trkpt><trkpt lat="44.32276864639986" lon="7.392465709773482"><ele>689.0</ele><time>2026-04-11T17:33:16Z</time></trkpt><trkpt lat="44.32261317597561" lon="7.392306996013446"><ele>689.0</ele><time>2026-04-11T17:33:17Z</time></trkpt><trkpt lat="44.32242626536081" lon="7.392146966804236"><ele>689.0</ele><time>2026-04-11T17:33:18Z</time></trkpt><trkpt lat="44.32223561997174" lon="7.391983573652084"><ele>687.3333333333333</ele><time>2026-04-11T17:33:19Z</time></trkpt><trkpt lat="44.32204503519807" lon="7.391820325259708"><ele>685.6666666666666</ele><time>2026-04-11T17:33:20Z</time></trkpt><trkpt lat="44.32186870915202" lon="7.391669288767211"><ele>684.0</ele><time>2026-04-11T17:33:21Z</time></trkpt><trkpt lat="44.32170652205752" lon="7.39155071052694"><ele>684.0</ele><time>2026-04-11T17:33:22Z</time></trkpt><trkpt lat="44.32156188430559" lon="7.391423535446052"><ele>684.0</ele><time>2026-04-11T17:33:23Z</time></trkpt><trkpt lat="44.32142562549092" lon="7.391306088680727"><ele>684.0</ele><time>2026-04-11T17:33:24Z</time></trkpt><trkpt lat="44.32128606233351" lon="7.3911878856334585"><ele>685.0</ele><time>2026-04-11T17:33:25Z</time></trkpt><trkpt lat="44.321147424910876" lon="7.391070111409168"><ele>686.0</ele><time>2026-04-11T17:33:26Z</time></trkpt><trkpt lat="44.321006827776195" lon="7.3909511022338945"><ele>687.0</ele><time>2026-04-11T17:33:27Z</time></trkpt><trkpt lat="44.320876173442066" lon="7.390840675600698"><ele>687.0</ele><time>2026-04-11T17:33:28Z</time></trkpt><trkpt lat="44.32075353026973" lon="7.390735094264768"><ele>687.0</ele><time>2026-04-11T17:33:29Z</time></trkpt><trkpt lat="44.32064840377264" lon="7.390638358954835"><ele>687.0</ele><time>2026-04-11T17:33:30Z</time></trkpt><trkpt lat="44.32054443176216" lon="7.390544759261235"><ele>687.0</ele><time>2026-04-11T17:33:31Z</time></trkpt><trkpt lat="44.32043594049018" lon="7.390445690255084"><ele>687.5</ele><time>2026-04-11T17:33:32Z</time></trkpt><trkpt lat="44.32031869054428" lon="7.390338293612565"><ele>688.0</ele><time>2026-04-11T17:33:33Z</time></trkpt><trkpt lat="44.32019526450472" lon="7.390227206093902"><ele>688.5</ele><time>2026-04-11T17:33:34Z</time></trkpt><trkpt lat="44.32006950601605" lon="7.390115846372246"><ele>689.0</ele><time>2026-04-11T17:33:35Z</time></trkpt><trkpt lat="44.31994446099884" lon="7.390006241476649"><ele>689.0</ele><time>2026-04-11T17:33:36Z</time></trkpt><trkpt lat="44.31982290624501" lon="7.389893213204407"><ele>689.0</ele><time>2026-04-11T17:33:37Z</time></trkpt><trkpt lat="44.31971117033144" lon="7.389785844749102"><ele>689.0</ele><time>2026-04-11T17:33:38Z</time></trkpt><trkpt lat="44.319602893045705" lon="7.38967157621339"><ele>689.0</ele><time>2026-04-11T17:33:39Z</time></trkpt><trkpt lat="44.319490962965865" lon="7.389549046591897"><ele>689.0</ele><time>2026-04-11T17:33:40Z</time></trkpt><trkpt lat="44.319374225647806" lon="7.389412863561208"><ele>689.0</ele><time>2026-04-11T17:33:41Z</time></trkpt><trkpt lat="44.319252823097116" lon="7.3892611032362785"><ele>689.0</ele><time>2026-04-11T17:33:42Z</time></trkpt><trkpt lat="44.31912556650382" lon="7.389096946788768"><ele>689.0</ele><time>2026-04-11T17:33:43Z</time></trkpt><trkpt lat="44.31899581500769" lon="7.388920100292718"><ele>689.0</ele><time>2026-04-11T17:33:44Z</time></trkpt><trkpt lat="44.31886960501105" lon="7.388729865255995"><ele>689.0</ele><time>2026-04-11T17:33:44.999Z</time></trkpt><trkpt lat="44.31874374899747" lon="7.3885271158918115"><ele>688.0</ele><time>2026-04-11T17:33:45.999Z</time></trkpt><trkpt lat="44.31861531755229" lon="7.388325072440228"><ele>687.0</ele><time>2026-04-11T17:33:46.999Z</time></trkpt><trkpt lat="44.318484640619296" lon="7.388129157864001"><ele>686.0</ele><time>2026-04-11T17:33:47.999Z</time></trkpt><trkpt lat="44.31836149433088" lon="7.387927964056146"><ele>686.0</ele><time>2026-04-11T17:33:48.999Z</time></trkpt><trkpt lat="44.31824063363103" lon="7.387725299672571"><ele>686.0</ele><time>2026-04-11T17:33:49.999Z</time></trkpt><trkpt lat="44.31811488156089" lon="7.387530784798996"><ele>686.0</ele><time>2026-04-11T17:33:50.999Z</time></trkpt><trkpt lat="44.31797661813935" lon="7.387341490587686"><ele>686.0</ele><time>2026-04-11T17:33:51.999Z</time></trkpt><trkpt lat="44.31784425103735" lon="7.387166225467807"><ele>686.0</ele><time>2026-04-11T17:33:52.999Z</time></trkpt><trkpt lat="44.31771607119945" lon="7.387002350493484"><ele>686.0</ele><time>2026-04-11T17:33:53.999Z</time></trkpt><trkpt lat="44.317580894259805" lon="7.386830767988397"><ele>686.0</ele><time>2026-04-11T17:33:54.999Z</time></trkpt><trkpt lat="44.31743217430902" lon="7.38666720637312"><ele>686.0</ele><time>2026-04-11T17:33:55.999Z</time></trkpt><trkpt lat="44.31727224947588" lon="7.386514944188088"><ele>686.0</ele><time>2026-04-11T17:33:56.999Z</time></trkpt><trkpt lat="44.31710243157868" lon="7.386385219569573"><ele>687.3333333333333</ele><time>2026-04-11T17:33:57.999Z</time></trkpt><trkpt lat="44.31692813572129" lon="7.386274059831117"><ele>688.6666666666666</ele><time>2026-04-11T17:33:58.999Z</time></trkpt><trkpt lat="44.31674733905421" lon="7.386186475210053"><ele>690.0</ele><time>2026-04-11T17:33:59.999Z</time></trkpt><trkpt lat="44.31656236168612" lon="7.386118598569074"><ele>686.3333333333334</ele><time>2026-04-11T17:34:00.999Z</time></trkpt><trkpt lat="44.316381484883166" lon="7.386073538475252"><ele>682.6666666666667</ele><time>2026-04-11T17:34:01.999Z</time></trkpt><trkpt lat="44.31620715101907" lon="7.386017165641955"><ele>679.0</ele><time>2026-04-11T17:34:02.999Z</time></trkpt><trkpt lat="44.316027265093766" lon="7.385932327101017"><ele>679.0</ele><time>2026-04-11T17:34:03.999Z</time></trkpt><trkpt lat="44.31583930896158" lon="7.385818059938766"><ele>679.0</ele><time>2026-04-11T17:34:04.999Z</time></trkpt><trkpt lat="44.31564845057808" lon="7.385677048280682"><ele>679.0</ele><time>2026-04-11T17:34:05.999Z</time></trkpt><trkpt lat="44.31547189494504" lon="7.385536232248277"><ele>679.3333333333334</ele><time>2026-04-11T17:34:06.999Z</time></trkpt><trkpt lat="44.315312169013296" lon="7.385407457033526"><ele>679.6666666666666</ele><time>2026-04-11T17:34:07.999Z</time></trkpt><trkpt lat="44.3151523733567" lon="7.3852778598740505"><ele>680.0</ele><time>2026-04-11T17:34:08.999Z</time></trkpt><trkpt lat="44.3149909787558" lon="7.385135849342452"><ele>680.0</ele><time>2026-04-11T17:34:09.999Z</time></trkpt><trkpt lat="44.314837332070276" lon="7.384975741067305"><ele>680.0</ele><time>2026-04-11T17:34:10.999Z</time></trkpt><trkpt lat="44.314692793335205" lon="7.384799165032293"><ele>680.0</ele><time>2026-04-11T17:34:11.999Z</time></trkpt><trkpt lat="44.31455040525962" lon="7.384597043596664"><ele>677.6666666666666</ele><time>2026-04-11T17:34:12.999Z</time></trkpt><trkpt lat="44.31441041468076" lon="7.3843795310895795"><ele>675.3333333333334</ele><time>2026-04-11T17:34:13.999Z</time></trkpt><trkpt lat="44.314275879629676" lon="7.384152914425664"><ele>673.0</ele><time>2026-04-11T17:34:15Z</time></trkpt><trkpt lat="44.31414445989158" lon="7.383931916254131"><ele>673.3333333333334</ele><time>2026-04-11T17:34:16Z</time></trkpt><trkpt lat="44.31402686549921" lon="7.383724464674783"><ele>673.6666666666666</ele><time>2026-04-11T17:34:17Z</time></trkpt><trkpt lat="44.313930233376226" lon="7.3835288962589205"><ele>674.0</ele><time>2026-04-11T17:34:18Z</time></trkpt><trkpt lat="44.313845407609136" lon="7.383339054386118"><ele>674.0</ele><time>2026-04-11T17:34:19Z</time></trkpt><trkpt lat="44.3137660165276" lon="7.383114440414974"><ele>674.0</ele><time>2026-04-11T17:34:20Z</time></trkpt><trkpt lat="44.31369877680891" lon="7.382856874655092"><ele>674.0</ele><time>2026-04-11T17:34:21Z</time></trkpt><trkpt lat="44.31364035346273" lon="7.3825666066119044"><ele>675.5</ele><time>2026-04-11T17:34:22Z</time></trkpt><trkpt lat="44.31358517365832" lon="7.3822412193563"><ele>677.0</ele><time>2026-04-11T17:34:23Z</time></trkpt><trkpt lat="44.313532063875556" lon="7.381929488307586"><ele>678.6666666666666</ele><time>2026-04-11T17:34:24Z</time></trkpt><trkpt lat="44.31348633163123" lon="7.381654978608167"><ele>680.3333333333334</ele><time>2026-04-11T17:34:25Z</time></trkpt><trkpt lat="44.31344494367928" lon="7.38137799979149"><ele>682.0</ele><time>2026-04-11T17:34:26Z</time></trkpt><trkpt lat="44.31340193117533" lon="7.381087045735578"><ele>683.6666666666667</ele><time>2026-04-11T17:34:27Z</time></trkpt><trkpt lat="44.31336115076772" lon="7.380803091021383"><ele>685.3333333333334</ele><time>2026-04-11T17:34:28Z</time></trkpt><trkpt lat="44.31332425971785" lon="7.380525305312275"><ele>687.0</ele><time>2026-04-11T17:34:29Z</time></trkpt><trkpt lat="44.313281150152626" lon="7.380240251400205"><ele>687.3333333333334</ele><time>2026-04-11T17:34:30Z</time></trkpt><trkpt lat="44.31324176222602" lon="7.379969930573518"><ele>687.6666666666667</ele><time>2026-04-11T17:34:31Z</time></trkpt><trkpt lat="44.31319518703678" lon="7.3797157863779255"><ele>688.0</ele><time>2026-04-11T17:34:32Z</time></trkpt><trkpt lat="44.31314004293026" lon="7.379445874791386"><ele>689.3333333333334</ele><time>2026-04-11T17:34:33Z</time></trkpt><trkpt lat="44.3130776685037" lon="7.379168471324047"><ele>690.6666666666666</ele><time>2026-04-11T17:34:34Z</time></trkpt><trkpt lat="44.313009163771305" lon="7.378894092676046"><ele>692.0</ele><time>2026-04-11T17:34:35Z</time></trkpt><trkpt lat="44.31293887909486" lon="7.378617647958633"><ele>688.6666666666666</ele><time>2026-04-11T17:34:36Z</time></trkpt><trkpt lat="44.31287275600008" lon="7.37832374501303"><ele>685.3333333333334</ele><time>2026-04-11T17:34:37Z</time></trkpt><trkpt lat="44.31280679746175" lon="7.378027529894825"><ele>682.0</ele><time>2026-04-11T17:34:38Z</time></trkpt><trkpt lat="44.31273785165939" lon="7.377737014648747"><ele>682.0</ele><time>2026-04-11T17:34:39Z</time></trkpt><trkpt lat="44.31266920526688" lon="7.377443655144628"><ele>682.0</ele><time>2026-04-11T17:34:40Z</time></trkpt><trkpt lat="44.31260156271198" lon="7.377156325169041"><ele>682.0</ele><time>2026-04-11T17:34:41Z</time></trkpt><trkpt lat="44.31253832340025" lon="7.376882012868443"><ele>683.0</ele><time>2026-04-11T17:34:42Z</time></trkpt><trkpt lat="44.312475358636235" lon="7.376609612963805"><ele>684.0</ele><time>2026-04-11T17:34:43Z</time></trkpt><trkpt lat="44.312407227551645" lon="7.3763402143523775"><ele>685.0</ele><time>2026-04-11T17:34:44Z</time></trkpt><trkpt lat="44.31234466750105" lon="7.376059166041801"><ele>686.3333333333334</ele><time>2026-04-11T17:34:45Z</time></trkpt><trkpt lat="44.3122770455576" lon="7.375776670923705"><ele>687.6666666666666</ele><time>2026-04-11T17:34:46Z</time></trkpt><trkpt lat="44.31220973464509" lon="7.375491010676887"><ele>689.0</ele><time>2026-04-11T17:34:47Z</time></trkpt><trkpt lat="44.312138020723694" lon="7.375204343958102"><ele>685.3333333333333</ele><time>2026-04-11T17:34:48Z</time></trkpt><trkpt lat="44.3120690091987" lon="7.3749213728350185"><ele>681.6666666666666</ele><time>2026-04-11T17:34:49Z</time></trkpt><trkpt lat="44.31199916368731" lon="7.374630664801266"><ele>678.0</ele><time>2026-04-11T17:34:50Z</time></trkpt><trkpt lat="44.31193143002784" lon="7.374341152400811"><ele>678.0</ele><time>2026-04-11T17:34:51Z</time></trkpt><trkpt lat="44.31185982577648" lon="7.374050306388328"><ele>678.0</ele><time>2026-04-11T17:34:52Z</time></trkpt><trkpt lat="44.31179020067964" lon="7.373751060658192"><ele>678.0</ele><time>2026-04-11T17:34:53Z</time></trkpt><trkpt lat="44.31171716598816" lon="7.373435070792321"><ele>679.0</ele><time>2026-04-11T17:34:54Z</time></trkpt><trkpt lat="44.311635567024695" lon="7.373066871912833"><ele>680.0</ele><time>2026-04-11T17:34:55Z</time></trkpt><trkpt lat="44.3115353827251" lon="7.372654591209728"><ele>679.5</ele><time>2026-04-11T17:34:56Z</time></trkpt><trkpt lat="44.31143458935211" lon="7.372223827352396"><ele>679.0</ele><time>2026-04-11T17:34:57Z</time></trkpt><trkpt lat="44.31134088148046" lon="7.371820943304037"><ele>679.0</ele><time>2026-04-11T17:34:58Z</time></trkpt><trkpt lat="44.311250928366036" lon="7.371452271671447"><ele>679.0</ele><time>2026-04-11T17:34:59Z</time></trkpt><trkpt lat="44.31115906237093" lon="7.371064368355635"><ele>680.5</ele><time>2026-04-11T17:35:00Z</time></trkpt><trkpt lat="44.311066076232656" lon="7.370676879858607"><ele>682.0</ele><time>2026-04-11T17:35:01Z</time></trkpt><trkpt lat="44.31097359403175" lon="7.370284112345224"><ele>682.5</ele><time>2026-04-11T17:35:02Z</time></trkpt><trkpt lat="44.310884127007085" lon="7.369911258578066"><ele>683.0</ele><time>2026-04-11T17:35:03Z</time></trkpt><trkpt lat="44.310801540407944" lon="7.369572122941661"><ele>684.0</ele><time>2026-04-11T17:35:04Z</time></trkpt><trkpt lat="44.31072754125285" lon="7.3692673108086"><ele>685.0</ele><time>2026-04-11T17:35:05Z</time></trkpt><trkpt lat="44.31065705876587" lon="7.368971977843712"><ele>685.3333333333334</ele><time>2026-04-11T17:35:06Z</time></trkpt><trkpt lat="44.310590017537955" lon="7.36867504442717"><ele>685.6666666666666</ele><time>2026-04-11T17:35:07Z</time></trkpt><trkpt lat="44.310527604211046" lon="7.368400626940622"><ele>686.0</ele><time>2026-04-11T17:35:08Z</time></trkpt><trkpt lat="44.310471845819066" lon="7.368119887254582"><ele>685.0</ele><time>2026-04-11T17:35:09Z</time></trkpt><trkpt lat="44.31042707180442" lon="7.367832995542982"><ele>684.0</ele><time>2026-04-11T17:35:10Z</time></trkpt><trkpt lat="44.310402024610475" lon="7.3675284237016045"><ele>683.0</ele><time>2026-04-11T17:35:11Z</time></trkpt><trkpt lat="44.31039220178216" lon="7.367191507425002"><ele>683.0</ele><time>2026-04-11T17:35:12Z</time></trkpt><trkpt lat="44.31039717352961" lon="7.366818756733797"><ele>683.0</ele><time>2026-04-11T17:35:13Z</time></trkpt><trkpt lat="44.3104201704221" lon="7.366422944793236"><ele>682.5</ele><time>2026-04-11T17:35:14Z</time></trkpt><trkpt lat="44.31044801233224" lon="7.36601885667019"><ele>682.0</ele><time>2026-04-11T17:35:15Z</time></trkpt><trkpt lat="44.310486905666934" lon="7.365599929823239"><ele>681.5</ele><time>2026-04-11T17:35:16Z</time></trkpt><trkpt lat="44.31052126019777" lon="7.365181446719213"><ele>681.0</ele><time>2026-04-11T17:35:17Z</time></trkpt><trkpt lat="44.31055559043345" lon="7.364774645471859"><ele>682.5</ele><time>2026-04-11T17:35:18Z</time></trkpt><trkpt lat="44.310588644806316" lon="7.3643897781240115"><ele>684.0</ele><time>2026-04-11T17:35:19Z</time></trkpt><trkpt lat="44.3106213668827" lon="7.364019886303746"><ele>684.0</ele><time>2026-04-11T17:35:20Z</time></trkpt><trkpt lat="44.310656235265974" lon="7.363647431873974"><ele>684.0</ele><time>2026-04-11T17:35:21Z</time></trkpt><trkpt lat="44.310689711072506" lon="7.363283915710766"><ele>685.5</ele><time>2026-04-11T17:35:22Z</time></trkpt><trkpt lat="44.31072087771464" lon="7.362920516760267"><ele>687.0</ele><time>2026-04-11T17:35:23Z</time></trkpt><trkpt lat="44.31075113349666" lon="7.362569381890053"><ele>687.0</ele><time>2026-04-11T17:35:24Z</time></trkpt><trkpt lat="44.31078242194563" lon="7.362224660092947"><ele>687.0</ele><time>2026-04-11T17:35:25Z</time></trkpt><trkpt lat="44.31081285706958" lon="7.361880456359046"><ele>688.0</ele><time>2026-04-11T17:35:26Z</time></trkpt><trkpt lat="44.31084446789422" lon="7.361542659917277"><ele>689.0</ele><time>2026-04-11T17:35:27Z</time></trkpt><trkpt lat="44.31087675274804" lon="7.3611924515771365"><ele>689.0</ele><time>2026-04-11T17:35:28Z</time></trkpt><trkpt lat="44.310909053240884" lon="7.3608297750943175"><ele>689.0</ele><time>2026-04-11T17:35:29Z</time></trkpt><trkpt lat="44.310939664712556" lon="7.360473394961288"><ele>689.5</ele><time>2026-04-11T17:35:30Z</time></trkpt><trkpt lat="44.310968879633656" lon="7.360131027679094"><ele>690.0</ele><time>2026-04-11T17:35:31Z</time></trkpt><trkpt lat="44.31100085724584" lon="7.35979593733591"><ele>689.0</ele><time>2026-04-11T17:35:32Z</time></trkpt><trkpt lat="44.31103398224811" lon="7.359454168504869"><ele>688.0</ele><time>2026-04-11T17:35:33Z</time></trkpt><trkpt lat="44.311066841907895" lon="7.359105784389269"><ele>688.5</ele><time>2026-04-11T17:35:34Z</time></trkpt><trkpt lat="44.31109817009345" lon="7.35876086790945"><ele>689.0</ele><time>2026-04-11T17:35:35Z</time></trkpt><trkpt lat="44.311124311503754" lon="7.358427562070257"><ele>689.0</ele><time>2026-04-11T17:35:36Z</time></trkpt><trkpt lat="44.31115069679103" lon="7.358108436716571"><ele>689.0</ele><time>2026-04-11T17:35:37Z</time></trkpt><trkpt lat="44.31118100532627" lon="7.357786743165911"><ele>689.3333333333333</ele><time>2026-04-11T17:35:38Z</time></trkpt><trkpt lat="44.31120649381711" lon="7.357483177025075"><ele>689.6666666666666</ele><time>2026-04-11T17:35:39Z</time></trkpt><trkpt lat="44.31123306012465" lon="7.357176119856816"><ele>690.0</ele><time>2026-04-11T17:35:40Z</time></trkpt><trkpt lat="44.31125733688239" lon="7.356879183467517"><ele>690.0</ele><time>2026-04-11T17:35:41Z</time></trkpt><trkpt lat="44.311283675734146" lon="7.356599900664702"><ele>690.0</ele><time>2026-04-11T17:35:42Z</time></trkpt><trkpt lat="44.31131658844765" lon="7.356312266803842"><ele>690.0</ele><time>2026-04-11T17:35:43Z</time></trkpt><trkpt lat="44.31135479477147" lon="7.35602080531382"><ele>690.0</ele><time>2026-04-11T17:35:44Z</time></trkpt><trkpt lat="44.31139404215657" lon="7.355734857213242"><ele>690.0</ele><time>2026-04-11T17:35:45Z</time></trkpt><trkpt lat="44.31143210641358" lon="7.355447869992865"><ele>690.0</ele><time>2026-04-11T17:35:46Z</time></trkpt><trkpt lat="44.31147177443773" lon="7.355159845248845"><ele>693.3333333333334</ele><time>2026-04-11T17:35:46.999Z</time></trkpt><trkpt lat="44.31150977031451" lon="7.354868673635183"><ele>696.6666666666667</ele><time>2026-04-11T17:35:47.999Z</time></trkpt><trkpt lat="44.3115485743698" lon="7.354581155157259"><ele>700.0</ele><time>2026-04-11T17:35:48.999Z</time></trkpt><trkpt lat="44.31158608391472" lon="7.354317413228679"><ele>700.0</ele><time>2026-04-11T17:35:49.999Z</time></trkpt><trkpt lat="44.31162367044629" lon="7.3540428172045385"><ele>700.0</ele><time>2026-04-11T17:35:50.999Z</time></trkpt><trkpt lat="44.311664228587325" lon="7.353735795183256"><ele>700.0</ele><time>2026-04-11T17:35:51.999Z</time></trkpt><trkpt lat="44.31170804357745" lon="7.353391396375889"><ele>698.5</ele><time>2026-04-11T17:35:52.999Z</time></trkpt><trkpt lat="44.311758248634575" lon="7.353050655236233"><ele>697.0</ele><time>2026-04-11T17:35:53.999Z</time></trkpt><trkpt lat="44.3118009206598" lon="7.352734807930493"><ele>696.0</ele><time>2026-04-11T17:35:54.999Z</time></trkpt><trkpt lat="44.311841916336604" lon="7.3524342056119245"><ele>695.0</ele><time>2026-04-11T17:35:55.999Z</time></trkpt><trkpt lat="44.3118824045282" lon="7.352168734296647"><ele>694.0</ele><time>2026-04-11T17:35:56.999Z</time></trkpt><trkpt lat="44.311921997772615" lon="7.351901189998855"><ele>693.6666666666667</ele><time>2026-04-11T17:35:57.999Z</time></trkpt><trkpt lat="44.31196046580744" lon="7.351624779755907"><ele>693.3333333333334</ele><time>2026-04-11T17:35:58.999Z</time></trkpt><trkpt lat="44.31199874721321" lon="7.351341015528394"><ele>693.0</ele><time>2026-04-11T17:35:59.999Z</time></trkpt><trkpt lat="44.312037303291554" lon="7.351059098822219"><ele>692.6666666666666</ele><time>2026-04-11T17:36:00.999Z</time></trkpt><trkpt lat="44.31207768480294" lon="7.350785560403812"><ele>692.3333333333333</ele><time>2026-04-11T17:36:01.999Z</time></trkpt><trkpt lat="44.31211594539821" lon="7.350515032386386"><ele>692.0</ele><time>2026-04-11T17:36:02.999Z</time></trkpt><trkpt lat="44.31215060089814" lon="7.35024737774818"><ele>691.6666666666666</ele><time>2026-04-11T17:36:03.999Z</time></trkpt><trkpt lat="44.312186448352314" lon="7.349982202793811"><ele>691.3333333333334</ele><time>2026-04-11T17:36:04.999Z</time></trkpt><trkpt lat="44.31222561172432" lon="7.349711766733672"><ele>691.0</ele><time>2026-04-11T17:36:05.999Z</time></trkpt><trkpt lat="44.312267448735106" lon="7.349421825024684"><ele>691.5</ele><time>2026-04-11T17:36:06.999Z</time></trkpt><trkpt lat="44.312311564919675" lon="7.349094773814284"><ele>692.0</ele><time>2026-04-11T17:36:07.999Z</time></trkpt><trkpt lat="44.3123577404407" lon="7.348766649704939"><ele>692.0</ele><time>2026-04-11T17:36:08.999Z</time></trkpt><trkpt lat="44.3123998689953" lon="7.348457247117997"><ele>692.0</ele><time>2026-04-11T17:36:09.999Z</time></trkpt><trkpt lat="44.31243963008821" lon="7.348177676172132"><ele>692.0</ele><time>2026-04-11T17:36:10.999Z</time></trkpt><trkpt lat="44.312478298642446" lon="7.347912438713954"><ele>692.6666666666666</ele><time>2026-04-11T17:36:11.999Z</time></trkpt><trkpt lat="44.31251351982723" lon="7.347650006684048"><ele>693.3333333333334</ele><time>2026-04-11T17:36:12.999Z</time></trkpt><trkpt lat="44.3125495276997" lon="7.347394574793544"><ele>694.0</ele><time>2026-04-11T17:36:13.999Z</time></trkpt><trkpt lat="44.31258204820525" lon="7.347152206331024"><ele>694.0</ele><time>2026-04-11T17:36:14.999Z</time></trkpt><trkpt lat="44.312615005653214" lon="7.346905646780861"><ele>694.0</ele><time>2026-04-11T17:36:15.999Z</time></trkpt><trkpt lat="44.31265229665864" lon="7.346604521357727"><ele>694.0</ele><time>2026-04-11T17:36:16.999Z</time></trkpt><trkpt lat="44.312713130379485" lon="7.346278919714523"><ele>694.25</ele><time>2026-04-11T17:36:17.999Z</time></trkpt><trkpt lat="44.312719571607495" lon="7.346148317280898"><ele>694.5</ele><time>2026-04-11T17:36:19.999Z</time></trkpt><trkpt lat="44.31274155564466" lon="7.345973932922142"><ele>694.75</ele><time>2026-04-11T17:36:21Z</time></trkpt><trkpt lat="44.312764084738724" lon="7.345810112684447"><ele>695.0</ele><time>2026-04-11T17:36:22Z</time></trkpt><trkpt lat="44.312786958575366" lon="7.345656101719174"><ele>695.3333333333333</ele><time>2026-04-11T17:36:23Z</time></trkpt><trkpt lat="44.31280983194009" lon="7.345508575592552"><ele>695.6666666666666</ele><time>2026-04-11T17:36:24Z</time></trkpt><trkpt lat="44.31282889782464" lon="7.3453868562820555"><ele>696.0</ele><time>2026-04-11T17:36:25Z</time></trkpt><trkpt lat="44.31284869986521" lon="7.34527231877481"><ele>696.3333333333334</ele><time>2026-04-11T17:36:26Z</time></trkpt><trkpt lat="44.31287562303458" lon="7.345174903781207"><ele>696.6666666666667</ele><time>2026-04-11T17:36:27Z</time></trkpt><trkpt lat="44.31291255841621" lon="7.345093300975233"><ele>697.0</ele><time>2026-04-11T17:36:28Z</time></trkpt><trkpt lat="44.31296458521836" lon="7.345026191753777"><ele>697.0</ele><time>2026-04-11T17:36:29Z</time></trkpt><trkpt lat="44.313014279836196" lon="7.344960830266143"><ele>697.0</ele><time>2026-04-11T17:36:30Z</time></trkpt><trkpt lat="44.313043492439085" lon="7.3448215230575356"><ele>697.0</ele><time>2026-04-11T17:36:32Z</time></trkpt><trkpt lat="44.31302777587806" lon="7.344722476923857"><ele>697.0</ele><time>2026-04-11T17:36:33Z</time></trkpt><trkpt lat="44.31299651325564" lon="7.344610202412261"><ele>697.0</ele><time>2026-04-11T17:36:34Z</time></trkpt><trkpt lat="44.31297517552002" lon="7.344490203629471"><ele>697.0</ele><time>2026-04-11T17:36:35Z</time></trkpt><trkpt lat="44.31296915992222" lon="7.344354709219194"><ele>696.75</ele><time>2026-04-11T17:36:36Z</time></trkpt><trkpt lat="44.312997011511875" lon="7.344205762534189"><ele>696.5</ele><time>2026-04-11T17:36:37Z</time></trkpt><trkpt lat="44.313019918871916" lon="7.344039577728705"><ele>696.25</ele><time>2026-04-11T17:36:38Z</time></trkpt><trkpt lat="44.31303037473992" lon="7.343837314490051"><ele>696.0</ele><time>2026-04-11T17:36:39Z</time></trkpt><trkpt lat="44.31306693664658" lon="7.343629646088929"><ele>697.0</ele><time>2026-04-11T17:36:40Z</time></trkpt><trkpt lat="44.31309458788016" lon="7.343411989466288"><ele>698.0</ele><time>2026-04-11T17:36:41Z</time></trkpt><trkpt lat="44.31311981419084" lon="7.343170031386967"><ele>699.0</ele><time>2026-04-11T17:36:42Z</time></trkpt><trkpt lat="44.31317748077115" lon="7.342838173380837"><ele>699.5</ele><time>2026-04-11T17:36:43Z</time></trkpt><trkpt lat="44.313221850660995" lon="7.3424958913377205"><ele>700.0</ele><time>2026-04-11T17:36:44Z</time></trkpt><trkpt lat="44.31325629437764" lon="7.342161527871522"><ele>700.0</ele><time>2026-04-11T17:36:45Z</time></trkpt><trkpt lat="44.313307503549744" lon="7.341830820592994"><ele>700.0</ele><time>2026-04-11T17:36:46Z</time></trkpt><trkpt lat="44.31335138328534" lon="7.341513286705308"><ele>700.5</ele><time>2026-04-11T17:36:47Z</time></trkpt><trkpt lat="44.31339190024092" lon="7.341198325758205"><ele>701.0</ele><time>2026-04-11T17:36:48Z</time></trkpt><trkpt lat="44.313434896015764" lon="7.340877556638511"><ele>701.0</ele><time>2026-04-11T17:36:49Z</time></trkpt><trkpt lat="44.31348504760153" lon="7.340554459120839"><ele>701.0</ele><time>2026-04-11T17:36:50Z</time></trkpt><trkpt lat="44.3135396195317" lon="7.340224861103282"><ele>701.5</ele><time>2026-04-11T17:36:51Z</time></trkpt><trkpt lat="44.31360017253821" lon="7.339895546573087"><ele>702.0</ele><time>2026-04-11T17:36:52Z</time></trkpt><trkpt lat="44.31366839425477" lon="7.339566423127251"><ele>702.0</ele><time>2026-04-11T17:36:53Z</time></trkpt><trkpt lat="44.313740367730176" lon="7.339232845293821"><ele>702.0</ele><time>2026-04-11T17:36:54Z</time></trkpt><trkpt lat="44.31381246293634" lon="7.3389337167993585"><ele>702.0</ele><time>2026-04-11T17:36:55Z</time></trkpt><trkpt lat="44.31386947802012" lon="7.33867087992424"><ele>702.0</ele><time>2026-04-11T17:36:56Z</time></trkpt><trkpt lat="44.31393436314024" lon="7.3383903508250405"><ele>702.0</ele><time>2026-04-11T17:36:57Z</time></trkpt><trkpt lat="44.31398382124147" lon="7.338110340557416"><ele>705.3333333333334</ele><time>2026-04-11T17:36:58Z</time></trkpt><trkpt lat="44.31402004724393" lon="7.337827354350436"><ele>708.6666666666667</ele><time>2026-04-11T17:36:59Z</time></trkpt><trkpt lat="44.314034879323714" lon="7.337535136886378"><ele>712.0</ele><time>2026-04-11T17:37:00Z</time></trkpt><trkpt lat="44.314040470187486" lon="7.337237224250479"><ele>713.0</ele><time>2026-04-11T17:37:01Z</time></trkpt><trkpt lat="44.31404116435561" lon="7.336912946434018"><ele>714.0</ele><time>2026-04-11T17:37:02Z</time></trkpt><trkpt lat="44.31402955322191" lon="7.336563710174127"><ele>714.5</ele><time>2026-04-11T17:37:03Z</time></trkpt><trkpt lat="44.31401319159792" lon="7.336191948358478"><ele>715.0</ele><time>2026-04-11T17:37:04Z</time></trkpt><trkpt lat="44.31399144496537" lon="7.33579394528741"><ele>716.5</ele><time>2026-04-11T17:37:05Z</time></trkpt><trkpt lat="44.313978078387834" lon="7.3353987119741175"><ele>718.0</ele><time>2026-04-11T17:37:06Z</time></trkpt><trkpt lat="44.31396208846893" lon="7.335011109006381"><ele>718.5</ele><time>2026-04-11T17:37:07Z</time></trkpt><trkpt lat="44.31394741807933" lon="7.334660864992798"><ele>719.0</ele><time>2026-04-11T17:37:08Z</time></trkpt><trkpt lat="44.31393418589763" lon="7.334343319618839"><ele>719.0</ele><time>2026-04-11T17:37:09Z</time></trkpt><trkpt lat="44.31391915690996" lon="7.334054234333559"><ele>719.0</ele><time>2026-04-11T17:37:10Z</time></trkpt><trkpt lat="44.31390626761488" lon="7.333785411343058"><ele>719.0</ele><time>2026-04-11T17:37:11Z</time></trkpt><trkpt lat="44.3138974605572" lon="7.333525585608619"><ele>717.6666666666666</ele><time>2026-04-11T17:37:12Z</time></trkpt><trkpt lat="44.31388836612959" lon="7.333240190511096"><ele>716.3333333333334</ele><time>2026-04-11T17:37:13Z</time></trkpt><trkpt lat="44.313884473478396" lon="7.332933956653735"><ele>715.0</ele><time>2026-04-11T17:37:14Z</time></trkpt><trkpt lat="44.313894499275165" lon="7.332626113823108"><ele>719.0</ele><time>2026-04-11T17:37:15Z</time></trkpt><trkpt lat="44.31392146870752" lon="7.332306566648534"><ele>723.0</ele><time>2026-04-11T17:37:16Z</time></trkpt><trkpt lat="44.31395895679199" lon="7.331958468352065"><ele>723.0</ele><time>2026-04-11T17:37:17Z</time></trkpt><trkpt lat="44.31400212931246" lon="7.33159463764409"><ele>723.0</ele><time>2026-04-11T17:37:18Z</time></trkpt><trkpt lat="44.31405052538883" lon="7.33121869142055"><ele>723.0</ele><time>2026-04-11T17:37:19Z</time></trkpt><trkpt lat="44.31410140417602" lon="7.330837345369331"><ele>723.0</ele><time>2026-04-11T17:37:20Z</time></trkpt><trkpt lat="44.3141551292069" lon="7.330455298433428"><ele>723.0</ele><time>2026-04-11T17:37:21Z</time></trkpt><trkpt lat="44.314205606084656" lon="7.330072890391751"><ele>723.0</ele><time>2026-04-11T17:37:22Z</time></trkpt><trkpt lat="44.31425516790915" lon="7.329697984685802"><ele>722.5</ele><time>2026-04-11T17:37:23Z</time></trkpt><trkpt lat="44.31430745225543" lon="7.329315123895725"><ele>722.0</ele><time>2026-04-11T17:37:24Z</time></trkpt><trkpt lat="44.31435949057948" lon="7.3289304309801855"><ele>724.0</ele><time>2026-04-11T17:37:25Z</time></trkpt><trkpt lat="44.31441099221379" lon="7.328540511565353"><ele>726.0</ele><time>2026-04-11T17:37:26Z</time></trkpt><trkpt lat="44.31446498567591" lon="7.328143983136259"><ele>726.5</ele><time>2026-04-11T17:37:27Z</time></trkpt><trkpt lat="44.314519791289435" lon="7.327742559794829"><ele>727.0</ele><time>2026-04-11T17:37:28Z</time></trkpt><trkpt lat="44.31457406453306" lon="7.327343120445979"><ele>727.5</ele><time>2026-04-11T17:37:29Z</time></trkpt><trkpt lat="44.314626592261924" lon="7.326941441933717"><ele>728.0</ele><time>2026-04-11T17:37:30Z</time></trkpt><trkpt lat="44.31467948482999" lon="7.326543034694033"><ele>728.0</ele><time>2026-04-11T17:37:31Z</time></trkpt><trkpt lat="44.31473349527231" lon="7.32615463522976"><ele>728.0</ele><time>2026-04-11T17:37:32Z</time></trkpt><trkpt lat="44.31478305940732" lon="7.325768015908046"><ele>729.5</ele><time>2026-04-11T17:37:33Z</time></trkpt><trkpt lat="44.31483595405566" lon="7.325368796236301"><ele>731.0</ele><time>2026-04-11T17:37:34Z</time></trkpt><trkpt lat="44.31489198689979" lon="7.324953124674001"><ele>733.0</ele><time>2026-04-11T17:37:35Z</time></trkpt><trkpt lat="44.31494945208965" lon="7.324535815983961"><ele>735.0</ele><time>2026-04-11T17:37:36Z</time></trkpt><trkpt lat="44.31500128572541" lon="7.324143648759477"><ele>735.0</ele><time>2026-04-11T17:37:37Z</time></trkpt><trkpt lat="44.31505180675352" lon="7.3237625126740165"><ele>735.0</ele><time>2026-04-11T17:37:38Z</time></trkpt><trkpt lat="44.315100993778316" lon="7.3233829620109665"><ele>735.0</ele><time>2026-04-11T17:37:39Z</time></trkpt><trkpt lat="44.315148991858344" lon="7.32300809996816"><ele>735.0</ele><time>2026-04-11T17:37:40Z</time></trkpt><trkpt lat="44.31520110314029" lon="7.322636388116228"><ele>735.0</ele><time>2026-04-11T17:37:41Z</time></trkpt><trkpt lat="44.3152559695422" lon="7.322263550556153"><ele>735.0</ele><time>2026-04-11T17:37:42Z</time></trkpt><trkpt lat="44.315316351614584" lon="7.321896701650406"><ele>735.5</ele><time>2026-04-11T17:37:43Z</time></trkpt><trkpt lat="44.315383573564986" lon="7.321531378606584"><ele>736.0</ele><time>2026-04-11T17:37:44Z</time></trkpt><trkpt lat="44.31545822173294" lon="7.321147072265239"><ele>736.0</ele><time>2026-04-11T17:37:45Z</time></trkpt><trkpt lat="44.31554357993202" lon="7.320759758469788"><ele>736.0</ele><time>2026-04-11T17:37:46Z</time></trkpt><trkpt lat="44.31563600959794" lon="7.320359904415281"><ele>738.0</ele><time>2026-04-11T17:37:47Z</time></trkpt><trkpt lat="44.31572585617798" lon="7.319957774532674"><ele>740.0</ele><time>2026-04-11T17:37:48Z</time></trkpt><trkpt lat="44.315815119390315" lon="7.319553955149657"><ele>741.0</ele><time>2026-04-11T17:37:49Z</time></trkpt><trkpt lat="44.31590703475862" lon="7.319158168882473"><ele>742.0</ele><time>2026-04-11T17:37:50Z</time></trkpt><trkpt lat="44.31600140069854" lon="7.318760289288154"><ele>742.0</ele><time>2026-04-11T17:37:51Z</time></trkpt><trkpt lat="44.31609504838086" lon="7.318362583034205"><ele>742.0</ele><time>2026-04-11T17:37:51.999Z</time></trkpt><trkpt lat="44.31618695210599" lon="7.317967391706862"><ele>743.0</ele><time>2026-04-11T17:37:52.999Z</time></trkpt><trkpt lat="44.31626734748061" lon="7.317617100132541"><ele>744.0</ele><time>2026-04-11T17:37:53.999Z</time></trkpt><trkpt lat="44.31633798321102" lon="7.317308088258193"><ele>744.3333333333334</ele><time>2026-04-11T17:37:54.999Z</time></trkpt><trkpt lat="44.31640014213748" lon="7.317021974234966"><ele>744.6666666666667</ele><time>2026-04-11T17:37:55.999Z</time></trkpt><trkpt lat="44.316463582474235" lon="7.316759483181521"><ele>745.0</ele><time>2026-04-11T17:37:56.999Z</time></trkpt><trkpt lat="44.316523054216184" lon="7.316519061368172"><ele>746.0</ele><time>2026-04-11T17:37:57.999Z</time></trkpt><trkpt lat="44.316579584881325" lon="7.316274881295981"><ele>747.0</ele><time>2026-04-11T17:37:58.999Z</time></trkpt><trkpt lat="44.316632242931604" lon="7.316039244312799"><ele>748.0</ele><time>2026-04-11T17:37:59.999Z</time></trkpt><trkpt lat="44.31668790933938" lon="7.315816044081619"><ele>748.0</ele><time>2026-04-11T17:38:00.999Z</time></trkpt><trkpt lat="44.31673611901629" lon="7.315580926442046"><ele>748.0</ele><time>2026-04-11T17:38:01.999Z</time></trkpt><trkpt lat="44.31678094399069" lon="7.315347827630113"><ele>748.0</ele><time>2026-04-11T17:38:02.999Z</time></trkpt><trkpt lat="44.316817516356295" lon="7.31511956524177"><ele>748.0</ele><time>2026-04-11T17:38:03.999Z</time></trkpt><trkpt lat="44.316850186205926" lon="7.314884999165014"><ele>748.0</ele><time>2026-04-11T17:38:04.999Z</time></trkpt><trkpt lat="44.31687313048719" lon="7.3146346599088545"><ele>748.0</ele><time>2026-04-11T17:38:05.999Z</time></trkpt><trkpt lat="44.316893936537696" lon="7.31436086750535"><ele>748.0</ele><time>2026-04-11T17:38:06.999Z</time></trkpt><trkpt lat="44.316910861073524" lon="7.314080711040591"><ele>748.0</ele><time>2026-04-11T17:38:07.999Z</time></trkpt><trkpt lat="44.316931856254875" lon="7.313796726146152"><ele>748.0</ele><time>2026-04-11T17:38:08.999Z</time></trkpt><trkpt lat="44.31695156907368" lon="7.31350987572911"><ele>747.6666666666667</ele><time>2026-04-11T17:38:09.999Z</time></trkpt><trkpt lat="44.31696986709384" lon="7.313228299158872"><ele>747.3333333333334</ele><time>2026-04-11T17:38:10.999Z</time></trkpt><trkpt lat="44.31698031050643" lon="7.312945397789345"><ele>747.0</ele><time>2026-04-11T17:38:11.999Z</time></trkpt><trkpt lat="44.31697264950735" lon="7.312657256238764"><ele>746.6666666666666</ele><time>2026-04-11T17:38:12.999Z</time></trkpt><trkpt lat="44.31695380114801" lon="7.312350648367471"><ele>746.3333333333333</ele><time>2026-04-11T17:38:13.999Z</time></trkpt><trkpt lat="44.316926647915245" lon="7.3120432658824805"><ele>746.0</ele><time>2026-04-11T17:38:14.999Z</time></trkpt><trkpt lat="44.3168922031388" lon="7.311723697360163"><ele>745.5</ele><time>2026-04-11T17:38:15.999Z</time></trkpt><trkpt lat="44.31685898225441" lon="7.311379706143313"><ele>745.0</ele><time>2026-04-11T17:38:16.999Z</time></trkpt><trkpt lat="44.31683100015486" lon="7.311007887520773"><ele>745.0</ele><time>2026-04-11T17:38:17.999Z</time></trkpt><trkpt lat="44.31679838286239" lon="7.310635000621148"><ele>745.0</ele><time>2026-04-11T17:38:18.999Z</time></trkpt><trkpt lat="44.316763873527954" lon="7.310249181505078"><ele>745.0</ele><time>2026-04-11T17:38:19.999Z</time></trkpt><trkpt lat="44.31673031917273" lon="7.3098640513579145"><ele>745.0</ele><time>2026-04-11T17:38:20.999Z</time></trkpt><trkpt lat="44.31669307148574" lon="7.309476335241794"><ele>746.5</ele><time>2026-04-11T17:38:21.999Z</time></trkpt><trkpt lat="44.31665118107061" lon="7.309094711255482"><ele>748.0</ele><time>2026-04-11T17:38:22.999Z</time></trkpt><trkpt lat="44.316610037505626" lon="7.308717246592872"><ele>748.5</ele><time>2026-04-11T17:38:23.999Z</time></trkpt><trkpt lat="44.31657209424632" lon="7.308342930563765"><ele>749.0</ele><time>2026-04-11T17:38:24.999Z</time></trkpt><trkpt lat="44.31653146465984" lon="7.307973437271859"><ele>749.0</ele><time>2026-04-11T17:38:25.999Z</time></trkpt><trkpt lat="44.3164899154342" lon="7.307610568309665"><ele>749.0</ele><time>2026-04-11T17:38:27Z</time></trkpt><trkpt lat="44.31645112336651" lon="7.307266659502977"><ele>750.0</ele><time>2026-04-11T17:38:28Z</time></trkpt><trkpt lat="44.316415473296175" lon="7.306956975900354"><ele>751.0</ele><time>2026-04-11T17:38:29Z</time></trkpt><trkpt lat="44.31638717523036" lon="7.306673020114683"><ele>752.0</ele><time>2026-04-11T17:38:30Z</time></trkpt><trkpt lat="44.31635940954195" lon="7.306413815157189"><ele>752.3333333333333</ele><time>2026-04-11T17:38:31Z</time></trkpt><trkpt lat="44.31633150170169" lon="7.306166629522205"><ele>752.6666666666666</ele><time>2026-04-11T17:38:32Z</time></trkpt><trkpt lat="44.316299522959795" lon="7.305903111943628"><ele>753.0</ele><time>2026-04-11T17:38:33Z</time></trkpt><trkpt lat="44.316267266525145" lon="7.305635023068427"><ele>754.0</ele><time>2026-04-11T17:38:34Z</time></trkpt><trkpt lat="44.31623505226138" lon="7.305349177695477"><ele>755.0</ele><time>2026-04-11T17:38:35Z</time></trkpt><trkpt lat="44.31620070773287" lon="7.3050511768719995"><ele>756.0</ele><time>2026-04-11T17:38:36Z</time></trkpt><trkpt lat="44.3161661767107" lon="7.304752534110882"><ele>756.0</ele><time>2026-04-11T17:38:37Z</time></trkpt><trkpt lat="44.31613472114042" lon="7.304458543675641"><ele>756.0</ele><time>2026-04-11T17:38:38Z</time></trkpt><trkpt lat="44.316098570834214" lon="7.304152057783767"><ele>756.0</ele><time>2026-04-11T17:38:39Z</time></trkpt><trkpt lat="44.31605909321938" lon="7.303832698183976"><ele>756.6666666666666</ele><time>2026-04-11T17:38:40Z</time></trkpt><trkpt lat="44.31602041420057" lon="7.303539577076386"><ele>757.3333333333333</ele><time>2026-04-11T17:38:41Z</time></trkpt><trkpt lat="44.315983076948484" lon="7.303269107920233"><ele>758.0</ele><time>2026-04-11T17:38:42Z</time></trkpt><trkpt lat="44.31593081664655" lon="7.303005084845646"><ele>758.6666666666666</ele><time>2026-04-11T17:38:43Z</time></trkpt><trkpt lat="44.31586991481956" lon="7.302743327128346"><ele>759.3333333333334</ele><time>2026-04-11T17:38:44Z</time></trkpt><trkpt lat="44.31579633438762" lon="7.302468666236128"><ele>760.0</ele><time>2026-04-11T17:38:45Z</time></trkpt><trkpt lat="44.3157239165618" lon="7.302186515667236"><ele>759.0</ele><time>2026-04-11T17:38:46Z</time></trkpt><trkpt lat="44.31564703491631" lon="7.301895952798079"><ele>758.0</ele><time>2026-04-11T17:38:47Z</time></trkpt><trkpt lat="44.31555757260809" lon="7.301592264544194"><ele>759.5</ele><time>2026-04-11T17:38:48Z</time></trkpt><trkpt lat="44.31546815530772" lon="7.3012868181430735"><ele>761.0</ele><time>2026-04-11T17:38:49Z</time></trkpt><trkpt lat="44.31538141864367" lon="7.300993211165198"><ele>761.0</ele><time>2026-04-11T17:38:50Z</time></trkpt><trkpt lat="44.31530606521302" lon="7.300724197759976"><ele>761.0</ele><time>2026-04-11T17:38:51Z</time></trkpt><trkpt lat="44.315238705384914" lon="7.300491642751479"><ele>761.0</ele><time>2026-04-11T17:38:52Z</time></trkpt><trkpt lat="44.31516172232222" lon="7.300263805546065"><ele>764.3333333333333</ele><time>2026-04-11T17:38:53Z</time></trkpt><trkpt lat="44.31508016408278" lon="7.30003625191486"><ele>767.6666666666666</ele><time>2026-04-11T17:38:54Z</time></trkpt><trkpt lat="44.31500595754339" lon="7.299831512428149"><ele>771.0</ele><time>2026-04-11T17:38:55Z</time></trkpt><trkpt lat="44.31493667010944" lon="7.29964977417184"><ele>772.5999999999999</ele><time>2026-04-11T17:38:56Z</time></trkpt><trkpt lat="44.31486408210437" lon="7.299469595926897"><ele>774.2</ele><time>2026-04-11T17:38:57Z</time></trkpt><trkpt lat="44.31480753314602" lon="7.299353330235872"><ele>775.8</ele><time>2026-04-11T17:38:58Z</time></trkpt><trkpt lat="44.31476839929426" lon="7.299271638730508"><ele>777.4000000000001</ele><time>2026-04-11T17:38:59Z</time></trkpt><trkpt lat="44.31476086781351" lon="7.299183012076719"><ele>779.0</ele><time>2026-04-11T17:39:01Z</time></trkpt><trkpt lat="44.31483320011445" lon="7.2990382223798775"><ele>779.0</ele><time>2026-04-11T17:39:03Z</time></trkpt><trkpt lat="44.31490151854972" lon="7.298949047256712"><ele>779.0</ele><time>2026-04-11T17:39:04Z</time></trkpt><trkpt lat="44.31496496076428" lon="7.298863246663985"><ele>779.0</ele><time>2026-04-11T17:39:05Z</time></trkpt><trkpt lat="44.315009550585124" lon="7.2987614691188725"><ele>779.0</ele><time>2026-04-11T17:39:06Z</time></trkpt><trkpt lat="44.315039318716416" lon="7.2986270111238705"><ele>779.0</ele><time>2026-04-11T17:39:07Z</time></trkpt><trkpt lat="44.31505439619378" lon="7.298448223165538"><ele>780.25</ele><time>2026-04-11T17:39:08Z</time></trkpt><trkpt lat="44.315071608066916" lon="7.298254880428319"><ele>781.5</ele><time>2026-04-11T17:39:09Z</time></trkpt><trkpt lat="44.31509968654952" lon="7.298101763817826"><ele>782.75</ele><time>2026-04-11T17:39:10Z</time></trkpt><trkpt lat="44.31512365263108" lon="7.2979307669337095"><ele>784.0</ele><time>2026-04-11T17:39:11Z</time></trkpt><trkpt lat="44.31514381187857" lon="7.29773564018027"><ele>784.0</ele><time>2026-04-11T17:39:12Z</time></trkpt><trkpt lat="44.315175431433445" lon="7.297510171969809"><ele>784.0</ele><time>2026-04-11T17:39:13Z</time></trkpt><trkpt lat="44.31520787483916" lon="7.297273904621631"><ele>784.0</ele><time>2026-04-11T17:39:14Z</time></trkpt><trkpt lat="44.31523511014479" lon="7.297055439432351"><ele>783.75</ele><time>2026-04-11T17:39:15Z</time></trkpt><trkpt lat="44.31526023211696" lon="7.296865427668961"><ele>783.5</ele><time>2026-04-11T17:39:16Z</time></trkpt><trkpt lat="44.31528043173223" lon="7.2966837003405445"><ele>783.25</ele><time>2026-04-11T17:39:17Z</time></trkpt><trkpt lat="44.315280917942275" lon="7.296511571168876"><ele>783.0</ele><time>2026-04-11T17:39:18Z</time></trkpt><trkpt lat="44.31535208428325" lon="7.2963262609910196"><ele>783.0</ele><time>2026-04-11T17:39:19Z</time></trkpt><trkpt lat="44.31536818183861" lon="7.2961802854976385"><ele>783.0</ele><time>2026-04-11T17:39:20Z</time></trkpt><trkpt lat="44.31537982836216" lon="7.296042656620672"><ele>783.0</ele><time>2026-04-11T17:39:21Z</time></trkpt><trkpt lat="44.31537449136234" lon="7.295898073471865"><ele>783.0</ele><time>2026-04-11T17:39:22Z</time></trkpt><trkpt lat="44.31535729229422" lon="7.295750794195525"><ele>783.0</ele><time>2026-04-11T17:39:23Z</time></trkpt><trkpt lat="44.31531642948811" lon="7.295604000019782"><ele>783.0</ele><time>2026-04-11T17:39:24Z</time></trkpt><trkpt lat="44.31528522410254" lon="7.295475292224152"><ele>783.0</ele><time>2026-04-11T17:39:25Z</time></trkpt><trkpt lat="44.31522112560836" lon="7.295338524762991"><ele>783.0</ele><time>2026-04-11T17:39:26Z</time></trkpt><trkpt lat="44.31514274681665" lon="7.295175376783934"><ele>783.0</ele><time>2026-04-11T17:39:27Z</time></trkpt><trkpt lat="44.315054626048266" lon="7.295011704269282"><ele>783.0</ele><time>2026-04-11T17:39:28Z</time></trkpt><trkpt lat="44.31497446235664" lon="7.2948569547700925"><ele>783.0</ele><time>2026-04-11T17:39:29Z</time></trkpt><trkpt lat="44.314888286876055" lon="7.294683800227093"><ele>783.0</ele><time>2026-04-11T17:39:30Z</time></trkpt><trkpt lat="44.31476949102547" lon="7.294457676869246"><ele>782.6666666666667</ele><time>2026-04-11T17:39:31Z</time></trkpt><trkpt lat="44.31463212086998" lon="7.2941930588435016"><ele>782.3333333333334</ele><time>2026-04-11T17:39:32Z</time></trkpt><trkpt lat="44.31452176192254" lon="7.293966251679367"><ele>782.0</ele><time>2026-04-11T17:39:33Z</time></trkpt><trkpt lat="44.31442438581807" lon="7.293758706023374"><ele>782.0</ele><time>2026-04-11T17:39:34Z</time></trkpt><trkpt lat="44.31432539340879" lon="7.2935655462351585"><ele>782.0</ele><time>2026-04-11T17:39:35Z</time></trkpt><trkpt lat="44.314223749366995" lon="7.293368161519531"><ele>782.0</ele><time>2026-04-11T17:39:36Z</time></trkpt><trkpt lat="44.314117612305346" lon="7.293153849353808"><ele>783.0</ele><time>2026-04-11T17:39:37Z</time></trkpt><trkpt lat="44.31400227206404" lon="7.292928452236386"><ele>784.0</ele><time>2026-04-11T17:39:38Z</time></trkpt><trkpt lat="44.31387572450067" lon="7.292667194811406"><ele>785.0</ele><time>2026-04-11T17:39:39Z</time></trkpt><trkpt lat="44.31374497063005" lon="7.292402645050768"><ele>783.6666666666667</ele><time>2026-04-11T17:39:40Z</time></trkpt><trkpt lat="44.313631178383204" lon="7.292172449744228"><ele>782.3333333333333</ele><time>2026-04-11T17:39:41Z</time></trkpt><trkpt lat="44.31353763874826" lon="7.2919757914820815"><ele>781.0</ele><time>2026-04-11T17:39:42Z</time></trkpt><trkpt lat="44.31345048579948" lon="7.291795837574232"><ele>781.0</ele><time>2026-04-11T17:39:43Z</time></trkpt><trkpt lat="44.3133719310841" lon="7.291642749718606"><ele>781.0</ele><time>2026-04-11T17:39:44Z</time></trkpt><trkpt lat="44.313300698346914" lon="7.291502947438072"><ele>781.0</ele><time>2026-04-11T17:39:45Z</time></trkpt><trkpt lat="44.31324615957144" lon="7.291368997702467"><ele>781.0</ele><time>2026-04-11T17:39:46Z</time></trkpt><trkpt lat="44.313200340552164" lon="7.291226438835321"><ele>782.0</ele><time>2026-04-11T17:39:47Z</time></trkpt><trkpt lat="44.31315270426552" lon="7.2910495851918"><ele>783.0</ele><time>2026-04-11T17:39:48Z</time></trkpt><trkpt lat="44.31311802992897" lon="7.290841456762889"><ele>784.0</ele><time>2026-04-11T17:39:49Z</time></trkpt><trkpt lat="44.313103854173924" lon="7.290611699796191"><ele>783.6666666666666</ele><time>2026-04-11T17:39:50Z</time></trkpt><trkpt lat="44.31310435143675" lon="7.290362357433404"><ele>783.3333333333333</ele><time>2026-04-11T17:39:51Z</time></trkpt><trkpt lat="44.313116993448816" lon="7.290068975603462"><ele>783.0</ele><time>2026-04-11T17:39:52Z</time></trkpt><trkpt lat="44.313132824727994" lon="7.289743430149168"><ele>782.5</ele><time>2026-04-11T17:39:53Z</time></trkpt><trkpt lat="44.313149157994815" lon="7.289390724686746"><ele>782.0</ele><time>2026-04-11T17:39:54Z</time></trkpt><trkpt lat="44.31316524383043" lon="7.289047036329443"><ele>781.5</ele><time>2026-04-11T17:39:55Z</time></trkpt><trkpt lat="44.31318007098793" lon="7.288718754846172"><ele>781.0</ele><time>2026-04-11T17:39:56Z</time></trkpt><trkpt lat="44.3131926476467" lon="7.288414843217747"><ele>781.0</ele><time>2026-04-11T17:39:57Z</time></trkpt><trkpt lat="44.31320575605409" lon="7.2881270263397155"><ele>781.0</ele><time>2026-04-11T17:39:58Z</time></trkpt><trkpt lat="44.31322265575558" lon="7.287849262135865"><ele>781.0</ele><time>2026-04-11T17:39:59Z</time></trkpt><trkpt lat="44.31324512922827" lon="7.287580362819229"><ele>780.0</ele><time>2026-04-11T17:39:59.999Z</time></trkpt><trkpt lat="44.31326826186265" lon="7.28732653249822"><ele>779.0</ele><time>2026-04-11T17:40:00.999Z</time></trkpt><trkpt lat="44.313285948672515" lon="7.287094974741223"><ele>778.0</ele><time>2026-04-11T17:40:01.999Z</time></trkpt><trkpt lat="44.31328407314616" lon="7.28685988120647"><ele>777.3333333333333</ele><time>2026-04-11T17:40:02.999Z</time></trkpt><trkpt lat="44.31326180395351" lon="7.28661164608502"><ele>776.6666666666667</ele><time>2026-04-11T17:40:03.999Z</time></trkpt><trkpt lat="44.313242639000656" lon="7.286392418888978"><ele>776.0</ele><time>2026-04-11T17:40:04.999Z</time></trkpt><trkpt lat="44.31323860396482" lon="7.286189946185446"><ele>775.3333333333334</ele><time>2026-04-11T17:40:05.999Z</time></trkpt><trkpt lat="44.31325638247602" lon="7.285989576721088"><ele>774.6666666666667</ele><time>2026-04-11T17:40:06.999Z</time></trkpt><trkpt lat="44.31330122572699" lon="7.28574023660373"><ele>774.0</ele><time>2026-04-11T17:40:07.999Z</time></trkpt><trkpt lat="44.31336405730743" lon="7.28546484745334"><ele>773.3333333333333</ele><time>2026-04-11T17:40:08.999Z</time></trkpt><trkpt lat="44.31343211888804" lon="7.285205066649439"><ele>772.6666666666666</ele><time>2026-04-11T17:40:09.999Z</time></trkpt><trkpt lat="44.313491930359994" lon="7.2849584675505366"><ele>772.0</ele><time>2026-04-11T17:40:10.999Z</time></trkpt><trkpt lat="44.313532408035215" lon="7.284690544116295"><ele>771.5</ele><time>2026-04-11T17:40:11.999Z</time></trkpt><trkpt lat="44.31355525331409" lon="7.284394012795943"><ele>771.0</ele><time>2026-04-11T17:40:12.999Z</time></trkpt><trkpt lat="44.313572014429674" lon="7.284059560313397"><ele>770.0</ele><time>2026-04-11T17:40:13.999Z</time></trkpt><trkpt lat="44.31359251033286" lon="7.283720636804599"><ele>769.0</ele><time>2026-04-11T17:40:14.999Z</time></trkpt><trkpt lat="44.31361346664278" lon="7.283396598502657"><ele>768.3333333333333</ele><time>2026-04-11T17:40:15.999Z</time></trkpt><trkpt lat="44.313627687832756" lon="7.283089107674919"><ele>767.6666666666666</ele><time>2026-04-11T17:40:16.999Z</time></trkpt><trkpt lat="44.31363927675438" lon="7.282779521645531"><ele>767.0</ele><time>2026-04-11T17:40:17.999Z</time></trkpt><trkpt lat="44.313647079310115" lon="7.282497778358474"><ele>766.3333333333333</ele><time>2026-04-11T17:40:18.999Z</time></trkpt><trkpt lat="44.313658491589365" lon="7.28223096383947"><ele>765.6666666666666</ele><time>2026-04-11T17:40:19.999Z</time></trkpt><trkpt lat="44.31368130721246" lon="7.281952678551264"><ele>765.0</ele><time>2026-04-11T17:40:20.999Z</time></trkpt><trkpt lat="44.313722812992026" lon="7.2816554508916385"><ele>763.0</ele><time>2026-04-11T17:40:21.999Z</time></trkpt><trkpt lat="44.31377233663749" lon="7.281354806161828"><ele>761.0</ele><time>2026-04-11T17:40:22.999Z</time></trkpt><trkpt lat="44.31381134015974" lon="7.281063332975064"><ele>759.0</ele><time>2026-04-11T17:40:23.999Z</time></trkpt><trkpt lat="44.313845104474886" lon="7.280776569973343"><ele>759.0</ele><time>2026-04-11T17:40:24.999Z</time></trkpt><trkpt lat="44.31386164569213" lon="7.28047266245736"><ele>759.0</ele><time>2026-04-11T17:40:25.999Z</time></trkpt><trkpt lat="44.31387150281628" lon="7.280161342822201"><ele>759.0</ele><time>2026-04-11T17:40:26.999Z</time></trkpt><trkpt lat="44.313873651223595" lon="7.279845438564306"><ele>758.5</ele><time>2026-04-11T17:40:27.999Z</time></trkpt><trkpt lat="44.31387419424393" lon="7.279533148261921"><ele>758.0</ele><time>2026-04-11T17:40:28.999Z</time></trkpt><trkpt lat="44.31387363419762" lon="7.279214015624855"><ele>758.0</ele><time>2026-04-11T17:40:29.999Z</time></trkpt><trkpt lat="44.31387905767724" lon="7.278888314488947"><ele>758.0</ele><time>2026-04-11T17:40:30.999Z</time></trkpt><trkpt lat="44.31388686840029" lon="7.278559689668084"><ele>758.0</ele><time>2026-04-11T17:40:31.999Z</time></trkpt><trkpt lat="44.31389365349065" lon="7.278214601946155"><ele>758.0</ele><time>2026-04-11T17:40:33Z</time></trkpt><trkpt lat="44.3139025428459" lon="7.27788403592556"><ele>767.0</ele><time>2026-04-11T17:40:34Z</time></trkpt><trkpt lat="44.313911106757075" lon="7.277579723319166"><ele>776.0</ele><time>2026-04-11T17:40:35Z</time></trkpt><trkpt lat="44.313923226363414" lon="7.277306156723991"><ele>785.0</ele><time>2026-04-11T17:40:36Z</time></trkpt><trkpt lat="44.313936820101056" lon="7.2770308749926"><ele>785.0</ele><time>2026-04-11T17:40:37Z</time></trkpt><trkpt lat="44.31395666689872" lon="7.2767490796843175"><ele>785.0</ele><time>2026-04-11T17:40:38Z</time></trkpt><trkpt lat="44.31398928646584" lon="7.276459334212993"><ele>785.0</ele><time>2026-04-11T17:40:39Z</time></trkpt><trkpt lat="44.31404029985376" lon="7.2761613915895875"><ele>782.0</ele><time>2026-04-11T17:40:40Z</time></trkpt><trkpt lat="44.314108776925245" lon="7.275861315074711"><ele>779.0</ele><time>2026-04-11T17:40:41Z</time></trkpt><trkpt lat="44.3141958322569" lon="7.275553643302726"><ele>774.5</ele><time>2026-04-11T17:40:42Z</time></trkpt><trkpt lat="44.314294699942494" lon="7.2752338719316025"><ele>770.0</ele><time>2026-04-11T17:40:43Z</time></trkpt><trkpt lat="44.31440498252787" lon="7.274909905962449"><ele>766.0</ele><time>2026-04-11T17:40:44Z</time></trkpt><trkpt lat="44.31451343339838" lon="7.274593401422496"><ele>762.0</ele><time>2026-04-11T17:40:45Z</time></trkpt><trkpt lat="44.31460486816633" lon="7.274263801328039"><ele>758.0</ele><time>2026-04-11T17:40:46Z</time></trkpt><trkpt lat="44.314690755565934" lon="7.273902443906101"><ele>754.0</ele><time>2026-04-11T17:40:47Z</time></trkpt><trkpt lat="44.31477214123453" lon="7.273529674062951"><ele>762.5</ele><time>2026-04-11T17:40:48Z</time></trkpt><trkpt lat="44.314859793541736" lon="7.273166926689299"><ele>771.0</ele><time>2026-04-11T17:40:49Z</time></trkpt><trkpt lat="44.31494546314618" lon="7.272813709554248"><ele>771.0</ele><time>2026-04-11T17:40:50Z</time></trkpt><trkpt lat="44.315027479223126" lon="7.272494561619601"><ele>771.0</ele><time>2026-04-11T17:40:51Z</time></trkpt><trkpt lat="44.31510727672502" lon="7.2722027442929935"><ele>768.6666666666666</ele><time>2026-04-11T17:40:52Z</time></trkpt><trkpt lat="44.31518377770761" lon="7.271927344269824"><ele>766.3333333333333</ele><time>2026-04-11T17:40:53Z</time></trkpt><trkpt lat="44.31525887021325" lon="7.271654663831651"><ele>764.0</ele><time>2026-04-11T17:40:54Z</time></trkpt><trkpt lat="44.315336088855176" lon="7.271375926810042"><ele>763.3333333333333</ele><time>2026-04-11T17:40:55Z</time></trkpt><trkpt lat="44.31540802904513" lon="7.271096954865524"><ele>762.6666666666666</ele><time>2026-04-11T17:40:56Z</time></trkpt><trkpt lat="44.3154808647148" lon="7.270792062948098"><ele>762.0</ele><time>2026-04-11T17:40:57Z</time></trkpt><trkpt lat="44.31555917950148" lon="7.270466980127601"><ele>775.0</ele><time>2026-04-11T17:40:58Z</time></trkpt><trkpt lat="44.315611792680706" lon="7.270129032341362"><ele>788.0</ele><time>2026-04-11T17:40:59Z</time></trkpt><trkpt lat="44.315662456365686" lon="7.269781479952138"><ele>784.5</ele><time>2026-04-11T17:41:00Z</time></trkpt><trkpt lat="44.31571995763329" lon="7.269421597852647"><ele>781.0</ele><time>2026-04-11T17:41:01Z</time></trkpt><trkpt lat="44.31578279248101" lon="7.269080365433662"><ele>777.6666666666666</ele><time>2026-04-11T17:41:02Z</time></trkpt><trkpt lat="44.31583238939034" lon="7.268788277215825"><ele>774.3333333333333</ele><time>2026-04-11T17:41:03Z</time></trkpt><trkpt lat="44.31587176823927" lon="7.268534781999746"><ele>771.0</ele><time>2026-04-11T17:41:04Z</time></trkpt><trkpt lat="44.315911272335335" lon="7.268311737321134"><ele>769.0</ele><time>2026-04-11T17:41:05Z</time></trkpt><trkpt lat="44.315951451100716" lon="7.268101077119522"><ele>767.0</ele><time>2026-04-11T17:41:06Z</time></trkpt><trkpt lat="44.316006448164536" lon="7.267872250168011"><ele>765.0</ele><time>2026-04-11T17:41:07Z</time></trkpt><trkpt lat="44.31608639849391" lon="7.267622591380676"><ele>765.0</ele><time>2026-04-11T17:41:08Z</time></trkpt><trkpt lat="44.31618077127997" lon="7.267345008670603"><ele>765.0</ele><time>2026-04-11T17:41:09Z</time></trkpt><trkpt lat="44.316271630640664" lon="7.267063914576449"><ele>765.0</ele><time>2026-04-11T17:41:10Z</time></trkpt><trkpt lat="44.31635598656494" lon="7.2667790816057405"><ele>772.3333333333333</ele><time>2026-04-11T17:41:11Z</time></trkpt><trkpt lat="44.31643163252504" lon="7.266518143002389"><ele>779.6666666666666</ele><time>2026-04-11T17:41:12Z</time></trkpt><trkpt lat="44.316493535828855" lon="7.266300321521325"><ele>787.0</ele><time>2026-04-11T17:41:13Z</time></trkpt><trkpt lat="44.31654520170759" lon="7.2661048024823325"><ele>787.0</ele><time>2026-04-11T17:41:14Z</time></trkpt><trkpt lat="44.31657761743613" lon="7.2658807998711685"><ele>787.0</ele><time>2026-04-11T17:41:15Z</time></trkpt><trkpt lat="44.31659771057935" lon="7.265631300702897"><ele>787.0</ele><time>2026-04-11T17:41:16Z</time></trkpt><trkpt lat="44.3166207193615" lon="7.2653713906634"><ele>785.0</ele><time>2026-04-11T17:41:17Z</time></trkpt><trkpt lat="44.31666668495555" lon="7.265113705716117"><ele>783.0</ele><time>2026-04-11T17:41:18Z</time></trkpt><trkpt lat="44.31673546508519" lon="7.264864710009828"><ele>781.0</ele><time>2026-04-11T17:41:19Z</time></trkpt><trkpt lat="44.31682987976023" lon="7.264607919559858"><ele>778.6666666666666</ele><time>2026-04-11T17:41:20Z</time></trkpt><trkpt lat="44.31693395137824" lon="7.264353186566966"><ele>776.3333333333333</ele><time>2026-04-11T17:41:21Z</time></trkpt><trkpt lat="44.317025348431414" lon="7.264118958501856"><ele>774.0</ele><time>2026-04-11T17:41:22Z</time></trkpt><trkpt lat="44.31708187908461" lon="7.263905357911849"><ele>774.0</ele><time>2026-04-11T17:41:23Z</time></trkpt><trkpt lat="44.31712599480102" lon="7.263652427807214"><ele>774.0</ele><time>2026-04-11T17:41:24Z</time></trkpt><trkpt lat="44.31715134347796" lon="7.263379580979872"><ele>774.0</ele><time>2026-04-11T17:41:25Z</time></trkpt><trkpt lat="44.317166606552114" lon="7.263076518484445"><ele>773.0</ele><time>2026-04-11T17:41:26Z</time></trkpt><trkpt lat="44.31718679916847" lon="7.2627518202037935"><ele>772.0</ele><time>2026-04-11T17:41:27Z</time></trkpt><trkpt lat="44.31721078433179" lon="7.262420176626516"><ele>788.0</ele><time>2026-04-11T17:41:28Z</time></trkpt><trkpt lat="44.317238990214214" lon="7.262073191228459"><ele>804.0</ele><time>2026-04-11T17:41:29Z</time></trkpt><trkpt lat="44.31726924294898" lon="7.261705780486574"><ele>800.0</ele><time>2026-04-11T17:41:30Z</time></trkpt><trkpt lat="44.317294047561916" lon="7.261353880207969"><ele>796.0</ele><time>2026-04-11T17:41:31Z</time></trkpt><trkpt lat="44.317324114870004" lon="7.261014920265046"><ele>796.0</ele><time>2026-04-11T17:41:32Z</time></trkpt><trkpt lat="44.317352593509916" lon="7.260668944081005"><ele>796.0</ele><time>2026-04-11T17:41:33Z</time></trkpt><trkpt lat="44.317374721591776" lon="7.260302516440933"><ele>797.5</ele><time>2026-04-11T17:41:34Z</time></trkpt><trkpt lat="44.3173985689138" lon="7.259910833677622"><ele>799.0</ele><time>2026-04-11T17:41:35Z</time></trkpt><trkpt lat="44.31742283196108" lon="7.259513699368562"><ele>800.0</ele><time>2026-04-11T17:41:36Z</time></trkpt><trkpt lat="44.31744507203985" lon="7.259136537568914"><ele>801.0</ele><time>2026-04-11T17:41:37Z</time></trkpt><trkpt lat="44.317471102222044" lon="7.258796446148799"><ele>801.6666666666667</ele><time>2026-04-11T17:41:38Z</time></trkpt><trkpt lat="44.317489260827294" lon="7.258495428685923"><ele>802.3333333333334</ele><time>2026-04-11T17:41:39Z</time></trkpt><trkpt lat="44.317505371813155" lon="7.258218847341721"><ele>803.0</ele><time>2026-04-11T17:41:40Z</time></trkpt><trkpt lat="44.31751810327799" lon="7.25793865284221"><ele>803.6666666666667</ele><time>2026-04-11T17:41:41Z</time></trkpt><trkpt lat="44.31751587447612" lon="7.257635211771517"><ele>804.3333333333333</ele><time>2026-04-11T17:41:42Z</time></trkpt><trkpt lat="44.317490496692784" lon="7.257328725219685"><ele>805.0</ele><time>2026-04-11T17:41:43Z</time></trkpt><trkpt lat="44.3174606149144" lon="7.257044624985833"><ele>805.0</ele><time>2026-04-11T17:41:44Z</time></trkpt><trkpt lat="44.31744242912565" lon="7.25680439979269"><ele>805.0</ele><time>2026-04-11T17:41:45Z</time></trkpt><trkpt lat="44.31743164741881" lon="7.2565845761740535"><ele>805.0</ele><time>2026-04-11T17:41:46Z</time></trkpt><trkpt lat="44.317438312715524" lon="7.256360696633288"><ele>805.0</ele><time>2026-04-11T17:41:47Z</time></trkpt><trkpt lat="44.31748021996682" lon="7.256129676805984"><ele>805.0</ele><time>2026-04-11T17:41:48Z</time></trkpt><trkpt lat="44.317539138137526" lon="7.255895312873854"><ele>805.0</ele><time>2026-04-11T17:41:49Z</time></trkpt><trkpt lat="44.31758358896674" lon="7.2556519753324755"><ele>805.6666666666666</ele><time>2026-04-11T17:41:50Z</time></trkpt><trkpt lat="44.317610610741056" lon="7.255458202212113"><ele>806.3333333333333</ele><time>2026-04-11T17:41:51Z</time></trkpt><trkpt lat="44.317630985622614" lon="7.2551676676673935"><ele>807.0</ele><time>2026-04-11T17:41:52Z</time></trkpt><trkpt lat="44.317632634961875" lon="7.254911071527445"><ele>808.0</ele><time>2026-04-11T17:41:53Z</time></trkpt><trkpt lat="44.31761422027487" lon="7.2546361686010385"><ele>809.0</ele><time>2026-04-11T17:41:54Z</time></trkpt><trkpt lat="44.317583755909254" lon="7.254336778209368"><ele>810.0</ele><time>2026-04-11T17:41:55Z</time></trkpt><trkpt lat="44.317561463547136" lon="7.254004480631279"><ele>810.0</ele><time>2026-04-11T17:41:56Z</time></trkpt><trkpt lat="44.317557262719745" lon="7.25367851963876"><ele>810.0</ele><time>2026-04-11T17:41:57Z</time></trkpt><trkpt lat="44.31756121836806" lon="7.253378530671878"><ele>810.0</ele><time>2026-04-11T17:41:58Z</time></trkpt><trkpt lat="44.31756533722013" lon="7.253129595965958"><ele>810.0</ele><time>2026-04-11T17:41:59Z</time></trkpt><trkpt lat="44.31755865316804" lon="7.2529145381536715"><ele>810.0</ele><time>2026-04-11T17:42:00Z</time></trkpt><trkpt lat="44.31753350487213" lon="7.252675120490495"><ele>810.0</ele><time>2026-04-11T17:42:01Z</time></trkpt><trkpt lat="44.317480838965245" lon="7.252409424501655"><ele>814.0</ele><time>2026-04-11T17:42:02Z</time></trkpt><trkpt lat="44.317406721184156" lon="7.252120678758756"><ele>818.0</ele><time>2026-04-11T17:42:03Z</time></trkpt><trkpt lat="44.31732286170802" lon="7.251812950364731"><ele>818.0</ele><time>2026-04-11T17:42:04Z</time></trkpt><trkpt lat="44.317246524656795" lon="7.2514934105816655"><ele>818.0</ele><time>2026-04-11T17:42:05Z</time></trkpt><trkpt lat="44.31717322290855" lon="7.2511496191124705"><ele>808.5</ele><time>2026-04-11T17:42:05.999Z</time></trkpt><trkpt lat="44.31710692716953" lon="7.250777116413923"><ele>799.0</ele><time>2026-04-11T17:42:06.999Z</time></trkpt><trkpt lat="44.31704370079125" lon="7.250373554020334"><ele>799.0</ele><time>2026-04-11T17:42:07.999Z</time></trkpt><trkpt lat="44.316975547221055" lon="7.249963297461519"><ele>799.0</ele><time>2026-04-11T17:42:08.999Z</time></trkpt><trkpt lat="44.316905817330124" lon="7.249551520440534"><ele>801.0</ele><time>2026-04-11T17:42:09.999Z</time></trkpt><trkpt lat="44.31683960287084" lon="7.249150075088471"><ele>803.0</ele><time>2026-04-11T17:42:10.999Z</time></trkpt><trkpt lat="44.316779473039674" lon="7.24876532226496"><ele>805.0</ele><time>2026-04-11T17:42:11.999Z</time></trkpt><trkpt lat="44.316719614715176" lon="7.248417662010879"><ele>807.0</ele><time>2026-04-11T17:42:12.999Z</time></trkpt><trkpt lat="44.31666264947502" lon="7.248072908881278"><ele>809.5</ele><time>2026-04-11T17:42:13.999Z</time></trkpt><trkpt lat="44.31660826648849" lon="7.247765730998685"><ele>812.0</ele><time>2026-04-11T17:42:14.999Z</time></trkpt><trkpt lat="44.31655865579921" lon="7.247459834422014"><ele>812.5</ele><time>2026-04-11T17:42:15.999Z</time></trkpt><trkpt lat="44.316512745283255" lon="7.247155846042155"><ele>813.0</ele><time>2026-04-11T17:42:16.999Z</time></trkpt><trkpt lat="44.31646864230617" lon="7.246833882295618"><ele>813.0</ele><time>2026-04-11T17:42:17.999Z</time></trkpt><trkpt lat="44.31644267101109" lon="7.246483158933656"><ele>813.0</ele><time>2026-04-11T17:42:18.999Z</time></trkpt><trkpt lat="44.31642070768347" lon="7.246115757029164"><ele>815.0</ele><time>2026-04-11T17:42:19.999Z</time></trkpt><trkpt lat="44.316409084417145" lon="7.245731269184138"><ele>817.0</ele><time>2026-04-11T17:42:20.999Z</time></trkpt><trkpt lat="44.31640147585056" lon="7.24533704460957"><ele>805.5</ele><time>2026-04-11T17:42:21.999Z</time></trkpt><trkpt lat="44.31639417259521" lon="7.244944295717326"><ele>794.0</ele><time>2026-04-11T17:42:22.999Z</time></trkpt><trkpt lat="44.31636960447361" lon="7.244563440932577"><ele>793.5</ele><time>2026-04-11T17:42:23.999Z</time></trkpt><trkpt lat="44.3163614984854" lon="7.244224046412335"><ele>793.0</ele><time>2026-04-11T17:42:24.999Z</time></trkpt><trkpt lat="44.31636255644384" lon="7.243922312147119"><ele>794.0</ele><time>2026-04-11T17:42:25.999Z</time></trkpt><trkpt lat="44.31635587764694" lon="7.243651365954591"><ele>795.0</ele><time>2026-04-11T17:42:26.999Z</time></trkpt><trkpt lat="44.316344478713546" lon="7.2434180129247325"><ele>796.0</ele><time>2026-04-11T17:42:27.999Z</time></trkpt><trkpt lat="44.316321645224086" lon="7.243176444318379"><ele>799.0</ele><time>2026-04-11T17:42:28.999Z</time></trkpt><trkpt lat="44.316283863343905" lon="7.24291371443106"><ele>802.0</ele><time>2026-04-11T17:42:29.999Z</time></trkpt><trkpt lat="44.31623987545403" lon="7.242650829244858"><ele>805.0</ele><time>2026-04-11T17:42:30.999Z</time></trkpt><trkpt lat="44.31618921673335" lon="7.242396025845539"><ele>808.3333333333333</ele><time>2026-04-11T17:42:31.999Z</time></trkpt><trkpt lat="44.3161467581594" lon="7.242142784195415"><ele>811.6666666666667</ele><time>2026-04-11T17:42:32.999Z</time></trkpt><trkpt lat="44.316108139243624" lon="7.241906849473486"><ele>815.0</ele><time>2026-04-11T17:42:33.999Z</time></trkpt><trkpt lat="44.3160709485176" lon="7.24168187808224"><ele>817.0</ele><time>2026-04-11T17:42:34.999Z</time></trkpt><trkpt lat="44.316036290144766" lon="7.241461842708267"><ele>819.0</ele><time>2026-04-11T17:42:35.999Z</time></trkpt><trkpt lat="44.31601067959757" lon="7.241261115622808"><ele>821.0</ele><time>2026-04-11T17:42:36.999Z</time></trkpt><trkpt lat="44.315993387722706" lon="7.24107012201498"><ele>823.0</ele><time>2026-04-11T17:42:37.999Z</time></trkpt><trkpt lat="44.315987800233586" lon="7.240853050728956"><ele>822.6666666666666</ele><time>2026-04-11T17:42:39Z</time></trkpt><trkpt lat="44.31600441752266" lon="7.240598213119492"><ele>822.3333333333333</ele><time>2026-04-11T17:42:40Z</time></trkpt><trkpt lat="44.31603608895991" lon="7.240292745022069"><ele>822.0</ele><time>2026-04-11T17:42:41Z</time></trkpt><trkpt lat="44.31608019676119" lon="7.239958011001002"><ele>821.0</ele><time>2026-04-11T17:42:42Z</time></trkpt><trkpt lat="44.31612423960029" lon="7.239606533072879"><ele>820.0</ele><time>2026-04-11T17:42:43Z</time></trkpt><trkpt lat="44.3161621900095" lon="7.239265434517771"><ele>819.3333333333333</ele><time>2026-04-11T17:42:44Z</time></trkpt><trkpt lat="44.316195740450006" lon="7.238952463866354"><ele>818.6666666666667</ele><time>2026-04-11T17:42:45Z</time></trkpt><trkpt lat="44.31622516633229" lon="7.2386846686747015"><ele>818.0</ele><time>2026-04-11T17:42:46Z</time></trkpt><trkpt lat="44.31625046333815" lon="7.238457413586733"><ele>818.0</ele><time>2026-04-11T17:42:47Z</time></trkpt><trkpt lat="44.31626951007538" lon="7.238254221867266"><ele>818.0</ele><time>2026-04-11T17:42:48Z</time></trkpt><trkpt lat="44.31627662235599" lon="7.238065626546919"><ele>818.0</ele><time>2026-04-11T17:42:49Z</time></trkpt><trkpt lat="44.31626402346368" lon="7.23788367762739"><ele>818.0</ele><time>2026-04-11T17:42:50Z</time></trkpt><trkpt lat="44.31623134344635" lon="7.237696985876814"><ele>820.3333333333334</ele><time>2026-04-11T17:42:51Z</time></trkpt><trkpt lat="44.31616667094747" lon="7.237502392666394"><ele>822.6666666666667</ele><time>2026-04-11T17:42:52Z</time></trkpt><trkpt lat="44.316073937972334" lon="7.23730096789446"><ele>825.0</ele><time>2026-04-11T17:42:53Z</time></trkpt><trkpt lat="44.31595379191939" lon="7.237089772060222"><ele>830.0</ele><time>2026-04-11T17:42:54Z</time></trkpt><trkpt lat="44.31580984153761" lon="7.236843928982525"><ele>835.0</ele><time>2026-04-11T17:42:55Z</time></trkpt><trkpt lat="44.31566183968122" lon="7.236583856752466"><ele>830.3333333333333</ele><time>2026-04-11T17:42:56Z</time></trkpt><trkpt lat="44.315544013241116" lon="7.236357435770609"><ele>825.6666666666667</ele><time>2026-04-11T17:42:57Z</time></trkpt><trkpt lat="44.315440794963465" lon="7.2361582777111435"><ele>821.0</ele><time>2026-04-11T17:42:58Z</time></trkpt><trkpt lat="44.31534892077716" lon="7.235978649442183"><ele>821.0</ele><time>2026-04-11T17:42:59Z</time></trkpt><trkpt lat="44.31527278183356" lon="7.235808136781629"><ele>821.0</ele><time>2026-04-11T17:43:00Z</time></trkpt><trkpt lat="44.31520851824676" lon="7.235615535511042"><ele>821.0</ele><time>2026-04-11T17:43:01Z</time></trkpt><trkpt lat="44.315152518594246" lon="7.235386271534673"><ele>822.0</ele><time>2026-04-11T17:43:02Z</time></trkpt><trkpt lat="44.315112909990575" lon="7.235134919487171"><ele>823.0</ele><time>2026-04-11T17:43:03Z</time></trkpt><trkpt lat="44.31509132796923" lon="7.234884879202535"><ele>824.0</ele><time>2026-04-11T17:43:04Z</time></trkpt><trkpt lat="44.31509647999023" lon="7.234637497633551"><ele>824.0</ele><time>2026-04-11T17:43:05Z</time></trkpt><trkpt lat="44.31512845747254" lon="7.234378813353434"><ele>824.0</ele><time>2026-04-11T17:43:06Z</time></trkpt><trkpt lat="44.315182594302684" lon="7.234096534094453"><ele>824.0</ele><time>2026-04-11T17:43:07Z</time></trkpt><trkpt lat="44.31524288863651" lon="7.233836807337131"><ele>824.75</ele><time>2026-04-11T17:43:08Z</time></trkpt><trkpt lat="44.31528357944941" lon="7.233631610252672"><ele>825.5</ele><time>2026-04-11T17:43:09Z</time></trkpt><trkpt lat="44.315303761717125" lon="7.233449604517093"><ele>826.25</ele><time>2026-04-11T17:43:10Z</time></trkpt><trkpt lat="44.31529884416522" lon="7.233280687166341"><ele>827.0</ele><time>2026-04-11T17:43:11Z</time></trkpt><trkpt lat="44.31527411186936" lon="7.233093436797557"><ele>830.0</ele><time>2026-04-11T17:43:12Z</time></trkpt><trkpt lat="44.31521759892474" lon="7.232892195501524"><ele>833.0</ele><time>2026-04-11T17:43:13Z</time></trkpt><trkpt lat="44.3151482076241" lon="7.232705762712492"><ele>836.0</ele><time>2026-04-11T17:43:14Z</time></trkpt><trkpt lat="44.31506087242393" lon="7.232483699969122"><ele>841.0</ele><time>2026-04-11T17:43:15Z</time></trkpt><trkpt lat="44.31495295478057" lon="7.232227584686197"><ele>846.0</ele><time>2026-04-11T17:43:16Z</time></trkpt><trkpt lat="44.31484661109809" lon="7.2319458841145465"><ele>851.0</ele><time>2026-04-11T17:43:17Z</time></trkpt><trkpt lat="44.314735761826874" lon="7.231634097475669"><ele>837.0</ele><time>2026-04-11T17:43:18Z</time></trkpt><trkpt lat="44.31462736796837" lon="7.231295445226795"><ele>823.0</ele><time>2026-04-11T17:43:19Z</time></trkpt><trkpt lat="44.31452769145213" lon="7.230948347903298"><ele>827.0</ele><time>2026-04-11T17:43:20Z</time></trkpt><trkpt lat="44.31442271641512" lon="7.230606855984039"><ele>831.0</ele><time>2026-04-11T17:43:21Z</time></trkpt><trkpt lat="44.31431638013371" lon="7.230257257143434"><ele>831.0</ele><time>2026-04-11T17:43:22Z</time></trkpt><trkpt lat="44.31421100136736" lon="7.229918534504053"><ele>831.0</ele><time>2026-04-11T17:43:23Z</time></trkpt><trkpt lat="44.31411672392141" lon="7.229611605231042"><ele>833.0</ele><time>2026-04-11T17:43:24Z</time></trkpt><trkpt lat="44.31403498043425" lon="7.229335251610653"><ele>835.0</ele><time>2026-04-11T17:43:25Z</time></trkpt><trkpt lat="44.31396407113631" lon="7.229083001510056"><ele>837.0</ele><time>2026-04-11T17:43:26Z</time></trkpt><trkpt lat="44.31390041780653" lon="7.228835054579542"><ele>833.3333333333333</ele><time>2026-04-11T17:43:27Z</time></trkpt><trkpt lat="44.313841637283105" lon="7.228584639691774"><ele>829.6666666666666</ele><time>2026-04-11T17:43:28Z</time></trkpt><trkpt lat="44.31379612449129" lon="7.228340567522707"><ele>826.0</ele><time>2026-04-11T17:43:29Z</time></trkpt><trkpt lat="44.313759865153585" lon="7.228104811439713"><ele>826.0</ele><time>2026-04-11T17:43:30Z</time></trkpt><trkpt lat="44.31371741419924" lon="7.227881793369827"><ele>826.0</ele><time>2026-04-11T17:43:31Z</time></trkpt><trkpt lat="44.31364867339516" lon="7.2276697475371074"><ele>826.0</ele><time>2026-04-11T17:43:32Z</time></trkpt><trkpt lat="44.31356414004922" lon="7.227447471213423"><ele>828.6666666666666</ele><time>2026-04-11T17:43:33Z</time></trkpt><trkpt lat="44.31348682975207" lon="7.227200840166248"><ele>831.3333333333333</ele><time>2026-04-11T17:43:34Z</time></trkpt><trkpt lat="44.31343039989317" lon="7.226958810878255"><ele>834.0</ele><time>2026-04-11T17:43:35Z</time></trkpt><trkpt lat="44.31337349991714" lon="7.226731034016551"><ele>834.0</ele><time>2026-04-11T17:43:36Z</time></trkpt><trkpt lat="44.313300340291384" lon="7.226521092871334"><ele>834.0</ele><time>2026-04-11T17:43:37Z</time></trkpt><trkpt lat="44.31322432483993" lon="7.2263348543023165"><ele>834.0</ele><time>2026-04-11T17:43:38Z</time></trkpt><trkpt lat="44.313163767828435" lon="7.22617340245373"><ele>837.25</ele><time>2026-04-11T17:43:39Z</time></trkpt><trkpt lat="44.313110988896405" lon="7.226008465020705"><ele>840.5</ele><time>2026-04-11T17:43:40Z</time></trkpt><trkpt lat="44.313068437853595" lon="7.225826712991519"><ele>843.75</ele><time>2026-04-11T17:43:41Z</time></trkpt><trkpt lat="44.313032907761524" lon="7.225649121649816"><ele>847.0</ele><time>2026-04-11T17:43:42Z</time></trkpt><trkpt lat="44.313010566739585" lon="7.2254580610047"><ele>833.3333333333333</ele><time>2026-04-11T17:43:43Z</time></trkpt><trkpt lat="44.312998528603224" lon="7.225251150694346"><ele>819.6666666666667</ele><time>2026-04-11T17:43:44Z</time></trkpt><trkpt lat="44.31299668231896" lon="7.225025256230928"><ele>806.0</ele><time>2026-04-11T17:43:45Z</time></trkpt><trkpt lat="44.313004655229314" lon="7.224781566930037"><ele>805.6666666666667</ele><time>2026-04-11T17:43:46Z</time></trkpt><trkpt lat="44.31301948799121" lon="7.224547447748987"><ele>805.3333333333333</ele><time>2026-04-11T17:43:47Z</time></trkpt><trkpt lat="44.31303989297321" lon="7.224336154461604"><ele>805.0</ele><time>2026-04-11T17:43:48Z</time></trkpt><trkpt lat="44.31307291201024" lon="7.224113645265383"><ele>814.6666666666666</ele><time>2026-04-11T17:43:49Z</time></trkpt><trkpt lat="44.313112412606124" lon="7.223902362588444"><ele>824.3333333333333</ele><time>2026-04-11T17:43:50Z</time></trkpt><trkpt lat="44.31316183382548" lon="7.223690910202444"><ele>834.0</ele><time>2026-04-11T17:43:51Z</time></trkpt><trkpt lat="44.31322387698623" lon="7.223476123636292"><ele>834.0</ele><time>2026-04-11T17:43:52Z</time></trkpt><trkpt lat="44.31329657413672" lon="7.223250870037648"><ele>834.0</ele><time>2026-04-11T17:43:53Z</time></trkpt><trkpt lat="44.313362407183" lon="7.223076904990905"><ele>834.0</ele><time>2026-04-11T17:43:54Z</time></trkpt><trkpt lat="44.31341334098281" lon="7.222925088860452"><ele>834.0</ele><time>2026-04-11T17:43:55Z</time></trkpt><trkpt lat="44.31345535984563" lon="7.222777970796673"><ele>833.5</ele><time>2026-04-11T17:43:56Z</time></trkpt><trkpt lat="44.31347679431221" lon="7.222621448893491"><ele>833.0</ele><time>2026-04-11T17:43:57Z</time></trkpt><trkpt lat="44.31348710539787" lon="7.22248320667567"><ele>832.5</ele><time>2026-04-11T17:43:58Z</time></trkpt><trkpt lat="44.313467013433645" lon="7.222308424086658"><ele>832.0</ele><time>2026-04-11T17:43:59Z</time></trkpt><trkpt lat="44.313420122321304" lon="7.22211061153866"><ele>834.0</ele><time>2026-04-11T17:44:00Z</time></trkpt><trkpt lat="44.313382945940035" lon="7.221904814565844"><ele>836.0</ele><time>2026-04-11T17:44:01Z</time></trkpt><trkpt lat="44.313337455441186" lon="7.22169379798284"><ele>838.0</ele><time>2026-04-11T17:44:02Z</time></trkpt><trkpt lat="44.31327336109032" lon="7.221476833777801"><ele>839.0</ele><time>2026-04-11T17:44:03Z</time></trkpt><trkpt lat="44.31320088319511" lon="7.221265320048216"><ele>840.0</ele><time>2026-04-11T17:44:04Z</time></trkpt><trkpt lat="44.313133108336295" lon="7.221077325488517"><ele>841.0</ele><time>2026-04-11T17:44:05Z</time></trkpt><trkpt lat="44.31306902882311" lon="7.220909629013669"><ele>836.5</ele><time>2026-04-11T17:44:06Z</time></trkpt><trkpt lat="44.31301279434249" lon="7.220744796027722"><ele>832.0</ele><time>2026-04-11T17:44:06.999Z</time></trkpt><trkpt lat="44.312964907112985" lon="7.220588968571439"><ele>827.5</ele><time>2026-04-11T17:44:07.999Z</time></trkpt><trkpt lat="44.31293000603148" lon="7.220448942746487"><ele>823.0</ele><time>2026-04-11T17:44:08.999Z</time></trkpt><trkpt lat="44.3129070620855" lon="7.220324223675943"><ele>822.8</ele><time>2026-04-11T17:44:09.999Z</time></trkpt><trkpt lat="44.31288854150624" lon="7.220201817246692"><ele>822.5999999999999</ele><time>2026-04-11T17:44:10.999Z</time></trkpt><trkpt lat="44.312897989528835" lon="7.220059839383534"><ele>822.4000000000001</ele><time>2026-04-11T17:44:11.999Z</time></trkpt><trkpt lat="44.312906622620986" lon="7.219928361015872"><ele>822.2</ele><time>2026-04-11T17:44:12.999Z</time></trkpt><trkpt lat="44.31290794737638" lon="7.21978696480168"><ele>822.0</ele><time>2026-04-11T17:44:13.999Z</time></trkpt><trkpt lat="44.312951931182866" lon="7.219677783108677"><ele>821.5</ele><time>2026-04-11T17:44:14.999Z</time></trkpt><trkpt lat="44.313011982995086" lon="7.219558857583423"><ele>821.0</ele><time>2026-04-11T17:44:15.999Z</time></trkpt><trkpt lat="44.313100867573844" lon="7.2193843631678245"><ele>820.5</ele><time>2026-04-11T17:44:16.999Z</time></trkpt><trkpt lat="44.31317615624172" lon="7.219231443430649"><ele>820.0</ele><time>2026-04-11T17:44:17.999Z</time></trkpt><trkpt lat="44.31324423799789" lon="7.2190812838163865"><ele>824.3333333333333</ele><time>2026-04-11T17:44:18.999Z</time></trkpt><trkpt lat="44.31330258757873" lon="7.218909992587864"><ele>828.6666666666667</ele><time>2026-04-11T17:44:19.999Z</time></trkpt><trkpt lat="44.31334277159002" lon="7.218690336582564"><ele>833.0</ele><time>2026-04-11T17:44:20.999Z</time></trkpt><trkpt lat="44.31336912763755" lon="7.218465032464893"><ele>833.0</ele><time>2026-04-11T17:44:21.999Z</time></trkpt><trkpt lat="44.31340570196451" lon="7.21820949709484"><ele>833.0</ele><time>2026-04-11T17:44:22.999Z</time></trkpt><trkpt lat="44.31344039246011" lon="7.217978237695803"><ele>833.0</ele><time>2026-04-11T17:44:23.999Z</time></trkpt><trkpt lat="44.31347408089317" lon="7.217782501307536"><ele>833.25</ele><time>2026-04-11T17:44:24.999Z</time></trkpt><trkpt lat="44.313505627309226" lon="7.217600001651733"><ele>833.5</ele><time>2026-04-11T17:44:25.999Z</time></trkpt><trkpt lat="44.313527257633915" lon="7.217413589968749"><ele>833.75</ele><time>2026-04-11T17:44:26.999Z</time></trkpt><trkpt lat="44.31353401688977" lon="7.217198105270067"><ele>834.0</ele><time>2026-04-11T17:44:27.999Z</time></trkpt><trkpt lat="44.31352338827554" lon="7.216942924381363"><ele>834.0</ele><time>2026-04-11T17:44:28.999Z</time></trkpt><trkpt lat="44.31348857275961" lon="7.216684720060148"><ele>834.0</ele><time>2026-04-11T17:44:29.999Z</time></trkpt><trkpt lat="44.313437205235175" lon="7.21638580593327"><ele>834.0</ele><time>2026-04-11T17:44:30.999Z</time></trkpt><trkpt lat="44.313390582964914" lon="7.21606413461882"><ele>836.0</ele><time>2026-04-11T17:44:31.999Z</time></trkpt><trkpt lat="44.313350310568126" lon="7.215773294606506"><ele>838.0</ele><time>2026-04-11T17:44:32.999Z</time></trkpt><trkpt lat="44.31330974369611" lon="7.215506547102076"><ele>840.0</ele><time>2026-04-11T17:44:33.999Z</time></trkpt><trkpt lat="44.313278839905294" lon="7.2152400162146035"><ele>841.6666666666667</ele><time>2026-04-11T17:44:34.999Z</time></trkpt><trkpt lat="44.31325476494633" lon="7.214959603456755"><ele>843.3333333333334</ele><time>2026-04-11T17:44:35.999Z</time></trkpt><trkpt lat="44.31324219726567" lon="7.214649155149939"><ele>845.0</ele><time>2026-04-11T17:44:36.999Z</time></trkpt><trkpt lat="44.31323493397953" lon="7.214312591624996"><ele>844.5</ele><time>2026-04-11T17:44:37.999Z</time></trkpt><trkpt lat="44.3132329003892" lon="7.213956501943967"><ele>844.0</ele><time>2026-04-11T17:44:38.999Z</time></trkpt><trkpt lat="44.31323151021487" lon="7.213602268076022"><ele>844.0</ele><time>2026-04-11T17:44:39.999Z</time></trkpt><trkpt lat="44.31322803890765" lon="7.213281867680071"><ele>844.0</ele><time>2026-04-11T17:44:40.999Z</time></trkpt><trkpt lat="44.313224893259864" lon="7.2129727689436685"><ele>846.0</ele><time>2026-04-11T17:44:41.999Z</time></trkpt><trkpt lat="44.313224080426565" lon="7.212659200543185"><ele>848.0</ele><time>2026-04-11T17:44:42.999Z</time></trkpt><trkpt lat="44.313223364409716" lon="7.212333426486621"><ele>848.0</ele><time>2026-04-11T17:44:43.999Z</time></trkpt><trkpt lat="44.31322283052127" lon="7.212017076099372"><ele>848.0</ele><time>2026-04-11T17:44:45Z</time></trkpt><trkpt lat="44.313221034431386" lon="7.2117161519148345"><ele>848.0</ele><time>2026-04-11T17:44:46Z</time></trkpt><trkpt lat="44.31322107978514" lon="7.2114571452914"><ele>849.6666666666667</ele><time>2026-04-11T17:44:47Z</time></trkpt><trkpt lat="44.31321633297834" lon="7.211209717750562"><ele>851.3333333333333</ele><time>2026-04-11T17:44:48Z</time></trkpt><trkpt lat="44.31321555332033" lon="7.210976253597053"><ele>853.0</ele><time>2026-04-11T17:44:49Z</time></trkpt><trkpt lat="44.31321237313435" lon="7.210738088952578"><ele>855.0</ele><time>2026-04-11T17:44:50Z</time></trkpt><trkpt lat="44.31320065553345" lon="7.210476014734299"><ele>857.0</ele><time>2026-04-11T17:44:51Z</time></trkpt><trkpt lat="44.31317722352851" lon="7.210209798305145"><ele>859.0</ele><time>2026-04-11T17:44:52Z</time></trkpt><trkpt lat="44.313146654572655" lon="7.209936570895369"><ele>862.0</ele><time>2026-04-11T17:44:53Z</time></trkpt><trkpt lat="44.31311568223474" lon="7.209651349851992"><ele>865.0</ele><time>2026-04-11T17:44:54Z</time></trkpt><trkpt lat="44.31308445958727" lon="7.20935376420458"><ele>868.0</ele><time>2026-04-11T17:44:55Z</time></trkpt><trkpt lat="44.31304980802177" lon="7.209023658708215"><ele>846.0</ele><time>2026-04-11T17:44:56Z</time></trkpt><trkpt lat="44.31301552534473" lon="7.20870227499377"><ele>824.0</ele><time>2026-04-11T17:44:57Z</time></trkpt><trkpt lat="44.31297772087674" lon="7.208394089221562"><ele>826.0</ele><time>2026-04-11T17:44:58Z</time></trkpt><trkpt lat="44.31294890738117" lon="7.208102051414049"><ele>828.0</ele><time>2026-04-11T17:44:59Z</time></trkpt><trkpt lat="44.31291372268616" lon="7.207813774241817"><ele>830.0</ele><time>2026-04-11T17:45:00Z</time></trkpt><trkpt lat="44.31288263418758" lon="7.2075594991501815"><ele>830.0</ele><time>2026-04-11T17:45:01Z</time></trkpt><trkpt lat="44.31285855791964" lon="7.207364016441845"><ele>830.0</ele><time>2026-04-11T17:45:02Z</time></trkpt><trkpt lat="44.31283394263436" lon="7.207192770566563"><ele>830.0</ele><time>2026-04-11T17:45:03Z</time></trkpt><trkpt lat="44.312799707902805" lon="7.207039088666972"><ele>830.0</ele><time>2026-04-11T17:45:04Z</time></trkpt><trkpt lat="44.31275135563462" lon="7.206889072421868"><ele>833.25</ele><time>2026-04-11T17:45:05Z</time></trkpt><trkpt lat="44.31268237488749" lon="7.206744527983846"><ele>836.5</ele><time>2026-04-11T17:45:06Z</time></trkpt><trkpt lat="44.312586025901474" lon="7.20660158956948"><ele>839.75</ele><time>2026-04-11T17:45:07Z</time></trkpt><trkpt lat="44.31246932511094" lon="7.206466292163487"><ele>843.0</ele><time>2026-04-11T17:45:08Z</time></trkpt><trkpt lat="44.31234134412295" lon="7.206334335122908"><ele>841.25</ele><time>2026-04-11T17:45:09Z</time></trkpt><trkpt lat="44.31221592030937" lon="7.2062207503059605"><ele>839.5</ele><time>2026-04-11T17:45:10Z</time></trkpt><trkpt lat="44.312109474584354" lon="7.206099613842994"><ele>837.75</ele><time>2026-04-11T17:45:11Z</time></trkpt><trkpt lat="44.312017005620284" lon="7.205948206642559"><ele>836.0</ele><time>2026-04-11T17:45:12Z</time></trkpt><trkpt lat="44.31193635366924" lon="7.205755039052206"><ele>838.6666666666667</ele><time>2026-04-11T17:45:13Z</time></trkpt><trkpt lat="44.31186194715759" lon="7.205531409983721"><ele>841.3333333333333</ele><time>2026-04-11T17:45:14Z</time></trkpt><trkpt lat="44.31179733831333" lon="7.205274875598144"><ele>844.0</ele><time>2026-04-11T17:45:15Z</time></trkpt><trkpt lat="44.311728419314974" lon="7.20500961443935"><ele>844.3333333333333</ele><time>2026-04-11T17:45:16Z</time></trkpt><trkpt lat="44.311656679098185" lon="7.20473701246169"><ele>844.6666666666667</ele><time>2026-04-11T17:45:17Z</time></trkpt><trkpt lat="44.31159077474751" lon="7.204474965637416"><ele>845.0</ele><time>2026-04-11T17:45:18Z</time></trkpt><trkpt lat="44.311533760969795" lon="7.204248783904855"><ele>845.0</ele><time>2026-04-11T17:45:19Z</time></trkpt><trkpt lat="44.311481271740156" lon="7.204026549332649"><ele>845.0</ele><time>2026-04-11T17:45:20Z</time></trkpt><trkpt lat="44.31145039511057" lon="7.203778572520459"><ele>845.0</ele><time>2026-04-11T17:45:21Z</time></trkpt><trkpt lat="44.31141923392227" lon="7.203501780338047"><ele>836.0</ele><time>2026-04-11T17:45:22Z</time></trkpt><trkpt lat="44.31139801245173" lon="7.203189917399288"><ele>827.0</ele><time>2026-04-11T17:45:23Z</time></trkpt><trkpt lat="44.3113823656864" lon="7.202853243691072"><ele>827.0</ele><time>2026-04-11T17:45:24Z</time></trkpt><trkpt lat="44.31136569424003" lon="7.20249452181346"><ele>827.0</ele><time>2026-04-11T17:45:25Z</time></trkpt><trkpt lat="44.31134902455586" lon="7.202135837840875"><ele>827.0</ele><time>2026-04-11T17:45:26Z</time></trkpt><trkpt lat="44.311334851595355" lon="7.201762194483374"><ele>827.0</ele><time>2026-04-11T17:45:27Z</time></trkpt><trkpt lat="44.31131494633168" lon="7.2014505048683874"><ele>827.0</ele><time>2026-04-11T17:45:28Z</time></trkpt><trkpt lat="44.31129161602503" lon="7.201158637378091"><ele>827.0</ele><time>2026-04-11T17:45:29Z</time></trkpt><trkpt lat="44.311278272131574" lon="7.200852598868311"><ele>827.0</ele><time>2026-04-11T17:45:30Z</time></trkpt><trkpt lat="44.31127654154204" lon="7.200517533696963"><ele>827.0</ele><time>2026-04-11T17:45:31Z</time></trkpt><trkpt lat="44.31128483069355" lon="7.200163200732543"><ele>827.0</ele><time>2026-04-11T17:45:32Z</time></trkpt><trkpt lat="44.3113003230318" lon="7.199790975866585"><ele>827.5</ele><time>2026-04-11T17:45:33Z</time></trkpt><trkpt lat="44.31132401663621" lon="7.199407235253286"><ele>828.0</ele><time>2026-04-11T17:45:34Z</time></trkpt><trkpt lat="44.311346969846724" lon="7.199024683378452"><ele>828.5</ele><time>2026-04-11T17:45:35Z</time></trkpt><trkpt lat="44.31136884971322" lon="7.198642020576239"><ele>829.0</ele><time>2026-04-11T17:45:36Z</time></trkpt><trkpt lat="44.31139306941858" lon="7.198265943665559"><ele>850.0</ele><time>2026-04-11T17:45:37Z</time></trkpt><trkpt lat="44.311418059159905" lon="7.197920489783117"><ele>871.0</ele><time>2026-04-11T17:45:38Z</time></trkpt><trkpt lat="44.31144203431262" lon="7.19761015914297"><ele>870.3333333333333</ele><time>2026-04-11T17:45:39Z</time></trkpt><trkpt lat="44.31146125031096" lon="7.197323599757269"><ele>869.6666666666667</ele><time>2026-04-11T17:45:40Z</time></trkpt><trkpt lat="44.31147925484176" lon="7.197047173827612"><ele>869.0</ele><time>2026-04-11T17:45:41Z</time></trkpt><trkpt lat="44.311503035365625" lon="7.196811327673404"><ele>869.0</ele><time>2026-04-11T17:45:42Z</time></trkpt><trkpt lat="44.31153122490278" lon="7.196596960996541"><ele>869.0</ele><time>2026-04-11T17:45:43Z</time></trkpt><trkpt lat="44.31157317545041" lon="7.196421450642037"><ele>869.0</ele><time>2026-04-11T17:45:44Z</time></trkpt><trkpt lat="44.311627275901444" lon="7.196259156269024"><ele>869.0</ele><time>2026-04-11T17:45:45Z</time></trkpt><trkpt lat="44.311654227577726" lon="7.1960781206170275"><ele>868.0</ele><time>2026-04-11T17:45:46Z</time></trkpt><trkpt lat="44.31165697313026" lon="7.1958227156882275"><ele>867.0</ele><time>2026-04-11T17:45:47Z</time></trkpt><trkpt lat="44.31163574899948" lon="7.195606023739543"><ele>866.0</ele><time>2026-04-11T17:45:48Z</time></trkpt><trkpt lat="44.311616832882336" lon="7.195332977827348"><ele>866.0</ele><time>2026-04-11T17:45:49Z</time></trkpt><trkpt lat="44.31161492413135" lon="7.195028177606555"><ele>866.0</ele><time>2026-04-11T17:45:50Z</time></trkpt><trkpt lat="44.31163709255637" lon="7.194726651183968"><ele>866.0</ele><time>2026-04-11T17:45:51Z</time></trkpt><trkpt lat="44.311670980173766" lon="7.194472101954197"><ele>867.0</ele><time>2026-04-11T17:45:52Z</time></trkpt><trkpt lat="44.31166199442464" lon="7.194244284366577"><ele>868.0</ele><time>2026-04-11T17:45:53Z</time></trkpt><trkpt lat="44.31165082433961" lon="7.193994959988668"><ele>869.0</ele><time>2026-04-11T17:45:54Z</time></trkpt><trkpt lat="44.31162202628087" lon="7.193705270613621"><ele>869.0</ele><time>2026-04-11T17:45:55Z</time></trkpt><trkpt lat="44.311581443805366" lon="7.193387018824776"><ele>869.0</ele><time>2026-04-11T17:45:56Z</time></trkpt><trkpt lat="44.311535595945635" lon="7.1930509514068"><ele>873.5</ele><time>2026-04-11T17:45:57Z</time></trkpt><trkpt lat="44.31149503154716" lon="7.192728757269944"><ele>878.0</ele><time>2026-04-11T17:45:58Z</time></trkpt><trkpt lat="44.311466086858886" lon="7.192420029870893"><ele>880.3333333333334</ele><time>2026-04-11T17:45:59Z</time></trkpt><trkpt lat="44.311444937050815" lon="7.192128462168983"><ele>882.6666666666667</ele><time>2026-04-11T17:46:00Z</time></trkpt><trkpt lat="44.311438142615415" lon="7.191875861977774"><ele>885.0</ele><time>2026-04-11T17:46:01Z</time></trkpt><trkpt lat="44.31142825894764" lon="7.191639749164787"><ele>875.0</ele><time>2026-04-11T17:46:02Z</time></trkpt><trkpt lat="44.31139872843686" lon="7.191391429113314"><ele>865.0</ele><time>2026-04-11T17:46:03Z</time></trkpt><trkpt lat="44.311358880097096" lon="7.1911392802755465"><ele>855.0</ele><time>2026-04-11T17:46:04Z</time></trkpt><trkpt lat="44.31132801334401" lon="7.190908131057431"><ele>855.0</ele><time>2026-04-11T17:46:05Z</time></trkpt><trkpt lat="44.31129121734759" lon="7.190716626778259"><ele>855.0</ele><time>2026-04-11T17:46:06Z</time></trkpt><trkpt lat="44.31124809836837" lon="7.190537948952352"><ele>855.0</ele><time>2026-04-11T17:46:07Z</time></trkpt><trkpt lat="44.31118840901738" lon="7.1903491230272545"><ele>855.0</ele><time>2026-04-11T17:46:08Z</time></trkpt><trkpt lat="44.31110581196822" lon="7.190158553524106"><ele>859.6666666666667</ele><time>2026-04-11T17:46:09Z</time></trkpt><trkpt lat="44.31100194315479" lon="7.1899785990565235"><ele>864.3333333333334</ele><time>2026-04-11T17:46:10Z</time></trkpt><trkpt lat="44.310887341038196" lon="7.189812848472893"><ele>869.0</ele><time>2026-04-11T17:46:11Z</time></trkpt><trkpt lat="44.31077240621895" lon="7.189669395107104"><ele>871.75</ele><time>2026-04-11T17:46:12Z</time></trkpt><trkpt lat="44.31067786015397" lon="7.189541671106965"><ele>874.5</ele><time>2026-04-11T17:46:13Z</time></trkpt><trkpt lat="44.31060427660321" lon="7.189414206238268"><ele>877.25</ele><time>2026-04-11T17:46:14Z</time></trkpt><trkpt lat="44.31053539106428" lon="7.189259262975555"><ele>880.0</ele><time>2026-04-11T17:46:14.999Z</time></trkpt><trkpt lat="44.310477473445985" lon="7.189074254108089"><ele>874.3333333333333</ele><time>2026-04-11T17:46:15.999Z</time></trkpt><trkpt lat="44.31044042099705" lon="7.188848779248526"><ele>868.6666666666667</ele><time>2026-04-11T17:46:16.999Z</time></trkpt><trkpt lat="44.310419193995834" lon="7.188600472321306"><ele>863.0</ele><time>2026-04-11T17:46:17.999Z</time></trkpt><trkpt lat="44.31041415140568" lon="7.188309269715989"><ele>863.0</ele><time>2026-04-11T17:46:18.999Z</time></trkpt><trkpt lat="44.31041347740032" lon="7.187982854698"><ele>863.0</ele><time>2026-04-11T17:46:19.999Z</time></trkpt><trkpt lat="44.31041203151426" lon="7.187642423780642"><ele>864.0</ele><time>2026-04-11T17:46:20.999Z</time></trkpt><trkpt lat="44.31040259088698" lon="7.187296229754151"><ele>865.0</ele><time>2026-04-11T17:46:21.999Z</time></trkpt><trkpt lat="44.31038521229485" lon="7.1869454878321175"><ele>865.0</ele><time>2026-04-11T17:46:22.999Z</time></trkpt><trkpt lat="44.31036796556902" lon="7.186627735827406"><ele>865.0</ele><time>2026-04-11T17:46:23.999Z</time></trkpt><trkpt lat="44.31035173001739" lon="7.186348252191824"><ele>865.0</ele><time>2026-04-11T17:46:24.999Z</time></trkpt><trkpt lat="44.310340574390956" lon="7.18611637362649"><ele>866.5</ele><time>2026-04-11T17:46:25.999Z</time></trkpt><trkpt lat="44.31032891914911" lon="7.185928997104871"><ele>868.0</ele><time>2026-04-11T17:46:26.999Z</time></trkpt><trkpt lat="44.310313056546946" lon="7.1857660254859255"><ele>869.5</ele><time>2026-04-11T17:46:27.999Z</time></trkpt><trkpt lat="44.31027443061811" lon="7.185588973277647"><ele>871.0</ele><time>2026-04-11T17:46:28.999Z</time></trkpt><trkpt lat="44.310210591468746" lon="7.185377678326959"><ele>874.6666666666666</ele><time>2026-04-11T17:46:29.999Z</time></trkpt><trkpt lat="44.310129997523056" lon="7.185161190673975"><ele>878.3333333333333</ele><time>2026-04-11T17:46:30.999Z</time></trkpt><trkpt lat="44.31004821487174" lon="7.184944183230147"><ele>882.0</ele><time>2026-04-11T17:46:31.999Z</time></trkpt><trkpt lat="44.30998126836483" lon="7.1847579573683875"><ele>883.2</ele><time>2026-04-11T17:46:32.999Z</time></trkpt><trkpt lat="44.309941042307386" lon="7.184616445847088"><ele>884.4000000000001</ele><time>2026-04-11T17:46:33.999Z</time></trkpt><trkpt lat="44.30991341862519" lon="7.18448150969847"><ele>885.5999999999999</ele><time>2026-04-11T17:46:34.999Z</time></trkpt><trkpt lat="44.30990262361135" lon="7.1843325128573685"><ele>886.8</ele><time>2026-04-11T17:46:35.999Z</time></trkpt><trkpt lat="44.30991084660154" lon="7.184155098810708"><ele>888.0</ele><time>2026-04-11T17:46:36.999Z</time></trkpt><trkpt lat="44.30994842478964" lon="7.18395239728581"><ele>888.5</ele><time>2026-04-11T17:46:37.999Z</time></trkpt><trkpt lat="44.30999412918428" lon="7.18374093169667"><ele>889.0</ele><time>2026-04-11T17:46:38.999Z</time></trkpt><trkpt lat="44.31001573456221" lon="7.183559675838221"><ele>889.5</ele><time>2026-04-11T17:46:39.999Z</time></trkpt><trkpt lat="44.31000451489586" lon="7.183387739127664"><ele>890.0</ele><time>2026-04-11T17:46:40.999Z</time></trkpt><trkpt lat="44.309974444187624" lon="7.183154426035195"><ele>893.6666666666667</ele><time>2026-04-11T17:46:41.999Z</time></trkpt><trkpt lat="44.30992856390878" lon="7.182885702542579"><ele>897.3333333333333</ele><time>2026-04-11T17:46:42.999Z</time></trkpt><trkpt lat="44.30988473948986" lon="7.182628852491176"><ele>901.0</ele><time>2026-04-11T17:46:43.999Z</time></trkpt><trkpt lat="44.30985401537905" lon="7.182377764418334"><ele>902.6666666666666</ele><time>2026-04-11T17:46:44.999Z</time></trkpt><trkpt lat="44.30982846450864" lon="7.182098765092703"><ele>904.3333333333333</ele><time>2026-04-11T17:46:45.999Z</time></trkpt><trkpt lat="44.309798194615745" lon="7.181802555555772"><ele>906.0</ele><time>2026-04-11T17:46:46.999Z</time></trkpt><trkpt lat="44.30976647142876" lon="7.181494998692988"><ele>888.0</ele><time>2026-04-11T17:46:47.999Z</time></trkpt><trkpt lat="44.30973630940857" lon="7.181180852425211"><ele>870.0</ele><time>2026-04-11T17:46:48.999Z</time></trkpt><trkpt lat="44.309705859819466" lon="7.180868105853593"><ele>872.3333333333333</ele><time>2026-04-11T17:46:49.999Z</time></trkpt><trkpt lat="44.309678064789345" lon="7.180580022627839"><ele>874.6666666666666</ele><time>2026-04-11T17:46:51Z</time></trkpt><trkpt lat="44.30965417227642" lon="7.18032169010795"><ele>877.0</ele><time>2026-04-11T17:46:52Z</time></trkpt><trkpt lat="44.30962793956409" lon="7.180078775499353"><ele>880.0</ele><time>2026-04-11T17:46:53Z</time></trkpt><trkpt lat="44.30958961845821" lon="7.1798309625665855"><ele>883.0</ele><time>2026-04-11T17:46:54Z</time></trkpt><trkpt lat="44.30953655341503" lon="7.1795642770555625"><ele>886.0</ele><time>2026-04-11T17:46:55Z</time></trkpt><trkpt lat="44.30947557623853" lon="7.1792865306913685"><ele>886.0</ele><time>2026-04-11T17:46:56Z</time></trkpt><trkpt lat="44.30941918828419" lon="7.1790205300752215"><ele>886.0</ele><time>2026-04-11T17:46:57Z</time></trkpt><trkpt lat="44.30937345502264" lon="7.178760202898977"><ele>886.0</ele><time>2026-04-11T17:46:58Z</time></trkpt><trkpt lat="44.30933036599743" lon="7.178533374104714"><ele>887.0</ele><time>2026-04-11T17:46:59Z</time></trkpt><trkpt lat="44.30928735869797" lon="7.1783309818170125"><ele>888.0</ele><time>2026-04-11T17:47:00Z</time></trkpt><trkpt lat="44.30924629465559" lon="7.178154149295659"><ele>889.0</ele><time>2026-04-11T17:47:01Z</time></trkpt><trkpt lat="44.30920047567577" lon="7.178001381064634"><ele>890.0</ele><time>2026-04-11T17:47:02Z</time></trkpt><trkpt lat="44.30913939954105" lon="7.177840088149106"><ele>888.3333333333334</ele><time>2026-04-11T17:47:03Z</time></trkpt><trkpt lat="44.30904688291978" lon="7.177689156664903"><ele>886.6666666666667</ele><time>2026-04-11T17:47:04Z</time></trkpt><trkpt lat="44.308934022702275" lon="7.177541023515072"><ele>885.0</ele><time>2026-04-11T17:47:05Z</time></trkpt><trkpt lat="44.30879687355813" lon="7.1773917448452815"><ele>888.0</ele><time>2026-04-11T17:47:06Z</time></trkpt><trkpt lat="44.30863868455906" lon="7.177241777230916"><ele>891.0</ele><time>2026-04-11T17:47:07Z</time></trkpt><trkpt lat="44.30847208055223" lon="7.177089293266738"><ele>894.0</ele><time>2026-04-11T17:47:08Z</time></trkpt><trkpt lat="44.308305753204735" lon="7.176926628179605"><ele>894.0</ele><time>2026-04-11T17:47:09Z</time></trkpt><trkpt lat="44.308147639097456" lon="7.176761671301425"><ele>894.0</ele><time>2026-04-11T17:47:10Z</time></trkpt><trkpt lat="44.308003442327845" lon="7.176622298112761"><ele>894.0</ele><time>2026-04-11T17:47:11Z</time></trkpt><trkpt lat="44.30787661009285" lon="7.176493289652131"><ele>895.0</ele><time>2026-04-11T17:47:12Z</time></trkpt><trkpt lat="44.307765355403916" lon="7.17638674934317"><ele>896.0</ele><time>2026-04-11T17:47:13Z</time></trkpt><trkpt lat="44.30766134313933" lon="7.176280377972751"><ele>897.0</ele><time>2026-04-11T17:47:14Z</time></trkpt><trkpt lat="44.307561017988526" lon="7.176177594803681"><ele>898.0</ele><time>2026-04-11T17:47:15Z</time></trkpt><trkpt lat="44.307441024082735" lon="7.176061128888048"><ele>898.0</ele><time>2026-04-11T17:47:16Z</time></trkpt><trkpt lat="44.30733041612648" lon="7.175953824611557"><ele>898.0</ele><time>2026-04-11T17:47:17Z</time></trkpt><trkpt lat="44.307220268939815" lon="7.175842879373336"><ele>898.0</ele><time>2026-04-11T17:47:18Z</time></trkpt><trkpt lat="44.30711100888556" lon="7.175731150137048"><ele>898.0</ele><time>2026-04-11T17:47:19Z</time></trkpt><trkpt lat="44.30701084143721" lon="7.175610886660596"><ele>898.25</ele><time>2026-04-11T17:47:20Z</time></trkpt><trkpt lat="44.306916767890876" lon="7.175485330516052"><ele>898.5</ele><time>2026-04-11T17:47:21Z</time></trkpt><trkpt lat="44.306841741449894" lon="7.175346129989632"><ele>898.75</ele><time>2026-04-11T17:47:22Z</time></trkpt><trkpt lat="44.30677582261116" lon="7.175191573059883"><ele>899.0</ele><time>2026-04-11T17:47:23Z</time></trkpt><trkpt lat="44.30672999709054" lon="7.175024020399701"><ele>900.3333333333334</ele><time>2026-04-11T17:47:24Z</time></trkpt><trkpt lat="44.30669636771882" lon="7.174827699883409"><ele>901.6666666666667</ele><time>2026-04-11T17:47:25Z</time></trkpt><trkpt lat="44.3066710411188" lon="7.174593299320316"><ele>903.0</ele><time>2026-04-11T17:47:26Z</time></trkpt><trkpt lat="44.3066536899733" lon="7.174350966170412"><ele>903.0</ele><time>2026-04-11T17:47:27Z</time></trkpt><trkpt lat="44.3066475674098" lon="7.174128868320659"><ele>903.0</ele><time>2026-04-11T17:47:28Z</time></trkpt><trkpt lat="44.30663854819455" lon="7.17395195178321"><ele>903.0</ele><time>2026-04-11T17:47:29Z</time></trkpt><trkpt lat="44.3066278102559" lon="7.173779784842079"><ele>903.0</ele><time>2026-04-11T17:47:30Z</time></trkpt><trkpt lat="44.30661231823075" lon="7.17362498422764"><ele>903.25</ele><time>2026-04-11T17:47:31Z</time></trkpt><trkpt lat="44.306593438023576" lon="7.173457958499827"><ele>903.5</ele><time>2026-04-11T17:47:32Z</time></trkpt><trkpt lat="44.30657716085373" lon="7.173274351886982"><ele>903.75</ele><time>2026-04-11T17:47:33Z</time></trkpt><trkpt lat="44.30656252311061" lon="7.173069298788484"><ele>904.0</ele><time>2026-04-11T17:47:34Z</time></trkpt><trkpt lat="44.306562805472694" lon="7.1728437047157545"><ele>903.5</ele><time>2026-04-11T17:47:35Z</time></trkpt><trkpt lat="44.30656836493461" lon="7.17262768693677"><ele>903.0</ele><time>2026-04-11T17:47:36Z</time></trkpt><trkpt lat="44.30658487240849" lon="7.1724356301829335"><ele>902.5</ele><time>2026-04-11T17:47:37Z</time></trkpt><trkpt lat="44.30660491869808" lon="7.172276293439272"><ele>902.0</ele><time>2026-04-11T17:47:38Z</time></trkpt><trkpt lat="44.306622851282526" lon="7.172133666739944"><ele>901.8</ele><time>2026-04-11T17:47:39Z</time></trkpt><trkpt lat="44.30665045652958" lon="7.172000466182936"><ele>901.6</ele><time>2026-04-11T17:47:40Z</time></trkpt><trkpt lat="44.30670513696855" lon="7.171885764989408"><ele>901.3999999999999</ele><time>2026-04-11T17:47:41Z</time></trkpt><trkpt lat="44.30675889629304" lon="7.171757951912676"><ele>901.1999999999999</ele><time>2026-04-11T17:47:42Z</time></trkpt><trkpt lat="44.30680411383643" lon="7.171586626552978"><ele>901.0</ele><time>2026-04-11T17:47:43Z</time></trkpt><trkpt lat="44.30687317292436" lon="7.171413099257478"><ele>901.0</ele><time>2026-04-11T17:47:44Z</time></trkpt><trkpt lat="44.3069501482415" lon="7.171218872512215"><ele>901.0</ele><time>2026-04-11T17:47:45Z</time></trkpt><trkpt lat="44.30702596922058" lon="7.171031748612649"><ele>901.0</ele><time>2026-04-11T17:47:46Z</time></trkpt><trkpt lat="44.30709791413263" lon="7.1708689444479425"><ele>901.0</ele><time>2026-04-11T17:47:47Z</time></trkpt><trkpt lat="44.30716500383216" lon="7.170713668988055"><ele>901.0</ele><time>2026-04-11T17:47:48Z</time></trkpt><trkpt lat="44.307225310640895" lon="7.170562487502276"><ele>901.0</ele><time>2026-04-11T17:47:49Z</time></trkpt><trkpt lat="44.30729645765796" lon="7.1703916292307985"><ele>901.0</ele><time>2026-04-11T17:47:50Z</time></trkpt><trkpt lat="44.30736032102729" lon="7.170225760201179"><ele>903.0</ele><time>2026-04-11T17:47:51Z</time></trkpt><trkpt lat="44.30741692862773" lon="7.170080833647278"><ele>904.9999999999999</ele><time>2026-04-11T17:47:52Z</time></trkpt><trkpt lat="44.30746576398276" lon="7.169943535388235"><ele>906.9999999999999</ele><time>2026-04-11T17:47:53Z</time></trkpt><trkpt lat="44.30750215979242" lon="7.16982168465441"><ele>909.0</ele><time>2026-04-11T17:47:54Z</time></trkpt><trkpt lat="44.307521904410706" lon="7.169684002149309"><ele>911.0</ele><time>2026-04-11T17:47:55Z</time></trkpt><trkpt lat="44.30752471121483" lon="7.169534709947866"><ele>911.0</ele><time>2026-04-11T17:47:56Z</time></trkpt><trkpt lat="44.30750833449052" lon="7.169361434265459"><ele>911.0</ele><time>2026-04-11T17:47:57Z</time></trkpt><trkpt lat="44.30747607199065" lon="7.169169674470244"><ele>911.0</ele><time>2026-04-11T17:47:58Z</time></trkpt><trkpt lat="44.30743097617883" lon="7.168971553311184"><ele>911.0</ele><time>2026-04-11T17:47:59Z</time></trkpt><trkpt lat="44.30738246821705" lon="7.168775762260872"><ele>912.0</ele><time>2026-04-11T17:48:00Z</time></trkpt><trkpt lat="44.30734097148182" lon="7.168559401973691"><ele>913.0</ele><time>2026-04-11T17:48:01Z</time></trkpt><trkpt lat="44.30731474525869" lon="7.16832548174437"><ele>914.0</ele><time>2026-04-11T17:48:02Z</time></trkpt><trkpt lat="44.307297367810285" lon="7.1680836651197835"><ele>914.3333333333334</ele><time>2026-04-11T17:48:03Z</time></trkpt><trkpt lat="44.30727603481212" lon="7.167865064128179"><ele>914.6666666666667</ele><time>2026-04-11T17:48:04Z</time></trkpt><trkpt lat="44.30725361399282" lon="7.167667149253062"><ele>915.0</ele><time>2026-04-11T17:48:05Z</time></trkpt><trkpt lat="44.307214237791534" lon="7.167461162932161"><ele>904.6666666666667</ele><time>2026-04-11T17:48:06Z</time></trkpt><trkpt lat="44.30715765794737" lon="7.167235540238509"><ele>894.3333333333334</ele><time>2026-04-11T17:48:07Z</time></trkpt><trkpt lat="44.30709432627756" lon="7.1669909812905495"><ele>884.0</ele><time>2026-04-11T17:48:08Z</time></trkpt><trkpt lat="44.30702155452027" lon="7.166720872121705"><ele>885.3333333333334</ele><time>2026-04-11T17:48:09Z</time></trkpt><trkpt lat="44.30694084259041" lon="7.166423694739333"><ele>886.6666666666667</ele><time>2026-04-11T17:48:10Z</time></trkpt><trkpt lat="44.30686078816844" lon="7.166140085449186"><ele>888.0</ele><time>2026-04-11T17:48:11Z</time></trkpt><trkpt lat="44.306779986229415" lon="7.165852105727824"><ele>889.3333333333333</ele><time>2026-04-11T17:48:12Z</time></trkpt><trkpt lat="44.30670175421123" lon="7.165579333430892"><ele>890.6666666666666</ele><time>2026-04-11T17:48:13Z</time></trkpt><trkpt lat="44.30663037866465" lon="7.165332974587319"><ele>892.0</ele><time>2026-04-11T17:48:14Z</time></trkpt><trkpt lat="44.30655960919122" lon="7.16509846785239"><ele>895.6666666666666</ele><time>2026-04-11T17:48:15Z</time></trkpt><trkpt lat="44.306480970001594" lon="7.16485534130279"><ele>899.3333333333333</ele><time>2026-04-11T17:48:16Z</time></trkpt><trkpt lat="44.3063923909496" lon="7.164634149541801"><ele>903.0</ele><time>2026-04-11T17:48:17Z</time></trkpt><trkpt lat="44.30629900890581" lon="7.164438093539939"><ele>897.0</ele><time>2026-04-11T17:48:18Z</time></trkpt><trkpt lat="44.30621829472156" lon="7.164252834086514"><ele>891.0</ele><time>2026-04-11T17:48:19Z</time></trkpt><trkpt lat="44.30615204886154" lon="7.164066149427092"><ele>885.0</ele><time>2026-04-11T17:48:20Z</time></trkpt><trkpt lat="44.30609975125434" lon="7.163886682550221"><ele>879.0</ele><time>2026-04-11T17:48:21Z</time></trkpt><trkpt lat="44.3060559421325" lon="7.163726558563409"><ele>879.0</ele><time>2026-04-11T17:48:22Z</time></trkpt><trkpt lat="44.30601184462487" lon="7.1635674169101495"><ele>879.0</ele><time>2026-04-11T17:48:23Z</time></trkpt><trkpt lat="44.30597050742808" lon="7.163413353024258"><ele>879.0</ele><time>2026-04-11T17:48:24Z</time></trkpt><trkpt lat="44.30593126675646" lon="7.163257434433871"><ele>879.0</ele><time>2026-04-11T17:48:25Z</time></trkpt><trkpt lat="44.30590716305767" lon="7.163091139263956"><ele>879.6666666666667</ele><time>2026-04-11T17:48:26Z</time></trkpt><trkpt lat="44.30589848778779" lon="7.162880232201222"><ele>880.3333333333334</ele><time>2026-04-11T17:48:27Z</time></trkpt><trkpt lat="44.30590611748343" lon="7.1626362534999855"><ele>881.0</ele><time>2026-04-11T17:48:27.999Z</time></trkpt><trkpt lat="44.30593613624586" lon="7.162362932170686"><ele>882.3333333333334</ele><time>2026-04-11T17:48:28.999Z</time></trkpt><trkpt lat="44.30596812802819" lon="7.162090202750773"><ele>883.6666666666667</ele><time>2026-04-11T17:48:29.999Z</time></trkpt><trkpt lat="44.30598572033324" lon="7.161838212809885"><ele>885.0</ele><time>2026-04-11T17:48:30.999Z</time></trkpt><trkpt lat="44.30598682536855" lon="7.161585785074725"><ele>885.6666666666667</ele><time>2026-04-11T17:48:31.999Z</time></trkpt><trkpt lat="44.305979189032634" lon="7.16132775688816"><ele>886.3333333333334</ele><time>2026-04-11T17:48:32.999Z</time></trkpt><trkpt lat="44.30595977468107" lon="7.161071834192854"><ele>887.0</ele><time>2026-04-11T17:48:33.999Z</time></trkpt><trkpt lat="44.30592452732317" lon="7.160824253416626"><ele>889.6666666666667</ele><time>2026-04-11T17:48:34.999Z</time></trkpt><trkpt lat="44.30587516304774" lon="7.160566255603945"><ele>892.3333333333333</ele><time>2026-04-11T17:48:35.999Z</time></trkpt><trkpt lat="44.30581682711966" lon="7.16032085911537"><ele>895.0</ele><time>2026-04-11T17:48:36.999Z</time></trkpt><trkpt lat="44.305769364746034" lon="7.160113230411511"><ele>895.0</ele><time>2026-04-11T17:48:37.999Z</time></trkpt><trkpt lat="44.30572816135419" lon="7.159957593204158"><ele>895.0</ele><time>2026-04-11T17:48:38.999Z</time></trkpt><trkpt lat="44.3056924203156" lon="7.159818679610642"><ele>895.0</ele><time>2026-04-11T17:48:39.999Z</time></trkpt><trkpt lat="44.30566123982154" lon="7.1596986369197815"><ele>895.0</ele><time>2026-04-11T17:48:40.999Z</time></trkpt><trkpt lat="44.30562338249213" lon="7.159588890638306"><ele>895.0</ele><time>2026-04-11T17:48:42.999Z</time></trkpt><trkpt lat="44.30547868639152" lon="7.159611446418116"><ele>891.0</ele><time>2026-04-11T17:48:47.999Z</time></trkpt><trkpt lat="44.30538472113121" lon="7.1597280541800705"><ele>887.0</ele><time>2026-04-11T17:49:09Z</time></trkpt><trkpt lat="44.30526848825883" lon="7.159824109192581"><ele>883.0</ele><time>2026-04-11T17:49:10Z</time></trkpt><trkpt lat="44.30514525125681" lon="7.1599685101228765"><ele>879.0</ele><time>2026-04-11T17:49:11Z</time></trkpt><trkpt lat="44.30504879737093" lon="7.160071714356462"><ele>879.0</ele><time>2026-04-11T17:49:12Z</time></trkpt><trkpt lat="44.304972938022665" lon="7.160137510186386"><ele>879.0</ele><time>2026-04-11T17:49:13Z</time></trkpt><trkpt lat="44.304880524621545" lon="7.160191435073833"><ele>879.0</ele><time>2026-04-11T17:49:14Z</time></trkpt><trkpt lat="44.304758156563665" lon="7.160216043994394"><ele>879.0</ele><time>2026-04-11T17:49:15Z</time></trkpt><trkpt lat="44.30461785757086" lon="7.16021522986137"><ele>879.6666666666667</ele><time>2026-04-11T17:49:16Z</time></trkpt><trkpt lat="44.30445204742203" lon="7.160159441661173"><ele>880.3333333333334</ele><time>2026-04-11T17:49:17Z</time></trkpt><trkpt lat="44.30425791857364" lon="7.160130034047714"><ele>881.0</ele><time>2026-04-11T17:49:18Z</time></trkpt><trkpt lat="44.30404544241305" lon="7.1600796340640285"><ele>882.6666666666667</ele><time>2026-04-11T17:49:19Z</time></trkpt><trkpt lat="44.30382649814891" lon="7.160041039244282"><ele>884.3333333333333</ele><time>2026-04-11T17:49:20Z</time></trkpt><trkpt lat="44.303600911565184" lon="7.159997330071753"><ele>886.0</ele><time>2026-04-11T17:49:21Z</time></trkpt><trkpt lat="44.30340671178847" lon="7.159953764804215"><ele>886.0</ele><time>2026-04-11T17:49:22Z</time></trkpt><trkpt lat="44.303249997655165" lon="7.159919165635984"><ele>886.0</ele><time>2026-04-11T17:49:23Z</time></trkpt><trkpt lat="44.30310644551761" lon="7.159888842865305"><ele>886.0</ele><time>2026-04-11T17:49:24Z</time></trkpt><trkpt lat="44.302967892813534" lon="7.159853528280731"><ele>886.0</ele><time>2026-04-11T17:49:25Z</time></trkpt><trkpt lat="44.30281788265279" lon="7.159809011214088"><ele>890.0</ele><time>2026-04-11T17:49:26Z</time></trkpt><trkpt lat="44.30266841756331" lon="7.159720409898511"><ele>894.0</ele><time>2026-04-11T17:49:27Z</time></trkpt><trkpt lat="44.302515084531755" lon="7.159671401827096"><ele>898.0</ele><time>2026-04-11T17:49:28Z</time></trkpt><trkpt lat="44.30236767287357" lon="7.159597438413807"><ele>900.0</ele><time>2026-04-11T17:49:29Z</time></trkpt><trkpt lat="44.30222050078462" lon="7.159512937118086"><ele>902.0</ele><time>2026-04-11T17:49:30Z</time></trkpt><trkpt lat="44.30207817981171" lon="7.159421193989943"><ele>904.0</ele><time>2026-04-11T17:49:31Z</time></trkpt><trkpt lat="44.301946297912295" lon="7.159322737983309"><ele>904.0</ele><time>2026-04-11T17:49:32Z</time></trkpt><trkpt lat="44.301821230515365" lon="7.159223823476305"><ele>904.0000000000001</ele><time>2026-04-11T17:49:33Z</time></trkpt><trkpt lat="44.301710262315105" lon="7.159138238856396"><ele>904.0000000000001</ele><time>2026-04-11T17:49:34Z</time></trkpt><trkpt lat="44.30162392217109" lon="7.159070129273854"><ele>904.0</ele><time>2026-04-11T17:49:35Z</time></trkpt><trkpt lat="44.30156681067264" lon="7.159000590158555"><ele>904.0</ele><time>2026-04-11T17:49:36Z</time></trkpt><trkpt lat="44.3015338996318" lon="7.158906222950363"><ele>904.5</ele><time>2026-04-11T17:49:37Z</time></trkpt><trkpt lat="44.30151761090396" lon="7.1587788682874605"><ele>905.0</ele><time>2026-04-11T17:49:38Z</time></trkpt><trkpt lat="44.301521563927736" lon="7.158587580780883"><ele>905.5</ele><time>2026-04-11T17:49:39Z</time></trkpt><trkpt lat="44.30150149391143" lon="7.15836424374027"><ele>906.0</ele><time>2026-04-11T17:49:40Z</time></trkpt><trkpt lat="44.30149580115296" lon="7.158189561196553"><ele>906.0</ele><time>2026-04-11T17:49:41Z</time></trkpt><trkpt lat="44.30148090825719" lon="7.15804260899302"><ele>905.9999999999999</ele><time>2026-04-11T17:49:42Z</time></trkpt><trkpt lat="44.30145684375746" lon="7.157902318161747"><ele>905.9999999999999</ele><time>2026-04-11T17:49:43Z</time></trkpt><trkpt lat="44.301407986247355" lon="7.15776794006847"><ele>906.0</ele><time>2026-04-11T17:49:44Z</time></trkpt><trkpt lat="44.301331475739" lon="7.15762289875298"><ele>906.0</ele><time>2026-04-11T17:49:45Z</time></trkpt><trkpt lat="44.30122787198349" lon="7.157464573686786"><ele>908.0</ele><time>2026-04-11T17:49:46Z</time></trkpt><trkpt lat="44.301099212145175" lon="7.157302045952385"><ele>910.0</ele><time>2026-04-11T17:49:47Z</time></trkpt><trkpt lat="44.300948026876945" lon="7.157103273219886"><ele>912.0</ele><time>2026-04-11T17:49:48Z</time></trkpt><trkpt lat="44.30080588541446" lon="7.156911482796276"><ele>912.0</ele><time>2026-04-11T17:49:49Z</time></trkpt><trkpt lat="44.300706798903825" lon="7.15676811363366"><ele>912.0</ele><time>2026-04-11T17:49:50Z</time></trkpt><trkpt lat="44.30062834258251" lon="7.156655039579081"><ele>912.0</ele><time>2026-04-11T17:49:51Z</time></trkpt><trkpt lat="44.30055342787226" lon="7.156560926162218"><ele>912.0</ele><time>2026-04-11T17:49:52Z</time></trkpt><trkpt lat="44.3004726789644" lon="7.1564547690419005"><ele>912.0</ele><time>2026-04-11T17:49:53Z</time></trkpt><trkpt lat="44.30038734694808" lon="7.156333199025547"><ele>912.0</ele><time>2026-04-11T17:49:54Z</time></trkpt><trkpt lat="44.300306227755705" lon="7.156215812222775"><ele>912.0</ele><time>2026-04-11T17:49:55Z</time></trkpt><trkpt lat="44.30023998235843" lon="7.156120762969751"><ele>912.0</ele><time>2026-04-11T17:49:56Z</time></trkpt><trkpt lat="44.300187871251225" lon="7.156050034850503"><ele>912.0</ele><time>2026-04-11T17:49:57Z</time></trkpt><trkpt lat="44.30012927582171" lon="7.155996624982501"><ele>912.0</ele><time>2026-04-11T17:49:58Z</time></trkpt><trkpt lat="44.30005031327064" lon="7.155951673962663"><ele>912.0</ele><time>2026-04-11T17:49:59Z</time></trkpt><trkpt lat="44.299963076324154" lon="7.155929976565337"><ele>912.0</ele><time>2026-04-11T17:50:00Z</time></trkpt><trkpt lat="44.29987531400864" lon="7.155939183921701"><ele>912.0</ele><time>2026-04-11T17:50:01Z</time></trkpt><trkpt lat="44.29979147837306" lon="7.155982535059446"><ele>912.0</ele><time>2026-04-11T17:50:02Z</time></trkpt><trkpt lat="44.29969980550749" lon="7.15605625645796"><ele>913.3333333333333</ele><time>2026-04-11T17:50:03Z</time></trkpt><trkpt lat="44.299596655407086" lon="7.156170290325542"><ele>914.6666666666666</ele><time>2026-04-11T17:50:04Z</time></trkpt><trkpt lat="44.2994604449104" lon="7.156297544615384"><ele>916.0</ele><time>2026-04-11T17:50:05Z</time></trkpt><trkpt lat="44.29931382478787" lon="7.156439892666708"><ele>917.25</ele><time>2026-04-11T17:50:06Z</time></trkpt><trkpt lat="44.29919966067529" lon="7.156573286090595"><ele>918.5</ele><time>2026-04-11T17:50:07Z</time></trkpt><trkpt lat="44.29909632567698" lon="7.156667605932193"><ele>919.75</ele><time>2026-04-11T17:50:08Z</time></trkpt><trkpt lat="44.29898430026591" lon="7.156777053799276"><ele>921.0</ele><time>2026-04-11T17:50:09Z</time></trkpt><trkpt lat="44.29887943927166" lon="7.156879310269592"><ele>925.0</ele><time>2026-04-11T17:50:10Z</time></trkpt><trkpt lat="44.29878972663458" lon="7.156941056414303"><ele>928.9999999999999</ele><time>2026-04-11T17:50:11Z</time></trkpt><trkpt lat="44.29873773853145" lon="7.15702504569035"><ele>932.9999999999999</ele><time>2026-04-11T17:50:11.999Z</time></trkpt><trkpt lat="44.29865458866905" lon="7.157108616944819"><ele>937.0</ele><time>2026-04-11T17:50:13.999Z</time></trkpt><trkpt lat="44.29857318999981" lon="7.156937672178422"><ele>941.0</ele><time>2026-04-11T17:50:16.999Z</time></trkpt><trkpt lat="44.298568348059476" lon="7.156839002547271"><ele>941.0</ele><time>2026-04-11T17:50:17.999Z</time></trkpt><trkpt lat="44.29855020737916" lon="7.156728508649309"><ele>941.0</ele><time>2026-04-11T17:50:18.999Z</time></trkpt><trkpt lat="44.29847157407487" lon="7.1566003473769335"><ele>941.0</ele><time>2026-04-11T17:50:19.999Z</time></trkpt><trkpt lat="44.29840308005432" lon="7.156445867482765"><ele>941.0</ele><time>2026-04-11T17:50:20.999Z</time></trkpt><trkpt lat="44.29835294409411" lon="7.156240869586828"><ele>938.5999999999999</ele><time>2026-04-11T17:50:21.999Z</time></trkpt><trkpt lat="44.29832221170325" lon="7.156090660138835"><ele>936.1999999999999</ele><time>2026-04-11T17:50:22.999Z</time></trkpt><trkpt lat="44.29828607933838" lon="7.15601637337292"><ele>933.8000000000001</ele><time>2026-04-11T17:50:23.999Z</time></trkpt><trkpt lat="44.29821803818001" lon="7.155917597067386"><ele>931.4000000000001</ele><time>2026-04-11T17:50:26.999Z</time></trkpt><trkpt lat="44.29814874444177" lon="7.155931219595689"><ele>929.0</ele><time>2026-04-11T17:50:27.999Z</time></trkpt><trkpt lat="44.29811604289841" lon="7.156079124899417"><ele>929.0</ele><time>2026-04-11T17:50:29.999Z</time></trkpt><trkpt lat="44.29814145700491" lon="7.156169172944244"><ele>929.0</ele><time>2026-04-11T17:50:30.999Z</time></trkpt><trkpt lat="44.29816511988813" lon="7.156330664945184"><ele>929.0</ele><time>2026-04-11T17:50:31.999Z</time></trkpt><trkpt lat="44.29819283243589" lon="7.156536763540203"><ele>929.0</ele><time>2026-04-11T17:50:32.999Z</time></trkpt><trkpt lat="44.29824748587198" lon="7.15675271080236"><ele>931.4000000000001</ele><time>2026-04-11T17:50:33.999Z</time></trkpt><trkpt lat="44.29828642646257" lon="7.1569135302151725"><ele>933.8000000000001</ele><time>2026-04-11T17:50:34.999Z</time></trkpt><trkpt lat="44.298323544679704" lon="7.157050457293016"><ele>936.1999999999999</ele><time>2026-04-11T17:50:35.999Z</time></trkpt><trkpt lat="44.29835977660523" lon="7.157156214737722"><ele>938.5999999999999</ele><time>2026-04-11T17:50:36.999Z</time></trkpt><trkpt lat="44.29834220667151" lon="7.157280687213015"><ele>941.0</ele><time>2026-04-11T17:50:38.999Z</time></trkpt><trkpt lat="44.29825356939121" lon="7.157252768107304"><ele>941.0</ele><time>2026-04-11T17:50:40.999Z</time></trkpt><trkpt lat="44.29824434049775" lon="7.1571090643651925"><ele>940.9999999999999</ele><time>2026-04-11T17:50:42.999Z</time></trkpt><trkpt lat="44.298247173750674" lon="7.157018685521434"><ele>940.9999999999999</ele><time>2026-04-11T17:50:43.999Z</time></trkpt><trkpt lat="44.298196594156245" lon="7.156864577080408"><ele>941.0</ele><time>2026-04-11T17:50:44.999Z</time></trkpt><trkpt lat="44.298130119587405" lon="7.156679395788082"><ele>941.0</ele><time>2026-04-11T17:50:45.999Z</time></trkpt><trkpt lat="44.298075987921685" lon="7.156513756659544"><ele>944.8333333333334</ele><time>2026-04-11T17:50:46.999Z</time></trkpt><trkpt lat="44.29804003132905" lon="7.1564037317197355"><ele>948.6666666666667</ele><time>2026-04-11T17:50:47.999Z</time></trkpt><trkpt lat="44.297998055989844" lon="7.1563296404738805"><ele>952.5</ele><time>2026-04-11T17:50:48.999Z</time></trkpt><trkpt lat="44.29794554258619" lon="7.156229489935269"><ele>956.3333333333333</ele><time>2026-04-11T17:50:50.999Z</time></trkpt><trkpt lat="44.29788176995748" lon="7.156236895136691"><ele>960.1666666666666</ele><time>2026-04-11T17:50:51.999Z</time></trkpt><trkpt lat="44.29784234351785" lon="7.156321361771089"><ele>964.0</ele><time>2026-04-11T17:50:52.999Z</time></trkpt><trkpt lat="44.29787178475948" lon="7.156516948571379"><ele>968.2</ele><time>2026-04-11T17:50:54.999Z</time></trkpt><trkpt lat="44.297925171783994" lon="7.1566085299013285"><ele>972.4000000000001</ele><time>2026-04-11T17:50:55.999Z</time></trkpt><trkpt lat="44.29796574796302" lon="7.156769793707998"><ele>976.6</ele><time>2026-04-11T17:50:56.999Z</time></trkpt><trkpt lat="44.29803717850007" lon="7.15693649221406"><ele>980.8</ele><time>2026-04-11T17:50:57.999Z</time></trkpt><trkpt lat="44.29810875911149" lon="7.157039579838648"><ele>985.0</ele><time>2026-04-11T17:50:58.999Z</time></trkpt><trkpt lat="44.29814644653328" lon="7.1571194255697606"><ele>985.0</ele><time>2026-04-11T17:50:59.999Z</time></trkpt><trkpt lat="44.29811983912871" lon="7.15722598263778"><ele>985.0</ele><time>2026-04-11T17:51:01.999Z</time></trkpt><trkpt lat="44.29803501949312" lon="7.157219539984457"><ele>985.0</ele><time>2026-04-11T17:51:04Z</time></trkpt><trkpt lat="44.29801396022288" lon="7.157054177264678"><ele>985.0</ele><time>2026-04-11T17:51:06Z</time></trkpt><trkpt lat="44.29798195678416" lon="7.156934936631465"><ele>985.0</ele><time>2026-04-11T17:51:07Z</time></trkpt><trkpt lat="44.29792276529082" lon="7.1567797816211565"><ele>985.0</ele><time>2026-04-11T17:51:08Z</time></trkpt><trkpt lat="44.29785591582535" lon="7.156662021153838"><ele>985.0</ele><time>2026-04-11T17:51:09Z</time></trkpt><trkpt lat="44.297812903953684" lon="7.156543631124773"><ele>985.0</ele><time>2026-04-11T17:51:11Z</time></trkpt><trkpt lat="44.297716695085356" lon="7.156534240736157"><ele>985.0</ele><time>2026-04-11T17:51:13Z</time></trkpt><trkpt lat="44.29766226022734" lon="7.156675196301459"><ele>985.0</ele><time>2026-04-11T17:51:15Z</time></trkpt><trkpt lat="44.29770598809553" lon="7.156774696324511"><ele>985.0</ele><time>2026-04-11T17:51:16Z</time></trkpt><trkpt lat="44.29775703831937" lon="7.156879201315445"><ele>985.0</ele><time>2026-04-11T17:51:17Z</time></trkpt><trkpt lat="44.29780543159076" lon="7.157032027956075"><ele>985.0</ele><time>2026-04-11T17:51:18Z</time></trkpt><trkpt lat="44.297866084764905" lon="7.157192684674836"><ele>985.0</ele><time>2026-04-11T17:51:19Z</time></trkpt><trkpt lat="44.297908386655195" lon="7.157299853162874"><ele>985.0</ele><time>2026-04-11T17:51:20Z</time></trkpt><trkpt lat="44.29794680884887" lon="7.157428806127254"><ele>985.0</ele><time>2026-04-11T17:51:22Z</time></trkpt><trkpt lat="44.29788680867276" lon="7.157487339591604"><ele>985.0</ele><time>2026-04-11T17:51:24Z</time></trkpt><trkpt lat="44.29779344203893" lon="7.157414809590684"><ele>985.0</ele><time>2026-04-11T17:51:26Z</time></trkpt><trkpt lat="44.29778172986067" lon="7.157295377344357"><ele>985.0</ele><time>2026-04-11T17:51:27Z</time></trkpt><trkpt lat="44.297734019511545" lon="7.157153759733033"><ele>985.0</ele><time>2026-04-11T17:51:28Z</time></trkpt><trkpt lat="44.29766767320675" lon="7.156989383325865"><ele>985.0</ele><time>2026-04-11T17:51:29Z</time></trkpt><trkpt lat="44.29760535489306" lon="7.156857705699076"><ele>985.0</ele><time>2026-04-11T17:51:30Z</time></trkpt><trkpt lat="44.29757818267908" lon="7.156776291687491"><ele>985.0</ele><time>2026-04-11T17:51:31Z</time></trkpt><trkpt lat="44.29750659648451" lon="7.156727011146744"><ele>985.0</ele><time>2026-04-11T17:51:33Z</time></trkpt><trkpt lat="44.29742997999322" lon="7.15682706927665"><ele>985.0</ele><time>2026-04-11T17:51:35Z</time></trkpt><trkpt lat="44.29747881407668" lon="7.1569977465734445"><ele>985.0</ele><time>2026-04-11T17:51:37Z</time></trkpt><trkpt lat="44.297528494653065" lon="7.1570904734404674"><ele>985.0</ele><time>2026-04-11T17:51:38Z</time></trkpt><trkpt lat="44.29760063490085" lon="7.157211523026208"><ele>985.0</ele><time>2026-04-11T17:51:39Z</time></trkpt><trkpt lat="44.29762525848088" lon="7.157324468451157"><ele>985.0</ele><time>2026-04-11T17:51:40Z</time></trkpt><trkpt lat="44.29758279936593" lon="7.157445183764175"><ele>985.0</ele><time>2026-04-11T17:51:43Z</time></trkpt><trkpt lat="44.29748028385195" lon="7.157371007893847"><ele>985.0</ele><time>2026-04-11T17:51:45Z</time></trkpt><trkpt lat="44.29748296843997" lon="7.157261799054385"><ele>985.0</ele><time>2026-04-11T17:51:46Z</time></trkpt><trkpt lat="44.297449022072634" lon="7.157150941960769"><ele>985.0</ele><time>2026-04-11T17:51:47Z</time></trkpt><trkpt lat="44.297385707361144" lon="7.157003771934503"><ele>985.0</ele><time>2026-04-11T17:51:48Z</time></trkpt><trkpt lat="44.297318762899145" lon="7.156817054735727"><ele>985.0</ele><time>2026-04-11T17:51:49Z</time></trkpt><trkpt lat="44.297248116035604" lon="7.1566259282872515"><ele>984.2</ele><time>2026-04-11T17:51:50Z</time></trkpt><trkpt lat="44.2971865175877" lon="7.156468492472256"><ele>983.4</ele><time>2026-04-11T17:51:51Z</time></trkpt><trkpt lat="44.297152645603155" lon="7.156361557378926"><ele>982.5999999999999</ele><time>2026-04-11T17:51:52Z</time></trkpt><trkpt lat="44.29710823087801" lon="7.156225286151152"><ele>981.8</ele><time>2026-04-11T17:51:54Z</time></trkpt><trkpt lat="44.297031801788975" lon="7.156163335199852"><ele>981.0</ele><time>2026-04-11T17:51:56Z</time></trkpt><trkpt lat="44.29696417184846" lon="7.15620786020318"><ele>981.0</ele><time>2026-04-11T17:51:57Z</time></trkpt><trkpt lat="44.296929773500885" lon="7.156311987585998"><ele>980.9999999999999</ele><time>2026-04-11T17:51:58Z</time></trkpt><trkpt lat="44.29697998449556" lon="7.156417728650817"><ele>980.9999999999999</ele><time>2026-04-11T17:51:59Z</time></trkpt><trkpt lat="44.29702108177418" lon="7.156516366101126"><ele>981.0</ele><time>2026-04-11T17:52:00Z</time></trkpt><trkpt lat="44.297066577090455" lon="7.156679596971518"><ele>981.0</ele><time>2026-04-11T17:52:01Z</time></trkpt><trkpt lat="44.297136231981526" lon="7.156889209452095"><ele>982.3333333333333</ele><time>2026-04-11T17:52:02Z</time></trkpt><trkpt lat="44.29721378309398" lon="7.157126126288429"><ele>983.6666666666666</ele><time>2026-04-11T17:52:03Z</time></trkpt><trkpt lat="44.29728309398336" lon="7.157355638251384"><ele>985.0</ele><time>2026-04-11T17:52:04Z</time></trkpt><trkpt lat="44.297341121113824" lon="7.157527505098449"><ele>987.0</ele><time>2026-04-11T17:52:05Z</time></trkpt><trkpt lat="44.29738335473547" lon="7.157650772751032"><ele>989.0</ele><time>2026-04-11T17:52:06Z</time></trkpt><trkpt lat="44.29741557589821" lon="7.157748514408535"><ele>991.0</ele><time>2026-04-11T17:52:07Z</time></trkpt><trkpt lat="44.297439305340674" lon="7.1578555742510055"><ele>993.0</ele><time>2026-04-11T17:52:09Z</time></trkpt><trkpt lat="44.297384440924915" lon="7.15794763108818"><ele>995.0</ele><time>2026-04-11T17:52:11Z</time></trkpt><trkpt lat="44.29728846478502" lon="7.157867658513314"><ele>995.0</ele><time>2026-04-11T17:52:13Z</time></trkpt><trkpt lat="44.29728659429174" lon="7.157742487649297"><ele>995.0</ele><time>2026-04-11T17:52:14Z</time></trkpt><trkpt lat="44.297232022111636" lon="7.157623767772459"><ele>995.0</ele><time>2026-04-11T17:52:15Z</time></trkpt><trkpt lat="44.29716490342714" lon="7.15748176835818"><ele>995.0</ele><time>2026-04-11T17:52:16Z</time></trkpt><trkpt lat="44.29707210455075" lon="7.1573261392710235"><ele>1001.0</ele><time>2026-04-11T17:52:17Z</time></trkpt><trkpt lat="44.29698269223979" lon="7.157127846095625"><ele>1007.0</ele><time>2026-04-11T17:52:18Z</time></trkpt><trkpt lat="44.296884061286896" lon="7.156923199267397"><ele>1013.0</ele><time>2026-04-11T17:52:19Z</time></trkpt><trkpt lat="44.29679953651218" lon="7.15675452173555"><ele>1013.0000000000001</ele><time>2026-04-11T17:52:20Z</time></trkpt><trkpt lat="44.29674885904232" lon="7.156630259668776"><ele>1013.0</ele><time>2026-04-11T17:52:21Z</time></trkpt><trkpt lat="44.296698432132914" lon="7.156536305310993"><ele>1013.0</ele><time>2026-04-11T17:52:21.999Z</time></trkpt><trkpt lat="44.29666769971831" lon="7.156447508674482"><ele>1013.0</ele><time>2026-04-11T17:52:22.999Z</time></trkpt><trkpt lat="44.29665837405938" lon="7.156309973623636"><ele>1013.0000000000001</ele><time>2026-04-11T17:52:24.999Z</time></trkpt><trkpt lat="44.29662714003564" lon="7.156212824598599"><ele>1013.0</ele><time>2026-04-11T17:52:26.999Z</time></trkpt><trkpt lat="44.29653273709026" lon="7.156235222554895"><ele>1013.0</ele><time>2026-04-11T17:52:29.999Z</time></trkpt><trkpt lat="44.29650499178985" lon="7.156344536160959"><ele>1013.0</ele><time>2026-04-11T17:52:31.999Z</time></trkpt><trkpt lat="44.296573221055574" lon="7.156506917495896"><ele>1013.0</ele><time>2026-04-11T17:52:33.999Z</time></trkpt><trkpt lat="44.29662685608253" lon="7.156639060646223"><ele>1013.0</ele><time>2026-04-11T17:52:34.999Z</time></trkpt><trkpt lat="44.29669313922851" lon="7.156794386352283"><ele>1013.0</ele><time>2026-04-11T17:52:35.999Z</time></trkpt><trkpt lat="44.29674714881557" lon="7.1569703092019346"><ele>1013.0</ele><time>2026-04-11T17:52:36.999Z</time></trkpt><trkpt lat="44.29677736387497" lon="7.1571216572565675"><ele>1013.0</ele><time>2026-04-11T17:52:37.999Z</time></trkpt><trkpt lat="44.296794680134205" lon="7.157295558747019"><ele>1013.0</ele><time>2026-04-11T17:52:38.999Z</time></trkpt><trkpt lat="44.29682869498512" lon="7.157495736962394"><ele>1016.4</ele><time>2026-04-11T17:52:39.999Z</time></trkpt><trkpt lat="44.29685240573986" lon="7.157699434386637"><ele>1019.8</ele><time>2026-04-11T17:52:40.999Z</time></trkpt><trkpt lat="44.29687071814595" lon="7.157847481367468"><ele>1023.2</ele><time>2026-04-11T17:52:41.999Z</time></trkpt><trkpt lat="44.296897361864325" lon="7.157973301388532"><ele>1026.6</ele><time>2026-04-11T17:52:42.999Z</time></trkpt><trkpt lat="44.296938837728405" lon="7.158056994806812"><ele>1030.0</ele><time>2026-04-11T17:52:43.999Z</time></trkpt><trkpt lat="44.296977416395485" lon="7.1581410362422195"><ele>1030.0</ele><time>2026-04-11T17:52:44.999Z</time></trkpt><trkpt lat="44.29699768483469" lon="7.158252108277899"><ele>1030.0</ele><time>2026-04-11T17:52:46.999Z</time></trkpt><trkpt lat="44.29690831568942" lon="7.158312703922671"><ele>1030.0</ele><time>2026-04-11T17:52:48.999Z</time></trkpt><trkpt lat="44.29680603381083" lon="7.158158099459799"><ele>1030.0</ele><time>2026-04-11T17:52:50.999Z</time></trkpt><trkpt lat="44.296705460316254" lon="7.158068033999376"><ele>1030.0</ele><time>2026-04-11T17:52:51.999Z</time></trkpt><trkpt lat="44.29657691200009" lon="7.157953091085609"><ele>1030.0</ele><time>2026-04-11T17:52:52.999Z</time></trkpt><trkpt lat="44.296466145680206" lon="7.157832646394385"><ele>1030.0</ele><time>2026-04-11T17:52:53.999Z</time></trkpt><trkpt lat="44.29636462521675" lon="7.157686592491648"><ele>1030.0</ele><time>2026-04-11T17:52:54.999Z</time></trkpt><trkpt lat="44.296272604307674" lon="7.157540820189049"><ele>1027.4</ele><time>2026-04-11T17:52:55.999Z</time></trkpt><trkpt lat="44.2961846466013" lon="7.157402805598822"><ele>1024.8</ele><time>2026-04-11T17:52:56.999Z</time></trkpt><trkpt lat="44.29611146974051" lon="7.157287983653097"><ele>1022.2</ele><time>2026-04-11T17:52:57.999Z</time></trkpt><trkpt lat="44.29605557139811" lon="7.157205779716561"><ele>1019.6</ele><time>2026-04-11T17:52:58.999Z</time></trkpt><trkpt lat="44.296011981842796" lon="7.157136795145335"><ele>1017.0</ele><time>2026-04-11T17:52:59.999Z</time></trkpt><trkpt lat="44.295948914819924" lon="7.157057914295067"><ele>1017.0</ele><time>2026-04-11T17:53:01.999Z</time></trkpt><trkpt lat="44.29587865798134" lon="7.157063304134768"><ele>1017.0</ele><time>2026-04-11T17:53:24Z</time></trkpt><trkpt lat="44.295997874856965" lon="7.157072830131675"><ele>1017.0</ele><time>2026-04-11T17:53:41Z</time></trkpt><trkpt lat="44.29610182149409" lon="7.1571221674896774"><ele>1017.0</ele><time>2026-04-11T17:53:44Z</time></trkpt><trkpt lat="44.296138563271604" lon="7.157332368362707"><ele>1019.6</ele><time>2026-04-11T17:53:45Z</time></trkpt><trkpt lat="44.29618488536091" lon="7.157407148601625"><ele>1022.2</ele><time>2026-04-11T17:53:46Z</time></trkpt><trkpt lat="44.29624065964054" lon="7.15749069881988"><ele>1024.8</ele><time>2026-04-11T17:53:47Z</time></trkpt><trkpt lat="44.29609427629368" lon="7.157637886672763"><ele>1027.4</ele><time>2026-04-11T17:53:48Z</time></trkpt><trkpt lat="44.296121383595676" lon="7.157787499946672"><ele>1030.0</ele><time>2026-04-11T17:53:50Z</time></trkpt><trkpt lat="44.29642665744478" lon="7.157816507599356"><ele>1030.0</ele><time>2026-04-11T17:53:51Z</time></trkpt><trkpt lat="44.29653405659002" lon="7.1579448181718"><ele>1030.0</ele><time>2026-04-11T17:53:52Z</time></trkpt><trkpt lat="44.29660993835173" lon="7.158021162481541"><ele>1030.0</ele><time>2026-04-11T17:53:53Z</time></trkpt><trkpt lat="44.29667301208407" lon="7.158082922876284"><ele>1030.0</ele><time>2026-04-11T17:53:54Z</time></trkpt><trkpt lat="44.29673509595332" lon="7.158145005981432"><ele>1030.0</ele><time>2026-04-11T17:53:55Z</time></trkpt><trkpt lat="44.29678977217084" lon="7.158201186948137"><ele>1030.0</ele><time>2026-04-11T17:53:56Z</time></trkpt><trkpt lat="44.29684323544106" lon="7.158254546080771"><ele>1030.0</ele><time>2026-04-11T17:53:57Z</time></trkpt><trkpt lat="44.29692850433101" lon="7.158317285817954"><ele>1030.0</ele><time>2026-04-11T17:53:59Z</time></trkpt><trkpt lat="44.296995366848705" lon="7.158287517531259"><ele>1030.0</ele><time>2026-04-11T17:54:01Z</time></trkpt><trkpt lat="44.29699893410015" lon="7.158128410366205"><ele>1030.0</ele><time>2026-04-11T17:54:03Z</time></trkpt><trkpt lat="44.29693052900184" lon="7.158005259226614"><ele>1030.0</ele><time>2026-04-11T17:54:04Z</time></trkpt><trkpt lat="44.29687438916687" lon="7.157875483151044"><ele>1030.0</ele><time>2026-04-11T17:54:05Z</time></trkpt><trkpt lat="44.29684866584406" lon="7.157713247878608"><ele>1030.0</ele><time>2026-04-11T17:54:06Z</time></trkpt><trkpt lat="44.29683160512091" lon="7.157543923733108"><ele>1030.0</ele><time>2026-04-11T17:54:07Z</time></trkpt><trkpt lat="44.29683308425193" lon="7.157400537640224"><ele>1027.1666666666665</ele><time>2026-04-11T17:54:08Z</time></trkpt><trkpt lat="44.29682945292102" lon="7.157279848328616"><ele>1024.3333333333333</ele><time>2026-04-11T17:54:09Z</time></trkpt><trkpt lat="44.29680724856659" lon="7.157173119073447"><ele>1021.5</ele><time>2026-04-11T17:54:10Z</time></trkpt><trkpt lat="44.29678826054151" lon="7.1570704229967355"><ele>1018.6666666666667</ele><time>2026-04-11T17:54:11Z</time></trkpt><trkpt lat="44.29676606096126" lon="7.156969024146902"><ele>1015.8333333333334</ele><time>2026-04-11T17:54:12Z</time></trkpt><trkpt lat="44.29674391523788" lon="7.156878170457428"><ele>1013.0</ele><time>2026-04-11T17:54:13Z</time></trkpt><trkpt lat="44.29671419127227" lon="7.156794341421945"><ele>1013.0</ele><time>2026-04-11T17:54:14Z</time></trkpt><trkpt lat="44.29666282915192" lon="7.1567098264165185"><ele>1013.0</ele><time>2026-04-11T17:54:16Z</time></trkpt><trkpt lat="44.29659650012905" lon="7.156728734615736"><ele>1013.0</ele><time>2026-04-11T17:54:18Z</time></trkpt><trkpt lat="44.296540958245956" lon="7.156442178416612"><ele>1013.0</ele><time>2026-04-11T17:54:19Z</time></trkpt><trkpt lat="44.296487750404864" lon="7.156335004494783"><ele>1013.0000000000001</ele><time>2026-04-11T17:54:21Z</time></trkpt><trkpt lat="44.29652954630062" lon="7.156229048173342"><ele>1013.0</ele><time>2026-04-11T17:54:23Z</time></trkpt><trkpt lat="44.29659209357724" lon="7.156256652411633"><ele>1013.0</ele><time>2026-04-11T17:54:26Z</time></trkpt><trkpt lat="44.29666468425469" lon="7.156342785816048"><ele>1013.0</ele><time>2026-04-11T17:57:18.999Z</time></trkpt><trkpt lat="44.29664485948494" lon="7.156469201993767"><ele>1013.0000000000001</ele><time>2026-04-11T17:57:19.999Z</time></trkpt><trkpt lat="44.296682994293135" lon="7.156568403237234"><ele>1013.0</ele><time>2026-04-11T17:57:21Z</time></trkpt><trkpt lat="44.29676035577045" lon="7.156692545692698"><ele>1013.0</ele><time>2026-04-11T17:57:24Z</time></trkpt><trkpt lat="44.29680609684204" lon="7.156821944359337"><ele>1013.0</ele><time>2026-04-11T17:57:25Z</time></trkpt><trkpt lat="44.296879264784856" lon="7.156947586943982"><ele>1013.0</ele><time>2026-04-11T17:57:26Z</time></trkpt><trkpt lat="44.296951909327746" lon="7.157097609207471"><ele>1013.0</ele><time>2026-04-11T17:57:27Z</time></trkpt><trkpt lat="44.297023891130195" lon="7.157249974205882"><ele>1016.4</ele><time>2026-04-11T17:57:28Z</time></trkpt><trkpt lat="44.29708848214032" lon="7.157387523020732"><ele>1019.8</ele><time>2026-04-11T17:57:29Z</time></trkpt><trkpt lat="44.29714197864169" lon="7.157502557427357"><ele>1023.2</ele><time>2026-04-11T17:57:30Z</time></trkpt><trkpt lat="44.29719446931419" lon="7.157605661153672"><ele>1026.6</ele><time>2026-04-11T17:57:31Z</time></trkpt><trkpt lat="44.297238033770924" lon="7.157698410519535"><ele>1030.0</ele><time>2026-04-11T17:57:32Z</time></trkpt><trkpt lat="44.29727757280542" lon="7.157784097383538"><ele>1024.1666666666665</ele><time>2026-04-11T17:57:33Z</time></trkpt><trkpt lat="44.29731231245441" lon="7.157872081281727"><ele>1018.3333333333333</ele><time>2026-04-11T17:57:34Z</time></trkpt><trkpt lat="44.29736205123107" lon="7.157971044910338"><ele>1012.5</ele><time>2026-04-11T17:57:36Z</time></trkpt><trkpt lat="44.29744919964993" lon="7.157964209241807"><ele>1006.6666666666667</ele><time>2026-04-11T17:57:38Z</time></trkpt><trkpt lat="44.29746876523356" lon="7.157871346591832"><ele>1000.8333333333334</ele><time>2026-04-11T17:57:39Z</time></trkpt><trkpt lat="44.29743681713395" lon="7.1576970643189"><ele>995.0</ele><time>2026-04-11T17:57:41Z</time></trkpt><trkpt lat="44.29739743422465" lon="7.157584203912488"><ele>995.0</ele><time>2026-04-11T17:57:42Z</time></trkpt><trkpt lat="44.297353553167525" lon="7.157456127732854"><ele>995.0</ele><time>2026-04-11T17:57:43Z</time></trkpt><trkpt lat="44.29729750071839" lon="7.157315996704183"><ele>995.0</ele><time>2026-04-11T17:57:44Z</time></trkpt><trkpt lat="44.2972450005225" lon="7.157109779902442"><ele>995.0</ele><time>2026-04-11T17:57:45Z</time></trkpt><trkpt lat="44.29717896964089" lon="7.156956989187667"><ele>992.2</ele><time>2026-04-11T17:57:46Z</time></trkpt><trkpt lat="44.29713209186543" lon="7.156802488114771"><ele>989.4</ele><time>2026-04-11T17:57:47Z</time></trkpt><trkpt lat="44.297085217997044" lon="7.156666756919493"><ele>986.5999999999999</ele><time>2026-04-11T17:57:48Z</time></trkpt><trkpt lat="44.297047243796" lon="7.156551854354647"><ele>983.8</ele><time>2026-04-11T17:57:49Z</time></trkpt><trkpt lat="44.29702157622406" lon="7.1564520716726285"><ele>981.0</ele><time>2026-04-11T17:57:50Z</time></trkpt><trkpt lat="44.29698343556795" lon="7.1563141141982785"><ele>981.0</ele><time>2026-04-11T17:57:52Z</time></trkpt><trkpt lat="44.29702316184323" lon="7.156229095901378"><ele>980.9999999999999</ele><time>2026-04-11T17:57:54Z</time></trkpt><trkpt lat="44.29711178715842" lon="7.156260022815478"><ele>980.9999999999999</ele><time>2026-04-11T17:57:56Z</time></trkpt><trkpt lat="44.29713257074366" lon="7.156363814925848"><ele>981.0</ele><time>2026-04-11T17:57:57Z</time></trkpt><trkpt lat="44.29717062119533" lon="7.156484406367235"><ele>981.0</ele><time>2026-04-11T17:57:58Z</time></trkpt><trkpt lat="44.29723309569869" lon="7.156631539340648"><ele>982.0</ele><time>2026-04-11T17:57:59Z</time></trkpt><trkpt lat="44.29729567857724" lon="7.156813489927042"><ele>983.0</ele><time>2026-04-11T17:58:00Z</time></trkpt><trkpt lat="44.297360559993024" lon="7.156964872119654"><ele>984.0</ele><time>2026-04-11T17:58:01Z</time></trkpt><trkpt lat="44.297403608297564" lon="7.157082972066804"><ele>985.0</ele><time>2026-04-11T17:58:02Z</time></trkpt><trkpt lat="44.297442885319974" lon="7.157198864590876"><ele>984.9999999999999</ele><time>2026-04-11T17:58:03Z</time></trkpt><trkpt lat="44.29747449281252" lon="7.157300117945461"><ele>985.0</ele><time>2026-04-11T17:58:04Z</time></trkpt><trkpt lat="44.297518253340776" lon="7.157436476723798"><ele>985.0</ele><time>2026-04-11T17:58:06Z</time></trkpt><trkpt lat="44.297586989551846" lon="7.157501772958674"><ele>985.0</ele><time>2026-04-11T17:58:08Z</time></trkpt><trkpt lat="44.297644804415" lon="7.157455462365815"><ele>984.9999999999999</ele><time>2026-04-11T17:58:09Z</time></trkpt><trkpt lat="44.29766973385997" lon="7.157340031732061"><ele>985.0</ele><time>2026-04-11T17:58:10Z</time></trkpt><trkpt lat="44.297650615103045" lon="7.157242770464967"><ele>984.9999999999999</ele><time>2026-04-11T17:58:11Z</time></trkpt><trkpt lat="44.2975975986138" lon="7.157149049535113"><ele>985.0</ele><time>2026-04-11T17:58:12Z</time></trkpt><trkpt lat="44.29755513383434" lon="7.157062723656127"><ele>985.0</ele><time>2026-04-11T17:58:13Z</time></trkpt><trkpt lat="44.2975144961239" lon="7.156980260583341"><ele>985.0</ele><time>2026-04-11T17:58:14Z</time></trkpt><trkpt lat="44.297452738773075" lon="7.156866582992197"><ele>984.9999999999999</ele><time>2026-04-11T17:58:16Z</time></trkpt><trkpt lat="44.29748142760174" lon="7.156781162479584"><ele>985.0</ele><time>2026-04-11T17:58:18Z</time></trkpt><trkpt lat="44.29757170932759" lon="7.1567917647106505"><ele>984.9999999999999</ele><time>2026-04-11T17:58:20Z</time></trkpt><trkpt lat="44.29761665423629" lon="7.156952621525641"><ele>985.0</ele><time>2026-04-11T17:58:22Z</time></trkpt><trkpt lat="44.29766364222261" lon="7.15703732861032"><ele>985.0</ele><time>2026-04-11T17:58:23Z</time></trkpt><trkpt lat="44.297701654497054" lon="7.1571357532847415"><ele>985.0</ele><time>2026-04-11T17:58:24Z</time></trkpt><trkpt lat="44.29773867669552" lon="7.157240067481277"><ele>984.9999999999999</ele><time>2026-04-11T17:58:25Z</time></trkpt><trkpt lat="44.29777292599194" lon="7.15733390695386"><ele>985.0</ele><time>2026-04-11T17:58:26Z</time></trkpt><trkpt lat="44.297822352876594" lon="7.157461957141461"><ele>984.9999999999999</ele><time>2026-04-11T17:58:28Z</time></trkpt><trkpt lat="44.29789261877355" lon="7.157531015383896"><ele>985.0</ele><time>2026-04-11T17:58:30Z</time></trkpt><trkpt lat="44.297952405992625" lon="7.157480036192796"><ele>985.0</ele><time>2026-04-11T17:58:31Z</time></trkpt><trkpt lat="44.29798076446599" lon="7.1573840467644825"><ele>985.0</ele><time>2026-04-11T17:58:32Z</time></trkpt><trkpt lat="44.29796126174403" lon="7.157274106449346"><ele>984.9999999999999</ele><time>2026-04-11T17:58:33Z</time></trkpt><trkpt lat="44.29788647201727" lon="7.157180565671209"><ele>985.0</ele><time>2026-04-11T17:58:34Z</time></trkpt><trkpt lat="44.297840443402464" lon="7.157074625573679"><ele>984.9999999999999</ele><time>2026-04-11T17:58:35Z</time></trkpt><trkpt lat="44.297807355257135" lon="7.156934429763107"><ele>985.0</ele><time>2026-04-11T17:58:36Z</time></trkpt><trkpt lat="44.29776591958099" lon="7.156820085086639"><ele>985.0</ele><time>2026-04-11T17:58:37Z</time></trkpt><trkpt lat="44.297733124901235" lon="7.156735419085814"><ele>985.0</ele><time>2026-04-11T17:58:38Z</time></trkpt><trkpt lat="44.29769577886562" lon="7.156626718147895"><ele>984.9999999999999</ele><time>2026-04-11T17:58:40Z</time></trkpt><trkpt lat="44.29776391346448" lon="7.1565816366839785"><ele>985.0</ele><time>2026-04-11T17:58:42Z</time></trkpt><trkpt lat="44.29785735425518" lon="7.15665606967618"><ele>984.9999999999999</ele><time>2026-04-11T17:58:44Z</time></trkpt><trkpt lat="44.297877857012544" lon="7.15676267239378"><ele>985.0</ele><time>2026-04-11T17:58:45Z</time></trkpt><trkpt lat="44.29793255634894" lon="7.156865445855614"><ele>985.0</ele><time>2026-04-11T17:58:46Z</time></trkpt><trkpt lat="44.29797293645363" lon="7.1569884192880755"><ele>985.0</ele><time>2026-04-11T17:58:47Z</time></trkpt><trkpt lat="44.29800162118484" lon="7.157086709261723"><ele>984.9999999999999</ele><time>2026-04-11T17:58:48Z</time></trkpt><trkpt lat="44.298037040455434" lon="7.15722553929613"><ele>985.0</ele><time>2026-04-11T17:58:50Z</time></trkpt><trkpt lat="44.29811377863855" lon="7.157282777876649"><ele>984.9999999999999</ele><time>2026-04-11T17:58:52Z</time></trkpt><trkpt lat="44.29818401344785" lon="7.157149768533605"><ele>985.0</ele><time>2026-04-11T17:58:54Z</time></trkpt><trkpt lat="44.298163904422495" lon="7.157053672336462"><ele>985.0</ele><time>2026-04-11T17:58:54.999Z</time></trkpt><trkpt lat="44.29808665460969" lon="7.156988693338722"><ele>985.0</ele><time>2026-04-11T17:58:55.999Z</time></trkpt><trkpt lat="44.29805462428252" lon="7.1568902977851145"><ele>984.9999999999999</ele><time>2026-04-11T17:58:56.999Z</time></trkpt><trkpt lat="44.298015097358046" lon="7.156796589060132"><ele>985.0</ele><time>2026-04-11T17:58:57.999Z</time></trkpt><trkpt lat="44.297973643301944" lon="7.1566817428864145"><ele>984.9999999999999</ele><time>2026-04-11T17:58:58.999Z</time></trkpt><trkpt lat="44.29793421317687" lon="7.156567196040529"><ele>985.0</ele><time>2026-04-11T17:58:59.999Z</time></trkpt><trkpt lat="44.297902581226246" lon="7.156480770186916"><ele>985.0</ele><time>2026-04-11T17:59:00.999Z</time></trkpt><trkpt lat="44.29785673548393" lon="7.156368697842226"><ele>985.0</ele><time>2026-04-11T17:59:02.999Z</time></trkpt><trkpt lat="44.297917608961576" lon="7.156287948235454"><ele>984.9999999999999</ele><time>2026-04-11T17:59:04.999Z</time></trkpt><trkpt lat="44.2980131685166" lon="7.1563548189493895"><ele>985.0</ele><time>2026-04-11T17:59:06.999Z</time></trkpt><trkpt lat="44.29802983073324" lon="7.156465840778199"><ele>985.0</ele><time>2026-04-11T17:59:07.999Z</time></trkpt><trkpt lat="44.29806515899434" lon="7.156592546511229"><ele>985.0</ele><time>2026-04-11T17:59:08.999Z</time></trkpt><trkpt lat="44.29812998162568" lon="7.156753740426729"><ele>985.0</ele><time>2026-04-11T17:59:09.999Z</time></trkpt><trkpt lat="44.298185451603125" lon="7.156920093141609"><ele>985.0</ele><time>2026-04-11T17:59:10.999Z</time></trkpt><trkpt lat="44.29821574004065" lon="7.15703334974239"><ele>985.0</ele><time>2026-04-11T17:59:11.999Z</time></trkpt><trkpt lat="44.29824166017952" lon="7.157122738494245"><ele>977.6666666666666</ele><time>2026-04-11T17:59:12.999Z</time></trkpt><trkpt lat="44.29824305491459" lon="7.157250703667859"><ele>970.3333333333333</ele><time>2026-04-11T17:59:14.999Z</time></trkpt><trkpt lat="44.29833107598448" lon="7.157288026422472"><ele>963.0</ele><time>2026-04-11T17:59:16.999Z</time></trkpt><trkpt lat="44.29840181257437" lon="7.157203490624993"><ele>955.6666666666667</ele><time>2026-04-11T17:59:18.999Z</time></trkpt><trkpt lat="44.29839276637499" lon="7.1571021179849605"><ele>948.3333333333334</ele><time>2026-04-11T17:59:19.999Z</time></trkpt><trkpt lat="44.298329843863236" lon="7.15700838072119"><ele>941.0</ele><time>2026-04-11T17:59:20.999Z</time></trkpt><trkpt lat="44.29830293010454" lon="7.156888764769833"><ele>941.0</ele><time>2026-04-11T17:59:21.999Z</time></trkpt><trkpt lat="44.29826951590071" lon="7.156764001133636"><ele>940.9999999999999</ele><time>2026-04-11T17:59:22.999Z</time></trkpt><trkpt lat="44.29824042136646" lon="7.156635437842744"><ele>940.9999999999999</ele><time>2026-04-11T17:59:23.999Z</time></trkpt><trkpt lat="44.298222297378715" lon="7.156504103623713"><ele>941.0</ele><time>2026-04-11T17:59:24.999Z</time></trkpt><trkpt lat="44.29820472910566" lon="7.156374050687205"><ele>941.0</ele><time>2026-04-11T17:59:25.999Z</time></trkpt><trkpt lat="44.298177428443324" lon="7.156264343269911"><ele>938.5999999999999</ele><time>2026-04-11T17:59:27Z</time></trkpt><trkpt lat="44.29817616030689" lon="7.156167348885272"><ele>936.1999999999999</ele><time>2026-04-11T17:59:28Z</time></trkpt><trkpt lat="44.29814825712806" lon="7.1560257229788515"><ele>933.8000000000001</ele><time>2026-04-11T17:59:30Z</time></trkpt><trkpt lat="44.29821873732181" lon="7.155970437566612"><ele>931.4000000000001</ele><time>2026-04-11T17:59:32Z</time></trkpt><trkpt lat="44.29828792860618" lon="7.156030589444255"><ele>929.0</ele><time>2026-04-11T17:59:34Z</time></trkpt><trkpt lat="44.29831128249195" lon="7.156207738234773"><ele>929.0000000000001</ele><time>2026-04-11T17:59:36Z</time></trkpt><trkpt lat="44.29835040621868" lon="7.156304140238066"><ele>929.0</ele><time>2026-04-11T17:59:37Z</time></trkpt><trkpt lat="44.29837961399033" lon="7.156414413618122"><ele>929.0</ele><time>2026-04-11T17:59:38Z</time></trkpt><trkpt lat="44.29841196817495" lon="7.156526033752073"><ele>929.0</ele><time>2026-04-11T17:59:39Z</time></trkpt><trkpt lat="44.29846501590415" lon="7.1566268076814135"><ele>929.0000000000001</ele><time>2026-04-11T17:59:40Z</time></trkpt><trkpt lat="44.29850914786607" lon="7.1567231665339515"><ele>929.0</ele><time>2026-04-11T17:59:41Z</time></trkpt><trkpt lat="44.29854107933618" lon="7.156812046251553"><ele>931.0000000000001</ele><time>2026-04-11T17:59:42Z</time></trkpt><trkpt lat="44.29856114793483" lon="7.156905491385933"><ele>933.0</ele><time>2026-04-11T17:59:43Z</time></trkpt><trkpt lat="44.29854991838861" lon="7.157042168616619"><ele>935.0</ele><time>2026-04-11T17:59:45Z</time></trkpt><trkpt lat="44.298587723346074" lon="7.157128861197301"><ele>937.0</ele><time>2026-04-11T17:59:47Z</time></trkpt><trkpt lat="44.298656000815456" lon="7.157146655399775"><ele>939.0000000000001</ele><time>2026-04-11T17:59:49Z</time></trkpt><trkpt lat="44.29874336588273" lon="7.157049600163511"><ele>941.0</ele><time>2026-04-11T17:59:51Z</time></trkpt><trkpt lat="44.298798607562006" lon="7.156991632589083"><ele>940.9999999999999</ele><time>2026-04-11T17:59:52Z</time></trkpt><trkpt lat="44.29885523983675" lon="7.156932928813104"><ele>941.0</ele><time>2026-04-11T17:59:53Z</time></trkpt><trkpt lat="44.29890644576893" lon="7.1568670038953455"><ele>940.9999999999999</ele><time>2026-04-11T17:59:54Z</time></trkpt><trkpt lat="44.2989673863348" lon="7.156811887663906"><ele>940.9999999999999</ele><time>2026-04-11T17:59:55Z</time></trkpt><trkpt lat="44.299031513510855" lon="7.156751303247152"><ele>941.0</ele><time>2026-04-11T17:59:56Z</time></trkpt><trkpt lat="44.299091003904415" lon="7.156698178514452"><ele>940.9999999999999</ele><time>2026-04-11T17:59:57Z</time></trkpt><trkpt lat="44.29914705558251" lon="7.156639538526695"><ele>940.9999999999999</ele><time>2026-04-11T17:59:58Z</time></trkpt><trkpt lat="44.299247971193736" lon="7.156541598400671"><ele>936.0</ele><time>2026-04-11T18:00:00Z</time></trkpt><trkpt lat="44.29930253928288" lon="7.156485607948125"><ele>930.9999999999999</ele><time>2026-04-11T18:00:01Z</time></trkpt><trkpt lat="44.29935372986532" lon="7.15643339920192"><ele>925.9999999999999</ele><time>2026-04-11T18:00:02Z</time></trkpt><trkpt lat="44.29944914550809" lon="7.156346455034058"><ele>921.0</ele><time>2026-04-11T18:00:04Z</time></trkpt><trkpt lat="44.29955043486528" lon="7.1562546310776876"><ele>916.0</ele><time>2026-04-11T18:00:06Z</time></trkpt><trkpt lat="44.29961812920016" lon="7.156183351774401"><ele>916.0</ele><time>2026-04-11T18:00:07Z</time></trkpt><trkpt lat="44.29967562719819" lon="7.15612602734124"><ele>916.0</ele><time>2026-04-11T18:00:08Z</time></trkpt><trkpt lat="44.299744550390585" lon="7.156059577848118"><ele>916.0</ele><time>2026-04-11T18:00:09Z</time></trkpt><trkpt lat="44.299812799279664" lon="7.155999056660786"><ele>916.0</ele><time>2026-04-11T18:00:10Z</time></trkpt><trkpt lat="44.299876777013395" lon="7.155966203516903"><ele>916.0</ele><time>2026-04-11T18:00:11Z</time></trkpt><trkpt lat="44.299948438564684" lon="7.1559692897479605"><ele>916.0</ele><time>2026-04-11T18:00:12Z</time></trkpt><trkpt lat="44.30001928862766" lon="7.155976914571944"><ele>916.0</ele><time>2026-04-11T18:00:13Z</time></trkpt><trkpt lat="44.3000891525607" lon="7.15599647521323"><ele>915.3333333333333</ele><time>2026-04-11T18:00:14Z</time></trkpt><trkpt lat="44.30014959500999" lon="7.156045155309149"><ele>914.6666666666666</ele><time>2026-04-11T18:00:15Z</time></trkpt><trkpt lat="44.30020262472893" lon="7.156109819553279"><ele>914.0</ele><time>2026-04-11T18:00:16Z</time></trkpt><trkpt lat="44.30025254075157" lon="7.1561825030457245"><ele>913.3333333333333</ele><time>2026-04-11T18:00:17Z</time></trkpt><trkpt lat="44.30031853594681" lon="7.156245732912077"><ele>912.6666666666666</ele><time>2026-04-11T18:00:18Z</time></trkpt><trkpt lat="44.3003739913212" lon="7.156330981280628"><ele>912.0</ele><time>2026-04-11T18:00:19Z</time></trkpt><trkpt lat="44.3004276572768" lon="7.156419973587846"><ele>912.0</ele><time>2026-04-11T18:00:20Z</time></trkpt><trkpt lat="44.30048913256179" lon="7.156503985887072"><ele>912.0</ele><time>2026-04-11T18:00:21Z</time></trkpt><trkpt lat="44.30055393543007" lon="7.156595739491965"><ele>912.0</ele><time>2026-04-11T18:00:22Z</time></trkpt><trkpt lat="44.300622056877856" lon="7.156687861348772"><ele>912.0</ele><time>2026-04-11T18:00:23Z</time></trkpt><trkpt lat="44.300699949572376" lon="7.1568088310478615"><ele>912.0</ele><time>2026-04-11T18:00:24Z</time></trkpt><trkpt lat="44.300794074941095" lon="7.156936442019458"><ele>912.0</ele><time>2026-04-11T18:00:25Z</time></trkpt><trkpt lat="44.300890464804475" lon="7.157063922047771"><ele>912.0</ele><time>2026-04-11T18:00:26Z</time></trkpt><trkpt lat="44.300962228238916" lon="7.157165604932997"><ele>912.0</ele><time>2026-04-11T18:00:27Z</time></trkpt><trkpt lat="44.30102503476815" lon="7.157260208112026"><ele>912.0</ele><time>2026-04-11T18:00:28Z</time></trkpt><trkpt lat="44.30106923290783" lon="7.157323918898017"><ele>912.0</ele><time>2026-04-11T18:00:29Z</time></trkpt><trkpt lat="44.301100919571" lon="7.157406731286154"><ele>912.0</ele><time>2026-04-11T18:00:33Z</time></trkpt><trkpt lat="44.30118957417121" lon="7.157499787742216"><ele>912.0</ele><time>2026-04-11T18:00:50Z</time></trkpt><trkpt lat="44.301249129543784" lon="7.157577878268729"><ele>912.0</ele><time>2026-04-11T18:00:51Z</time></trkpt><trkpt lat="44.30131328494584" lon="7.15766738185285"><ele>912.0</ele><time>2026-04-11T18:00:52Z</time></trkpt><trkpt lat="44.30136572397452" lon="7.157754428244393"><ele>912.0</ele><time>2026-04-11T18:00:53Z</time></trkpt><trkpt lat="44.30141517850138" lon="7.157858691848266"><ele>911.2</ele><time>2026-04-11T18:00:54Z</time></trkpt><trkpt lat="44.30145024347956" lon="7.15795965127666"><ele>910.4000000000001</ele><time>2026-04-11T18:00:55Z</time></trkpt><trkpt lat="44.30147197882415" lon="7.158055389225837"><ele>909.5999999999999</ele><time>2026-04-11T18:00:56Z</time></trkpt><trkpt lat="44.30148391248978" lon="7.158147394004522"><ele>908.8</ele><time>2026-04-11T18:00:57Z</time></trkpt><trkpt lat="44.30149169525563" lon="7.158309842849768"><ele>908.0</ele><time>2026-04-11T18:00:59Z</time></trkpt><trkpt lat="44.30149617880915" lon="7.158470125078209"><ele>908.0000000000001</ele><time>2026-04-11T18:01:01Z</time></trkpt><trkpt lat="44.30149333196151" lon="7.158571209831008"><ele>908.0</ele><time>2026-04-11T18:01:01.999Z</time></trkpt><trkpt lat="44.30149450931056" lon="7.158691366859847"><ele>908.0</ele><time>2026-04-11T18:01:02.999Z</time></trkpt><trkpt lat="44.30149952723016" lon="7.158809133268966"><ele>908.0</ele><time>2026-04-11T18:01:03.999Z</time></trkpt><trkpt lat="44.30151728241915" lon="7.158914897322893"><ele>908.0000000000001</ele><time>2026-04-11T18:01:04.999Z</time></trkpt><trkpt lat="44.30153346623529" lon="7.1590145916744605"><ele>908.0</ele><time>2026-04-11T18:01:05.999Z</time></trkpt><trkpt lat="44.30160611934594" lon="7.159076662069112"><ele>907.0</ele><time>2026-04-11T18:01:06.999Z</time></trkpt><trkpt lat="44.30168214440727" lon="7.159147519832756"><ele>906.0</ele><time>2026-04-11T18:01:07.999Z</time></trkpt><trkpt lat="44.30178340200054" lon="7.159223517296836"><ele>905.0</ele><time>2026-04-11T18:01:08.999Z</time></trkpt><trkpt lat="44.30189747504749" lon="7.159301121162908"><ele>904.0</ele><time>2026-04-11T18:01:09.999Z</time></trkpt><trkpt lat="44.30200461745596" lon="7.159395240680384"><ele>904.0</ele><time>2026-04-11T18:01:10.999Z</time></trkpt><trkpt lat="44.30211460623479" lon="7.1594753221309"><ele>904.0</ele><time>2026-04-11T18:01:11.999Z</time></trkpt><trkpt lat="44.30222674559939" lon="7.159544650250865"><ele>904.0</ele><time>2026-04-11T18:01:12.999Z</time></trkpt><trkpt lat="44.30235135584981" lon="7.159615227547892"><ele>904.0</ele><time>2026-04-11T18:01:13.999Z</time></trkpt><trkpt lat="44.30249088291719" lon="7.159678568869847"><ele>902.5</ele><time>2026-04-11T18:01:14.999Z</time></trkpt><trkpt lat="44.30262882961659" lon="7.159738818597654"><ele>901.0</ele><time>2026-04-11T18:01:15.999Z</time></trkpt><trkpt lat="44.30276586533382" lon="7.159800355833734"><ele>899.5</ele><time>2026-04-11T18:01:16.999Z</time></trkpt><trkpt lat="44.302904524934895" lon="7.159853714262376"><ele>898.0</ele><time>2026-04-11T18:01:17.999Z</time></trkpt><trkpt lat="44.30304549278758" lon="7.159896357898471"><ele>894.0</ele><time>2026-04-11T18:01:18.999Z</time></trkpt><trkpt lat="44.30321018021156" lon="7.159936845657672"><ele>890.0</ele><time>2026-04-11T18:01:19.999Z</time></trkpt><trkpt lat="44.303421412273515" lon="7.159979019084904"><ele>886.0</ele><time>2026-04-11T18:01:20.999Z</time></trkpt><trkpt lat="44.30363251183454" lon="7.160016962620536"><ele>886.0</ele><time>2026-04-11T18:01:21.999Z</time></trkpt><trkpt lat="44.303821509242056" lon="7.160056708813795"><ele>886.0</ele><time>2026-04-11T18:01:22.999Z</time></trkpt><trkpt lat="44.303993614557555" lon="7.160096674855944"><ele>886.0</ele><time>2026-04-11T18:01:23.999Z</time></trkpt><trkpt lat="44.304154534466484" lon="7.160136379250736"><ele>884.75</ele><time>2026-04-11T18:01:24.999Z</time></trkpt><trkpt lat="44.30430848318866" lon="7.160169486175306"><ele>883.5</ele><time>2026-04-11T18:01:25.999Z</time></trkpt><trkpt lat="44.30444403670252" lon="7.160190188993568"><ele>882.25</ele><time>2026-04-11T18:01:26.999Z</time></trkpt><trkpt lat="44.30456631382208" lon="7.1602049910175705"><ele>881.0</ele><time>2026-04-11T18:01:27.999Z</time></trkpt><trkpt lat="44.30467340028039" lon="7.1602494365481375"><ele>880.5</ele><time>2026-04-11T18:01:28.999Z</time></trkpt><trkpt lat="44.304781203216656" lon="7.160248076172717"><ele>880.0</ele><time>2026-04-11T18:01:29.999Z</time></trkpt><trkpt lat="44.3048921346288" lon="7.160229118740928"><ele>879.5</ele><time>2026-04-11T18:01:30.999Z</time></trkpt><trkpt lat="44.30501721126644" lon="7.160144316371575"><ele>879.0</ele><time>2026-04-11T18:01:31.999Z</time></trkpt><trkpt lat="44.305132078061575" lon="7.160021301504559"><ele>879.0</ele><time>2026-04-11T18:01:33Z</time></trkpt><trkpt lat="44.30524545473749" lon="7.159893608972816"><ele>879.0000000000001</ele><time>2026-04-11T18:01:34Z</time></trkpt><trkpt lat="44.30533184895865" lon="7.159788352005788"><ele>879.0000000000001</ele><time>2026-04-11T18:01:35Z</time></trkpt><trkpt lat="44.30541044081631" lon="7.1597343942318386"><ele>879.0</ele><time>2026-04-11T18:01:36Z</time></trkpt><trkpt lat="44.30547591648412" lon="7.159685862820285"><ele>879.0</ele><time>2026-04-11T18:01:37Z</time></trkpt><trkpt lat="44.30552726132776" lon="7.1596343424055116"><ele>882.2</ele><time>2026-04-11T18:01:38Z</time></trkpt><trkpt lat="44.30559890385931" lon="7.159643611105229"><ele>885.4000000000001</ele><time>2026-04-11T18:01:40Z</time></trkpt><trkpt lat="44.30565134812564" lon="7.159746451255824"><ele>888.6</ele><time>2026-04-11T18:01:42Z</time></trkpt><trkpt lat="44.305681120918415" lon="7.15984813778524"><ele>891.8</ele><time>2026-04-11T18:01:43Z</time></trkpt><trkpt lat="44.30572674536011" lon="7.160017737080248"><ele>895.0</ele><time>2026-04-11T18:01:44Z</time></trkpt><trkpt lat="44.30579167005384" lon="7.160261322365353"><ele>895.0</ele><time>2026-04-11T18:01:45Z</time></trkpt><trkpt lat="44.30584854528217" lon="7.160539713039159"><ele>895.0</ele><time>2026-04-11T18:01:46Z</time></trkpt><trkpt lat="44.305893835863166" lon="7.16079622072079"><ele>895.0</ele><time>2026-04-11T18:01:47Z</time></trkpt><trkpt lat="44.30593392716048" lon="7.161058594113419"><ele>892.3333333333333</ele><time>2026-04-11T18:01:48Z</time></trkpt><trkpt lat="44.305958130458066" lon="7.161334026748419"><ele>889.6666666666667</ele><time>2026-04-11T18:01:49Z</time></trkpt><trkpt lat="44.30596442384394" lon="7.161626457805848"><ele>887.0</ele><time>2026-04-11T18:01:50Z</time></trkpt><trkpt lat="44.30595374935416" lon="7.161933898127709"><ele>886.3333333333334</ele><time>2026-04-11T18:01:51Z</time></trkpt><trkpt lat="44.30592549805128" lon="7.162232902720162"><ele>885.6666666666667</ele><time>2026-04-11T18:01:52Z</time></trkpt><trkpt lat="44.30590581415258" lon="7.162490714139279"><ele>885.0</ele><time>2026-04-11T18:01:53Z</time></trkpt><trkpt lat="44.30588723712598" lon="7.162707300698752"><ele>884.0</ele><time>2026-04-11T18:01:54Z</time></trkpt><trkpt lat="44.30587934407223" lon="7.162899350206388"><ele>883.0</ele><time>2026-04-11T18:01:55Z</time></trkpt><trkpt lat="44.30588372512172" lon="7.163079433139353"><ele>882.0</ele><time>2026-04-11T18:01:56Z</time></trkpt><trkpt lat="44.305908496375764" lon="7.163271344728221"><ele>881.0</ele><time>2026-04-11T18:01:57Z</time></trkpt><trkpt lat="44.305956657857145" lon="7.1634815733477915"><ele>880.3333333333334</ele><time>2026-04-11T18:01:58Z</time></trkpt><trkpt lat="44.30602197786328" lon="7.163712385835821"><ele>879.6666666666667</ele><time>2026-04-11T18:01:59Z</time></trkpt><trkpt lat="44.30609389751605" lon="7.1639426919516564"><ele>879.0</ele><time>2026-04-11T18:02:00Z</time></trkpt><trkpt lat="44.30616801050375" lon="7.164167321385577"><ele>878.3333333333333</ele><time>2026-04-11T18:02:01Z</time></trkpt><trkpt lat="44.306248353506135" lon="7.164389256022096"><ele>877.6666666666666</ele><time>2026-04-11T18:02:02Z</time></trkpt><trkpt lat="44.30634710364744" lon="7.164614541820427"><ele>877.0</ele><time>2026-04-11T18:02:03Z</time></trkpt><trkpt lat="44.306453508056514" lon="7.1648520195354815"><ele>884.5</ele><time>2026-04-11T18:02:04Z</time></trkpt><trkpt lat="44.30655557285643" lon="7.165126863994721"><ele>892.0</ele><time>2026-04-11T18:02:05Z</time></trkpt><trkpt lat="44.306648966089" lon="7.165449149513967"><ele>890.0</ele><time>2026-04-11T18:02:06Z</time></trkpt><trkpt lat="44.306742571282555" lon="7.165798839290757"><ele>888.0</ele><time>2026-04-11T18:02:07Z</time></trkpt><trkpt lat="44.30683664496085" lon="7.16614261685228"><ele>888.0</ele><time>2026-04-11T18:02:08Z</time></trkpt><trkpt lat="44.30692694631016" lon="7.166458904300698"><ele>888.0</ele><time>2026-04-11T18:02:09Z</time></trkpt><trkpt lat="44.30700481713314" lon="7.166742437880474"><ele>887.3333333333333</ele><time>2026-04-11T18:02:10Z</time></trkpt><trkpt lat="44.307075183887555" lon="7.1669912603843535"><ele>886.6666666666666</ele><time>2026-04-11T18:02:11Z</time></trkpt><trkpt lat="44.3071405235022" lon="7.167228445561986"><ele>886.0</ele><time>2026-04-11T18:02:12Z</time></trkpt><trkpt lat="44.30719674368849" lon="7.1674622576717075"><ele>886.0</ele><time>2026-04-11T18:02:13Z</time></trkpt><trkpt lat="44.30724062573773" lon="7.167699992063222"><ele>886.0</ele><time>2026-04-11T18:02:14Z</time></trkpt><trkpt lat="44.307270520153885" lon="7.167958218828315"><ele>886.0</ele><time>2026-04-11T18:02:15Z</time></trkpt><trkpt lat="44.30728745563473" lon="7.168222819199506"><ele>895.3333333333333</ele><time>2026-04-11T18:02:16Z</time></trkpt><trkpt lat="44.307306376637314" lon="7.168465144255907"><ele>904.6666666666667</ele><time>2026-04-11T18:02:17Z</time></trkpt><trkpt lat="44.3073277649842" lon="7.16868607117295"><ele>914.0</ele><time>2026-04-11T18:02:18Z</time></trkpt><trkpt lat="44.30735696202795" lon="7.168895902179672"><ele>913.25</ele><time>2026-04-11T18:02:19Z</time></trkpt><trkpt lat="44.30740836385724" lon="7.169099018026736"><ele>912.5</ele><time>2026-04-11T18:02:20Z</time></trkpt><trkpt lat="44.30745912602743" lon="7.169289494044723"><ele>911.75</ele><time>2026-04-11T18:02:21Z</time></trkpt><trkpt lat="44.30748716168698" lon="7.169474041645913"><ele>911.0</ele><time>2026-04-11T18:02:22Z</time></trkpt><trkpt lat="44.30748655479065" lon="7.169668347612746"><ele>911.0</ele><time>2026-04-11T18:02:23Z</time></trkpt><trkpt lat="44.307459588838384" lon="7.169864303972121"><ele>911.0</ele><time>2026-04-11T18:02:24Z</time></trkpt><trkpt lat="44.307417517516434" lon="7.170044553481924"><ele>911.0</ele><time>2026-04-11T18:02:25Z</time></trkpt><trkpt lat="44.30735322836955" lon="7.170230072728605"><ele>911.0</ele><time>2026-04-11T18:02:26Z</time></trkpt><trkpt lat="44.307271560505505" lon="7.170428507296566"><ele>907.6666666666667</ele><time>2026-04-11T18:02:27Z</time></trkpt><trkpt lat="44.30716948634076" lon="7.170663322909704"><ele>904.3333333333333</ele><time>2026-04-11T18:02:28Z</time></trkpt><trkpt lat="44.30705730265544" lon="7.170940733036086"><ele>901.0</ele><time>2026-04-11T18:02:29Z</time></trkpt><trkpt lat="44.306950042305175" lon="7.171200024093475"><ele>901.0</ele><time>2026-04-11T18:02:30Z</time></trkpt><trkpt lat="44.30685890361473" lon="7.171422638666231"><ele>901.0</ele><time>2026-04-11T18:02:31Z</time></trkpt><trkpt lat="44.30678074791345" lon="7.171607616432924"><ele>901.0</ele><time>2026-04-11T18:02:32Z</time></trkpt><trkpt lat="44.306707747427225" lon="7.171772959676363"><ele>901.0</ele><time>2026-04-11T18:02:33Z</time></trkpt><trkpt lat="44.30665090965421" lon="7.1719163133567765"><ele>901.0</ele><time>2026-04-11T18:02:34Z</time></trkpt><trkpt lat="44.30660914555927" lon="7.1720646624066084"><ele>901.0</ele><time>2026-04-11T18:02:35Z</time></trkpt><trkpt lat="44.30657953264258" lon="7.172225951862809"><ele>901.0</ele><time>2026-04-11T18:02:36Z</time></trkpt><trkpt lat="44.30656140496012" lon="7.172411811579613"><ele>901.25</ele><time>2026-04-11T18:02:37Z</time></trkpt><trkpt lat="44.3065483674211" lon="7.172622668894502"><ele>901.5</ele><time>2026-04-11T18:02:38Z</time></trkpt><trkpt lat="44.30654939346585" lon="7.172826040559583"><ele>901.75</ele><time>2026-04-11T18:02:39Z</time></trkpt><trkpt lat="44.306551455716544" lon="7.173030835084491"><ele>902.0</ele><time>2026-04-11T18:02:40Z</time></trkpt><trkpt lat="44.30656178761049" lon="7.173227731173645"><ele>902.5</ele><time>2026-04-11T18:02:41Z</time></trkpt><trkpt lat="44.30657423400114" lon="7.173423396877629"><ele>903.0</ele><time>2026-04-11T18:02:42Z</time></trkpt><trkpt lat="44.30659180621306" lon="7.173619457665615"><ele>903.5</ele><time>2026-04-11T18:02:43Z</time></trkpt><trkpt lat="44.30660828197253" lon="7.173816681914343"><ele>904.0</ele><time>2026-04-11T18:02:44Z</time></trkpt><trkpt lat="44.30662074062516" lon="7.1740186639706485"><ele>903.75</ele><time>2026-04-11T18:02:45Z</time></trkpt><trkpt lat="44.30663326307601" lon="7.1742152766315925"><ele>903.5</ele><time>2026-04-11T18:02:46Z</time></trkpt><trkpt lat="44.30664787128315" lon="7.174400254858426"><ele>903.25</ele><time>2026-04-11T18:02:47Z</time></trkpt><trkpt lat="44.30665890726843" lon="7.174566866294365"><ele>903.0</ele><time>2026-04-11T18:02:48Z</time></trkpt><trkpt lat="44.30667657583669" lon="7.174758823372449"><ele>902.2</ele><time>2026-04-11T18:02:49Z</time></trkpt><trkpt lat="44.30669297620991" lon="7.174920345630069"><ele>901.4</ele><time>2026-04-11T18:02:50Z</time></trkpt><trkpt lat="44.306712935819675" lon="7.175076201094518"><ele>900.6000000000001</ele><time>2026-04-11T18:02:51Z</time></trkpt><trkpt lat="44.30674622611133" lon="7.175220232176663"><ele>899.8000000000001</ele><time>2026-04-11T18:02:52Z</time></trkpt><trkpt lat="44.30679563198487" lon="7.175353511646089"><ele>899.0</ele><time>2026-04-11T18:02:53Z</time></trkpt><trkpt lat="44.30685797672939" lon="7.175476850765656"><ele>899.0</ele><time>2026-04-11T18:02:54Z</time></trkpt><trkpt lat="44.30693115808883" lon="7.17560264273156"><ele>899.0</ele><time>2026-04-11T18:02:55Z</time></trkpt><trkpt lat="44.307025535186376" lon="7.175722406438628"><ele>899.0</ele><time>2026-04-11T18:02:56Z</time></trkpt><trkpt lat="44.30713816122817" lon="7.175835564242441"><ele>899.0</ele><time>2026-04-11T18:02:57Z</time></trkpt><trkpt lat="44.30726548252787" lon="7.175958767872894"><ele>898.6666666666667</ele><time>2026-04-11T18:02:58Z</time></trkpt><trkpt lat="44.30740523776648" lon="7.17608890350142"><ele>898.3333333333333</ele><time>2026-04-11T18:02:59Z</time></trkpt><trkpt lat="44.30754575427337" lon="7.176222242536326"><ele>898.0</ele><time>2026-04-11T18:03:00Z</time></trkpt><trkpt lat="44.30768767943263" lon="7.176352485911439"><ele>898.0</ele><time>2026-04-11T18:03:01Z</time></trkpt><trkpt lat="44.30782543493798" lon="7.176489612228856"><ele>898.0</ele><time>2026-04-11T18:03:02Z</time></trkpt><trkpt lat="44.30796191244476" lon="7.176622760297854"><ele>898.0</ele><time>2026-04-11T18:03:03Z</time></trkpt><trkpt lat="44.30809389630306" lon="7.1767522634336585"><ele>896.6666666666666</ele><time>2026-04-11T18:03:04Z</time></trkpt><trkpt lat="44.308233128098884" lon="7.17689082589162"><ele>895.3333333333333</ele><time>2026-04-11T18:03:05Z</time></trkpt><trkpt lat="44.308377100557436" lon="7.177031640265544"><ele>894.0</ele><time>2026-04-11T18:03:05.999Z</time></trkpt><trkpt lat="44.30851470344265" lon="7.177165601727803"><ele>894.0</ele><time>2026-04-11T18:03:06.999Z</time></trkpt><trkpt lat="44.3086382888882" lon="7.177284201830353"><ele>894.0</ele><time>2026-04-11T18:03:07.999Z</time></trkpt><trkpt lat="44.30876513762996" lon="7.177411184621909"><ele>894.0</ele><time>2026-04-11T18:03:08.999Z</time></trkpt><trkpt lat="44.308886737599366" lon="7.177537051306603"><ele>894.75</ele><time>2026-04-11T18:03:09.999Z</time></trkpt><trkpt lat="44.308991136322696" lon="7.177662817748044"><ele>895.5</ele><time>2026-04-11T18:03:10.999Z</time></trkpt><trkpt lat="44.30908350053213" lon="7.1777938005699635"><ele>896.25</ele><time>2026-04-11T18:03:11.999Z</time></trkpt><trkpt lat="44.309149591873414" lon="7.177962060098572"><ele>897.0</ele><time>2026-04-11T18:03:12.999Z</time></trkpt><trkpt lat="44.30921550276749" lon="7.17812522626196"><ele>894.6666666666667</ele><time>2026-04-11T18:03:13.999Z</time></trkpt><trkpt lat="44.30926922396902" lon="7.178357936113584"><ele>892.3333333333334</ele><time>2026-04-11T18:03:14.999Z</time></trkpt><trkpt lat="44.309316774815976" lon="7.178605645211125"><ele>890.0</ele><time>2026-04-11T18:03:15.999Z</time></trkpt><trkpt lat="44.309369155549085" lon="7.17887700112658"><ele>888.6666666666667</ele><time>2026-04-11T18:03:16.999Z</time></trkpt><trkpt lat="44.30942307411244" lon="7.179148425761604"><ele>887.3333333333333</ele><time>2026-04-11T18:03:17.999Z</time></trkpt><trkpt lat="44.30948017298184" lon="7.179415810743789"><ele>886.0</ele><time>2026-04-11T18:03:18.999Z</time></trkpt><trkpt lat="44.30953670205576" lon="7.179682009813039"><ele>883.0</ele><time>2026-04-11T18:03:19.999Z</time></trkpt><trkpt lat="44.30958812652574" lon="7.17995808099132"><ele>880.0</ele><time>2026-04-11T18:03:20.999Z</time></trkpt><trkpt lat="44.309633363073246" lon="7.1802435119559"><ele>877.0</ele><time>2026-04-11T18:03:21.999Z</time></trkpt><trkpt lat="44.30964656070417" lon="7.180539219971272"><ele>873.5</ele><time>2026-04-11T18:03:22.999Z</time></trkpt><trkpt lat="44.309677189232524" lon="7.180846679695995"><ele>870.0</ele><time>2026-04-11T18:03:23.999Z</time></trkpt><trkpt lat="44.30971077630681" lon="7.181173887693389"><ele>888.0</ele><time>2026-04-11T18:03:24.999Z</time></trkpt><trkpt lat="44.30975901598742" lon="7.18149870703659"><ele>906.0</ele><time>2026-04-11T18:03:25.999Z</time></trkpt><trkpt lat="44.30978886516205" lon="7.181804794456155"><ele>906.0</ele><time>2026-04-11T18:03:26.999Z</time></trkpt><trkpt lat="44.30981594719679" lon="7.182091489834697"><ele>906.0</ele><time>2026-04-11T18:03:27.999Z</time></trkpt><trkpt lat="44.30984418770059" lon="7.182365698449691"><ele>906.0</ele><time>2026-04-11T18:03:28.999Z</time></trkpt><trkpt lat="44.30987279288614" lon="7.182609444907743"><ele>904.3333333333333</ele><time>2026-04-11T18:03:29.999Z</time></trkpt><trkpt lat="44.30990248574051" lon="7.182836919815546"><ele>902.6666666666666</ele><time>2026-04-11T18:03:30.999Z</time></trkpt><trkpt lat="44.30993274878558" lon="7.18305381690441"><ele>901.0</ele><time>2026-04-11T18:03:31.999Z</time></trkpt><trkpt lat="44.30996648657319" lon="7.18324030707729"><ele>898.25</ele><time>2026-04-11T18:03:32.999Z</time></trkpt><trkpt lat="44.30999078666031" lon="7.183411302428773"><ele>895.5</ele><time>2026-04-11T18:03:33.999Z</time></trkpt><trkpt lat="44.3099979954074" lon="7.183584501050212"><ele>892.75</ele><time>2026-04-11T18:03:34.999Z</time></trkpt><trkpt lat="44.30997371065911" lon="7.183776079230385"><ele>890.0</ele><time>2026-04-11T18:03:35.999Z</time></trkpt><trkpt lat="44.309931932078065" lon="7.183974448109302"><ele>889.5</ele><time>2026-04-11T18:03:36.999Z</time></trkpt><trkpt lat="44.30990402989011" lon="7.184139473107512"><ele>889.0</ele><time>2026-04-11T18:03:37.999Z</time></trkpt><trkpt lat="44.309874931144066" lon="7.184291462615749"><ele>888.5</ele><time>2026-04-11T18:03:39Z</time></trkpt><trkpt lat="44.309885540568374" lon="7.184462232005856"><ele>888.0</ele><time>2026-04-11T18:03:40Z</time></trkpt><trkpt lat="44.30992853021451" lon="7.184621486713837"><ele>888.0</ele><time>2026-04-11T18:03:41Z</time></trkpt><trkpt lat="44.30998136727941" lon="7.184798819417247"><ele>888.0</ele><time>2026-04-11T18:03:42Z</time></trkpt><trkpt lat="44.31005504056246" lon="7.185005886069794"><ele>888.0</ele><time>2026-04-11T18:03:43Z</time></trkpt><trkpt lat="44.31013492404577" lon="7.18523012290665"><ele>886.0</ele><time>2026-04-11T18:03:44Z</time></trkpt><trkpt lat="44.31019293510957" lon="7.1854554876155765"><ele>884.0</ele><time>2026-04-11T18:03:45Z</time></trkpt><trkpt lat="44.310251360842656" lon="7.185641588916737"><ele>882.0</ele><time>2026-04-11T18:03:46Z</time></trkpt><trkpt lat="44.31030723359584" lon="7.185814964941308"><ele>878.3333333333333</ele><time>2026-04-11T18:03:47Z</time></trkpt><trkpt lat="44.31031271690494" lon="7.186041885950827"><ele>874.6666666666666</ele><time>2026-04-11T18:03:48Z</time></trkpt><trkpt lat="44.3103296861721" lon="7.186318427445844"><ele>871.0</ele><time>2026-04-11T18:03:49Z</time></trkpt><trkpt lat="44.310346880264674" lon="7.18663396738932"><ele>868.0</ele><time>2026-04-11T18:03:50Z</time></trkpt><trkpt lat="44.310379947851494" lon="7.186966245015429"><ele>865.0</ele><time>2026-04-11T18:03:51Z</time></trkpt><trkpt lat="44.31039164026775" lon="7.187286108861826"><ele>864.3333333333333</ele><time>2026-04-11T18:03:52Z</time></trkpt><trkpt lat="44.310396910726155" lon="7.187566555709806"><ele>863.6666666666667</ele><time>2026-04-11T18:03:53Z</time></trkpt><trkpt lat="44.31040114293147" lon="7.187837160656187"><ele>863.0</ele><time>2026-04-11T18:03:54Z</time></trkpt><trkpt lat="44.31040638397731" lon="7.188106749785659"><ele>863.0</ele><time>2026-04-11T18:03:55Z</time></trkpt><trkpt lat="44.31041021893684" lon="7.188347672455919"><ele>863.0</ele><time>2026-04-11T18:03:56Z</time></trkpt><trkpt lat="44.31039727586838" lon="7.188562278904481"><ele>863.0</ele><time>2026-04-11T18:03:57Z</time></trkpt><trkpt lat="44.310423297168285" lon="7.18874480132431"><ele>863.0</ele><time>2026-04-11T18:03:58Z</time></trkpt><trkpt lat="44.31043882678541" lon="7.1889180504536805"><ele>863.0</ele><time>2026-04-11T18:03:59Z</time></trkpt><trkpt lat="44.310468481832395" lon="7.189079921889816"><ele>863.0</ele><time>2026-04-11T18:04:00Z</time></trkpt><trkpt lat="44.310511268963815" lon="7.189235709678784"><ele>863.0</ele><time>2026-04-11T18:04:01Z</time></trkpt><trkpt lat="44.31056958509684" lon="7.1893856451807485"><ele>864.5</ele><time>2026-04-11T18:04:02Z</time></trkpt><trkpt lat="44.31065157260237" lon="7.189531858002316"><ele>866.0</ele><time>2026-04-11T18:04:03Z</time></trkpt><trkpt lat="44.310754504059986" lon="7.189687617579688"><ele>867.5</ele><time>2026-04-11T18:04:04Z</time></trkpt><trkpt lat="44.31087226560325" lon="7.189848222951157"><ele>869.0</ele><time>2026-04-11T18:04:05Z</time></trkpt><trkpt lat="44.31099460286346" lon="7.190009655695501"><ele>869.0</ele><time>2026-04-11T18:04:06Z</time></trkpt><trkpt lat="44.311095665097504" lon="7.1901862323265195"><ele>869.0</ele><time>2026-04-11T18:04:07Z</time></trkpt><trkpt lat="44.31117961620484" lon="7.190376809662588"><ele>869.0</ele><time>2026-04-11T18:04:08Z</time></trkpt><trkpt lat="44.31124736693204" lon="7.190580078564271"><ele>864.3333333333334</ele><time>2026-04-11T18:04:09Z</time></trkpt><trkpt lat="44.31129746440214" lon="7.190814914405294"><ele>859.6666666666667</ele><time>2026-04-11T18:04:10Z</time></trkpt><trkpt lat="44.311340030764896" lon="7.191064211044668"><ele>855.0</ele><time>2026-04-11T18:04:11Z</time></trkpt><trkpt lat="44.31137645874294" lon="7.191324275608413"><ele>851.3333333333333</ele><time>2026-04-11T18:04:12Z</time></trkpt><trkpt lat="44.311405518494816" lon="7.191568045244555"><ele>847.6666666666666</ele><time>2026-04-11T18:04:13Z</time></trkpt><trkpt lat="44.31140971040476" lon="7.191813063572196"><ele>844.0</ele><time>2026-04-11T18:04:14Z</time></trkpt><trkpt lat="44.31142203382483" lon="7.192091707203633"><ele>855.3333333333333</ele><time>2026-04-11T18:04:15Z</time></trkpt><trkpt lat="44.31144210970623" lon="7.1923867880578465"><ele>866.6666666666667</ele><time>2026-04-11T18:04:16Z</time></trkpt><trkpt lat="44.31147036478309" lon="7.192694079965437"><ele>878.0</ele><time>2026-04-11T18:04:17Z</time></trkpt><trkpt lat="44.31150763854387" lon="7.193015021515582"><ele>875.0</ele><time>2026-04-11T18:04:18Z</time></trkpt><trkpt lat="44.31154919092086" lon="7.193327547965252"><ele>872.0</ele><time>2026-04-11T18:04:19Z</time></trkpt><trkpt lat="44.31158392873368" lon="7.193600865753005"><ele>869.0</ele><time>2026-04-11T18:04:20Z</time></trkpt><trkpt lat="44.3116274354263" lon="7.193831298409428"><ele>869.0</ele><time>2026-04-11T18:04:21Z</time></trkpt><trkpt lat="44.31164486336624" lon="7.1940455213559495"><ele>869.0</ele><time>2026-04-11T18:04:22Z</time></trkpt><trkpt lat="44.31165389123253" lon="7.194254676785317"><ele>869.0</ele><time>2026-04-11T18:04:23Z</time></trkpt><trkpt lat="44.31164898952675" lon="7.194492755321911"><ele>869.0</ele><time>2026-04-11T18:04:24Z</time></trkpt><trkpt lat="44.3116294081635" lon="7.194748465849941"><ele>869.0</ele><time>2026-04-11T18:04:25Z</time></trkpt><trkpt lat="44.31160971034015" lon="7.195018223877992"><ele>869.0</ele><time>2026-04-11T18:04:26Z</time></trkpt><trkpt lat="44.31160408954642" lon="7.195281652646677"><ele>868.0</ele><time>2026-04-11T18:04:27Z</time></trkpt><trkpt lat="44.31159609350235" lon="7.195532645028062"><ele>867.0</ele><time>2026-04-11T18:04:28Z</time></trkpt><trkpt lat="44.31163093895748" lon="7.195743904973947"><ele>866.0</ele><time>2026-04-11T18:04:29Z</time></trkpt><trkpt lat="44.311640789261155" lon="7.195933013351708"><ele>867.0</ele><time>2026-04-11T18:04:30Z</time></trkpt><trkpt lat="44.311631258970685" lon="7.196126742331371"><ele>868.0</ele><time>2026-04-11T18:04:31Z</time></trkpt><trkpt lat="44.311592789507046" lon="7.196329255050515"><ele>869.0</ele><time>2026-04-11T18:04:32Z</time></trkpt><trkpt lat="44.31151395107404" lon="7.196536956487975"><ele>869.0</ele><time>2026-04-11T18:04:33Z</time></trkpt><trkpt lat="44.311485251390174" lon="7.196783302130472"><ele>869.0</ele><time>2026-04-11T18:04:34Z</time></trkpt><trkpt lat="44.31146382353053" lon="7.1970626125159365"><ele>869.0</ele><time>2026-04-11T18:04:35Z</time></trkpt><trkpt lat="44.311444385323725" lon="7.197397680751493"><ele>870.0</ele><time>2026-04-11T18:04:36Z</time></trkpt><trkpt lat="44.31142244043756" lon="7.1977411979995916"><ele>871.0</ele><time>2026-04-11T18:04:37Z</time></trkpt><trkpt lat="44.31139510260846" lon="7.198104402926782"><ele>850.0</ele><time>2026-04-11T18:04:38Z</time></trkpt><trkpt lat="44.311364890957826" lon="7.198466763113194"><ele>829.0</ele><time>2026-04-11T18:04:39Z</time></trkpt><trkpt lat="44.31134061466547" lon="7.198826679443246"><ele>828.5</ele><time>2026-04-11T18:04:40Z</time></trkpt><trkpt lat="44.311299457823694" lon="7.19918222459395"><ele>828.0</ele><time>2026-04-11T18:04:41Z</time></trkpt><trkpt lat="44.31129825466276" lon="7.199520014834921"><ele>828.0</ele><time>2026-04-11T18:04:42Z</time></trkpt><trkpt lat="44.31128007501217" lon="7.199832331983169"><ele>828.0</ele><time>2026-04-11T18:04:43Z</time></trkpt><trkpt lat="44.31126522566943" lon="7.200144127926864"><ele>828.0</ele><time>2026-04-11T18:04:44Z</time></trkpt><trkpt lat="44.31125550613725" lon="7.200459606470022"><ele>829.0</ele><time>2026-04-11T18:04:45Z</time></trkpt><trkpt lat="44.31125526030403" lon="7.2007790855145215"><ele>830.0</ele><time>2026-04-11T18:04:46Z</time></trkpt><trkpt lat="44.31127108583903" lon="7.201116672133363"><ele>830.0</ele><time>2026-04-11T18:04:47Z</time></trkpt><trkpt lat="44.311297155952026" lon="7.201476328507786"><ele>830.0</ele><time>2026-04-11T18:04:48Z</time></trkpt><trkpt lat="44.311302225390754" lon="7.201846731894976"><ele>828.5</ele><time>2026-04-11T18:04:49Z</time></trkpt><trkpt lat="44.31131905832835" lon="7.202208928621173"><ele>827.0</ele><time>2026-04-11T18:04:50Z</time></trkpt><trkpt lat="44.3113499897324" lon="7.20253066046863"><ele>827.0</ele><time>2026-04-11T18:04:51Z</time></trkpt><trkpt lat="44.31136121129307" lon="7.20281678492607"><ele>827.0</ele><time>2026-04-11T18:04:52Z</time></trkpt><trkpt lat="44.3113703169586" lon="7.203091917774193"><ele>827.0</ele><time>2026-04-11T18:04:53Z</time></trkpt><trkpt lat="44.31138407442919" lon="7.20333553868714"><ele>827.0</ele><time>2026-04-11T18:04:54Z</time></trkpt><trkpt lat="44.311401934860406" lon="7.2035702987509165"><ele>827.0</ele><time>2026-04-11T18:04:55Z</time></trkpt><trkpt lat="44.31143639297432" lon="7.203816462207746"><ele>827.0</ele><time>2026-04-11T18:04:56Z</time></trkpt><trkpt lat="44.31148284554406" lon="7.204065492218551"><ele>832.6666666666667</ele><time>2026-04-11T18:04:57Z</time></trkpt><trkpt lat="44.31154830092027" lon="7.204339709718689"><ele>838.3333333333333</ele><time>2026-04-11T18:04:58Z</time></trkpt><trkpt lat="44.311618351463885" lon="7.204628750138896"><ele>844.0</ele><time>2026-04-11T18:04:59Z</time></trkpt><trkpt lat="44.31169348805661" lon="7.204918575257205"><ele>844.0</ele><time>2026-04-11T18:05:00Z</time></trkpt><trkpt lat="44.311762322222506" lon="7.205185745285416"><ele>844.0</ele><time>2026-04-11T18:05:01Z</time></trkpt><trkpt lat="44.31181779747643" lon="7.205401194215668"><ele>844.0</ele><time>2026-04-11T18:05:02Z</time></trkpt><trkpt lat="44.31186577187673" lon="7.205592833436536"><ele>842.0</ele><time>2026-04-11T18:05:03Z</time></trkpt><trkpt lat="44.31191339760173" lon="7.205767722359756"><ele>840.0</ele><time>2026-04-11T18:05:04Z</time></trkpt><trkpt lat="44.31196795613955" lon="7.205927412385849"><ele>838.0</ele><time>2026-04-11T18:05:05Z</time></trkpt><trkpt lat="44.31203448506366" lon="7.206062615108234"><ele>836.0</ele><time>2026-04-11T18:05:06Z</time></trkpt><trkpt lat="44.31212672543806" lon="7.206204166538397"><ele>836.0</ele><time>2026-04-11T18:05:07Z</time></trkpt><trkpt lat="44.31223509390133" lon="7.206334524456581"><ele>836.0</ele><time>2026-04-11T18:05:08Z</time></trkpt><trkpt lat="44.31234831899746" lon="7.206443484602566"><ele>836.0</ele><time>2026-04-11T18:05:09Z</time></trkpt><trkpt lat="44.31246243737172" lon="7.206554053739019"><ele>836.0</ele><time>2026-04-11T18:05:10Z</time></trkpt><trkpt lat="44.31257171249808" lon="7.206684128551729"><ele>837.75</ele><time>2026-04-11T18:05:10.999Z</time></trkpt><trkpt lat="44.312653927846206" lon="7.206811107574783"><ele>839.5</ele><time>2026-04-11T18:05:11.999Z</time></trkpt><trkpt lat="44.31271985535484" lon="7.206938764784803"><ele>841.25</ele><time>2026-04-11T18:05:12.999Z</time></trkpt><trkpt lat="44.312776928555614" lon="7.207091341218845"><ele>843.0</ele><time>2026-04-11T18:05:13.999Z</time></trkpt><trkpt lat="44.31282437115092" lon="7.207289412402995"><ele>838.6666666666667</ele><time>2026-04-11T18:05:14.999Z</time></trkpt><trkpt lat="44.31286429191485" lon="7.207528086523928"><ele>834.3333333333334</ele><time>2026-04-11T18:05:15.999Z</time></trkpt><trkpt lat="44.312901438309986" lon="7.207807070180595"><ele>830.0</ele><time>2026-04-11T18:05:16.999Z</time></trkpt><trkpt lat="44.31294091451339" lon="7.2081228273368465"><ele>827.0</ele><time>2026-04-11T18:05:17.999Z</time></trkpt><trkpt lat="44.31297779006316" lon="7.208446877408002"><ele>824.0</ele><time>2026-04-11T18:05:18.999Z</time></trkpt><trkpt lat="44.313013358220296" lon="7.2087691772026785"><ele>823.5</ele><time>2026-04-11T18:05:19.999Z</time></trkpt><trkpt lat="44.31304592973639" lon="7.209096591310945"><ele>823.0</ele><time>2026-04-11T18:05:20.999Z</time></trkpt><trkpt lat="44.313080146927966" lon="7.209418232859766"><ele>835.0</ele><time>2026-04-11T18:05:21.999Z</time></trkpt><trkpt lat="44.31311330049173" lon="7.209742492078135"><ele>847.0</ele><time>2026-04-11T18:05:22.999Z</time></trkpt><trkpt lat="44.313145220759765" lon="7.21003517572522"><ele>859.0</ele><time>2026-04-11T18:05:23.999Z</time></trkpt><trkpt lat="44.313168438360336" lon="7.2103059430893905"><ele>859.0</ele><time>2026-04-11T18:05:24.999Z</time></trkpt><trkpt lat="44.313184589418555" lon="7.210559836611677"><ele>859.0</ele><time>2026-04-11T18:05:25.999Z</time></trkpt><trkpt lat="44.31319732507334" lon="7.210857841941651"><ele>859.0</ele><time>2026-04-11T18:05:26.999Z</time></trkpt><trkpt lat="44.31320052183973" lon="7.211182176383195"><ele>853.5</ele><time>2026-04-11T18:05:27.999Z</time></trkpt><trkpt lat="44.31320368588673" lon="7.21150209926378"><ele>848.0</ele><time>2026-04-11T18:05:28.999Z</time></trkpt><trkpt lat="44.313208312556064" lon="7.211816583923265"><ele>848.0</ele><time>2026-04-11T18:05:29.999Z</time></trkpt><trkpt lat="44.31321338510783" lon="7.212102368319706"><ele>848.0</ele><time>2026-04-11T18:05:30.999Z</time></trkpt><trkpt lat="44.31322070732873" lon="7.21239345986075"><ele>848.0</ele><time>2026-04-11T18:05:31.999Z</time></trkpt><trkpt lat="44.313222652207266" lon="7.212697789846609"><ele>848.0</ele><time>2026-04-11T18:05:32.999Z</time></trkpt><trkpt lat="44.31322259391998" lon="7.21300166514061"><ele>848.0</ele><time>2026-04-11T18:05:33.999Z</time></trkpt><trkpt lat="44.3132220452029" lon="7.213290939739022"><ele>848.0</ele><time>2026-04-11T18:05:34.999Z</time></trkpt><trkpt lat="44.313222745359774" lon="7.213570981087423"><ele>847.0</ele><time>2026-04-11T18:05:35.999Z</time></trkpt><trkpt lat="44.31322259783733" lon="7.213859427024409"><ele>846.0</ele><time>2026-04-11T18:05:36.999Z</time></trkpt><trkpt lat="44.313223982097675" lon="7.21412708466208"><ele>845.0</ele><time>2026-04-11T18:05:37.999Z</time></trkpt><trkpt lat="44.3132291294968" lon="7.214377411539158"><ele>845.0</ele><time>2026-04-11T18:05:38.999Z</time></trkpt><trkpt lat="44.31323239000461" lon="7.2146110281819915"><ele>845.0</ele><time>2026-04-11T18:05:39.999Z</time></trkpt><trkpt lat="44.31323932612519" lon="7.214855757040567"><ele>845.0</ele><time>2026-04-11T18:05:40.999Z</time></trkpt><trkpt lat="44.31325263647534" lon="7.215114150720132"><ele>845.3333333333334</ele><time>2026-04-11T18:05:41.999Z</time></trkpt><trkpt lat="44.313274797659204" lon="7.215378042454616"><ele>845.6666666666667</ele><time>2026-04-11T18:05:42.999Z</time></trkpt><trkpt lat="44.31330940568454" lon="7.2156422262641975"><ele>846.0</ele><time>2026-04-11T18:05:43.999Z</time></trkpt><trkpt lat="44.31334750771358" lon="7.215911576394775"><ele>844.0</ele><time>2026-04-11T18:05:45Z</time></trkpt><trkpt lat="44.31338840415034" lon="7.216172831394126"><ele>842.0</ele><time>2026-04-11T18:05:46Z</time></trkpt><trkpt lat="44.31342636190534" lon="7.216410479343595"><ele>840.0</ele><time>2026-04-11T18:05:47Z</time></trkpt><trkpt lat="44.31345696834231" lon="7.2166348360724255"><ele>838.5</ele><time>2026-04-11T18:05:48Z</time></trkpt><trkpt lat="44.313486691317685" lon="7.216840611055994"><ele>837.0</ele><time>2026-04-11T18:05:49Z</time></trkpt><trkpt lat="44.313509479341185" lon="7.217034419279185"><ele>835.5</ele><time>2026-04-11T18:05:50Z</time></trkpt><trkpt lat="44.31352431705134" lon="7.217220414298944"><ele>834.0</ele><time>2026-04-11T18:05:51Z</time></trkpt><trkpt lat="44.313520669997295" lon="7.217396507993478"><ele>833.75</ele><time>2026-04-11T18:05:52Z</time></trkpt><trkpt lat="44.31350403606364" lon="7.2175722404354525"><ele>833.5</ele><time>2026-04-11T18:05:53Z</time></trkpt><trkpt lat="44.313485423035836" lon="7.217764864856892"><ele>833.25</ele><time>2026-04-11T18:05:54Z</time></trkpt><trkpt lat="44.313453372409064" lon="7.217972932219609"><ele>833.0</ele><time>2026-04-11T18:05:55Z</time></trkpt><trkpt lat="44.313416776887806" lon="7.218178947880223"><ele>833.0</ele><time>2026-04-11T18:05:56Z</time></trkpt><trkpt lat="44.31337879218425" lon="7.218390761761017"><ele>833.0</ele><time>2026-04-11T18:05:57Z</time></trkpt><trkpt lat="44.31334659192611" lon="7.218590872038406"><ele>833.0</ele><time>2026-04-11T18:05:58Z</time></trkpt><trkpt lat="44.31331344176843" lon="7.218770144238086"><ele>833.0</ele><time>2026-04-11T18:05:59Z</time></trkpt><trkpt lat="44.31328859640983" lon="7.21891926138204"><ele>833.8</ele><time>2026-04-11T18:06:00Z</time></trkpt><trkpt lat="44.313253731462346" lon="7.218996472000554"><ele>834.5999999999999</ele><time>2026-04-11T18:06:01Z</time></trkpt><trkpt lat="44.31322003734928" lon="7.219095716816613"><ele>835.4000000000001</ele><time>2026-04-11T18:06:02Z</time></trkpt><trkpt lat="44.3131692176942" lon="7.2192041690711015"><ele>836.2</ele><time>2026-04-11T18:06:03Z</time></trkpt><trkpt lat="44.313102730446715" lon="7.219335880783348"><ele>837.0</ele><time>2026-04-11T18:06:04Z</time></trkpt><trkpt lat="44.31302963981098" lon="7.21946550113943"><ele>834.5</ele><time>2026-04-11T18:06:05Z</time></trkpt><trkpt lat="44.31296680844371" lon="7.219588365796211"><ele>832.0</ele><time>2026-04-11T18:06:06Z</time></trkpt><trkpt lat="44.312920845675585" lon="7.219697228444136"><ele>829.5</ele><time>2026-04-11T18:06:07Z</time></trkpt><trkpt lat="44.31290319077334" lon="7.219789266240805"><ele>827.0</ele><time>2026-04-11T18:06:08Z</time></trkpt><trkpt lat="44.312877283377084" lon="7.2198831339926635"><ele>824.5</ele><time>2026-04-11T18:06:09Z</time></trkpt><trkpt lat="44.312895155745935" lon="7.220018300416383"><ele>822.0</ele><time>2026-04-11T18:06:10Z</time></trkpt><trkpt lat="44.312901469625686" lon="7.220160506455035"><ele>822.0</ele><time>2026-04-11T18:06:11Z</time></trkpt><trkpt lat="44.31289602776273" lon="7.220280422777866"><ele>822.0</ele><time>2026-04-11T18:06:12Z</time></trkpt><trkpt lat="44.3128933668721" lon="7.220416490947055"><ele>822.0</ele><time>2026-04-11T18:06:13Z</time></trkpt><trkpt lat="44.31293629541625" lon="7.220554530233434"><ele>822.0</ele><time>2026-04-11T18:06:14Z</time></trkpt><trkpt lat="44.31297877985603" lon="7.220697676304816"><ele>822.0</ele><time>2026-04-11T18:06:15Z</time></trkpt><trkpt lat="44.313030765157656" lon="7.220861082958092"><ele>826.0</ele><time>2026-04-11T18:06:16Z</time></trkpt><trkpt lat="44.313084771872745" lon="7.221025129585733"><ele>830.0</ele><time>2026-04-11T18:06:17Z</time></trkpt><trkpt lat="44.31314266096349" lon="7.2211995800712865"><ele>834.0</ele><time>2026-04-11T18:06:18Z</time></trkpt><trkpt lat="44.313200603999206" lon="7.221375118808684"><ele>838.0</ele><time>2026-04-11T18:06:19Z</time></trkpt><trkpt lat="44.31324739748563" lon="7.221518911150143"><ele>838.0</ele><time>2026-04-11T18:06:20Z</time></trkpt><trkpt lat="44.31328999817902" lon="7.221663725438144"><ele>838.0</ele><time>2026-04-11T18:06:21Z</time></trkpt><trkpt lat="44.313327513458894" lon="7.221808233027281"><ele>838.0</ele><time>2026-04-11T18:06:22Z</time></trkpt><trkpt lat="44.3133773860086" lon="7.2219599976702815"><ele>838.0</ele><time>2026-04-11T18:06:23Z</time></trkpt><trkpt lat="44.313389861413384" lon="7.222120944880286"><ele>838.0</ele><time>2026-04-11T18:06:24Z</time></trkpt><trkpt lat="44.31341749786054" lon="7.2223003939974255"><ele>838.0</ele><time>2026-04-11T18:06:25Z</time></trkpt><trkpt lat="44.31343212591845" lon="7.22246127860044"><ele>838.0</ele><time>2026-04-11T18:06:26Z</time></trkpt><trkpt lat="44.313460600082294" lon="7.222603225591333"><ele>838.0</ele><time>2026-04-11T18:06:27Z</time></trkpt><trkpt lat="44.313433100676626" lon="7.222740802471522"><ele>837.0</ele><time>2026-04-11T18:06:28Z</time></trkpt><trkpt lat="44.31339160169465" lon="7.222890506720871"><ele>836.0</ele><time>2026-04-11T18:06:29Z</time></trkpt><trkpt lat="44.31333120799121" lon="7.223079204932695"><ele>835.0</ele><time>2026-04-11T18:06:30Z</time></trkpt><trkpt lat="44.31325816208663" lon="7.22329109370112"><ele>834.0</ele><time>2026-04-11T18:06:31Z</time></trkpt><trkpt lat="44.31319155354371" lon="7.223485428444238"><ele>834.0</ele><time>2026-04-11T18:06:32Z</time></trkpt><trkpt lat="44.313133364564315" lon="7.223685963670394"><ele>834.0</ele><time>2026-04-11T18:06:33Z</time></trkpt><trkpt lat="44.31308714223857" lon="7.223890307022711"><ele>834.0</ele><time>2026-04-11T18:06:34Z</time></trkpt><trkpt lat="44.313046644304336" lon="7.224106632296497"><ele>824.3333333333333</ele><time>2026-04-11T18:06:35Z</time></trkpt><trkpt lat="44.31303243918463" lon="7.224313617137134"><ele>814.6666666666666</ele><time>2026-04-11T18:06:36Z</time></trkpt><trkpt lat="44.31299639208381" lon="7.2245158808040175"><ele>805.0</ele><time>2026-04-11T18:06:37Z</time></trkpt><trkpt lat="44.31298457944542" lon="7.224727878318744"><ele>805.25</ele><time>2026-04-11T18:06:38Z</time></trkpt><trkpt lat="44.31299304143328" lon="7.224926283994255"><ele>805.5</ele><time>2026-04-11T18:06:39Z</time></trkpt><trkpt lat="44.31299103229937" lon="7.225087696098452"><ele>805.75</ele><time>2026-04-11T18:06:40Z</time></trkpt><trkpt lat="44.31299177588549" lon="7.225244827945095"><ele>806.0</ele><time>2026-04-11T18:06:41Z</time></trkpt><trkpt lat="44.31299787050761" lon="7.225421329384378"><ele>806.0</ele><time>2026-04-11T18:06:42Z</time></trkpt><trkpt lat="44.31299839783717" lon="7.225611505709826"><ele>806.0</ele><time>2026-04-11T18:06:43Z</time></trkpt><trkpt lat="44.313033164139554" lon="7.225801438498325"><ele>806.0</ele><time>2026-04-11T18:06:44Z</time></trkpt><trkpt lat="44.31309555716245" lon="7.225997565803499"><ele>806.0</ele><time>2026-04-11T18:06:45Z</time></trkpt><trkpt lat="44.31314253228752" lon="7.226208563605436"><ele>815.3333333333334</ele><time>2026-04-11T18:06:46Z</time></trkpt><trkpt lat="44.31323041651775" lon="7.2263979382413845"><ele>824.6666666666667</ele><time>2026-04-11T18:06:47Z</time></trkpt><trkpt lat="44.313317988712605" lon="7.22660310733808"><ele>834.0</ele><time>2026-04-11T18:06:48Z</time></trkpt><trkpt lat="44.31338449607297" lon="7.226836662492519"><ele>834.0</ele><time>2026-04-11T18:06:49Z</time></trkpt><trkpt lat="44.31343420444105" lon="7.227079195415672"><ele>834.0</ele><time>2026-04-11T18:06:50Z</time></trkpt><trkpt lat="44.31348831623673" lon="7.22732798654464"><ele>834.0</ele><time>2026-04-11T18:06:51Z</time></trkpt><trkpt lat="44.31357912623038" lon="7.227567949970079"><ele>831.3333333333333</ele><time>2026-04-11T18:06:52Z</time></trkpt><trkpt lat="44.31367320769989" lon="7.227793982320213"><ele>828.6666666666666</ele><time>2026-04-11T18:06:53Z</time></trkpt><trkpt lat="44.31373289500238" lon="7.228055720846607"><ele>826.0</ele><time>2026-04-11T18:06:54Z</time></trkpt><trkpt lat="44.313764808593476" lon="7.228352296905953"><ele>823.0</ele><time>2026-04-11T18:06:55Z</time></trkpt><trkpt lat="44.31384750026843" lon="7.228635108359261"><ele>820.0</ele><time>2026-04-11T18:06:56Z</time></trkpt><trkpt lat="44.313913840201955" lon="7.228924436185787"><ele>817.0</ele><time>2026-04-11T18:06:57Z</time></trkpt><trkpt lat="44.313992840076985" lon="7.229211142510883"><ele>824.0</ele><time>2026-04-11T18:06:58Z</time></trkpt><trkpt lat="44.31408817938601" lon="7.229527184808173"><ele>831.0</ele><time>2026-04-11T18:06:59Z</time></trkpt><trkpt lat="44.31415884067136" lon="7.229853223874191"><ele>831.0</ele><time>2026-04-11T18:07:00Z</time></trkpt><trkpt lat="44.314253804848704" lon="7.230162095221186"><ele>831.0</ele><time>2026-04-11T18:07:01Z</time></trkpt><trkpt lat="44.31434996909886" lon="7.230474869809827"><ele>827.0</ele><time>2026-04-11T18:07:02Z</time></trkpt><trkpt lat="44.314444640421925" lon="7.2307827886288"><ele>823.0</ele><time>2026-04-11T18:07:03Z</time></trkpt><trkpt lat="44.31453076000965" lon="7.231062892899188"><ele>823.0</ele><time>2026-04-11T18:07:04Z</time></trkpt><trkpt lat="44.31461237186673" lon="7.23132427853748"><ele>823.0</ele><time>2026-04-11T18:07:05Z</time></trkpt><trkpt lat="44.31469397546095" lon="7.231582596122628"><ele>823.0</ele><time>2026-04-11T18:07:06Z</time></trkpt><trkpt lat="44.31477896128151" lon="7.231834456662708"><ele>827.3333333333333</ele><time>2026-04-11T18:07:07Z</time></trkpt><trkpt lat="44.31486973923193" lon="7.232084369956557"><ele>831.6666666666667</ele><time>2026-04-11T18:07:08Z</time></trkpt><trkpt lat="44.31495492377963" lon="7.232310715529341"><ele>836.0</ele><time>2026-04-11T18:07:09Z</time></trkpt><trkpt lat="44.31504517595446" lon="7.2324977987775"><ele>836.0</ele><time>2026-04-11T18:07:10Z</time></trkpt><trkpt lat="44.31509979197759" lon="7.232690509267409"><ele>836.0</ele><time>2026-04-11T18:07:11Z</time></trkpt><trkpt lat="44.315161641163904" lon="7.2328577514109496"><ele>836.0</ele><time>2026-04-11T18:07:12Z</time></trkpt><trkpt lat="44.315232038108554" lon="7.233016648650738"><ele>836.0</ele><time>2026-04-11T18:07:13Z</time></trkpt><trkpt lat="44.315271332906725" lon="7.233204462491256"><ele>833.75</ele><time>2026-04-11T18:07:14Z</time></trkpt><trkpt lat="44.315285809812984" lon="7.233406422920847"><ele>831.5</ele><time>2026-04-11T18:07:15Z</time></trkpt><trkpt lat="44.31525560001598" lon="7.233603054180901"><ele>829.25</ele><time>2026-04-11T18:07:15.999Z</time></trkpt><trkpt lat="44.315216120257695" lon="7.233812642266873"><ele>827.0</ele><time>2026-04-11T18:07:16.999Z</time></trkpt><trkpt lat="44.31517166356775" lon="7.234040557569444"><ele>826.5</ele><time>2026-04-11T18:07:17.999Z</time></trkpt><trkpt lat="44.31512749817298" lon="7.234276480835342"><ele>826.0</ele><time>2026-04-11T18:07:18.999Z</time></trkpt><trkpt lat="44.31509267454036" lon="7.234478679971708"><ele>825.5</ele><time>2026-04-11T18:07:19.999Z</time></trkpt><trkpt lat="44.31508776879684" lon="7.234651700628148"><ele>825.0</ele><time>2026-04-11T18:07:20.999Z</time></trkpt><trkpt lat="44.31508186518846" lon="7.234807971584859"><ele>825.0</ele><time>2026-04-11T18:07:21.999Z</time></trkpt><trkpt lat="44.315086568657264" lon="7.234974501097151"><ele>825.0</ele><time>2026-04-11T18:07:22.999Z</time></trkpt><trkpt lat="44.31510181082872" lon="7.235159750683127"><ele>825.0</ele><time>2026-04-11T18:07:23.999Z</time></trkpt><trkpt lat="44.31512797559898" lon="7.235352097316669"><ele>825.0</ele><time>2026-04-11T18:07:24.999Z</time></trkpt><trkpt lat="44.31516898789977" lon="7.235541294020017"><ele>823.6666666666667</ele><time>2026-04-11T18:07:25.999Z</time></trkpt><trkpt lat="44.315229098802796" lon="7.235725491425504"><ele>822.3333333333334</ele><time>2026-04-11T18:07:26.999Z</time></trkpt><trkpt lat="44.315301883881084" lon="7.235912315076022"><ele>821.0</ele><time>2026-04-11T18:07:27.999Z</time></trkpt><trkpt lat="44.31539286693265" lon="7.23611271984676"><ele>821.0</ele><time>2026-04-11T18:07:28.999Z</time></trkpt><trkpt lat="44.31550087126925" lon="7.236321609449771"><ele>821.0</ele><time>2026-04-11T18:07:29.999Z</time></trkpt><trkpt lat="44.315621303020016" lon="7.236554464596898"><ele>821.0</ele><time>2026-04-11T18:07:30.999Z</time></trkpt><trkpt lat="44.31574156111589" lon="7.236771699994913"><ele>825.6666666666667</ele><time>2026-04-11T18:07:31.999Z</time></trkpt><trkpt lat="44.31584488543323" lon="7.236956769500768"><ele>830.3333333333333</ele><time>2026-04-11T18:07:32.999Z</time></trkpt><trkpt lat="44.31593019909969" lon="7.23712763357634"><ele>835.0</ele><time>2026-04-11T18:07:33.999Z</time></trkpt><trkpt lat="44.31601675103024" lon="7.237272937772182"><ele>832.5</ele><time>2026-04-11T18:07:34.999Z</time></trkpt><trkpt lat="44.31609580205135" lon="7.237418779782157"><ele>830.0</ele><time>2026-04-11T18:07:35.999Z</time></trkpt><trkpt lat="44.31616564310628" lon="7.237587086329923"><ele>827.5</ele><time>2026-04-11T18:07:36.999Z</time></trkpt><trkpt lat="44.31621751268954" lon="7.23776648419502"><ele>825.0</ele><time>2026-04-11T18:07:37.999Z</time></trkpt><trkpt lat="44.31625043575328" lon="7.237954423105628"><ele>823.25</ele><time>2026-04-11T18:07:38.999Z</time></trkpt><trkpt lat="44.316239558776" lon="7.238149052774184"><ele>821.5</ele><time>2026-04-11T18:07:39.999Z</time></trkpt><trkpt lat="44.316225116530056" lon="7.238340041948795"><ele>819.75</ele><time>2026-04-11T18:07:40.999Z</time></trkpt><trkpt lat="44.316199615311895" lon="7.238566076516637"><ele>818.0</ele><time>2026-04-11T18:07:41.999Z</time></trkpt><trkpt lat="44.31617905447009" lon="7.2388297336336676"><ele>818.6666666666667</ele><time>2026-04-11T18:07:42.999Z</time></trkpt><trkpt lat="44.31614548494974" lon="7.239126377158494"><ele>819.3333333333333</ele><time>2026-04-11T18:07:43.999Z</time></trkpt><trkpt lat="44.316114023996725" lon="7.239430567119918"><ele>820.0</ele><time>2026-04-11T18:07:44.999Z</time></trkpt><trkpt lat="44.31608252899704" lon="7.239736586050371"><ele>820.6666666666666</ele><time>2026-04-11T18:07:45.999Z</time></trkpt><trkpt lat="44.31605210657266" lon="7.240035192036863"><ele>821.3333333333333</ele><time>2026-04-11T18:07:46.999Z</time></trkpt><trkpt lat="44.3160235280176" lon="7.240296849321803"><ele>822.0</ele><time>2026-04-11T18:07:47.999Z</time></trkpt><trkpt lat="44.31599729256397" lon="7.240519554961549"><ele>822.25</ele><time>2026-04-11T18:07:48.999Z</time></trkpt><trkpt lat="44.315982882418005" lon="7.240693008294689"><ele>822.5</ele><time>2026-04-11T18:07:49.999Z</time></trkpt><trkpt lat="44.31596944843339" lon="7.240847060421415"><ele>822.75</ele><time>2026-04-11T18:07:51Z</time></trkpt><trkpt lat="44.31596327323002" lon="7.241012131900914"><ele>823.0</ele><time>2026-04-11T18:07:52Z</time></trkpt><trkpt lat="44.315976376552776" lon="7.241215988084813"><ele>823.0</ele><time>2026-04-11T18:07:53Z</time></trkpt><trkpt lat="44.316004861957964" lon="7.2414541233704846"><ele>823.0</ele><time>2026-04-11T18:07:54Z</time></trkpt><trkpt lat="44.31603525525115" lon="7.24171705391529"><ele>823.0</ele><time>2026-04-11T18:07:55Z</time></trkpt><trkpt lat="44.31609470115487" lon="7.241994724616151"><ele>820.3333333333333</ele><time>2026-04-11T18:07:56Z</time></trkpt><trkpt lat="44.31614987072634" lon="7.2422860505168005"><ele>817.6666666666667</ele><time>2026-04-11T18:07:57Z</time></trkpt><trkpt lat="44.31620350305622" lon="7.242585529290856"><ele>815.0</ele><time>2026-04-11T18:07:58Z</time></trkpt><trkpt lat="44.316252080809534" lon="7.242868041798025"><ele>811.6666666666667</ele><time>2026-04-11T18:07:59Z</time></trkpt><trkpt lat="44.31628865126477" lon="7.243123363816646"><ele>808.3333333333333</ele><time>2026-04-11T18:08:00Z</time></trkpt><trkpt lat="44.316313459447436" lon="7.243362902700925"><ele>805.0</ele><time>2026-04-11T18:08:01Z</time></trkpt><trkpt lat="44.316332305864066" lon="7.243625908287356"><ele>802.0</ele><time>2026-04-11T18:08:02Z</time></trkpt><trkpt lat="44.316342139007084" lon="7.243921144462866"><ele>799.0</ele><time>2026-04-11T18:08:03Z</time></trkpt><trkpt lat="44.31635019706989" lon="7.244240197940036"><ele>796.0</ele><time>2026-04-11T18:08:04Z</time></trkpt><trkpt lat="44.31635733762365" lon="7.244567558700289"><ele>795.0</ele><time>2026-04-11T18:08:05Z</time></trkpt><trkpt lat="44.316363163672534" lon="7.244889306249957"><ele>794.0</ele><time>2026-04-11T18:08:06Z</time></trkpt><trkpt lat="44.31636759899686" lon="7.245201980586813"><ele>794.0</ele><time>2026-04-11T18:08:07Z</time></trkpt><trkpt lat="44.31637495125375" lon="7.245497762707571"><ele>794.0</ele><time>2026-04-11T18:08:08Z</time></trkpt><trkpt lat="44.31638292751873" lon="7.245794364851607"><ele>794.0</ele><time>2026-04-11T18:08:09Z</time></trkpt><trkpt lat="44.31639418468628" lon="7.246087074543372"><ele>800.3333333333334</ele><time>2026-04-11T18:08:10Z</time></trkpt><trkpt lat="44.31641378356772" lon="7.246381292714393"><ele>806.6666666666667</ele><time>2026-04-11T18:08:11Z</time></trkpt><trkpt lat="44.316439063807636" lon="7.246674351043052"><ele>813.0</ele><time>2026-04-11T18:08:12Z</time></trkpt><trkpt lat="44.31647315241813" lon="7.24697395258249"><ele>813.0</ele><time>2026-04-11T18:08:13Z</time></trkpt><trkpt lat="44.316517321416235" lon="7.247281888511426"><ele>813.0</ele><time>2026-04-11T18:08:14Z</time></trkpt><trkpt lat="44.316568504993576" lon="7.247597181779718"><ele>812.5</ele><time>2026-04-11T18:08:15Z</time></trkpt><trkpt lat="44.316616344223014" lon="7.247920311142089"><ele>812.0</ele><time>2026-04-11T18:08:16Z</time></trkpt><trkpt lat="44.31667542022441" lon="7.248251062711085"><ele>809.5</ele><time>2026-04-11T18:08:17Z</time></trkpt><trkpt lat="44.316732065271175" lon="7.248580505575495"><ele>807.0</ele><time>2026-04-11T18:08:18Z</time></trkpt><trkpt lat="44.31678911177047" lon="7.248910425139739"><ele>805.0</ele><time>2026-04-11T18:08:19Z</time></trkpt><trkpt lat="44.31684339699511" lon="7.249257925672279"><ele>803.0</ele><time>2026-04-11T18:08:20Z</time></trkpt><trkpt lat="44.31689988102737" lon="7.2495980681742225"><ele>801.0</ele><time>2026-04-11T18:08:21Z</time></trkpt><trkpt lat="44.31695735073455" lon="7.249939229749112"><ele>799.0</ele><time>2026-04-11T18:08:22Z</time></trkpt><trkpt lat="44.31699217527448" lon="7.250259189968016"><ele>799.0</ele><time>2026-04-11T18:08:23Z</time></trkpt><trkpt lat="44.317042272389116" lon="7.25055960553429"><ele>799.0</ele><time>2026-04-11T18:08:24Z</time></trkpt><trkpt lat="44.31709570391409" lon="7.250854419341865"><ele>799.0</ele><time>2026-04-11T18:08:25Z</time></trkpt><trkpt lat="44.31713590315895" lon="7.251115557785227"><ele>798.0</ele><time>2026-04-11T18:08:26Z</time></trkpt><trkpt lat="44.31718372746755" lon="7.2513918574119955"><ele>797.0</ele><time>2026-04-11T18:08:27Z</time></trkpt><trkpt lat="44.31724349784887" lon="7.2516718033550385"><ele>796.0</ele><time>2026-04-11T18:08:28Z</time></trkpt><trkpt lat="44.317307822221814" lon="7.251951720435391"><ele>800.6666666666666</ele><time>2026-04-11T18:08:29Z</time></trkpt><trkpt lat="44.31737099791868" lon="7.252203576511586"><ele>805.3333333333333</ele><time>2026-04-11T18:08:30Z</time></trkpt><trkpt lat="44.317426967693706" lon="7.252430909565074"><ele>810.0</ele><time>2026-04-11T18:08:31Z</time></trkpt><trkpt lat="44.31747764097138" lon="7.252658211549466"><ele>810.0</ele><time>2026-04-11T18:08:32Z</time></trkpt><trkpt lat="44.31751696425524" lon="7.252875268562691"><ele>810.0</ele><time>2026-04-11T18:08:33Z</time></trkpt><trkpt lat="44.317551045634126" lon="7.2531007609807805"><ele>810.0</ele><time>2026-04-11T18:08:34Z</time></trkpt><trkpt lat="44.31754600650616" lon="7.253333564204121"><ele>810.0</ele><time>2026-04-11T18:08:35Z</time></trkpt><trkpt lat="44.31754127660067" lon="7.2535665720043"><ele>810.0</ele><time>2026-04-11T18:08:36Z</time></trkpt><trkpt lat="44.31753330314368" lon="7.253811145272596"><ele>810.0</ele><time>2026-04-11T18:08:37Z</time></trkpt><trkpt lat="44.31754745445126" lon="7.254067180426723"><ele>810.0</ele><time>2026-04-11T18:08:38Z</time></trkpt><trkpt lat="44.31755476561553" lon="7.254338263780168"><ele>810.0</ele><time>2026-04-11T18:08:39Z</time></trkpt><trkpt lat="44.31756874015862" lon="7.2545741097872005"><ele>810.0</ele><time>2026-04-11T18:08:40Z</time></trkpt><trkpt lat="44.317587987478085" lon="7.254786126675471"><ele>809.0</ele><time>2026-04-11T18:08:41Z</time></trkpt><trkpt lat="44.317609374617845" lon="7.254991008957216"><ele>808.0</ele><time>2026-04-11T18:08:42Z</time></trkpt><trkpt lat="44.31759804890859" lon="7.255215658147696"><ele>807.0</ele><time>2026-04-11T18:08:43Z</time></trkpt><trkpt lat="44.31758176572642" lon="7.255460679091481"><ele>806.3333333333333</ele><time>2026-04-11T18:08:44Z</time></trkpt><trkpt lat="44.31754151128534" lon="7.255711820396808"><ele>805.6666666666666</ele><time>2026-04-11T18:08:45Z</time></trkpt><trkpt lat="44.317493303157356" lon="7.255923171297239"><ele>805.0</ele><time>2026-04-11T18:08:46Z</time></trkpt><trkpt lat="44.31746054700002" lon="7.25611137040551"><ele>805.0</ele><time>2026-04-11T18:08:47Z</time></trkpt><trkpt lat="44.317422243385614" lon="7.256288222094156"><ele>805.0</ele><time>2026-04-11T18:08:48Z</time></trkpt><trkpt lat="44.317405370851276" lon="7.256474297071472"><ele>805.0</ele><time>2026-04-11T18:08:49Z</time></trkpt><trkpt lat="44.31741193384579" lon="7.256703998122507"><ele>805.0</ele><time>2026-04-11T18:08:50Z</time></trkpt><trkpt lat="44.31743448327678" lon="7.256961680587966"><ele>805.0</ele><time>2026-04-11T18:08:51Z</time></trkpt><trkpt lat="44.317464647940774" lon="7.257232703033771"><ele>805.0</ele><time>2026-04-11T18:08:52Z</time></trkpt><trkpt lat="44.317491485300614" lon="7.257506355007491"><ele>805.0</ele><time>2026-04-11T18:08:53Z</time></trkpt><trkpt lat="44.31749915529847" lon="7.25776788392477"><ele>805.3333333333333</ele><time>2026-04-11T18:08:54Z</time></trkpt><trkpt lat="44.31749944383658" lon="7.258002239850128"><ele>805.6666666666667</ele><time>2026-04-11T18:08:55Z</time></trkpt><trkpt lat="44.31749297821553" lon="7.258242763319066"><ele>806.0</ele><time>2026-04-11T18:08:56Z</time></trkpt><trkpt lat="44.3174718621352" lon="7.2585182021929535"><ele>804.5</ele><time>2026-04-11T18:08:57Z</time></trkpt><trkpt lat="44.317451196920466" lon="7.258843884858047"><ele>803.0</ele><time>2026-04-11T18:08:58Z</time></trkpt><trkpt lat="44.31741272608527" lon="7.259191341898887"><ele>802.0</ele><time>2026-04-11T18:08:59Z</time></trkpt><trkpt lat="44.31739107077935" lon="7.259557520197874"><ele>801.0</ele><time>2026-04-11T18:09:00Z</time></trkpt><trkpt lat="44.31737049401894" lon="7.259913273808708"><ele>800.0</ele><time>2026-04-11T18:09:01Z</time></trkpt><trkpt lat="44.31734859838957" lon="7.2602556231011155"><ele>799.0</ele><time>2026-04-11T18:09:02Z</time></trkpt><trkpt lat="44.31734050765623" lon="7.260599629112246"><ele>797.5</ele><time>2026-04-11T18:09:03Z</time></trkpt><trkpt lat="44.317311430951904" lon="7.260955117548179"><ele>796.0</ele><time>2026-04-11T18:09:04Z</time></trkpt><trkpt lat="44.31728396321201" lon="7.261314699127056"><ele>800.0</ele><time>2026-04-11T18:09:05Z</time></trkpt><trkpt lat="44.31725510804831" lon="7.26167581178169"><ele>804.0</ele><time>2026-04-11T18:09:06Z</time></trkpt><trkpt lat="44.317212769494226" lon="7.262013300132879"><ele>793.3333333333333</ele><time>2026-04-11T18:09:07Z</time></trkpt><trkpt lat="44.31720455814817" lon="7.262327381574926"><ele>782.6666666666666</ele><time>2026-04-11T18:09:08Z</time></trkpt><trkpt lat="44.31717656704176" lon="7.262619019307278"><ele>772.0</ele><time>2026-04-11T18:09:09Z</time></trkpt><trkpt lat="44.317155357038544" lon="7.262883697296711"><ele>772.6666666666666</ele><time>2026-04-11T18:09:10Z</time></trkpt><trkpt lat="44.317137709774315" lon="7.263126204218153"><ele>773.3333333333333</ele><time>2026-04-11T18:09:11Z</time></trkpt><trkpt lat="44.31711783796071" lon="7.263340843893353"><ele>774.0</ele><time>2026-04-11T18:09:12Z</time></trkpt><trkpt lat="44.317100407402386" lon="7.2635442773575205"><ele>774.0</ele><time>2026-04-11T18:09:13Z</time></trkpt><trkpt lat="44.317079206072655" lon="7.263738810825904"><ele>774.0</ele><time>2026-04-11T18:09:14Z</time></trkpt><trkpt lat="44.31704579252833" lon="7.263935713729103"><ele>774.0</ele><time>2026-04-11T18:09:15Z</time></trkpt><trkpt lat="44.31698111134056" lon="7.264155860775672"><ele>774.0</ele><time>2026-04-11T18:09:16Z</time></trkpt><trkpt lat="44.316898419514445" lon="7.2643933447677345"><ele>774.0</ele><time>2026-04-11T18:09:17Z</time></trkpt><trkpt lat="44.316811441517586" lon="7.264607449740625"><ele>774.0</ele><time>2026-04-11T18:09:18Z</time></trkpt><trkpt lat="44.3167364941771" lon="7.264808658343372"><ele>776.3333333333333</ele><time>2026-04-11T18:09:19Z</time></trkpt><trkpt lat="44.31667693092463" lon="7.265020778394313"><ele>778.6666666666666</ele><time>2026-04-11T18:09:20Z</time></trkpt><trkpt lat="44.316626813676514" lon="7.265242146479949"><ele>781.0</ele><time>2026-04-11T18:09:21Z</time></trkpt><trkpt lat="44.31658923826474" lon="7.265474265971047"><ele>783.0</ele><time>2026-04-11T18:09:22Z</time></trkpt><trkpt lat="44.316563465542366" lon="7.265753038677184"><ele>785.0</ele><time>2026-04-11T18:09:23Z</time></trkpt><trkpt lat="44.31652817987467" lon="7.266043577135789"><ele>787.0</ele><time>2026-04-11T18:09:24Z</time></trkpt><trkpt lat="44.316458213981264" lon="7.266317073983669"><ele>774.5</ele><time>2026-04-11T18:09:25Z</time></trkpt><trkpt lat="44.31636783535894" lon="7.266607366035199"><ele>762.0</ele><time>2026-04-11T18:09:26Z</time></trkpt><trkpt lat="44.316290485553665" lon="7.266921055485986"><ele>762.0</ele><time>2026-04-11T18:09:26.999Z</time></trkpt><trkpt lat="44.31619832161339" lon="7.267209781825549"><ele>762.0</ele><time>2026-04-11T18:09:27.999Z</time></trkpt><trkpt lat="44.316117427148235" lon="7.267477577037549"><ele>762.0</ele><time>2026-04-11T18:09:28.999Z</time></trkpt><trkpt lat="44.316041499751854" lon="7.267718505179263"><ele>763.0</ele><time>2026-04-11T18:09:29.999Z</time></trkpt><trkpt lat="44.31597068938111" lon="7.267957563676572"><ele>764.0</ele><time>2026-04-11T18:09:30.999Z</time></trkpt><trkpt lat="44.31591577303776" lon="7.268195498019729"><ele>765.0</ele><time>2026-04-11T18:09:31.999Z</time></trkpt><trkpt lat="44.31586375484039" lon="7.268477533617465"><ele>768.0</ele><time>2026-04-11T18:09:32.999Z</time></trkpt><trkpt lat="44.31581084550116" lon="7.268802907491143"><ele>771.0</ele><time>2026-04-11T18:09:33.999Z</time></trkpt><trkpt lat="44.315738111072584" lon="7.269155435435692"><ele>776.0</ele><time>2026-04-11T18:09:34.999Z</time></trkpt><trkpt lat="44.315683967502984" lon="7.269483980927416"><ele>781.0</ele><time>2026-04-11T18:09:35.999Z</time></trkpt><trkpt lat="44.31564837039181" lon="7.269799077664783"><ele>783.3333333333333</ele><time>2026-04-11T18:09:36.999Z</time></trkpt><trkpt lat="44.3155973660378" lon="7.270097361249891"><ele>785.6666666666667</ele><time>2026-04-11T18:09:37.999Z</time></trkpt><trkpt lat="44.31554968865891" lon="7.270383123621213"><ele>788.0</ele><time>2026-04-11T18:09:38.999Z</time></trkpt><trkpt lat="44.31550099937939" lon="7.27066942462002"><ele>780.0</ele><time>2026-04-11T18:09:39.999Z</time></trkpt><trkpt lat="44.315436442327936" lon="7.270954385520533"><ele>772.0</ele><time>2026-04-11T18:09:40.999Z</time></trkpt><trkpt lat="44.31534384049666" lon="7.271227621500691"><ele>764.0</ele><time>2026-04-11T18:09:41.999Z</time></trkpt><trkpt lat="44.31527916362683" lon="7.271499574283154"><ele>764.0</ele><time>2026-04-11T18:09:42.999Z</time></trkpt><trkpt lat="44.31520926674327" lon="7.271748477608386"><ele>764.0</ele><time>2026-04-11T18:09:43.999Z</time></trkpt><trkpt lat="44.31513893297483" lon="7.271993649279411"><ele>764.0</ele><time>2026-04-11T18:09:44.999Z</time></trkpt><trkpt lat="44.31507213559065" lon="7.272244954793745"><ele>766.3333333333333</ele><time>2026-04-11T18:09:45.999Z</time></trkpt><trkpt lat="44.315008008571354" lon="7.272487926643851"><ele>768.6666666666666</ele><time>2026-04-11T18:09:46.999Z</time></trkpt><trkpt lat="44.31494946689053" lon="7.272724220517774"><ele>771.0</ele><time>2026-04-11T18:09:47.999Z</time></trkpt><trkpt lat="44.31489355103061" lon="7.27295830415592"><ele>775.3333333333333</ele><time>2026-04-11T18:09:48.999Z</time></trkpt><trkpt lat="44.314828326861495" lon="7.273181352124854"><ele>779.6666666666666</ele><time>2026-04-11T18:09:49.999Z</time></trkpt><trkpt lat="44.314775405798464" lon="7.273409791833919"><ele>784.0</ele><time>2026-04-11T18:09:50.999Z</time></trkpt><trkpt lat="44.314735415456965" lon="7.273647661672384"><ele>776.6666666666666</ele><time>2026-04-11T18:09:51.999Z</time></trkpt><trkpt lat="44.31466606904513" lon="7.27387439549413"><ele>769.3333333333333</ele><time>2026-04-11T18:09:52.999Z</time></trkpt><trkpt lat="44.31461110322041" lon="7.274105360358999"><ele>762.0</ele><time>2026-04-11T18:09:53.999Z</time></trkpt><trkpt lat="44.31455419120928" lon="7.274331263704818"><ele>762.0</ele><time>2026-04-11T18:09:54.999Z</time></trkpt><trkpt lat="44.31449542467108" lon="7.274551225963614"><ele>762.0</ele><time>2026-04-11T18:09:55.999Z</time></trkpt><trkpt lat="44.314427970539974" lon="7.27476432829651"><ele>762.0</ele><time>2026-04-11T18:09:57Z</time></trkpt><trkpt lat="44.3143594601672" lon="7.274958649041906"><ele>764.0</ele><time>2026-04-11T18:09:58Z</time></trkpt><trkpt lat="44.31430860706961" lon="7.27514956050228"><ele>766.0</ele><time>2026-04-11T18:09:59Z</time></trkpt><trkpt lat="44.314239065413005" lon="7.275324975003026"><ele>768.0</ele><time>2026-04-11T18:10:00Z</time></trkpt><trkpt lat="44.314173664430896" lon="7.275518303388261"><ele>770.0</ele><time>2026-04-11T18:10:01Z</time></trkpt><trkpt lat="44.31411937686985" lon="7.275726784734927"><ele>772.25</ele><time>2026-04-11T18:10:02Z</time></trkpt><trkpt lat="44.31407217829636" lon="7.27592317858744"><ele>774.5</ele><time>2026-04-11T18:10:03Z</time></trkpt><trkpt lat="44.31402704987717" lon="7.276110409345209"><ele>776.75</ele><time>2026-04-11T18:10:04Z</time></trkpt><trkpt lat="44.31398864420837" lon="7.276305733819588"><ele>779.0</ele><time>2026-04-11T18:10:05Z</time></trkpt><trkpt lat="44.313957044106324" lon="7.276533970886959"><ele>781.0</ele><time>2026-04-11T18:10:06Z</time></trkpt><trkpt lat="44.31391864086579" lon="7.276790289724002"><ele>783.0</ele><time>2026-04-11T18:10:07Z</time></trkpt><trkpt lat="44.313898142512194" lon="7.2771115636975825"><ele>785.0</ele><time>2026-04-11T18:10:08Z</time></trkpt><trkpt lat="44.31388457754997" lon="7.27747946829395"><ele>771.5</ele><time>2026-04-11T18:10:09Z</time></trkpt><trkpt lat="44.3138723252612" lon="7.277908207214228"><ele>758.0</ele><time>2026-04-11T18:10:10Z</time></trkpt><trkpt lat="44.31386088627958" lon="7.2783365732155145"><ele>758.0</ele><time>2026-04-11T18:10:11Z</time></trkpt><trkpt lat="44.31384987508258" lon="7.278732277609634"><ele>758.0</ele><time>2026-04-11T18:10:12Z</time></trkpt><trkpt lat="44.313860471144956" lon="7.279092168733435"><ele>758.0</ele><time>2026-04-11T18:10:13Z</time></trkpt><trkpt lat="44.31385848352771" lon="7.279414659458086"><ele>758.0</ele><time>2026-04-11T18:10:14Z</time></trkpt><trkpt lat="44.313841653126886" lon="7.2797221065242335"><ele>758.3333333333333</ele><time>2026-04-11T18:10:15Z</time></trkpt><trkpt lat="44.31385692041259" lon="7.280021511199815"><ele>758.6666666666666</ele><time>2026-04-11T18:10:16Z</time></trkpt><trkpt lat="44.31385244347974" lon="7.280297284359711"><ele>759.0</ele><time>2026-04-11T18:10:17Z</time></trkpt><trkpt lat="44.31384052303158" lon="7.280580918872605"><ele>759.0</ele><time>2026-04-11T18:10:18Z</time></trkpt><trkpt lat="44.3137986773721" lon="7.280878496679495"><ele>759.0</ele><time>2026-04-11T18:10:19Z</time></trkpt><trkpt lat="44.313771907086114" lon="7.28119982829293"><ele>759.0</ele><time>2026-04-11T18:10:20Z</time></trkpt><trkpt lat="44.313730647076234" lon="7.281498024880952"><ele>761.0</ele><time>2026-04-11T18:10:21Z</time></trkpt><trkpt lat="44.31368978022161" lon="7.281788253570714"><ele>763.0</ele><time>2026-04-11T18:10:22Z</time></trkpt><trkpt lat="44.31364023208346" lon="7.282071814557416"><ele>765.0</ele><time>2026-04-11T18:10:23Z</time></trkpt><trkpt lat="44.31362065243339" lon="7.282410625926186"><ele>766.0</ele><time>2026-04-11T18:10:24Z</time></trkpt><trkpt lat="44.31361664050291" lon="7.282773410109057"><ele>767.0</ele><time>2026-04-11T18:10:25Z</time></trkpt><trkpt lat="44.31362472776628" lon="7.283133326969718"><ele>768.0</ele><time>2026-04-11T18:10:26Z</time></trkpt><trkpt lat="44.31358473736436" lon="7.2834824004920256"><ele>769.0</ele><time>2026-04-11T18:10:27Z</time></trkpt><trkpt lat="44.313554998145634" lon="7.28380688040117"><ele>769.6666666666666</ele><time>2026-04-11T18:10:28Z</time></trkpt><trkpt lat="44.31353246059235" lon="7.284096022250842"><ele>770.3333333333333</ele><time>2026-04-11T18:10:29Z</time></trkpt><trkpt lat="44.31352784020983" lon="7.284362234219518"><ele>771.0</ele><time>2026-04-11T18:10:30Z</time></trkpt><trkpt lat="44.31351240749287" lon="7.284594641653806"><ele>771.3333333333333</ele><time>2026-04-11T18:10:31Z</time></trkpt><trkpt lat="44.31349556380963" lon="7.284814594867108"><ele>771.6666666666666</ele><time>2026-04-11T18:10:32Z</time></trkpt><trkpt lat="44.3134593546402" lon="7.285051061488563"><ele>772.0</ele><time>2026-04-11T18:10:33Z</time></trkpt><trkpt lat="44.31338002234627" lon="7.285293021764264"><ele>772.0</ele><time>2026-04-11T18:10:34Z</time></trkpt><trkpt lat="44.31331865266544" lon="7.285531125731586"><ele>772.0</ele><time>2026-04-11T18:10:35Z</time></trkpt><trkpt lat="44.31327064882492" lon="7.285753206227017"><ele>772.0</ele><time>2026-04-11T18:10:36Z</time></trkpt><trkpt lat="44.3132523743131" lon="7.285945168380224"><ele>772.5</ele><time>2026-04-11T18:10:37Z</time></trkpt><trkpt lat="44.313230082531526" lon="7.286127389109879"><ele>773.0</ele><time>2026-04-11T18:10:38Z</time></trkpt><trkpt lat="44.31320847933243" lon="7.286319687516922"><ele>773.5</ele><time>2026-04-11T18:10:39Z</time></trkpt><trkpt lat="44.31323888042474" lon="7.286555389183528"><ele>774.0</ele><time>2026-04-11T18:10:40Z</time></trkpt><trkpt lat="44.313245465210954" lon="7.286791064233564"><ele>774.6666666666667</ele><time>2026-04-11T18:10:41Z</time></trkpt><trkpt lat="44.31326181082094" lon="7.287043955482317"><ele>775.3333333333334</ele><time>2026-04-11T18:10:42Z</time></trkpt><trkpt lat="44.31323921427735" lon="7.287288408154148"><ele>776.0</ele><time>2026-04-11T18:10:43Z</time></trkpt><trkpt lat="44.31320276337086" lon="7.287567993973567"><ele>777.0</ele><time>2026-04-11T18:10:44Z</time></trkpt><trkpt lat="44.31318247549417" lon="7.287870313370444"><ele>778.0</ele><time>2026-04-11T18:10:45Z</time></trkpt><trkpt lat="44.31318491084431" lon="7.288197650701435"><ele>779.5</ele><time>2026-04-11T18:10:46Z</time></trkpt><trkpt lat="44.313169663385914" lon="7.288534155776097"><ele>781.0</ele><time>2026-04-11T18:10:47Z</time></trkpt><trkpt lat="44.313157725444526" lon="7.288876234559348"><ele>781.3333333333333</ele><time>2026-04-11T18:10:48Z</time></trkpt><trkpt lat="44.31314429512934" lon="7.289202159312724"><ele>781.6666666666667</ele><time>2026-04-11T18:10:49Z</time></trkpt><trkpt lat="44.313127862551184" lon="7.2894924747713"><ele>782.0</ele><time>2026-04-11T18:10:50Z</time></trkpt><trkpt lat="44.313114874952625" lon="7.289753368005035"><ele>782.3333333333334</ele><time>2026-04-11T18:10:51Z</time></trkpt><trkpt lat="44.31310508371844" lon="7.289980971219239"><ele>782.6666666666667</ele><time>2026-04-11T18:10:52Z</time></trkpt><trkpt lat="44.31309049446605" lon="7.290196029490343"><ele>783.0</ele><time>2026-04-11T18:10:53Z</time></trkpt><trkpt lat="44.313079628033904" lon="7.290393140829157"><ele>783.0</ele><time>2026-04-11T18:10:54Z</time></trkpt><trkpt lat="44.313076542223364" lon="7.290579688801665"><ele>783.0</ele><time>2026-04-11T18:10:55Z</time></trkpt><trkpt lat="44.31307202332586" lon="7.290767401815977"><ele>783.0</ele><time>2026-04-11T18:10:56Z</time></trkpt><trkpt lat="44.31309707960229" lon="7.29094073943401"><ele>783.0</ele><time>2026-04-11T18:10:57Z</time></trkpt><trkpt lat="44.31313563861425" lon="7.2911087113506925"><ele>783.3333333333333</ele><time>2026-04-11T18:10:58Z</time></trkpt><trkpt lat="44.31318638719331" lon="7.291285102482625"><ele>783.6666666666666</ele><time>2026-04-11T18:10:59Z</time></trkpt><trkpt lat="44.31326066171823" lon="7.2914739489746285"><ele>784.0</ele><time>2026-04-11T18:11:00Z</time></trkpt><trkpt lat="44.31335250381108" lon="7.291671777840037"><ele>783.0</ele><time>2026-04-11T18:11:01Z</time></trkpt><trkpt lat="44.313456099833616" lon="7.291879922471733"><ele>782.0</ele><time>2026-04-11T18:11:02Z</time></trkpt><trkpt lat="44.31356799099374" lon="7.292104733697776"><ele>781.0</ele><time>2026-04-11T18:11:03Z</time></trkpt><trkpt lat="44.31368443405531" lon="7.292339303379954"><ele>780.3333333333333</ele><time>2026-04-11T18:11:04Z</time></trkpt><trkpt lat="44.313799173204345" lon="7.292570698196307"><ele>779.6666666666667</ele><time>2026-04-11T18:11:05Z</time></trkpt><trkpt lat="44.31390244322978" lon="7.292778533367852"><ele>779.0</ele><time>2026-04-11T18:11:06Z</time></trkpt><trkpt lat="44.31399690603995" lon="7.292968473969273"><ele>779.75</ele><time>2026-04-11T18:11:07Z</time></trkpt><trkpt lat="44.31408725471708" lon="7.293150142059023"><ele>780.5</ele><time>2026-04-11T18:11:08Z</time></trkpt><trkpt lat="44.31417156605461" lon="7.293319670640002"><ele>781.25</ele><time>2026-04-11T18:11:09Z</time></trkpt><trkpt lat="44.31425064924413" lon="7.293478712041192"><ele>782.0</ele><time>2026-04-11T18:11:10Z</time></trkpt><trkpt lat="44.31432558406326" lon="7.293629480862321"><ele>782.0</ele><time>2026-04-11T18:11:11Z</time></trkpt><trkpt lat="44.31441000684484" lon="7.293764811421311"><ele>782.0</ele><time>2026-04-11T18:11:12Z</time></trkpt><trkpt lat="44.31447526595935" lon="7.2939099678308486"><ele>782.0</ele><time>2026-04-11T18:11:13Z</time></trkpt><trkpt lat="44.31454002611285" lon="7.2940418469746975"><ele>782.0</ele><time>2026-04-11T18:11:14Z</time></trkpt><trkpt lat="44.31459738870423" lon="7.294171844077572"><ele>781.6</ele><time>2026-04-11T18:11:15Z</time></trkpt><trkpt lat="44.31465532517052" lon="7.2942954308525065"><ele>781.2</ele><time>2026-04-11T18:11:16Z</time></trkpt><trkpt lat="44.31471193898716" lon="7.294411675372815"><ele>780.8</ele><time>2026-04-11T18:11:17Z</time></trkpt><trkpt lat="44.31476499982488" lon="7.2945120575470614"><ele>780.4</ele><time>2026-04-11T18:11:18Z</time></trkpt><trkpt lat="44.3148131127413" lon="7.294606190102305"><ele>780.0</ele><time>2026-04-11T18:11:19Z</time></trkpt><trkpt lat="44.31485796212492" lon="7.294693912760409"><ele>780.6</ele><time>2026-04-11T18:11:20Z</time></trkpt><trkpt lat="44.31489918219433" lon="7.294791013343398"><ele>781.2</ele><time>2026-04-11T18:11:21Z</time></trkpt><trkpt lat="44.31495905550361" lon="7.294903781711142"><ele>781.8</ele><time>2026-04-11T18:11:22Z</time></trkpt><trkpt lat="44.31502800133045" lon="7.295023148266478"><ele>782.4</ele><time>2026-04-11T18:11:23Z</time></trkpt><trkpt lat="44.31509001362194" lon="7.295140210510472"><ele>783.0</ele><time>2026-04-11T18:11:24Z</time></trkpt><trkpt lat="44.31514638766852" lon="7.295249871814591"><ele>783.0</ele><time>2026-04-11T18:11:25Z</time></trkpt><trkpt lat="44.315191886639944" lon="7.295344452825558"><ele>783.0</ele><time>2026-04-11T18:11:26Z</time></trkpt><trkpt lat="44.31524021433976" lon="7.295446341403934"><ele>783.0</ele><time>2026-04-11T18:11:27Z</time></trkpt><trkpt lat="44.31527161328551" lon="7.295567725646937"><ele>783.0</ele><time>2026-04-11T18:11:28Z</time></trkpt><trkpt lat="44.31530318518186" lon="7.2957008389345"><ele>783.0</ele><time>2026-04-11T18:11:29Z</time></trkpt><trkpt lat="44.315322752156824" lon="7.295828100893356"><ele>783.0</ele><time>2026-04-11T18:11:29.999Z</time></trkpt><trkpt lat="44.31532565509356" lon="7.295971060289961"><ele>783.0</ele><time>2026-04-11T18:11:30.999Z</time></trkpt><trkpt lat="44.31531541141818" lon="7.2961153758649"><ele>783.0</ele><time>2026-04-11T18:11:31.999Z</time></trkpt><trkpt lat="44.315340482646256" lon="7.296272252840476"><ele>783.0</ele><time>2026-04-11T18:11:32.999Z</time></trkpt><trkpt lat="44.31529354398182" lon="7.296449096522944"><ele>782.5</ele><time>2026-04-11T18:11:33.999Z</time></trkpt><trkpt lat="44.315266062150016" lon="7.296627896096892"><ele>782.0</ele><time>2026-04-11T18:11:34.999Z</time></trkpt><trkpt lat="44.315242765280274" lon="7.296814747445025"><ele>781.5</ele><time>2026-04-11T18:11:35.999Z</time></trkpt><trkpt lat="44.315208174931584" lon="7.297001373440147"><ele>781.0</ele><time>2026-04-11T18:11:36.999Z</time></trkpt><trkpt lat="44.31516993734247" lon="7.297200035492113"><ele>781.75</ele><time>2026-04-11T18:11:37.999Z</time></trkpt><trkpt lat="44.315146192991094" lon="7.297390594751622"><ele>782.5</ele><time>2026-04-11T18:11:38.999Z</time></trkpt><trkpt lat="44.31512553151803" lon="7.297569834623471"><ele>783.25</ele><time>2026-04-11T18:11:39.999Z</time></trkpt><trkpt lat="44.315109521063484" lon="7.297708726443452"><ele>784.0</ele><time>2026-04-11T18:11:40.999Z</time></trkpt><trkpt lat="44.31509226606386" lon="7.297862463553386"><ele>784.0</ele><time>2026-04-11T18:11:42.999Z</time></trkpt><trkpt lat="44.31503009115659" lon="7.298371854612863"><ele>784.0</ele><time>2026-04-11T18:11:44.999Z</time></trkpt><trkpt lat="44.315014348356" lon="7.298512220297908"><ele>783.9999999999999</ele><time>2026-04-11T18:11:45.999Z</time></trkpt><trkpt lat="44.314997364444466" lon="7.298639998625136"><ele>784.0</ele><time>2026-04-11T18:11:46.999Z</time></trkpt><trkpt lat="44.31498048612655" lon="7.298755912071724"><ele>784.0</ele><time>2026-04-11T18:11:47.999Z</time></trkpt><trkpt lat="44.314958733473865" lon="7.298856427820552"><ele>784.0</ele><time>2026-04-11T18:11:48.999Z</time></trkpt><trkpt lat="44.31492439124255" lon="7.298962113465585"><ele>783.9999999999999</ele><time>2026-04-11T18:11:49.999Z</time></trkpt><trkpt lat="44.31486021840581" lon="7.299019366855138"><ele>784.0</ele><time>2026-04-11T18:11:50.999Z</time></trkpt><trkpt lat="44.3148054141999" lon="7.299091225434579"><ele>783.0</ele><time>2026-04-11T18:11:51.999Z</time></trkpt><trkpt lat="44.31475996904727" lon="7.299171354173412"><ele>782.0</ele><time>2026-04-11T18:11:52.999Z</time></trkpt><trkpt lat="44.314713817162065" lon="7.299294438950674"><ele>781.0</ele><time>2026-04-11T18:11:54.999Z</time></trkpt><trkpt lat="44.31479105368708" lon="7.29943044729709"><ele>780.0</ele><time>2026-04-11T18:11:55.999Z</time></trkpt><trkpt lat="44.31484969591833" lon="7.299539252612022"><ele>779.0</ele><time>2026-04-11T18:11:56.999Z</time></trkpt><trkpt lat="44.31492317150637" lon="7.2996680630517465"><ele>776.3333333333334</ele><time>2026-04-11T18:11:57.999Z</time></trkpt><trkpt lat="44.31499432145022" lon="7.299841235219531"><ele>773.6666666666667</ele><time>2026-04-11T18:11:58.999Z</time></trkpt><trkpt lat="44.3150556809001" lon="7.300041013992506"><ele>771.0</ele><time>2026-04-11T18:11:59.999Z</time></trkpt><trkpt lat="44.31513056598672" lon="7.300244643970067"><ele>771.0</ele><time>2026-04-11T18:12:00.999Z</time></trkpt><trkpt lat="44.31519927265494" lon="7.300446404025822"><ele>771.0</ele><time>2026-04-11T18:12:01.999Z</time></trkpt><trkpt lat="44.31526419384734" lon="7.300660483260268"><ele>771.0</ele><time>2026-04-11T18:12:03Z</time></trkpt><trkpt lat="44.31533185541987" lon="7.300890145381148"><ele>767.6666666666666</ele><time>2026-04-11T18:12:04Z</time></trkpt><trkpt lat="44.31539668548641" lon="7.301109788497527"><ele>764.3333333333333</ele><time>2026-04-11T18:12:05Z</time></trkpt><trkpt lat="44.31545447928232" lon="7.301308154923056"><ele>761.0</ele><time>2026-04-11T18:12:06Z</time></trkpt><trkpt lat="44.31551019832866" lon="7.301497541943164"><ele>761.6666666666666</ele><time>2026-04-11T18:12:07Z</time></trkpt><trkpt lat="44.31557432395856" lon="7.301697115934651"><ele>762.3333333333334</ele><time>2026-04-11T18:12:08Z</time></trkpt><trkpt lat="44.315627994819195" lon="7.301898172940771"><ele>763.0</ele><time>2026-04-11T18:12:09Z</time></trkpt><trkpt lat="44.31568263216386" lon="7.302091726287349"><ele>762.0</ele><time>2026-04-11T18:12:10Z</time></trkpt><trkpt lat="44.31573602238099" lon="7.302294487299232"><ele>761.0</ele><time>2026-04-11T18:12:11Z</time></trkpt><trkpt lat="44.31579064001812" lon="7.302501765227163"><ele>760.0</ele><time>2026-04-11T18:12:12Z</time></trkpt><trkpt lat="44.31584324390246" lon="7.302718067480745"><ele>760.0</ele><time>2026-04-11T18:12:13Z</time></trkpt><trkpt lat="44.315893773324035" lon="7.302948773994208"><ele>760.0</ele><time>2026-04-11T18:12:14Z</time></trkpt><trkpt lat="44.31594091738473" lon="7.3031813233579275"><ele>760.0</ele><time>2026-04-11T18:12:15Z</time></trkpt><trkpt lat="44.31597938235201" lon="7.303406853220487"><ele>759.3333333333334</ele><time>2026-04-11T18:12:16Z</time></trkpt><trkpt lat="44.31600747864048" lon="7.303623432467152"><ele>758.6666666666666</ele><time>2026-04-11T18:12:17Z</time></trkpt><trkpt lat="44.31603406736018" lon="7.303846975140415"><ele>758.0</ele><time>2026-04-11T18:12:18Z</time></trkpt><trkpt lat="44.31605712770958" lon="7.304074006738522"><ele>757.5</ele><time>2026-04-11T18:12:19Z</time></trkpt><trkpt lat="44.31608010995588" lon="7.3042910443150495"><ele>757.0</ele><time>2026-04-11T18:12:20Z</time></trkpt><trkpt lat="44.316103144512866" lon="7.304478314730202"><ele>756.5</ele><time>2026-04-11T18:12:21Z</time></trkpt><trkpt lat="44.31612340704908" lon="7.304654637719486"><ele>756.0</ele><time>2026-04-11T18:12:22Z</time></trkpt><trkpt lat="44.31614244247657" lon="7.304836455556414"><ele>756.0</ele><time>2026-04-11T18:12:23Z</time></trkpt><trkpt lat="44.316166672892905" lon="7.305038206325296"><ele>756.0</ele><time>2026-04-11T18:12:24Z</time></trkpt><trkpt lat="44.31618991519826" lon="7.305229585174917"><ele>756.0</ele><time>2026-04-11T18:12:25Z</time></trkpt><trkpt lat="44.316206193675164" lon="7.305397828805616"><ele>756.0</ele><time>2026-04-11T18:12:26Z</time></trkpt><trkpt lat="44.31622175046947" lon="7.305548016851073"><ele>755.5</ele><time>2026-04-11T18:12:27Z</time></trkpt><trkpt lat="44.31623634534942" lon="7.305685453020523"><ele>755.0</ele><time>2026-04-11T18:12:28Z</time></trkpt><trkpt lat="44.316244391311365" lon="7.30581740570368"><ele>754.5</ele><time>2026-04-11T18:12:30Z</time></trkpt><trkpt lat="44.316233297595694" lon="7.305923371969754"><ele>754.0</ele><time>2026-04-11T18:12:33Z</time></trkpt><trkpt lat="44.31624679450951" lon="7.306033085712794"><ele>753.5</ele><time>2026-04-11T18:12:36Z</time></trkpt><trkpt lat="44.316285227919245" lon="7.306129926088475"><ele>753.0</ele><time>2026-04-11T18:15:14Z</time></trkpt><trkpt lat="44.3163050208531" lon="7.3062638316300035"><ele>752.75</ele><time>2026-04-11T18:15:16Z</time></trkpt><trkpt lat="44.316324152142336" lon="7.306427910012854"><ele>752.5</ele><time>2026-04-11T18:15:17Z</time></trkpt><trkpt lat="44.31633974340774" lon="7.306580700463024"><ele>752.25</ele><time>2026-04-11T18:15:18Z</time></trkpt><trkpt lat="44.31636449640311" lon="7.306779971587193"><ele>752.0</ele><time>2026-04-11T18:15:19Z</time></trkpt><trkpt lat="44.31639610075253" lon="7.307033696217229"><ele>751.0</ele><time>2026-04-11T18:15:20Z</time></trkpt><trkpt lat="44.316424836052455" lon="7.307292940534023"><ele>750.0</ele><time>2026-04-11T18:15:21Z</time></trkpt><trkpt lat="44.31645847191411" lon="7.307561025644631"><ele>749.0</ele><time>2026-04-11T18:15:22Z</time></trkpt><trkpt lat="44.31649135718237" lon="7.307825573220669"><ele>749.0</ele><time>2026-04-11T18:15:23Z</time></trkpt><trkpt lat="44.316520697534855" lon="7.308081477328332"><ele>749.0</ele><time>2026-04-11T18:15:24Z</time></trkpt><trkpt lat="44.31654754118401" lon="7.308329471170514"><ele>749.0</ele><time>2026-04-11T18:15:25Z</time></trkpt><trkpt lat="44.316577324353105" lon="7.308570261922061"><ele>749.0</ele><time>2026-04-11T18:15:26Z</time></trkpt><trkpt lat="44.3166058681386" lon="7.308818072470173"><ele>749.0</ele><time>2026-04-11T18:15:27Z</time></trkpt><trkpt lat="44.3166327336906" lon="7.309063753097372"><ele>749.0</ele><time>2026-04-11T18:15:28Z</time></trkpt><trkpt lat="44.31666103891542" lon="7.309325393296618"><ele>748.6666666666666</ele><time>2026-04-11T18:15:29Z</time></trkpt><trkpt lat="44.31668907192866" lon="7.309593784984562"><ele>748.3333333333334</ele><time>2026-04-11T18:15:30Z</time></trkpt><trkpt lat="44.31671441210971" lon="7.309869320643755"><ele>748.0</ele><time>2026-04-11T18:15:31Z</time></trkpt><trkpt lat="44.316738929623725" lon="7.310138737780144"><ele>747.0</ele><time>2026-04-11T18:15:32Z</time></trkpt><trkpt lat="44.316768543156364" lon="7.310426751695"><ele>746.0</ele><time>2026-04-11T18:15:33Z</time></trkpt><trkpt lat="44.31679682683076" lon="7.310733808053183"><ele>745.0</ele><time>2026-04-11T18:15:34Z</time></trkpt><trkpt lat="44.31681819497603" lon="7.3110425720889705"><ele>745.0</ele><time>2026-04-11T18:15:35Z</time></trkpt><trkpt lat="44.31684267693793" lon="7.311334976582461"><ele>745.0</ele><time>2026-04-11T18:15:36Z</time></trkpt><trkpt lat="44.316869812245386" lon="7.311632159412928"><ele>745.0</ele><time>2026-04-11T18:15:37Z</time></trkpt><trkpt lat="44.316891495305" lon="7.31191270962067"><ele>745.0</ele><time>2026-04-11T18:15:38Z</time></trkpt><trkpt lat="44.316913954054776" lon="7.312180482662419"><ele>745.0</ele><time>2026-04-11T18:15:39Z</time></trkpt><trkpt lat="44.3169342399461" lon="7.312431036982892"><ele>745.0</ele><time>2026-04-11T18:15:40Z</time></trkpt><trkpt lat="44.316951384932366" lon="7.3126695071609635"><ele>745.3333333333334</ele><time>2026-04-11T18:15:40.999Z</time></trkpt><trkpt lat="44.31696146780268" lon="7.312928979699463"><ele>745.6666666666666</ele><time>2026-04-11T18:15:41.999Z</time></trkpt><trkpt lat="44.316953446365254" lon="7.31320896923722"><ele>746.0</ele><time>2026-04-11T18:15:42.999Z</time></trkpt><trkpt lat="44.316932911285484" lon="7.31351610742288"><ele>746.3333333333333</ele><time>2026-04-11T18:15:43.999Z</time></trkpt><trkpt lat="44.316908938571636" lon="7.313821241866646"><ele>746.6666666666666</ele><time>2026-04-11T18:15:44.999Z</time></trkpt><trkpt lat="44.31688694413617" lon="7.31412634628489"><ele>747.0</ele><time>2026-04-11T18:15:45.999Z</time></trkpt><trkpt lat="44.31686853404644" lon="7.31441100412223"><ele>747.3333333333334</ele><time>2026-04-11T18:15:46.999Z</time></trkpt><trkpt lat="44.31684890719533" lon="7.314661203831064"><ele>747.6666666666667</ele><time>2026-04-11T18:15:47.999Z</time></trkpt><trkpt lat="44.316825546024205" lon="7.314903198343636"><ele>748.0</ele><time>2026-04-11T18:15:48.999Z</time></trkpt><trkpt lat="44.31679493907199" lon="7.315161161695351"><ele>748.0</ele><time>2026-04-11T18:15:49.999Z</time></trkpt><trkpt lat="44.31674708934628" lon="7.315440962751849"><ele>748.0</ele><time>2026-04-11T18:15:50.999Z</time></trkpt><trkpt lat="44.31668123657099" lon="7.31573921310992"><ele>748.0</ele><time>2026-04-11T18:15:51.999Z</time></trkpt><trkpt lat="44.316608803404506" lon="7.316043881646487"><ele>748.0</ele><time>2026-04-11T18:15:52.999Z</time></trkpt><trkpt lat="44.316536343035686" lon="7.3163484932029315"><ele>748.0</ele><time>2026-04-11T18:15:53.999Z</time></trkpt><trkpt lat="44.31646404800152" lon="7.3166676976708755"><ele>746.5</ele><time>2026-04-11T18:15:54.999Z</time></trkpt><trkpt lat="44.316389481250496" lon="7.316997120572352"><ele>745.0</ele><time>2026-04-11T18:15:55.999Z</time></trkpt><trkpt lat="44.316311831567624" lon="7.317339772109522"><ele>744.5</ele><time>2026-04-11T18:15:56.999Z</time></trkpt><trkpt lat="44.31623168629799" lon="7.317679950301917"><ele>744.0</ele><time>2026-04-11T18:15:57.999Z</time></trkpt><trkpt lat="44.31614955398602" lon="7.31801988612073"><ele>743.0</ele><time>2026-04-11T18:15:58.999Z</time></trkpt><trkpt lat="44.31606762427403" lon="7.318359430905172"><ele>742.0</ele><time>2026-04-11T18:15:59.999Z</time></trkpt><trkpt lat="44.3159897112026" lon="7.318698831663323"><ele>742.5</ele><time>2026-04-11T18:16:00.999Z</time></trkpt><trkpt lat="44.315912900556704" lon="7.319038791174599"><ele>743.0</ele><time>2026-04-11T18:16:01.999Z</time></trkpt><trkpt lat="44.315837576910376" lon="7.3193766544286225"><ele>743.0</ele><time>2026-04-11T18:16:02.999Z</time></trkpt><trkpt lat="44.31575625495885" lon="7.319719600342495"><ele>743.0</ele><time>2026-04-11T18:16:03.999Z</time></trkpt><trkpt lat="44.315678717782" lon="7.320054022061394"><ele>741.5</ele><time>2026-04-11T18:16:04.999Z</time></trkpt><trkpt lat="44.31560453379428" lon="7.320381875121017"><ele>740.0</ele><time>2026-04-11T18:16:05.999Z</time></trkpt><trkpt lat="44.31553419513915" lon="7.320699029546839"><ele>739.0</ele><time>2026-04-11T18:16:06.999Z</time></trkpt><trkpt lat="44.31546767587797" lon="7.320996700009339"><ele>738.0</ele><time>2026-04-11T18:16:07.999Z</time></trkpt><trkpt lat="44.31540450422088" lon="7.321278818414177"><ele>737.0</ele><time>2026-04-11T18:16:08.999Z</time></trkpt><trkpt lat="44.315343445549175" lon="7.321579263134515"><ele>737.0</ele><time>2026-04-11T18:16:09.999Z</time></trkpt><trkpt lat="44.31528702045343" lon="7.321900147811169"><ele>737.0</ele><time>2026-04-11T18:16:10.999Z</time></trkpt><trkpt lat="44.31524036691924" lon="7.322236453414941"><ele>736.0</ele><time>2026-04-11T18:16:11.999Z</time></trkpt><trkpt lat="44.31519414372562" lon="7.3225877926978695"><ele>735.0</ele><time>2026-04-11T18:16:12.999Z</time></trkpt><trkpt lat="44.31514350895593" lon="7.322952918469168"><ele>735.0</ele><time>2026-04-11T18:16:13.999Z</time></trkpt><trkpt lat="44.31509031683401" lon="7.323337351161895"><ele>735.0</ele><time>2026-04-11T18:16:15Z</time></trkpt><trkpt lat="44.315038360111416" lon="7.323721665497775"><ele>735.0</ele><time>2026-04-11T18:16:16Z</time></trkpt><trkpt lat="44.31498751742741" lon="7.32409703537489"><ele>735.0</ele><time>2026-04-11T18:16:17Z</time></trkpt><trkpt lat="44.31493447528447" lon="7.324474342273841"><ele>733.0</ele><time>2026-04-11T18:16:18Z</time></trkpt><trkpt lat="44.31488441874298" lon="7.324851506207063"><ele>731.0</ele><time>2026-04-11T18:16:19Z</time></trkpt><trkpt lat="44.314834790151984" lon="7.325231516910837"><ele>730.5</ele><time>2026-04-11T18:16:20Z</time></trkpt><trkpt lat="44.314785211682135" lon="7.325615151736043"><ele>730.0</ele><time>2026-04-11T18:16:21Z</time></trkpt><trkpt lat="44.31473514242427" lon="7.3259991967042835"><ele>729.0</ele><time>2026-04-11T18:16:22Z</time></trkpt><trkpt lat="44.31468259034324" lon="7.32638487963926"><ele>728.0</ele><time>2026-04-11T18:16:23Z</time></trkpt><trkpt lat="44.314631869259294" lon="7.326767883177442"><ele>728.0</ele><time>2026-04-11T18:16:24Z</time></trkpt><trkpt lat="44.31457667113228" lon="7.327160569299627"><ele>728.0</ele><time>2026-04-11T18:16:25Z</time></trkpt><trkpt lat="44.31452341893434" lon="7.32754291120128"><ele>727.5</ele><time>2026-04-11T18:16:26Z</time></trkpt><trkpt lat="44.31447282873882" lon="7.32792073318211"><ele>727.0</ele><time>2026-04-11T18:16:27Z</time></trkpt><trkpt lat="44.314421585846915" lon="7.328313619748536"><ele>726.5</ele><time>2026-04-11T18:16:28Z</time></trkpt><trkpt lat="44.31437036040069" lon="7.328734161110322"><ele>726.0</ele><time>2026-04-11T18:16:29Z</time></trkpt><trkpt lat="44.31431590548884" lon="7.329152037432673"><ele>724.5</ele><time>2026-04-11T18:16:30Z</time></trkpt><trkpt lat="44.31425905589011" lon="7.329547530083272"><ele>723.0</ele><time>2026-04-11T18:16:31Z</time></trkpt><trkpt lat="44.31420891379622" lon="7.329903589228178"><ele>723.0</ele><time>2026-04-11T18:16:32Z</time></trkpt><trkpt lat="44.314165907456406" lon="7.33023115985685"><ele>723.0</ele><time>2026-04-11T18:16:33Z</time></trkpt><trkpt lat="44.314126348807534" lon="7.330535655283772"><ele>723.0</ele><time>2026-04-11T18:16:34Z</time></trkpt><trkpt lat="44.314088458976066" lon="7.330828435020383"><ele>723.0</ele><time>2026-04-11T18:16:35Z</time></trkpt><trkpt lat="44.31405007905917" lon="7.331119538228514"><ele>723.0</ele><time>2026-04-11T18:16:36Z</time></trkpt><trkpt lat="44.3140149452567" lon="7.3313965363054825"><ele>723.0</ele><time>2026-04-11T18:16:37Z</time></trkpt><trkpt lat="44.313980075526686" lon="7.331670175704043"><ele>723.0</ele><time>2026-04-11T18:16:38Z</time></trkpt><trkpt lat="44.31394491306806" lon="7.331939548823185"><ele>723.0</ele><time>2026-04-11T18:16:39Z</time></trkpt><trkpt lat="44.313915768595585" lon="7.332198285075946"><ele>720.3333333333334</ele><time>2026-04-11T18:16:40Z</time></trkpt><trkpt lat="44.31389374856304" lon="7.332463370326003"><ele>717.6666666666667</ele><time>2026-04-11T18:16:41Z</time></trkpt><trkpt lat="44.31387874245861" lon="7.332733706160055"><ele>715.0</ele><time>2026-04-11T18:16:42Z</time></trkpt><trkpt lat="44.313872869357404" lon="7.333029404145892"><ele>713.0</ele><time>2026-04-11T18:16:43Z</time></trkpt><trkpt lat="44.313871178821785" lon="7.333341039324253"><ele>711.0</ele><time>2026-04-11T18:16:44Z</time></trkpt><trkpt lat="44.31388230153527" lon="7.3336641774613165"><ele>709.5</ele><time>2026-04-11T18:16:45Z</time></trkpt><trkpt lat="44.31389940654548" lon="7.33401182085741"><ele>708.0</ele><time>2026-04-11T18:16:46Z</time></trkpt><trkpt lat="44.31391616351337" lon="7.334358756488338"><ele>711.3333333333334</ele><time>2026-04-11T18:16:47Z</time></trkpt><trkpt lat="44.31393015903415" lon="7.3346837587874205"><ele>714.6666666666667</ele><time>2026-04-11T18:16:48Z</time></trkpt><trkpt lat="44.31394092049642" lon="7.334978342741777"><ele>718.0</ele><time>2026-04-11T18:16:49Z</time></trkpt><trkpt lat="44.313952962175" lon="7.335262131053797"><ele>718.0</ele><time>2026-04-11T18:16:50Z</time></trkpt><trkpt lat="44.31396503796485" lon="7.335550160199991"><ele>718.0</ele><time>2026-04-11T18:16:51Z</time></trkpt><trkpt lat="44.31398122246287" lon="7.335839020349627"><ele>718.0</ele><time>2026-04-11T18:16:52Z</time></trkpt><trkpt lat="44.31399612680947" lon="7.336124188787673"><ele>716.6666666666667</ele><time>2026-04-11T18:16:53Z</time></trkpt><trkpt lat="44.314012131459684" lon="7.336402755688805"><ele>715.3333333333334</ele><time>2026-04-11T18:16:54Z</time></trkpt><trkpt lat="44.314020144931916" lon="7.336679439351467"><ele>714.0</ele><time>2026-04-11T18:16:55Z</time></trkpt><trkpt lat="44.314026205307" lon="7.336941201458005"><ele>714.0</ele><time>2026-04-11T18:16:56Z</time></trkpt><trkpt lat="44.31402482012856" lon="7.33720495060019"><ele>714.0</ele><time>2026-04-11T18:16:57Z</time></trkpt><trkpt lat="44.3140159317837" lon="7.337461408714476"><ele>714.0</ele><time>2026-04-11T18:16:58Z</time></trkpt><trkpt lat="44.314002559679686" lon="7.337707167672009"><ele>713.3333333333334</ele><time>2026-04-11T18:16:59Z</time></trkpt><trkpt lat="44.31397687854551" lon="7.337961898779235"><ele>712.6666666666667</ele><time>2026-04-11T18:17:00Z</time></trkpt><trkpt lat="44.31393395230571" lon="7.338246200565242"><ele>712.0</ele><time>2026-04-11T18:17:01Z</time></trkpt><trkpt lat="44.3138783639665" lon="7.338541994281876"><ele>708.6666666666667</ele><time>2026-04-11T18:17:02Z</time></trkpt><trkpt lat="44.313812764878136" lon="7.338830174987902"><ele>705.3333333333334</ele><time>2026-04-11T18:17:03Z</time></trkpt><trkpt lat="44.313745028882" lon="7.33912202476456"><ele>702.0</ele><time>2026-04-11T18:17:04Z</time></trkpt><trkpt lat="44.313681894468424" lon="7.3394113922358555"><ele>702.0</ele><time>2026-04-11T18:17:05Z</time></trkpt><trkpt lat="44.313621371368804" lon="7.339703015885504"><ele>702.0</ele><time>2026-04-11T18:17:06Z</time></trkpt><trkpt lat="44.31356221154144" lon="7.33999744235528"><ele>702.0</ele><time>2026-04-11T18:17:07Z</time></trkpt><trkpt lat="44.313509500551575" lon="7.3403030443040205"><ele>701.5</ele><time>2026-04-11T18:17:08Z</time></trkpt><trkpt lat="44.31346261857889" lon="7.340621917358841"><ele>701.0</ele><time>2026-04-11T18:17:09Z</time></trkpt><trkpt lat="44.31341181835254" lon="7.340965064745528"><ele>701.0</ele><time>2026-04-11T18:17:10Z</time></trkpt><trkpt lat="44.31336059503857" lon="7.3413383597253725"><ele>701.0</ele><time>2026-04-11T18:17:11Z</time></trkpt><trkpt lat="44.31330745815711" lon="7.341726334992663"><ele>700.5</ele><time>2026-04-11T18:17:12Z</time></trkpt><trkpt lat="44.313255155860276" lon="7.34211273721876"><ele>700.0</ele><time>2026-04-11T18:17:13Z</time></trkpt><trkpt lat="44.31321102774101" lon="7.342455420193568"><ele>700.0</ele><time>2026-04-11T18:17:14Z</time></trkpt><trkpt lat="44.313168057042475" lon="7.342773347810282"><ele>700.0</ele><time>2026-04-11T18:17:15Z</time></trkpt><trkpt lat="44.31312854902749" lon="7.343071447596807"><ele>700.0</ele><time>2026-04-11T18:17:16Z</time></trkpt><trkpt lat="44.313094603513825" lon="7.343337315690757"><ele>698.6666666666667</ele><time>2026-04-11T18:17:17Z</time></trkpt><trkpt lat="44.313063101826145" lon="7.343578769777263"><ele>697.3333333333334</ele><time>2026-04-11T18:17:18Z</time></trkpt><trkpt lat="44.31303324227648" lon="7.343797226952434"><ele>696.0</ele><time>2026-04-11T18:17:19Z</time></trkpt><trkpt lat="44.31300432339599" lon="7.344007408607451"><ele>696.0</ele><time>2026-04-11T18:17:20Z</time></trkpt><trkpt lat="44.31298147607885" lon="7.344172307450066"><ele>696.0</ele><time>2026-04-11T18:17:21Z</time></trkpt><trkpt lat="44.31295508144303" lon="7.344322632874303"><ele>696.0</ele><time>2026-04-11T18:17:22Z</time></trkpt><trkpt lat="44.31292664690563" lon="7.3444430814516135"><ele>696.0</ele><time>2026-04-11T18:17:23Z</time></trkpt><trkpt lat="44.31289193736401" lon="7.344544890191228"><ele>696.0</ele><time>2026-04-11T18:17:24Z</time></trkpt><trkpt lat="44.312850759608445" lon="7.344628247550835"><ele>696.0</ele><time>2026-04-11T18:17:25Z</time></trkpt><trkpt lat="44.31280409787975" lon="7.34470488036121"><ele>696.0</ele><time>2026-04-11T18:17:26Z</time></trkpt><trkpt lat="44.312763561528676" lon="7.3447823859918815"><ele>696.0</ele><time>2026-04-11T18:17:27Z</time></trkpt><trkpt lat="44.31274519952573" lon="7.3448712943549"><ele>696.0</ele><time>2026-04-11T18:17:28Z</time></trkpt><trkpt lat="44.31275526538295" lon="7.344970399524203"><ele>696.0</ele><time>2026-04-11T18:17:29Z</time></trkpt><trkpt lat="44.312780067548346" lon="7.345087333168671"><ele>696.0</ele><time>2026-04-11T18:17:30Z</time></trkpt><trkpt lat="44.31280202121403" lon="7.34525791619668"><ele>696.3333333333334</ele><time>2026-04-11T18:17:31Z</time></trkpt><trkpt lat="44.3127956873802" lon="7.345453209365898"><ele>696.6666666666667</ele><time>2026-04-11T18:17:32Z</time></trkpt><trkpt lat="44.312776205438524" lon="7.345692763715873"><ele>697.0</ele><time>2026-04-11T18:17:33Z</time></trkpt><trkpt lat="44.31273589388815" lon="7.3459764798267"><ele>696.3333333333334</ele><time>2026-04-11T18:17:34Z</time></trkpt><trkpt lat="44.31269217149917" lon="7.346258831610196"><ele>695.6666666666666</ele><time>2026-04-11T18:17:35Z</time></trkpt><trkpt lat="44.31264889118576" lon="7.346584321947098"><ele>695.0</ele><time>2026-04-11T18:17:36Z</time></trkpt><trkpt lat="44.3125972269122" lon="7.346931277907883"><ele>695.0</ele><time>2026-04-11T18:17:37Z</time></trkpt><trkpt lat="44.31254623375148" lon="7.3473034316402845"><ele>695.0</ele><time>2026-04-11T18:17:38Z</time></trkpt><trkpt lat="44.31249506084326" lon="7.347694807969279"><ele>693.5</ele><time>2026-04-11T18:17:39Z</time></trkpt><trkpt lat="44.31244077224408" lon="7.3481031779911135"><ele>692.0</ele><time>2026-04-11T18:17:40Z</time></trkpt><trkpt lat="44.31238067546852" lon="7.3485286983272005"><ele>693.0</ele><time>2026-04-11T18:17:41Z</time></trkpt><trkpt lat="44.31231851979001" lon="7.348962638212747"><ele>694.0</ele><time>2026-04-11T18:17:42Z</time></trkpt><trkpt lat="44.31225734581595" lon="7.349406498558848"><ele>692.5</ele><time>2026-04-11T18:17:43Z</time></trkpt><trkpt lat="44.31219587989413" lon="7.34986158769091"><ele>691.0</ele><time>2026-04-11T18:17:44Z</time></trkpt><trkpt lat="44.31213071208785" lon="7.350326968784709"><ele>691.5</ele><time>2026-04-11T18:17:45Z</time></trkpt><trkpt lat="44.31206376115798" lon="7.3507901300745795"><ele>692.0</ele><time>2026-04-11T18:17:46Z</time></trkpt><trkpt lat="44.31199931843035" lon="7.3512417368709695"><ele>692.5</ele><time>2026-04-11T18:17:47Z</time></trkpt><trkpt lat="44.311938936623946" lon="7.351693403793316"><ele>693.0</ele><time>2026-04-11T18:17:48Z</time></trkpt><trkpt lat="44.31185965750457" lon="7.352143218272887"><ele>693.5</ele><time>2026-04-11T18:17:48.999Z</time></trkpt><trkpt lat="44.311791813818374" lon="7.352634287787171"><ele>694.0</ele><time>2026-04-11T18:17:49.999Z</time></trkpt><trkpt lat="44.31171884187206" lon="7.3531624769332655"><ele>695.5</ele><time>2026-04-11T18:17:50.999Z</time></trkpt><trkpt lat="44.31165114357345" lon="7.353652494072405"><ele>697.0</ele><time>2026-04-11T18:17:51.999Z</time></trkpt><trkpt lat="44.31159223382503" lon="7.354078897489089"><ele>698.5</ele><time>2026-04-11T18:17:52.999Z</time></trkpt><trkpt lat="44.31153869309086" lon="7.354466438664992"><ele>700.0</ele><time>2026-04-11T18:17:53.999Z</time></trkpt><trkpt lat="44.311486478597395" lon="7.35484393939673"><ele>700.5</ele><time>2026-04-11T18:17:54.999Z</time></trkpt><trkpt lat="44.311433484027475" lon="7.355217292120431"><ele>701.0</ele><time>2026-04-11T18:17:55.999Z</time></trkpt><trkpt lat="44.31138226748541" lon="7.355583331723757"><ele>695.5</ele><time>2026-04-11T18:17:56.999Z</time></trkpt><trkpt lat="44.31133718061384" lon="7.355922631561892"><ele>690.0</ele><time>2026-04-11T18:17:57.999Z</time></trkpt><trkpt lat="44.311319783039465" lon="7.35626606085364"><ele>691.0</ele><time>2026-04-11T18:17:58.999Z</time></trkpt><trkpt lat="44.311278747215816" lon="7.356634386024586"><ele>692.0</ele><time>2026-04-11T18:17:59.999Z</time></trkpt><trkpt lat="44.31124096694494" lon="7.357035123397828"><ele>691.0</ele><time>2026-04-11T18:18:00.999Z</time></trkpt><trkpt lat="44.311202234552816" lon="7.357466495725877"><ele>690.0</ele><time>2026-04-11T18:18:01.999Z</time></trkpt><trkpt lat="44.311137556499745" lon="7.357926650705101"><ele>689.5</ele><time>2026-04-11T18:18:02.999Z</time></trkpt><trkpt lat="44.31109646459557" lon="7.358398581964758"><ele>689.0</ele><time>2026-04-11T18:18:03.999Z</time></trkpt><trkpt lat="44.31105426321495" lon="7.358883255290262"><ele>688.5</ele><time>2026-04-11T18:18:04.999Z</time></trkpt><trkpt lat="44.311011823129725" lon="7.359370285144164"><ele>688.0</ele><time>2026-04-11T18:18:05.999Z</time></trkpt><trkpt lat="44.31097018702199" lon="7.359847573630418"><ele>688.5</ele><time>2026-04-11T18:18:06.999Z</time></trkpt><trkpt lat="44.31093313433358" lon="7.3602723208523475"><ele>689.0</ele><time>2026-04-11T18:18:07.999Z</time></trkpt><trkpt lat="44.31089845379643" lon="7.360669875335237"><ele>689.0</ele><time>2026-04-11T18:18:08.999Z</time></trkpt><trkpt lat="44.31086426457017" lon="7.361058674664573"><ele>689.0</ele><time>2026-04-11T18:18:09.999Z</time></trkpt><trkpt lat="44.31082986182037" lon="7.361447566202103"><ele>689.0</ele><time>2026-04-11T18:18:10.999Z</time></trkpt><trkpt lat="44.31079501360904" lon="7.361841493270269"><ele>689.0</ele><time>2026-04-11T18:18:11.999Z</time></trkpt><trkpt lat="44.31076102573734" lon="7.362225694800605"><ele>688.0</ele><time>2026-04-11T18:18:12.999Z</time></trkpt><trkpt lat="44.3107274525545" lon="7.362597054614977"><ele>687.0</ele><time>2026-04-11T18:18:13.999Z</time></trkpt><trkpt lat="44.310711746202614" lon="7.362945223333408"><ele>685.5</ele><time>2026-04-11T18:18:14.999Z</time></trkpt><trkpt lat="44.3106810253598" lon="7.363290710313636"><ele>684.0</ele><time>2026-04-11T18:18:15.999Z</time></trkpt><trkpt lat="44.31064946008704" lon="7.363645832526451"><ele>684.0</ele><time>2026-04-11T18:18:16.999Z</time></trkpt><trkpt lat="44.31061660727587" lon="7.364012573181937"><ele>684.0</ele><time>2026-04-11T18:18:17.999Z</time></trkpt><trkpt lat="44.310572916572035" lon="7.36434080600701"><ele>683.6666666666666</ele><time>2026-04-11T18:18:18.999Z</time></trkpt><trkpt lat="44.31054682479115" lon="7.364643260592168"><ele>683.3333333333333</ele><time>2026-04-11T18:18:19.999Z</time></trkpt><trkpt lat="44.31052196848341" lon="7.364931393656891"><ele>683.0</ele><time>2026-04-11T18:18:21Z</time></trkpt><trkpt lat="44.310497579851614" lon="7.365214105440906"><ele>682.6666666666666</ele><time>2026-04-11T18:18:22Z</time></trkpt><trkpt lat="44.31047335154687" lon="7.36549495871387"><ele>682.3333333333334</ele><time>2026-04-11T18:18:23Z</time></trkpt><trkpt lat="44.310448615527434" lon="7.3657808854761555"><ele>682.0</ele><time>2026-04-11T18:18:24Z</time></trkpt><trkpt lat="44.31042476262416" lon="7.366055635598237"><ele>682.0</ele><time>2026-04-11T18:18:25Z</time></trkpt><trkpt lat="44.31040286530507" lon="7.366307900471014"><ele>682.0</ele><time>2026-04-11T18:18:26Z</time></trkpt><trkpt lat="44.310383168023236" lon="7.366536212788843"><ele>682.0</ele><time>2026-04-11T18:18:27Z</time></trkpt><trkpt lat="44.31036876468728" lon="7.366735570870783"><ele>682.0</ele><time>2026-04-11T18:18:28Z</time></trkpt><trkpt lat="44.31035920472802" lon="7.366911326318737"><ele>682.0</ele><time>2026-04-11T18:18:29Z</time></trkpt><trkpt lat="44.31036707548191" lon="7.367249860524256"><ele>682.0</ele><time>2026-04-11T18:18:30Z</time></trkpt><trkpt lat="44.31035841282858" lon="7.3675151910575245"><ele>682.0</ele><time>2026-04-11T18:18:31Z</time></trkpt><trkpt lat="44.310387995622875" lon="7.367792613671176"><ele>682.0</ele><time>2026-04-11T18:18:32Z</time></trkpt><trkpt lat="44.310427881365825" lon="7.368072328410266"><ele>682.0</ele><time>2026-04-11T18:18:33Z</time></trkpt><trkpt lat="44.31049129660345" lon="7.3683819442409435"><ele>680.5</ele><time>2026-04-11T18:18:34Z</time></trkpt><trkpt lat="44.31056933949768" lon="7.3687198448297"><ele>679.0</ele><time>2026-04-11T18:18:35Z</time></trkpt><trkpt lat="44.31064803028216" lon="7.369058216078584"><ele>681.0</ele><time>2026-04-11T18:18:36Z</time></trkpt><trkpt lat="44.310725104615386" lon="7.369384253544013"><ele>683.0</ele><time>2026-04-11T18:18:37Z</time></trkpt><trkpt lat="44.31080328952158" lon="7.369714988940472"><ele>683.0</ele><time>2026-04-11T18:18:38Z</time></trkpt><trkpt lat="44.31088291155716" lon="7.370051803623725"><ele>683.0</ele><time>2026-04-11T18:18:39Z</time></trkpt><trkpt lat="44.31095528222961" lon="7.370357943834069"><ele>682.6666666666666</ele><time>2026-04-11T18:18:40Z</time></trkpt><trkpt lat="44.31102177633061" lon="7.370639225124776"><ele>682.3333333333334</ele><time>2026-04-11T18:18:41Z</time></trkpt><trkpt lat="44.31110579324109" lon="7.370935705297455"><ele>682.0</ele><time>2026-04-11T18:18:42Z</time></trkpt><trkpt lat="44.31115510240681" lon="7.3712032169997075"><ele>681.0</ele><time>2026-04-11T18:18:43Z</time></trkpt><trkpt lat="44.31123678107933" lon="7.371475890829112"><ele>680.0</ele><time>2026-04-11T18:18:44Z</time></trkpt><trkpt lat="44.31128820404991" lon="7.371766259478397"><ele>679.0</ele><time>2026-04-11T18:18:45Z</time></trkpt><trkpt lat="44.311353465046196" lon="7.372042324151496"><ele>680.6666666666667</ele><time>2026-04-11T18:18:46Z</time></trkpt><trkpt lat="44.31141723477328" lon="7.372312080393856"><ele>682.3333333333334</ele><time>2026-04-11T18:18:47Z</time></trkpt><trkpt lat="44.31148132318628" lon="7.372583184727169"><ele>684.0</ele><time>2026-04-11T18:18:48Z</time></trkpt><trkpt lat="44.31154707025739" lon="7.372857466577364"><ele>682.6666666666666</ele><time>2026-04-11T18:18:49Z</time></trkpt><trkpt lat="44.31162745840063" lon="7.3731270892385075"><ele>681.3333333333333</ele><time>2026-04-11T18:18:50Z</time></trkpt><trkpt lat="44.31169267827802" lon="7.373395444573066"><ele>680.0</ele><time>2026-04-11T18:18:51Z</time></trkpt><trkpt lat="44.3117590021597" lon="7.373672057586262"><ele>679.3333333333333</ele><time>2026-04-11T18:18:52Z</time></trkpt><trkpt lat="44.31182002388463" lon="7.3739388642766714"><ele>678.6666666666666</ele><time>2026-04-11T18:18:53Z</time></trkpt><trkpt lat="44.311882184331516" lon="7.374207133370427"><ele>678.0</ele><time>2026-04-11T18:18:54Z</time></trkpt><trkpt lat="44.31194776850847" lon="7.374481357044738"><ele>676.5</ele><time>2026-04-11T18:18:55Z</time></trkpt><trkpt lat="44.31203645675523" lon="7.374802762341142"><ele>675.0</ele><time>2026-04-11T18:18:56Z</time></trkpt><trkpt lat="44.31212803533249" lon="7.375175772601872"><ele>677.0</ele><time>2026-04-11T18:18:57Z</time></trkpt><trkpt lat="44.31221803443249" lon="7.375592338760864"><ele>679.0</ele><time>2026-04-11T18:18:58Z</time></trkpt><trkpt lat="44.3123183461524" lon="7.376038014204787"><ele>682.0</ele><time>2026-04-11T18:18:59Z</time></trkpt><trkpt lat="44.31242975232076" lon="7.37650272189831"><ele>685.0</ele><time>2026-04-11T18:19:00Z</time></trkpt><trkpt lat="44.31253110633868" lon="7.376929902251067"><ele>683.5</ele><time>2026-04-11T18:19:01Z</time></trkpt><trkpt lat="44.31262012065694" lon="7.37732019977652"><ele>682.0</ele><time>2026-04-11T18:19:02Z</time></trkpt><trkpt lat="44.312707704231435" lon="7.3776967778234015"><ele>679.0</ele><time>2026-04-11T18:19:03Z</time></trkpt><trkpt lat="44.31279660608535" lon="7.378059912400315"><ele>676.0</ele><time>2026-04-11T18:19:04Z</time></trkpt><trkpt lat="44.31287173746216" lon="7.378372308506889"><ele>676.0</ele><time>2026-04-11T18:19:05Z</time></trkpt><trkpt lat="44.312942897117615" lon="7.378687768987203"><ele>676.0</ele><time>2026-04-11T18:19:06Z</time></trkpt><trkpt lat="44.31301809548635" lon="7.379019958447286"><ele>684.0</ele><time>2026-04-11T18:19:07Z</time></trkpt><trkpt lat="44.313094345084906" lon="7.379335786540842"><ele>692.0</ele><time>2026-04-11T18:19:08Z</time></trkpt><trkpt lat="44.31314578483788" lon="7.379623992708013"><ele>690.0</ele><time>2026-04-11T18:19:09Z</time></trkpt><trkpt lat="44.31319289627878" lon="7.3799379358550805"><ele>688.0</ele><time>2026-04-11T18:19:10Z</time></trkpt><trkpt lat="44.313272351142665" lon="7.380308772152983"><ele>687.5</ele><time>2026-04-11T18:19:11Z</time></trkpt><trkpt lat="44.31332675457322" lon="7.380656151981289"><ele>687.0</ele><time>2026-04-11T18:19:12Z</time></trkpt><trkpt lat="44.31338184250857" lon="7.381016077290511"><ele>685.3333333333334</ele><time>2026-04-11T18:19:13Z</time></trkpt><trkpt lat="44.313437612736735" lon="7.381379979304195"><ele>683.6666666666667</ele><time>2026-04-11T18:19:14Z</time></trkpt><trkpt lat="44.31346909377797" lon="7.381621642949208"><ele>682.0</ele><time>2026-04-11T18:19:15Z</time></trkpt><trkpt lat="44.313500296261424" lon="7.381842204315123"><ele>682.0</ele><time>2026-04-11T18:19:16Z</time></trkpt><trkpt lat="44.313528620280984" lon="7.382069124486895"><ele>682.0</ele><time>2026-04-11T18:19:17Z</time></trkpt><trkpt lat="44.313564592278766" lon="7.382280673210534"><ele>682.0</ele><time>2026-04-11T18:19:18Z</time></trkpt><trkpt lat="44.31360086470052" lon="7.382491878270909"><ele>680.3333333333334</ele><time>2026-04-11T18:19:19Z</time></trkpt><trkpt lat="44.31364043198327" lon="7.38268959927773"><ele>678.6666666666666</ele><time>2026-04-11T18:19:20Z</time></trkpt><trkpt lat="44.313699895105884" lon="7.3829124799500585"><ele>677.0</ele><time>2026-04-11T18:19:21Z</time></trkpt><trkpt lat="44.31376867914127" lon="7.383111329067993"><ele>676.0</ele><time>2026-04-11T18:19:22Z</time></trkpt><trkpt lat="44.31382639856369" lon="7.383294810176211"><ele>675.0</ele><time>2026-04-11T18:19:23Z</time></trkpt><trkpt lat="44.31390450630234" lon="7.383506231454326"><ele>674.0</ele><time>2026-04-11T18:19:24Z</time></trkpt><trkpt lat="44.31401262579866" lon="7.383724858320075"><ele>673.6666666666666</ele><time>2026-04-11T18:19:25Z</time></trkpt><trkpt lat="44.314140862934615" lon="7.383949841124039"><ele>673.3333333333334</ele><time>2026-04-11T18:19:26Z</time></trkpt><trkpt lat="44.31428302512473" lon="7.384180347659807"><ele>673.0</ele><time>2026-04-11T18:19:27Z</time></trkpt><trkpt lat="44.31439241963268" lon="7.384378204048396"><ele>673.0</ele><time>2026-04-11T18:19:28Z</time></trkpt><trkpt lat="44.31448800822609" lon="7.384555866429426"><ele>673.0</ele><time>2026-04-11T18:19:29Z</time></trkpt><trkpt lat="44.314580118732785" lon="7.384702298916867"><ele>673.0</ele><time>2026-04-11T18:19:30Z</time></trkpt><trkpt lat="44.31469101771018" lon="7.384842055826583"><ele>673.0</ele><time>2026-04-11T18:19:31Z</time></trkpt><trkpt lat="44.31482657489229" lon="7.384992854606233"><ele>675.3333333333334</ele><time>2026-04-11T18:19:32Z</time></trkpt><trkpt lat="44.31498513627404" lon="7.3851449441509605"><ele>677.6666666666666</ele><time>2026-04-11T18:19:33Z</time></trkpt><trkpt lat="44.31515307630659" lon="7.385296572162308"><ele>680.0</ele><time>2026-04-11T18:19:34Z</time></trkpt><trkpt lat="44.31532933435495" lon="7.3854455972397295"><ele>679.6666666666666</ele><time>2026-04-11T18:19:35Z</time></trkpt><trkpt lat="44.315499522756504" lon="7.385587992348632"><ele>679.3333333333334</ele><time>2026-04-11T18:19:36Z</time></trkpt><trkpt lat="44.31565627770708" lon="7.385709475202995"><ele>679.0</ele><time>2026-04-11T18:19:37Z</time></trkpt><trkpt lat="44.31580086376107" lon="7.3858210610077"><ele>679.0</ele><time>2026-04-11T18:19:38Z</time></trkpt><trkpt lat="44.31595914019256" lon="7.385930351728124"><ele>679.0</ele><time>2026-04-11T18:19:39Z</time></trkpt><trkpt lat="44.316136014079966" lon="7.3860157489729446"><ele>679.0</ele><time>2026-04-11T18:19:40Z</time></trkpt><trkpt lat="44.31634538233716" lon="7.38608133518217"><ele>682.6666666666667</ele><time>2026-04-11T18:19:41Z</time></trkpt><trkpt lat="44.31655191544853" lon="7.386141421688361"><ele>686.3333333333334</ele><time>2026-04-11T18:19:42Z</time></trkpt><trkpt lat="44.316730153530614" lon="7.38620291321149"><ele>690.0</ele><time>2026-04-11T18:19:43Z</time></trkpt><trkpt lat="44.316899246150754" lon="7.386282448755778"><ele>688.6666666666666</ele><time>2026-04-11T18:19:44Z</time></trkpt><trkpt lat="44.317072476612786" lon="7.386387973954573"><ele>687.3333333333333</ele><time>2026-04-11T18:19:45Z</time></trkpt><trkpt lat="44.31724332610884" lon="7.38651826708354"><ele>686.0</ele><time>2026-04-11T18:19:46Z</time></trkpt><trkpt lat="44.31740130704008" lon="7.386665155267827"><ele>686.0</ele><time>2026-04-11T18:19:47Z</time></trkpt><trkpt lat="44.31754873787522" lon="7.386826081637594"><ele>686.0</ele><time>2026-04-11T18:19:48Z</time></trkpt><trkpt lat="44.31770270590402" lon="7.38701300995427"><ele>686.0</ele><time>2026-04-11T18:19:49Z</time></trkpt><trkpt lat="44.31786170974844" lon="7.387216934551418"><ele>686.0</ele><time>2026-04-11T18:19:50Z</time></trkpt><trkpt lat="44.31801984289815" lon="7.387430430412872"><ele>686.0</ele><time>2026-04-11T18:19:50.999Z</time></trkpt><trkpt lat="44.318175877013296" lon="7.387639304716143"><ele>686.0</ele><time>2026-04-11T18:19:51.999Z</time></trkpt><trkpt lat="44.318307065791224" lon="7.387846191251955"><ele>685.3333333333333</ele><time>2026-04-11T18:19:52.999Z</time></trkpt><trkpt lat="44.31842157389844" lon="7.388031811851188"><ele>684.6666666666666</ele><time>2026-04-11T18:19:53.999Z</time></trkpt><trkpt lat="44.31850201731798" lon="7.388212503592912"><ele>684.0</ele><time>2026-04-11T18:19:54.999Z</time></trkpt><trkpt lat="44.318596444621726" lon="7.388361111481948"><ele>684.0</ele><time>2026-04-11T18:19:55.999Z</time></trkpt><trkpt lat="44.31870342476267" lon="7.388501391993101"><ele>684.0</ele><time>2026-04-11T18:19:56.999Z</time></trkpt><trkpt lat="44.318821696577146" lon="7.388669913021629"><ele>684.0</ele><time>2026-04-11T18:19:57.999Z</time></trkpt><trkpt lat="44.31892781891995" lon="7.388866303376053"><ele>685.6666666666666</ele><time>2026-04-11T18:19:58.999Z</time></trkpt><trkpt lat="44.319053895012864" lon="7.389052032529484"><ele>687.3333333333333</ele><time>2026-04-11T18:19:59.999Z</time></trkpt><trkpt lat="44.31919794016168" lon="7.389248183022083"><ele>689.0</ele><time>2026-04-11T18:20:00.999Z</time></trkpt><trkpt lat="44.31935526385092" lon="7.389443525353382"><ele>689.0</ele><time>2026-04-11T18:20:01.999Z</time></trkpt><trkpt lat="44.319512671567495" lon="7.389625224049849"><ele>689.0</ele><time>2026-04-11T18:20:02.999Z</time></trkpt><trkpt lat="44.319691286749695" lon="7.389749720662282"><ele>689.0</ele><time>2026-04-11T18:20:03.999Z</time></trkpt><trkpt lat="44.31983784454878" lon="7.389919764533315"><ele>689.0</ele><time>2026-04-11T18:20:04.999Z</time></trkpt><trkpt lat="44.32000716765867" lon="7.390079901821423"><ele>689.0</ele><time>2026-04-11T18:20:05.999Z</time></trkpt><trkpt lat="44.32019153927285" lon="7.390238502233991"><ele>689.0</ele><time>2026-04-11T18:20:06.999Z</time></trkpt><trkpt lat="44.32038886738401" lon="7.390408122315787"><ele>688.0</ele><time>2026-04-11T18:20:07.999Z</time></trkpt><trkpt lat="44.32059334048926" lon="7.390593769552255"><ele>687.0</ele><time>2026-04-11T18:20:08.999Z</time></trkpt><trkpt lat="44.320805779354785" lon="7.3908132367711215"><ele>687.0</ele><time>2026-04-11T18:20:09.999Z</time></trkpt><trkpt lat="44.32103575021347" lon="7.3910102407581695"><ele>687.0</ele><time>2026-04-11T18:20:10.999Z</time></trkpt><trkpt lat="44.32125866977028" lon="7.391201187981835"><ele>685.5</ele><time>2026-04-11T18:20:11.999Z</time></trkpt><trkpt lat="44.321486414206376" lon="7.391396268071485"><ele>684.0</ele><time>2026-04-11T18:20:12.999Z</time></trkpt><trkpt lat="44.32171661956488" lon="7.391593456122371"><ele>684.0</ele><time>2026-04-11T18:20:13.999Z</time></trkpt><trkpt lat="44.321967903029645" lon="7.391808699158986"><ele>684.0</ele><time>2026-04-11T18:20:14.999Z</time></trkpt><trkpt lat="44.32219924052989" lon="7.392006856964155"><ele>686.5</ele><time>2026-04-11T18:20:15.999Z</time></trkpt><trkpt lat="44.322427135727615" lon="7.392202166384261"><ele>689.0</ele><time>2026-04-11T18:20:16.999Z</time></trkpt><trkpt lat="44.322647907708046" lon="7.392391075294625"><ele>689.0</ele><time>2026-04-11T18:20:17.999Z</time></trkpt><trkpt lat="44.32284916025797" lon="7.3925630176776345"><ele>689.0</ele><time>2026-04-11T18:20:18.999Z</time></trkpt><trkpt lat="44.32302766575292" lon="7.392715524232203"><ele>689.0</ele><time>2026-04-11T18:20:19.999Z</time></trkpt><trkpt lat="44.32320910510452" lon="7.392870537330879"><ele>688.0</ele><time>2026-04-11T18:20:20.999Z</time></trkpt><trkpt lat="44.32338827030748" lon="7.393023607506425"><ele>687.0</ele><time>2026-04-11T18:20:21.999Z</time></trkpt><trkpt lat="44.32355429155797" lon="7.393165448123824"><ele>686.0</ele><time>2026-04-11T18:20:22.999Z</time></trkpt><trkpt lat="44.32370110007335" lon="7.393290874385258"><ele>686.0</ele><time>2026-04-11T18:20:23.999Z</time></trkpt><trkpt lat="44.32384382606335" lon="7.393389120584962"><ele>686.0</ele><time>2026-04-11T18:20:24.999Z</time></trkpt><trkpt lat="44.32396787917599" lon="7.3935130872429955"><ele>686.0</ele><time>2026-04-11T18:20:25.999Z</time></trkpt><trkpt lat="44.3240853631584" lon="7.393633552103831"><ele>688.3333333333333</ele><time>2026-04-11T18:20:27Z</time></trkpt><trkpt lat="44.32419176413916" lon="7.393804089394624"><ele>690.6666666666666</ele><time>2026-04-11T18:20:28Z</time></trkpt><trkpt lat="44.32430552981988" lon="7.393983948120237"><ele>693.0</ele><time>2026-04-11T18:20:29Z</time></trkpt><trkpt lat="44.32442558879457" lon="7.39421096354457"><ele>693.0</ele><time>2026-04-11T18:20:30Z</time></trkpt><trkpt lat="44.32456340084555" lon="7.394469386934415"><ele>693.0</ele><time>2026-04-11T18:20:31Z</time></trkpt><trkpt lat="44.32468703122529" lon="7.394758022505635"><ele>693.3333333333334</ele><time>2026-04-11T18:20:32Z</time></trkpt><trkpt lat="44.32480347303417" lon="7.395034904295723"><ele>693.6666666666667</ele><time>2026-04-11T18:20:33Z</time></trkpt><trkpt lat="44.324901526781375" lon="7.39528063289922"><ele>694.0</ele><time>2026-04-11T18:20:34Z</time></trkpt><trkpt lat="44.3249908421252" lon="7.395509422183916"><ele>694.0</ele><time>2026-04-11T18:20:35Z</time></trkpt><trkpt lat="44.32508246678107" lon="7.3957228401953765"><ele>694.0</ele><time>2026-04-11T18:20:36Z</time></trkpt><trkpt lat="44.3251620068741" lon="7.395928026177262"><ele>694.0</ele><time>2026-04-11T18:20:37Z</time></trkpt><trkpt lat="44.32525607609269" lon="7.3961153481337485"><ele>694.0</ele><time>2026-04-11T18:20:38Z</time></trkpt><trkpt lat="44.3253601809621" lon="7.396292688544668"><ele>694.0</ele><time>2026-04-11T18:20:39Z</time></trkpt><trkpt lat="44.32546568659588" lon="7.396453651171678"><ele>694.0</ele><time>2026-04-11T18:20:40Z</time></trkpt><trkpt lat="44.32557482690571" lon="7.396592382944267"><ele>695.5</ele><time>2026-04-11T18:20:41Z</time></trkpt><trkpt lat="44.325676609328724" lon="7.39671085214048"><ele>697.0</ele><time>2026-04-11T18:20:42Z</time></trkpt><trkpt lat="44.325786841471164" lon="7.396788643172896"><ele>698.5</ele><time>2026-04-11T18:20:43Z</time></trkpt><trkpt lat="44.32588890879567" lon="7.396860141255983"><ele>700.0</ele><time>2026-04-11T18:20:44Z</time></trkpt><trkpt lat="44.32600640747935" lon="7.396940176757494"><ele>700.0</ele><time>2026-04-11T18:20:45Z</time></trkpt><trkpt lat="44.326151859690185" lon="7.396974886490971"><ele>700.0</ele><time>2026-04-11T18:20:46Z</time></trkpt><trkpt lat="44.3262866446126" lon="7.396980689264991"><ele>700.0</ele><time>2026-04-11T18:20:47Z</time></trkpt><trkpt lat="44.32641181873954" lon="7.396958727092275"><ele>700.0</ele><time>2026-04-11T18:20:48Z</time></trkpt><trkpt lat="44.32656227067542" lon="7.3969091867506895"><ele>702.6666666666667</ele><time>2026-04-11T18:20:49Z</time></trkpt><trkpt lat="44.326734927354615" lon="7.3968432057340845"><ele>705.3333333333334</ele><time>2026-04-11T18:20:50Z</time></trkpt><trkpt lat="44.32695548176379" lon="7.396751740433116"><ele>708.0</ele><time>2026-04-11T18:20:51Z</time></trkpt><trkpt lat="44.3272156299996" lon="7.396641811723171"><ele>702.0</ele><time>2026-04-11T18:20:52Z</time></trkpt><trkpt lat="44.327511388961945" lon="7.396516835274431"><ele>696.0</ele><time>2026-04-11T18:20:53Z</time></trkpt><trkpt lat="44.32779928212082" lon="7.396395184486873"><ele>700.5</ele><time>2026-04-11T18:20:54Z</time></trkpt><trkpt lat="44.32807090089387" lon="7.396280408709781"><ele>705.0</ele><time>2026-04-11T18:20:55Z</time></trkpt><trkpt lat="44.32833069963597" lon="7.396171772836176"><ele>705.0</ele><time>2026-04-11T18:20:56Z</time></trkpt><trkpt lat="44.328564978990244" lon="7.396073815628013"><ele>705.0</ele><time>2026-04-11T18:20:57Z</time></trkpt><trkpt lat="44.32877976138236" lon="7.395984010515679"><ele>704.6666666666666</ele><time>2026-04-11T18:20:58Z</time></trkpt><trkpt lat="44.32898807449376" lon="7.395896910354428"><ele>704.3333333333333</ele><time>2026-04-11T18:20:59Z</time></trkpt><trkpt lat="44.32917557787825" lon="7.395819777015174"><ele>704.0</ele><time>2026-04-11T18:21:00Z</time></trkpt><trkpt lat="44.32935068762066" lon="7.395750154975385"><ele>704.0</ele><time>2026-04-11T18:21:01Z</time></trkpt><trkpt lat="44.32951145088923" lon="7.3956982666799735"><ele>704.0</ele><time>2026-04-11T18:21:02Z</time></trkpt><trkpt lat="44.3296743063004" lon="7.39566728543962"><ele>704.0</ele><time>2026-04-11T18:21:03Z</time></trkpt><trkpt lat="44.329840629308094" lon="7.395656891128275"><ele>704.3333333333333</ele><time>2026-04-11T18:21:04Z</time></trkpt><trkpt lat="44.33001577581027" lon="7.395669180084526"><ele>704.6666666666666</ele><time>2026-04-11T18:21:05Z</time></trkpt><trkpt lat="44.3301826506843" lon="7.395702958734866"><ele>705.0</ele><time>2026-04-11T18:21:06Z</time></trkpt><trkpt lat="44.330343984561644" lon="7.395754548938029"><ele>705.0</ele><time>2026-04-11T18:21:07Z</time></trkpt><trkpt lat="44.330502739527795" lon="7.395800386946901"><ele>705.0</ele><time>2026-04-11T18:21:08Z</time></trkpt><trkpt lat="44.33065213691209" lon="7.395921609372806"><ele>705.0</ele><time>2026-04-11T18:21:09Z</time></trkpt><trkpt lat="44.33080717201574" lon="7.396039215100995"><ele>706.3333333333334</ele><time>2026-04-11T18:21:10Z</time></trkpt><trkpt lat="44.330954355117626" lon="7.396175567855339"><ele>707.6666666666667</ele><time>2026-04-11T18:21:11Z</time></trkpt><trkpt lat="44.33111708432589" lon="7.396331103793495"><ele>709.0</ele><time>2026-04-11T18:21:12Z</time></trkpt><trkpt lat="44.33127774764388" lon="7.396486369423358"><ele>707.6666666666667</ele><time>2026-04-11T18:21:13Z</time></trkpt><trkpt lat="44.33143396043724" lon="7.396613551269634"><ele>706.3333333333334</ele><time>2026-04-11T18:21:14Z</time></trkpt><trkpt lat="44.33155804081447" lon="7.396743457116665"><ele>705.0</ele><time>2026-04-11T18:21:15Z</time></trkpt><trkpt lat="44.33167201887534" lon="7.396874664429277"><ele>705.0</ele><time>2026-04-11T18:21:16Z</time></trkpt><trkpt lat="44.33177537538518" lon="7.397025968329078"><ele>705.0</ele><time>2026-04-11T18:21:17Z</time></trkpt><trkpt lat="44.331873919286544" lon="7.397221321029883"><ele>705.0</ele><time>2026-04-11T18:21:18Z</time></trkpt><trkpt lat="44.33196678234543" lon="7.3974213087594896"><ele>705.0</ele><time>2026-04-11T18:21:19Z</time></trkpt><trkpt lat="44.33204366485134" lon="7.397627617308402"><ele>705.0</ele><time>2026-04-11T18:21:20Z</time></trkpt><trkpt lat="44.33210955302169" lon="7.397854439597052"><ele>705.0</ele><time>2026-04-11T18:21:21Z</time></trkpt><trkpt lat="44.33216083178162" lon="7.398110383181959"><ele>705.0</ele><time>2026-04-11T18:21:22Z</time></trkpt><trkpt lat="44.33220619075598" lon="7.398388049712598"><ele>705.0</ele><time>2026-04-11T18:21:23Z</time></trkpt><trkpt lat="44.332248257695646" lon="7.3986675305335305"><ele>705.0</ele><time>2026-04-11T18:21:24Z</time></trkpt><trkpt lat="44.332289372550804" lon="7.398940685978132"><ele>705.6666666666666</ele><time>2026-04-11T18:21:25Z</time></trkpt><trkpt lat="44.33233126871972" lon="7.399219032252418"><ele>706.3333333333333</ele><time>2026-04-11T18:21:26Z</time></trkpt><trkpt lat="44.33237346780786" lon="7.3994990805687575"><ele>707.0</ele><time>2026-04-11T18:21:27Z</time></trkpt><trkpt lat="44.33241955050364" lon="7.399804698175571"><ele>707.0</ele><time>2026-04-11T18:21:28Z</time></trkpt><trkpt lat="44.33247224812222" lon="7.400154091298462"><ele>707.0</ele><time>2026-04-11T18:21:29Z</time></trkpt><trkpt lat="44.332526954361555" lon="7.400516258258105"><ele>705.5</ele><time>2026-04-11T18:21:30Z</time></trkpt><trkpt lat="44.332583566308806" lon="7.400887203176763"><ele>704.0</ele><time>2026-04-11T18:21:31Z</time></trkpt><trkpt lat="44.33263986230172" lon="7.401251370375923"><ele>703.0</ele><time>2026-04-11T18:21:32Z</time></trkpt><trkpt lat="44.33269583552974" lon="7.401613449695457"><ele>702.0</ele><time>2026-04-11T18:21:33Z</time></trkpt><trkpt lat="44.332748065114686" lon="7.401954512892498"><ele>700.5</ele><time>2026-04-11T18:21:34Z</time></trkpt><trkpt lat="44.33279693476808" lon="7.402273843139789"><ele>699.0</ele><time>2026-04-11T18:21:35Z</time></trkpt><trkpt lat="44.33286053542469" lon="7.402596950947227"><ele>699.0</ele><time>2026-04-11T18:21:36Z</time></trkpt><trkpt lat="44.332906980135" lon="7.402928003355035"><ele>699.0</ele><time>2026-04-11T18:21:37Z</time></trkpt><trkpt lat="44.332955643136195" lon="7.403259790563645"><ele>699.0</ele><time>2026-04-11T18:21:38Z</time></trkpt><trkpt lat="44.33300651478526" lon="7.403585012928314"><ele>699.0</ele><time>2026-04-11T18:21:39Z</time></trkpt><trkpt lat="44.33305939181618" lon="7.403912314228135"><ele>699.5</ele><time>2026-04-11T18:21:40Z</time></trkpt><trkpt lat="44.3331134089834" lon="7.404246066482218"><ele>700.0</ele><time>2026-04-11T18:21:41Z</time></trkpt><trkpt lat="44.333156606598116" lon="7.4045674887959425"><ele>699.3333333333334</ele><time>2026-04-11T18:21:42Z</time></trkpt><trkpt lat="44.33320164441737" lon="7.4048586378795935"><ele>698.6666666666666</ele><time>2026-04-11T18:21:43Z</time></trkpt><trkpt lat="44.333242221537226" lon="7.40511439225624"><ele>698.0</ele><time>2026-04-11T18:21:44Z</time></trkpt><trkpt lat="44.33327697863379" lon="7.405349252372153"><ele>698.3333333333333</ele><time>2026-04-11T18:21:45Z</time></trkpt><trkpt lat="44.3333077941926" lon="7.405560686291676"><ele>698.6666666666666</ele><time>2026-04-11T18:21:46Z</time></trkpt><trkpt lat="44.33333625423137" lon="7.405761557466845"><ele>699.0</ele><time>2026-04-11T18:21:47Z</time></trkpt><trkpt lat="44.333374623798534" lon="7.405962700072076"><ele>699.0</ele><time>2026-04-11T18:21:48Z</time></trkpt><trkpt lat="44.333417526147414" lon="7.4061692599677595"><ele>699.0</ele><time>2026-04-11T18:21:49Z</time></trkpt><trkpt lat="44.333482288423404" lon="7.406363310176007"><ele>699.0</ele><time>2026-04-11T18:21:50Z</time></trkpt><trkpt lat="44.33355591550042" lon="7.406548417048891"><ele>698.3333333333334</ele><time>2026-04-11T18:21:51Z</time></trkpt><trkpt lat="44.33365826487926" lon="7.406727890310038"><ele>697.6666666666667</ele><time>2026-04-11T18:21:52Z</time></trkpt><trkpt lat="44.33377538613631" lon="7.406920157461325"><ele>697.0</ele><time>2026-04-11T18:21:53Z</time></trkpt><trkpt lat="44.33390781123425" lon="7.407119003056397"><ele>696.3333333333334</ele><time>2026-04-11T18:21:54Z</time></trkpt><trkpt lat="44.33405232205946" lon="7.4073304140361715"><ele>695.6666666666666</ele><time>2026-04-11T18:21:55Z</time></trkpt><trkpt lat="44.33419684607698" lon="7.407544420863471"><ele>695.0</ele><time>2026-04-11T18:21:56Z</time></trkpt><trkpt lat="44.334349401496816" lon="7.407767792303349"><ele>695.0</ele><time>2026-04-11T18:21:56.999Z</time></trkpt><trkpt lat="44.334507489441606" lon="7.407999712485933"><ele>695.0</ele><time>2026-04-11T18:21:57.999Z</time></trkpt><trkpt lat="44.33465627073677" lon="7.40825145996443"><ele>694.0</ele><time>2026-04-11T18:21:58.999Z</time></trkpt><trkpt lat="44.33483303066814" lon="7.408474634686271"><ele>693.0</ele><time>2026-04-11T18:21:59.999Z</time></trkpt><trkpt lat="44.33499888379579" lon="7.40871750903946"><ele>693.0</ele><time>2026-04-11T18:22:00.999Z</time></trkpt><trkpt lat="44.335164367879194" lon="7.408962148502645"><ele>693.0</ele><time>2026-04-11T18:22:01.999Z</time></trkpt><trkpt lat="44.335322772869205" lon="7.409189907680804"><ele>693.0</ele><time>2026-04-11T18:22:02.999Z</time></trkpt><trkpt lat="44.33546324030583" lon="7.4093990122223845"><ele>693.0</ele><time>2026-04-11T18:22:03.999Z</time></trkpt><trkpt lat="44.33558451941304" lon="7.4095808087324535"><ele>693.0</ele><time>2026-04-11T18:22:04.999Z</time></trkpt><trkpt lat="44.335684977778264" lon="7.409754350936422"><ele>692.3333333333334</ele><time>2026-04-11T18:22:05.999Z</time></trkpt><trkpt lat="44.33578723240516" lon="7.409926975674397"><ele>691.6666666666667</ele><time>2026-04-11T18:22:06.999Z</time></trkpt><trkpt lat="44.335879569111114" lon="7.410136972955484"><ele>691.0</ele><time>2026-04-11T18:22:07.999Z</time></trkpt><trkpt lat="44.33597409905532" lon="7.410392297940918"><ele>689.5</ele><time>2026-04-11T18:22:08.999Z</time></trkpt><trkpt lat="44.336081333556635" lon="7.410685816934071"><ele>688.0</ele><time>2026-04-11T18:22:09.999Z</time></trkpt><trkpt lat="44.33619707675064" lon="7.410997777399601"><ele>688.0</ele><time>2026-04-11T18:22:10.999Z</time></trkpt><trkpt lat="44.33631683565806" lon="7.411327851818998"><ele>688.0</ele><time>2026-04-11T18:22:11.999Z</time></trkpt><trkpt lat="44.33643987174079" lon="7.4116644213798715"><ele>687.5</ele><time>2026-04-11T18:22:12.999Z</time></trkpt><trkpt lat="44.3365459269901" lon="7.412004137940775"><ele>687.0</ele><time>2026-04-11T18:22:13.999Z</time></trkpt><trkpt lat="44.336656837462456" lon="7.41230586092663"><ele>686.3333333333334</ele><time>2026-04-11T18:22:14.999Z</time></trkpt><trkpt lat="44.33677309989807" lon="7.412567600607319"><ele>685.6666666666667</ele><time>2026-04-11T18:22:15.999Z</time></trkpt><trkpt lat="44.33686840469271" lon="7.412826737939192"><ele>685.0</ele><time>2026-04-11T18:22:16.999Z</time></trkpt><trkpt lat="44.336962710998925" lon="7.413079559525192"><ele>684.3333333333334</ele><time>2026-04-11T18:22:17.999Z</time></trkpt><trkpt lat="44.33705045943845" lon="7.413323010742257"><ele>683.6666666666666</ele><time>2026-04-11T18:22:18.999Z</time></trkpt><trkpt lat="44.33712516294257" lon="7.413533117384316"><ele>683.0</ele><time>2026-04-11T18:22:19.999Z</time></trkpt><trkpt lat="44.337184263984085" lon="7.413714183495661"><ele>683.0</ele><time>2026-04-11T18:22:20.999Z</time></trkpt><trkpt lat="44.33723239867976" lon="7.413885269253036"><ele>683.0</ele><time>2026-04-11T18:22:21.999Z</time></trkpt><trkpt lat="44.33726709890705" lon="7.414058621496884"><ele>683.0</ele><time>2026-04-11T18:22:22.999Z</time></trkpt><trkpt lat="44.33728923674863" lon="7.414248165549691"><ele>683.0</ele><time>2026-04-11T18:22:23.999Z</time></trkpt><trkpt lat="44.33728092067112" lon="7.414457182713697"><ele>682.3333333333333</ele><time>2026-04-11T18:22:24.999Z</time></trkpt><trkpt lat="44.337243645856304" lon="7.414659500664528"><ele>681.6666666666666</ele><time>2026-04-11T18:22:25.999Z</time></trkpt><trkpt lat="44.3371777847731" lon="7.414890260797643"><ele>681.0</ele><time>2026-04-11T18:22:26.999Z</time></trkpt><trkpt lat="44.33709548408929" lon="7.415151645338028"><ele>680.5</ele><time>2026-04-11T18:22:27.999Z</time></trkpt><trkpt lat="44.336995309727236" lon="7.415461062622969"><ele>680.0</ele><time>2026-04-11T18:22:28.999Z</time></trkpt><trkpt lat="44.33688641664985" lon="7.41579133347255"><ele>678.0</ele><time>2026-04-11T18:22:29.999Z</time></trkpt><trkpt lat="44.33677732444408" lon="7.416120847001074"><ele>676.0</ele><time>2026-04-11T18:22:30.999Z</time></trkpt><trkpt lat="44.33666704646632" lon="7.416450904956068"><ele>670.0</ele><time>2026-04-11T18:22:31.999Z</time></trkpt><trkpt lat="44.3365605438756" lon="7.416774933773395"><ele>664.0</ele><time>2026-04-11T18:22:33Z</time></trkpt><trkpt lat="44.33646178217865" lon="7.417066479861351"><ele>665.0</ele><time>2026-04-11T18:22:34Z</time></trkpt><trkpt lat="44.33637415526267" lon="7.4173289470163395"><ele>666.0</ele><time>2026-04-11T18:22:35Z</time></trkpt><trkpt lat="44.33629213415279" lon="7.417579413789855"><ele>667.0</ele><time>2026-04-11T18:22:36Z</time></trkpt><trkpt lat="44.33621933133985" lon="7.4177926757835895"><ele>667.0</ele><time>2026-04-11T18:22:37Z</time></trkpt><trkpt lat="44.33615262714469" lon="7.417960280300684"><ele>667.0</ele><time>2026-04-11T18:22:38Z</time></trkpt><trkpt lat="44.336071503804796" lon="7.418122148433134"><ele>667.0</ele><time>2026-04-11T18:22:39Z</time></trkpt><trkpt lat="44.335973452832995" lon="7.418286395797388"><ele>667.0</ele><time>2026-04-11T18:22:40Z</time></trkpt><trkpt lat="44.33584645974535" lon="7.418445593160361"><ele>669.0</ele><time>2026-04-11T18:22:41Z</time></trkpt><trkpt lat="44.335686159356314" lon="7.418596061724988"><ele>671.0</ele><time>2026-04-11T18:22:42Z</time></trkpt><trkpt lat="44.3355013347704" lon="7.4187422564105345"><ele>673.0</ele><time>2026-04-11T18:22:43Z</time></trkpt><trkpt lat="44.335300555195616" lon="7.418879225531729"><ele>676.0</ele><time>2026-04-11T18:22:44Z</time></trkpt><trkpt lat="44.33511701906962" lon="7.419011108593005"><ele>679.0</ele><time>2026-04-11T18:22:45Z</time></trkpt><trkpt lat="44.33496918411902" lon="7.419123944897014"><ele>682.0</ele><time>2026-04-11T18:22:46Z</time></trkpt><trkpt lat="44.334834945495" lon="7.419223495068587"><ele>682.5</ele><time>2026-04-11T18:22:47Z</time></trkpt><trkpt lat="44.33471922531032" lon="7.419314715056027"><ele>683.0</ele><time>2026-04-11T18:22:48Z</time></trkpt><trkpt lat="44.334618635736994" lon="7.419401933826458"><ele>683.5</ele><time>2026-04-11T18:22:49Z</time></trkpt><trkpt lat="44.334526102701126" lon="7.419499282201316"><ele>684.0</ele><time>2026-04-11T18:22:50Z</time></trkpt><trkpt lat="44.334442619154025" lon="7.419618697877301"><ele>685.75</ele><time>2026-04-11T18:22:51Z</time></trkpt><trkpt lat="44.334357846589015" lon="7.419767080710071"><ele>687.5</ele><time>2026-04-11T18:22:52Z</time></trkpt><trkpt lat="44.33429299075108" lon="7.419928849372129"><ele>689.25</ele><time>2026-04-11T18:22:53Z</time></trkpt><trkpt lat="44.33424261798219" lon="7.420087765644245"><ele>691.0</ele><time>2026-04-11T18:22:54Z</time></trkpt><trkpt lat="44.334213555570905" lon="7.420259475545542"><ele>691.0</ele><time>2026-04-11T18:22:55Z</time></trkpt><trkpt lat="44.33419591223866" lon="7.420449246443559"><ele>691.0</ele><time>2026-04-11T18:22:56Z</time></trkpt><trkpt lat="44.33418875969254" lon="7.420639622724686"><ele>691.0</ele><time>2026-04-11T18:22:57Z</time></trkpt><trkpt lat="44.334207252479345" lon="7.420865067895702"><ele>691.0</ele><time>2026-04-11T18:22:58Z</time></trkpt><trkpt lat="44.33423916661829" lon="7.42112686976359"><ele>696.5</ele><time>2026-04-11T18:22:59Z</time></trkpt><trkpt lat="44.33428451299639" lon="7.421445743975411"><ele>702.0</ele><time>2026-04-11T18:23:00Z</time></trkpt><trkpt lat="44.334333029739575" lon="7.421811712690488"><ele>702.5</ele><time>2026-04-11T18:23:01Z</time></trkpt><trkpt lat="44.33438615806401" lon="7.422206025130936"><ele>703.0</ele><time>2026-04-11T18:23:02Z</time></trkpt><trkpt lat="44.33443415366969" lon="7.422603460349665"><ele>704.0</ele><time>2026-04-11T18:23:03Z</time></trkpt><trkpt lat="44.334484782567074" lon="7.422983606432625"><ele>705.0</ele><time>2026-04-11T18:23:04Z</time></trkpt><trkpt lat="44.33453093381856" lon="7.4233495888244585"><ele>705.0</ele><time>2026-04-11T18:23:05Z</time></trkpt><trkpt lat="44.334570764922184" lon="7.42369693593957"><ele>705.0</ele><time>2026-04-11T18:23:06Z</time></trkpt><trkpt lat="44.33460769990229" lon="7.424007524824606"><ele>705.3333333333334</ele><time>2026-04-11T18:23:07Z</time></trkpt><trkpt lat="44.33464417335275" lon="7.4243051664726805"><ele>705.6666666666667</ele><time>2026-04-11T18:23:08Z</time></trkpt><trkpt lat="44.334686767213555" lon="7.424612939428641"><ele>706.0</ele><time>2026-04-11T18:23:09Z</time></trkpt><trkpt lat="44.33472675499704" lon="7.424935938979717"><ele>703.0</ele><time>2026-04-11T18:23:10Z</time></trkpt><trkpt lat="44.334763907781884" lon="7.4252599937439445"><ele>700.0</ele><time>2026-04-11T18:23:11Z</time></trkpt><trkpt lat="44.33480168207378" lon="7.425586634450044"><ele>700.0</ele><time>2026-04-11T18:23:12Z</time></trkpt><trkpt lat="44.33483912736247" lon="7.425919774735232"><ele>700.0</ele><time>2026-04-11T18:23:13Z</time></trkpt><trkpt lat="44.33488104360949" lon="7.426268438122251"><ele>699.5</ele><time>2026-04-11T18:23:14Z</time></trkpt><trkpt lat="44.33492904935013" lon="7.426642141302931"><ele>699.0</ele><time>2026-04-11T18:23:15Z</time></trkpt><trkpt lat="44.334974260118514" lon="7.427018073559991"><ele>698.0</ele><time>2026-04-11T18:23:16Z</time></trkpt><trkpt lat="44.3350181691386" lon="7.427372307656348"><ele>697.0</ele><time>2026-04-11T18:23:17Z</time></trkpt><trkpt lat="44.335056657908275" lon="7.427697235709061"><ele>697.0</ele><time>2026-04-11T18:23:18Z</time></trkpt><trkpt lat="44.335092392401855" lon="7.427989884158454"><ele>697.0</ele><time>2026-04-11T18:23:19Z</time></trkpt><trkpt lat="44.335128811697786" lon="7.428276263545385"><ele>697.0</ele><time>2026-04-11T18:23:20Z</time></trkpt><trkpt lat="44.335161201680286" lon="7.4285588762542"><ele>697.0</ele><time>2026-04-11T18:23:21Z</time></trkpt><trkpt lat="44.335180767056045" lon="7.428789262475283"><ele>697.0</ele><time>2026-04-11T18:23:22Z</time></trkpt><trkpt lat="44.33519485749947" lon="7.428991948319396"><ele>697.0</ele><time>2026-04-11T18:23:23Z</time></trkpt><trkpt lat="44.335200363546" lon="7.429200626322595"><ele>697.3333333333334</ele><time>2026-04-11T18:23:24Z</time></trkpt><trkpt lat="44.335192155883526" lon="7.429446079964229"><ele>697.6666666666666</ele><time>2026-04-11T18:23:25Z</time></trkpt><trkpt lat="44.33516970924288" lon="7.429711309744634"><ele>698.0</ele><time>2026-04-11T18:23:26Z</time></trkpt><trkpt lat="44.33513363705243" lon="7.430010879953514"><ele>698.0</ele><time>2026-04-11T18:23:27Z</time></trkpt><trkpt lat="44.33508641531812" lon="7.430331055514079"><ele>698.0</ele><time>2026-04-11T18:23:28Z</time></trkpt><trkpt lat="44.33503080384891" lon="7.430664468163447"><ele>697.0</ele><time>2026-04-11T18:23:29Z</time></trkpt><trkpt lat="44.33497827686008" lon="7.430993969133335"><ele>696.0</ele><time>2026-04-11T18:23:30Z</time></trkpt><trkpt lat="44.33491969784375" lon="7.431365817036726"><ele>695.5</ele><time>2026-04-11T18:23:31Z</time></trkpt><trkpt lat="44.334865117125496" lon="7.431712781697749"><ele>695.0</ele><time>2026-04-11T18:23:32Z</time></trkpt><trkpt lat="44.334813804353715" lon="7.432030464900504"><ele>694.6666666666666</ele><time>2026-04-11T18:23:33Z</time></trkpt><trkpt lat="44.334763594067205" lon="7.432337053205039"><ele>694.3333333333334</ele><time>2026-04-11T18:23:34Z</time></trkpt><trkpt lat="44.3347210734604" lon="7.4326129977560695"><ele>694.0</ele><time>2026-04-11T18:23:35Z</time></trkpt><trkpt lat="44.334677544233436" lon="7.432878099429718"><ele>694.3333333333334</ele><time>2026-04-11T18:23:36Z</time></trkpt><trkpt lat="44.33463740774713" lon="7.433140517945783"><ele>694.6666666666666</ele><time>2026-04-11T18:23:37Z</time></trkpt><trkpt lat="44.33459346735311" lon="7.433412511161326"><ele>695.0</ele><time>2026-04-11T18:23:38Z</time></trkpt><trkpt lat="44.33454990853049" lon="7.433699395371154"><ele>695.0</ele><time>2026-04-11T18:23:39Z</time></trkpt><trkpt lat="44.33450229337848" lon="7.434005049496619"><ele>695.0</ele><time>2026-04-11T18:23:40Z</time></trkpt><trkpt lat="44.334454007923874" lon="7.434315781933928"><ele>695.0</ele><time>2026-04-11T18:23:41Z</time></trkpt><trkpt lat="44.334389091687974" lon="7.4346299956927835"><ele>695.0</ele><time>2026-04-11T18:23:42Z</time></trkpt><trkpt lat="44.33434495986949" lon="7.434982124322923"><ele>694.5</ele><time>2026-04-11T18:23:43Z</time></trkpt><trkpt lat="44.3342940679193" lon="7.435313904431381"><ele>694.0</ele><time>2026-04-11T18:23:44Z</time></trkpt><trkpt lat="44.33424584641097" lon="7.43562405769422"><ele>694.0</ele><time>2026-04-11T18:23:45Z</time></trkpt><trkpt lat="44.33419821487582" lon="7.4359179454314965"><ele>694.0</ele><time>2026-04-11T18:23:46Z</time></trkpt><trkpt lat="44.33414856861115" lon="7.436228846705171"><ele>694.0</ele><time>2026-04-11T18:23:47Z</time></trkpt><trkpt lat="44.334103849624015" lon="7.436530540728678"><ele>693.6666666666667</ele><time>2026-04-11T18:23:48Z</time></trkpt><trkpt lat="44.33405571295015" lon="7.436835374270962"><ele>693.3333333333334</ele><time>2026-04-11T18:23:49Z</time></trkpt><trkpt lat="44.33400595792354" lon="7.437142968241998"><ele>693.0</ele><time>2026-04-11T18:23:50Z</time></trkpt><trkpt lat="44.33394628298985" lon="7.437452366886326"><ele>693.0</ele><time>2026-04-11T18:23:51Z</time></trkpt><trkpt lat="44.33388357551327" lon="7.43776846855019"><ele>693.0</ele><time>2026-04-11T18:23:52Z</time></trkpt><trkpt lat="44.33381173590689" lon="7.4380833885737765"><ele>691.5</ele><time>2026-04-11T18:23:53Z</time></trkpt><trkpt lat="44.33373445296789" lon="7.438393123446593"><ele>690.0</ele><time>2026-04-11T18:23:54Z</time></trkpt><trkpt lat="44.333657071428256" lon="7.438705523375309"><ele>689.6666666666666</ele><time>2026-04-11T18:23:55Z</time></trkpt><trkpt lat="44.333579839731165" lon="7.439009937371838"><ele>689.3333333333333</ele><time>2026-04-11T18:23:56Z</time></trkpt><trkpt lat="44.33351163361617" lon="7.439290435138164"><ele>689.0</ele><time>2026-04-11T18:23:57Z</time></trkpt><trkpt lat="44.33345267394819" lon="7.43954337753185"><ele>688.6666666666666</ele><time>2026-04-11T18:23:58Z</time></trkpt><trkpt lat="44.33339796112784" lon="7.439767995683883"><ele>688.3333333333334</ele><time>2026-04-11T18:23:59Z</time></trkpt><trkpt lat="44.33334648006612" lon="7.439981572762063"><ele>688.0</ele><time>2026-04-11T18:24:00Z</time></trkpt><trkpt lat="44.333301968580486" lon="7.44017809884935"><ele>688.0</ele><time>2026-04-11T18:24:01Z</time></trkpt><trkpt lat="44.33326865091027" lon="7.440382098014143"><ele>688.0</ele><time>2026-04-11T18:24:02Z</time></trkpt><trkpt lat="44.33324924220848" lon="7.440600824829713"><ele>688.0</ele><time>2026-04-11T18:24:02.999Z</time></trkpt><trkpt lat="44.333248258084716" lon="7.4408367599074925"><ele>687.3333333333334</ele><time>2026-04-11T18:24:03.999Z</time></trkpt><trkpt lat="44.333254084288626" lon="7.441093569970928"><ele>686.6666666666666</ele><time>2026-04-11T18:24:04.999Z</time></trkpt><trkpt lat="44.33327090701503" lon="7.4413660003936295"><ele>686.0</ele><time>2026-04-11T18:24:05.999Z</time></trkpt><trkpt lat="44.33330151908432" lon="7.441661110249936"><ele>686.0</ele><time>2026-04-11T18:24:06.999Z</time></trkpt><trkpt lat="44.3333327024076" lon="7.441993931086562"><ele>686.0</ele><time>2026-04-11T18:24:07.999Z</time></trkpt><trkpt lat="44.3333529321761" lon="7.442361620158939"><ele>686.5</ele><time>2026-04-11T18:24:08.999Z</time></trkpt><trkpt lat="44.333378414037576" lon="7.442720200072127"><ele>687.0</ele><time>2026-04-11T18:24:09.999Z</time></trkpt><trkpt lat="44.333408970804506" lon="7.443100337898564"><ele>686.0</ele><time>2026-04-11T18:24:10.999Z</time></trkpt><trkpt lat="44.33343153761294" lon="7.443475987732848"><ele>685.0</ele><time>2026-04-11T18:24:11.999Z</time></trkpt><trkpt lat="44.33345876274995" lon="7.443858139154385"><ele>684.5</ele><time>2026-04-11T18:24:12.999Z</time></trkpt><trkpt lat="44.33348210611658" lon="7.444239032609936"><ele>684.0</ele><time>2026-04-11T18:24:13.999Z</time></trkpt><trkpt lat="44.33350726879954" lon="7.444621686237123"><ele>683.0</ele><time>2026-04-11T18:24:14.999Z</time></trkpt><trkpt lat="44.333529847389535" lon="7.445020382686679"><ele>682.0</ele><time>2026-04-11T18:24:15.999Z</time></trkpt><trkpt lat="44.33354795401368" lon="7.445411357235695"><ele>682.3333333333334</ele><time>2026-04-11T18:24:16.999Z</time></trkpt><trkpt lat="44.3335649999873" lon="7.4457927071418775"><ele>682.6666666666666</ele><time>2026-04-11T18:24:17.999Z</time></trkpt><trkpt lat="44.33361841177433" lon="7.446010106232511"><ele>683.0</ele><time>2026-04-11T18:24:18.999Z</time></trkpt><trkpt lat="44.33364341972638" lon="7.446325601444583"><ele>682.3333333333333</ele><time>2026-04-11T18:24:19.999Z</time></trkpt><trkpt lat="44.33366646014775" lon="7.44661798435953"><ele>681.6666666666666</ele><time>2026-04-11T18:24:20.999Z</time></trkpt><trkpt lat="44.33368858135931" lon="7.4469015640187095"><ele>681.0</ele><time>2026-04-11T18:24:21.999Z</time></trkpt><trkpt lat="44.33370988279457" lon="7.447195793306181"><ele>681.0</ele><time>2026-04-11T18:24:22.999Z</time></trkpt><trkpt lat="44.333731612694514" lon="7.447488801031346"><ele>681.0</ele><time>2026-04-11T18:24:23.999Z</time></trkpt><trkpt lat="44.33375238948696" lon="7.447766277387527"><ele>681.0</ele><time>2026-04-11T18:24:24.999Z</time></trkpt><trkpt lat="44.33377208791579" lon="7.44802116830979"><ele>681.3333333333334</ele><time>2026-04-11T18:24:25.999Z</time></trkpt><trkpt lat="44.33378918932832" lon="7.448272169188363"><ele>681.6666666666667</ele><time>2026-04-11T18:24:26.999Z</time></trkpt><trkpt lat="44.33380513968073" lon="7.448527110505106"><ele>682.0</ele><time>2026-04-11T18:24:27.999Z</time></trkpt><trkpt lat="44.333828684305125" lon="7.448818735485934"><ele>681.0</ele><time>2026-04-11T18:24:28.999Z</time></trkpt><trkpt lat="44.3338573217969" lon="7.449130693552321"><ele>680.0</ele><time>2026-04-11T18:24:29.999Z</time></trkpt><trkpt lat="44.33388212563931" lon="7.449446199979511"><ele>679.6666666666666</ele><time>2026-04-11T18:24:30.999Z</time></trkpt><trkpt lat="44.33390482179413" lon="7.4497329419968485"><ele>679.3333333333334</ele><time>2026-04-11T18:24:31.999Z</time></trkpt><trkpt lat="44.33392251555767" lon="7.450033530903465"><ele>679.0</ele><time>2026-04-11T18:24:32.999Z</time></trkpt><trkpt lat="44.33394517696536" lon="7.450340101553314"><ele>677.3333333333334</ele><time>2026-04-11T18:24:33.999Z</time></trkpt><trkpt lat="44.333967204038565" lon="7.450643417303294"><ele>675.6666666666666</ele><time>2026-04-11T18:24:34.999Z</time></trkpt><trkpt lat="44.33399009027077" lon="7.450949113166062"><ele>674.0</ele><time>2026-04-11T18:24:35.999Z</time></trkpt><trkpt lat="44.33401233300488" lon="7.451250943287232"><ele>673.6666666666666</ele><time>2026-04-11T18:24:36.999Z</time></trkpt><trkpt lat="44.33403658924526" lon="7.451549705456505"><ele>673.3333333333334</ele><time>2026-04-11T18:24:37.999Z</time></trkpt><trkpt lat="44.33405693877697" lon="7.4518460055936515"><ele>673.0</ele><time>2026-04-11T18:24:39Z</time></trkpt><trkpt lat="44.33407678138738" lon="7.4521359741964694"><ele>673.0</ele><time>2026-04-11T18:24:40Z</time></trkpt><trkpt lat="44.33409938705668" lon="7.452424077013848"><ele>673.0</ele><time>2026-04-11T18:24:41Z</time></trkpt><trkpt lat="44.334119953173555" lon="7.452704823396214"><ele>673.0</ele><time>2026-04-11T18:24:42Z</time></trkpt><trkpt lat="44.334138675142306" lon="7.452983945942879"><ele>673.0</ele><time>2026-04-11T18:24:43Z</time></trkpt><trkpt lat="44.33415891817248" lon="7.453257325996065"><ele>673.0</ele><time>2026-04-11T18:24:44Z</time></trkpt><trkpt lat="44.33418184707286" lon="7.4535370411585005"><ele>673.0</ele><time>2026-04-11T18:24:45Z</time></trkpt><trkpt lat="44.334200616573405" lon="7.453821404957848"><ele>673.3333333333334</ele><time>2026-04-11T18:24:46Z</time></trkpt><trkpt lat="44.334224075978824" lon="7.454102390616294"><ele>673.6666666666666</ele><time>2026-04-11T18:24:47Z</time></trkpt><trkpt lat="44.33424949856707" lon="7.454378564448199"><ele>674.0</ele><time>2026-04-11T18:24:48Z</time></trkpt><trkpt lat="44.33426992858383" lon="7.454640394733808"><ele>673.3333333333333</ele><time>2026-04-11T18:24:49Z</time></trkpt><trkpt lat="44.33429280716821" lon="7.454880980976882"><ele>672.6666666666666</ele><time>2026-04-11T18:24:50Z</time></trkpt><trkpt lat="44.33430746441723" lon="7.455130893358477"><ele>672.0</ele><time>2026-04-11T18:24:51Z</time></trkpt><trkpt lat="44.33432339997313" lon="7.455358777745471"><ele>672.0</ele><time>2026-04-11T18:24:52Z</time></trkpt><trkpt lat="44.3343426176476" lon="7.455590339935571"><ele>672.0</ele><time>2026-04-11T18:24:53Z</time></trkpt><trkpt lat="44.33436492487343" lon="7.455818145103611"><ele>672.0</ele><time>2026-04-11T18:24:54Z</time></trkpt><trkpt lat="44.33437368974038" lon="7.455982896892049"><ele>672.0</ele><time>2026-04-11T18:24:55Z</time></trkpt><trkpt lat="44.33438547123676" lon="7.456186193400856"><ele>672.0</ele><time>2026-04-11T18:24:56Z</time></trkpt><trkpt lat="44.33440237614164" lon="7.456407488155342"><ele>672.0</ele><time>2026-04-11T18:24:57Z</time></trkpt><trkpt lat="44.33441986440455" lon="7.456624694144467"><ele>672.0</ele><time>2026-04-11T18:24:58Z</time></trkpt><trkpt lat="44.334436355447295" lon="7.456827686215038"><ele>672.0</ele><time>2026-04-11T18:24:59Z</time></trkpt><trkpt lat="44.33444850051441" lon="7.457024826645898"><ele>672.0</ele><time>2026-04-11T18:25:00Z</time></trkpt><trkpt lat="44.33446120068263" lon="7.457242997050868"><ele>672.0</ele><time>2026-04-11T18:25:01Z</time></trkpt><trkpt lat="44.33448018194983" lon="7.457479540914222"><ele>672.0</ele><time>2026-04-11T18:25:02Z</time></trkpt><trkpt lat="44.33449738634061" lon="7.4577126683858275"><ele>672.0</ele><time>2026-04-11T18:25:03Z</time></trkpt><trkpt lat="44.33452534098859" lon="7.458008077977903"><ele>672.0</ele><time>2026-04-11T18:25:04Z</time></trkpt><trkpt lat="44.33454719831387" lon="7.458327613706309"><ele>671.0</ele><time>2026-04-11T18:25:05Z</time></trkpt><trkpt lat="44.334561397330376" lon="7.45861881805589"><ele>670.0</ele><time>2026-04-11T18:25:06Z</time></trkpt><trkpt lat="44.33458169425484" lon="7.4588990003537585"><ele>669.0</ele><time>2026-04-11T18:25:07Z</time></trkpt><trkpt lat="44.3346035583392" lon="7.459155693022281"><ele>669.0</ele><time>2026-04-11T18:25:08Z</time></trkpt><trkpt lat="44.33462158811633" lon="7.4594127005882305"><ele>669.0</ele><time>2026-04-11T18:25:09Z</time></trkpt><trkpt lat="44.33463625340291" lon="7.459669759403965"><ele>669.0</ele><time>2026-04-11T18:25:10Z</time></trkpt><trkpt lat="44.334649892140305" lon="7.4599341947659035"><ele>669.0</ele><time>2026-04-11T18:25:11Z</time></trkpt><trkpt lat="44.33466581504686" lon="7.460192998158817"><ele>669.0</ele><time>2026-04-11T18:25:12Z</time></trkpt><trkpt lat="44.334674667152484" lon="7.460451322650765"><ele>669.0</ele><time>2026-04-11T18:25:13Z</time></trkpt><trkpt lat="44.334678288913466" lon="7.460710725422511"><ele>668.3333333333334</ele><time>2026-04-11T18:25:14Z</time></trkpt><trkpt lat="44.3346719511988" lon="7.4609842428750985"><ele>667.6666666666667</ele><time>2026-04-11T18:25:15Z</time></trkpt><trkpt lat="44.3346551568829" lon="7.461274873655465"><ele>667.0</ele><time>2026-04-11T18:25:16Z</time></trkpt><trkpt lat="44.334629552875604" lon="7.4615797213480874"><ele>666.5</ele><time>2026-04-11T18:25:17Z</time></trkpt><trkpt lat="44.33460522671086" lon="7.461900015955732"><ele>666.0</ele><time>2026-04-11T18:25:18Z</time></trkpt><trkpt lat="44.33457462269077" lon="7.46224222445813"><ele>665.0</ele><time>2026-04-11T18:25:19Z</time></trkpt><trkpt lat="44.334543741205486" lon="7.4625723273600855"><ele>664.0</ele><time>2026-04-11T18:25:20Z</time></trkpt><trkpt lat="44.33451232976242" lon="7.46290542011416"><ele>662.5</ele><time>2026-04-11T18:25:21Z</time></trkpt><trkpt lat="44.33448405962409" lon="7.463223861349719"><ele>661.0</ele><time>2026-04-11T18:25:22Z</time></trkpt><trkpt lat="44.334455131153796" lon="7.4635385511009975"><ele>661.5</ele><time>2026-04-11T18:25:23Z</time></trkpt><trkpt lat="44.334422867927294" lon="7.463861351118013"><ele>662.0</ele><time>2026-04-11T18:25:24Z</time></trkpt><trkpt lat="44.3343920166493" lon="7.4641782560389665"><ele>662.0</ele><time>2026-04-11T18:25:25Z</time></trkpt><trkpt lat="44.33436420417532" lon="7.4644745732959645"><ele>662.0</ele><time>2026-04-11T18:25:26Z</time></trkpt><trkpt lat="44.33433451308195" lon="7.464786383205155"><ele>662.0</ele><time>2026-04-11T18:25:27Z</time></trkpt><trkpt lat="44.334305428391495" lon="7.465083719430482"><ele>662.0</ele><time>2026-04-11T18:25:28Z</time></trkpt><trkpt lat="44.334277759828296" lon="7.465383362863537"><ele>662.0</ele><time>2026-04-11T18:25:29Z</time></trkpt><trkpt lat="44.33425208353313" lon="7.465671420119133"><ele>662.0</ele><time>2026-04-11T18:25:30Z</time></trkpt><trkpt lat="44.33422466982934" lon="7.46594775338345"><ele>661.6666666666666</ele><time>2026-04-11T18:25:31Z</time></trkpt><trkpt lat="44.334197406248215" lon="7.46622305628533"><ele>661.3333333333334</ele><time>2026-04-11T18:25:32Z</time></trkpt><trkpt lat="44.3341628155094" lon="7.466514688775759"><ele>661.0</ele><time>2026-04-11T18:25:33Z</time></trkpt><trkpt lat="44.33412043165665" lon="7.466815358169305"><ele>660.6666666666667</ele><time>2026-04-11T18:25:34Z</time></trkpt><trkpt lat="44.33407293157417" lon="7.467103671255216"><ele>660.3333333333334</ele><time>2026-04-11T18:25:35Z</time></trkpt><trkpt lat="44.334017496764794" lon="7.4673982718163545"><ele>660.0</ele><time>2026-04-11T18:25:36Z</time></trkpt><trkpt lat="44.333953825342086" lon="7.4677111568183765"><ele>658.5</ele><time>2026-04-11T18:25:37Z</time></trkpt><trkpt lat="44.33388820765395" lon="7.468028881067065"><ele>657.0</ele><time>2026-04-11T18:25:38Z</time></trkpt><trkpt lat="44.33381592935518" lon="7.468352138349287"><ele>657.0</ele><time>2026-04-11T18:25:39Z</time></trkpt><trkpt lat="44.33373655626123" lon="7.4686868152926476"><ele>657.0</ele><time>2026-04-11T18:25:40Z</time></trkpt><trkpt lat="44.333658686313285" lon="7.469021951278128"><ele>657.0</ele><time>2026-04-11T18:25:41Z</time></trkpt><trkpt lat="44.33358081085589" lon="7.469358331004613"><ele>657.0</ele><time>2026-04-11T18:25:42Z</time></trkpt><trkpt lat="44.3334990415479" lon="7.46969390278408"><ele>657.0</ele><time>2026-04-11T18:25:43Z</time></trkpt><trkpt lat="44.33342342892591" lon="7.470014269056596"><ele>657.0</ele><time>2026-04-11T18:25:44Z</time></trkpt><trkpt lat="44.333350494394466" lon="7.470316961891041"><ele>656.0</ele><time>2026-04-11T18:25:45Z</time></trkpt><trkpt lat="44.333278838651225" lon="7.470613384064528"><ele>655.0</ele><time>2026-04-11T18:25:46Z</time></trkpt><trkpt lat="44.33320218302177" lon="7.47091733249847"><ele>655.0</ele><time>2026-04-11T18:25:47Z</time></trkpt><trkpt lat="44.33313123980284" lon="7.471216977721842"><ele>655.0</ele><time>2026-04-11T18:25:48Z</time></trkpt><trkpt lat="44.33306785122859" lon="7.471497133565133"><ele>655.0</ele><time>2026-04-11T18:25:49Z</time></trkpt><trkpt lat="44.33301028534585" lon="7.471752536949284"><ele>655.3333333333334</ele><time>2026-04-11T18:25:50Z</time></trkpt><trkpt lat="44.33295301797643" lon="7.471993083037658"><ele>655.6666666666666</ele><time>2026-04-11T18:25:51Z</time></trkpt><trkpt lat="44.332896731176064" lon="7.472221043021094"><ele>656.0</ele><time>2026-04-11T18:25:52Z</time></trkpt><trkpt lat="44.33284572392978" lon="7.472434404886356"><ele>655.5</ele><time>2026-04-11T18:25:53Z</time></trkpt><trkpt lat="44.33280066912672" lon="7.47263288855426"><ele>655.0</ele><time>2026-04-11T18:25:54Z</time></trkpt><trkpt lat="44.3327546248228" lon="7.472833258893768"><ele>654.5</ele><time>2026-04-11T18:25:55Z</time></trkpt><trkpt lat="44.33271220035438" lon="7.4730223768397765"><ele>654.0</ele><time>2026-04-11T18:25:56Z</time></trkpt><trkpt lat="44.33267061348249" lon="7.47320127447897"><ele>654.0</ele><time>2026-04-11T18:25:57Z</time></trkpt><trkpt lat="44.33262927683422" lon="7.473368129253222"><ele>654.0</ele><time>2026-04-11T18:25:58Z</time></trkpt><trkpt lat="44.332588607639195" lon="7.473537748584917"><ele>654.0</ele><time>2026-04-11T18:25:59Z</time></trkpt><trkpt lat="44.3325513647967" lon="7.473710856204431"><ele>654.0</ele><time>2026-04-11T18:26:00Z</time></trkpt><trkpt lat="44.33251667403777" lon="7.473874664704983"><ele>653.75</ele><time>2026-04-11T18:26:01Z</time></trkpt><trkpt lat="44.3324793594652" lon="7.474036750273398"><ele>653.5</ele><time>2026-04-11T18:26:02Z</time></trkpt><trkpt lat="44.332448687489936" lon="7.474188767314427"><ele>653.25</ele><time>2026-04-11T18:26:03Z</time></trkpt><trkpt lat="44.332428669829355" lon="7.474338584531982"><ele>653.0</ele><time>2026-04-11T18:26:04Z</time></trkpt><trkpt lat="44.33240617806783" lon="7.474486515835078"><ele>652.25</ele><time>2026-04-11T18:26:05Z</time></trkpt><trkpt lat="44.3323977904826" lon="7.474625759332774"><ele>651.5</ele><time>2026-04-11T18:26:06Z</time></trkpt><trkpt lat="44.33234564146013" lon="7.474775459318012"><ele>650.75</ele><time>2026-04-11T18:26:07Z</time></trkpt><trkpt lat="44.332332543356415" lon="7.474952675019399"><ele>650.0</ele><time>2026-04-11T18:26:07.999Z</time></trkpt><trkpt lat="44.3323006888688" lon="7.475148156181654"><ele>650.0</ele><time>2026-04-11T18:26:08.999Z</time></trkpt><trkpt lat="44.33223184391725" lon="7.4753665974916155"><ele>650.0</ele><time>2026-04-11T18:26:09.999Z</time></trkpt><trkpt lat="44.33213393121252" lon="7.475626875032291"><ele>650.0</ele><time>2026-04-11T18:26:10.999Z</time></trkpt><trkpt lat="44.3320371344941" lon="7.475926755619418"><ele>650.3333333333333</ele><time>2026-04-11T18:26:11.999Z</time></trkpt><trkpt lat="44.33195752832394" lon="7.476207589296692"><ele>650.6666666666666</ele><time>2026-04-11T18:26:12.999Z</time></trkpt><trkpt lat="44.33188469497345" lon="7.476483023588336"><ele>651.0</ele><time>2026-04-11T18:26:13.999Z</time></trkpt><trkpt lat="44.33182782138765" lon="7.476729637209051"><ele>650.3333333333334</ele><time>2026-04-11T18:26:14.999Z</time></trkpt><trkpt lat="44.33177274230438" lon="7.476972071879414"><ele>649.6666666666667</ele><time>2026-04-11T18:26:15.999Z</time></trkpt><trkpt lat="44.33171471149942" lon="7.477212061515645"><ele>649.0</ele><time>2026-04-11T18:26:16.999Z</time></trkpt><trkpt lat="44.331656050231345" lon="7.477450274851628"><ele>648.3333333333334</ele><time>2026-04-11T18:26:17.999Z</time></trkpt><trkpt lat="44.33159582269438" lon="7.477706784346809"><ele>647.6666666666666</ele><time>2026-04-11T18:26:18.999Z</time></trkpt><trkpt lat="44.331535616172026" lon="7.477971726680571"><ele>647.0</ele><time>2026-04-11T18:26:19.999Z</time></trkpt><trkpt lat="44.33147742392777" lon="7.478235370659265"><ele>647.0</ele><time>2026-04-11T18:26:20.999Z</time></trkpt><trkpt lat="44.33141630173513" lon="7.4785044881966085"><ele>647.0</ele><time>2026-04-11T18:26:21.999Z</time></trkpt><trkpt lat="44.33135151186489" lon="7.4787730425225"><ele>647.0</ele><time>2026-04-11T18:26:22.999Z</time></trkpt><trkpt lat="44.33128316367387" lon="7.479046857844725"><ele>647.0</ele><time>2026-04-11T18:26:23.999Z</time></trkpt><trkpt lat="44.33122038986542" lon="7.47933230550809"><ele>647.0</ele><time>2026-04-11T18:26:24.999Z</time></trkpt><trkpt lat="44.33115734407492" lon="7.4796067289562504"><ele>647.0</ele><time>2026-04-11T18:26:25.999Z</time></trkpt><trkpt lat="44.331098337444104" lon="7.479858265497006"><ele>647.0</ele><time>2026-04-11T18:26:26.999Z</time></trkpt><trkpt lat="44.33104140484521" lon="7.480094720164796"><ele>647.0</ele><time>2026-04-11T18:26:27.999Z</time></trkpt><trkpt lat="44.33098666591353" lon="7.480316176892396"><ele>647.0</ele><time>2026-04-11T18:26:28.999Z</time></trkpt><trkpt lat="44.33093348425731" lon="7.480546218411605"><ele>646.0</ele><time>2026-04-11T18:26:29.999Z</time></trkpt><trkpt lat="44.33087517288799" lon="7.480827150971627"><ele>645.0</ele><time>2026-04-11T18:26:30.999Z</time></trkpt><trkpt lat="44.33080870518175" lon="7.481100268190434"><ele>644.0</ele><time>2026-04-11T18:26:31.999Z</time></trkpt><trkpt lat="44.33075013279745" lon="7.4813433488193315"><ele>644.0</ele><time>2026-04-11T18:26:32.999Z</time></trkpt><trkpt lat="44.33069832109576" lon="7.481565322435322"><ele>644.0</ele><time>2026-04-11T18:26:33.999Z</time></trkpt><trkpt lat="44.330654286173356" lon="7.481765219262435"><ele>644.0</ele><time>2026-04-11T18:26:34.999Z</time></trkpt><trkpt lat="44.330609654768864" lon="7.4819556593332335"><ele>644.0</ele><time>2026-04-11T18:26:35.999Z</time></trkpt><trkpt lat="44.330564202134404" lon="7.482137980989471"><ele>644.0</ele><time>2026-04-11T18:26:36.999Z</time></trkpt><trkpt lat="44.33052186229109" lon="7.482319282087411"><ele>644.0</ele><time>2026-04-11T18:26:37.999Z</time></trkpt><trkpt lat="44.33048255353835" lon="7.48249594151498"><ele>644.0</ele><time>2026-04-11T18:26:38.999Z</time></trkpt><trkpt lat="44.33044126686746" lon="7.482679360997943"><ele>644.0</ele><time>2026-04-11T18:26:39.999Z</time></trkpt><trkpt lat="44.33039838199171" lon="7.482861136673768"><ele>644.0</ele><time>2026-04-11T18:26:40.999Z</time></trkpt><trkpt lat="44.33035631264117" lon="7.4830312054785955"><ele>644.0</ele><time>2026-04-11T18:26:41.999Z</time></trkpt><trkpt lat="44.330316164295425" lon="7.483195964018469"><ele>644.0</ele><time>2026-04-11T18:26:42.999Z</time></trkpt><trkpt lat="44.33027890365983" lon="7.4833493747462825"><ele>643.6</ele><time>2026-04-11T18:26:43.999Z</time></trkpt><trkpt lat="44.33024410634263" lon="7.483495290771988"><ele>643.2</ele><time>2026-04-11T18:26:45Z</time></trkpt><trkpt lat="44.33020794749142" lon="7.48363787791021"><ele>642.8000000000001</ele><time>2026-04-11T18:26:46Z</time></trkpt><trkpt lat="44.330179462872465" lon="7.483768197558336"><ele>642.4000000000001</ele><time>2026-04-11T18:26:47Z</time></trkpt><trkpt lat="44.33014775990151" lon="7.483893454468167"><ele>642.0</ele><time>2026-04-11T18:26:48Z</time></trkpt><trkpt lat="44.33012332084725" lon="7.4840157811341825"><ele>642.0</ele><time>2026-04-11T18:26:49Z</time></trkpt><trkpt lat="44.33010637597298" lon="7.484130851171356"><ele>642.0</ele><time>2026-04-11T18:26:50Z</time></trkpt><trkpt lat="44.33010806114057" lon="7.484235402315366"><ele>642.0</ele><time>2026-04-11T18:26:51Z</time></trkpt><trkpt lat="44.33012568918258" lon="7.484327663510987"><ele>642.0</ele><time>2026-04-11T18:26:52Z</time></trkpt><trkpt lat="44.33017863169445" lon="7.484453747304119"><ele>642.0</ele><time>2026-04-11T18:26:53Z</time></trkpt><trkpt lat="44.33024816800253" lon="7.484569715175527"><ele>642.0</ele><time>2026-04-11T18:26:54Z</time></trkpt><trkpt lat="44.33032732131066" lon="7.4846966349660295"><ele>641.6666666666666</ele><time>2026-04-11T18:26:55Z</time></trkpt><trkpt lat="44.33041426800484" lon="7.484859099136769"><ele>641.3333333333333</ele><time>2026-04-11T18:26:56Z</time></trkpt><trkpt lat="44.33050562483403" lon="7.485053864483641"><ele>641.0</ele><time>2026-04-11T18:26:57Z</time></trkpt><trkpt lat="44.33056077971925" lon="7.485251597760205"><ele>641.0</ele><time>2026-04-11T18:26:58Z</time></trkpt><trkpt lat="44.330613963777125" lon="7.485404614692682"><ele>641.0</ele><time>2026-04-11T18:26:59Z</time></trkpt><trkpt lat="44.33066832090216" lon="7.485570566114028"><ele>641.0</ele><time>2026-04-11T18:27:00Z</time></trkpt><trkpt lat="44.33075201038538" lon="7.485727374800953"><ele>641.0</ele><time>2026-04-11T18:27:01Z</time></trkpt><trkpt lat="44.330815687160026" lon="7.485884081519029"><ele>641.0</ele><time>2026-04-11T18:27:02Z</time></trkpt><trkpt lat="44.330865058746106" lon="7.486016612212209"><ele>641.0</ele><time>2026-04-11T18:27:03Z</time></trkpt><trkpt lat="44.3309188663285" lon="7.486142040967015"><ele>641.0</ele><time>2026-04-11T18:27:04Z</time></trkpt><trkpt lat="44.33096282602714" lon="7.486281309671756"><ele>641.0</ele><time>2026-04-11T18:27:05Z</time></trkpt><trkpt lat="44.331021208897276" lon="7.4864135179621165"><ele>641.0</ele><time>2026-04-11T18:27:06Z</time></trkpt><trkpt lat="44.331081565716964" lon="7.486545944807419"><ele>641.0</ele><time>2026-04-11T18:27:07Z</time></trkpt><trkpt lat="44.33113979479667" lon="7.486674386665745"><ele>641.0</ele><time>2026-04-11T18:27:08Z</time></trkpt><trkpt lat="44.3312164390604" lon="7.486844441415424"><ele>641.0</ele><time>2026-04-11T18:27:09Z</time></trkpt><trkpt lat="44.33128397142715" lon="7.486997471375354"><ele>641.0</ele><time>2026-04-11T18:27:10Z</time></trkpt><trkpt lat="44.331351874137795" lon="7.487128766488773"><ele>640.5999999999999</ele><time>2026-04-11T18:27:11Z</time></trkpt><trkpt lat="44.33141568492984" lon="7.487263748607932"><ele>640.1999999999999</ele><time>2026-04-11T18:27:12Z</time></trkpt><trkpt lat="44.33148948854586" lon="7.487379630973969"><ele>639.8</ele><time>2026-04-11T18:27:13Z</time></trkpt><trkpt lat="44.33154188952164" lon="7.487501128283229"><ele>639.4</ele><time>2026-04-11T18:27:14Z</time></trkpt><trkpt lat="44.33159926183963" lon="7.487616494101779"><ele>639.0</ele><time>2026-04-11T18:27:15Z</time></trkpt><trkpt lat="44.331665585775475" lon="7.487725143888813"><ele>639.0</ele><time>2026-04-11T18:27:16Z</time></trkpt><trkpt lat="44.33172931670802" lon="7.487836468897772"><ele>639.0</ele><time>2026-04-11T18:27:17Z</time></trkpt><trkpt lat="44.33178777674543" lon="7.487937470222636"><ele>639.0</ele><time>2026-04-11T18:27:18Z</time></trkpt><trkpt lat="44.331817540753434" lon="7.488053057037332"><ele>639.0</ele><time>2026-04-11T18:27:19Z</time></trkpt><trkpt lat="44.33183810652666" lon="7.488154001985657"><ele>639.0</ele><time>2026-04-11T18:27:20Z</time></trkpt><trkpt lat="44.33185355985285" lon="7.488274371844409"><ele>639.0</ele><time>2026-04-11T18:27:21Z</time></trkpt><trkpt lat="44.33187669437239" lon="7.488403097433469"><ele>638.5</ele><time>2026-04-11T18:27:22Z</time></trkpt><trkpt lat="44.33189114275868" lon="7.488535990136613"><ele>638.0</ele><time>2026-04-11T18:27:23Z</time></trkpt><trkpt lat="44.33187861262463" lon="7.488660966209287"><ele>637.5</ele><time>2026-04-11T18:27:24Z</time></trkpt><trkpt lat="44.33185628567996" lon="7.4887789194435825"><ele>637.0</ele><time>2026-04-11T18:27:25Z</time></trkpt><trkpt lat="44.331842568184896" lon="7.488883876995732"><ele>636.5</ele><time>2026-04-11T18:27:26Z</time></trkpt><trkpt lat="44.331876296873645" lon="7.489013109274182"><ele>636.0</ele><time>2026-04-11T18:27:28Z</time></trkpt><trkpt lat="44.33199495523834" lon="7.4891101478507345"><ele>636.0</ele><time>2026-04-11T18:27:30Z</time></trkpt><trkpt lat="44.33208043223612" lon="7.489149774504698"><ele>636.0</ele><time>2026-04-11T18:27:31Z</time></trkpt><trkpt lat="44.33220446564747" lon="7.489152307545893"><ele>636.0</ele><time>2026-04-11T18:27:32Z</time></trkpt><trkpt lat="44.33228925534994" lon="7.489206416579593"><ele>636.0</ele><time>2026-04-11T18:27:33Z</time></trkpt><trkpt lat="44.33237756534382" lon="7.489274562847778"><ele>636.0</ele><time>2026-04-11T18:27:34Z</time></trkpt><trkpt lat="44.33245081417589" lon="7.489373811466893"><ele>636.0</ele><time>2026-04-11T18:27:35Z</time></trkpt><trkpt lat="44.33253823887155" lon="7.4894580100893196"><ele>636.0</ele><time>2026-04-11T18:27:36Z</time></trkpt><trkpt lat="44.332606692283704" lon="7.489638275837657"><ele>636.0</ele><time>2026-04-11T18:27:37Z</time></trkpt><trkpt lat="44.33270442555134" lon="7.489758805820494"><ele>636.0</ele><time>2026-04-11T18:27:38Z</time></trkpt><trkpt lat="44.332762929484936" lon="7.48988101946804"><ele>636.0</ele><time>2026-04-11T18:27:39Z</time></trkpt><trkpt lat="44.332866617740805" lon="7.48977425395822"><ele>636.0</ele><time>2026-04-11T18:27:40Z</time></trkpt><trkpt lat="44.33295439181396" lon="7.4898644852964775"><ele>636.0</ele><time>2026-04-11T18:27:41Z</time></trkpt><trkpt lat="44.33304376626653" lon="7.489958601604098"><ele>636.0</ele><time>2026-04-11T18:27:42Z</time></trkpt><trkpt lat="44.33313452822411" lon="7.490048350096654"><ele>636.0</ele><time>2026-04-11T18:27:43Z</time></trkpt><trkpt lat="44.3332235445757" lon="7.490133585734226"><ele>636.0</ele><time>2026-04-11T18:27:44Z</time></trkpt><trkpt lat="44.33330996515258" lon="7.490214738185249"><ele>636.0</ele><time>2026-04-11T18:27:45Z</time></trkpt><trkpt lat="44.33339251060795" lon="7.490300446330973"><ele>636.0</ele><time>2026-04-11T18:27:46Z</time></trkpt><trkpt lat="44.33347412334967" lon="7.490387869376584"><ele>636.0</ele><time>2026-04-11T18:27:47Z</time></trkpt><trkpt lat="44.3335519123051" lon="7.49047531544737"><ele>635.6</ele><time>2026-04-11T18:27:48Z</time></trkpt><trkpt lat="44.33363325361959" lon="7.490559562207902"><ele>635.2</ele><time>2026-04-11T18:27:49Z</time></trkpt><trkpt lat="44.333711803563176" lon="7.490638177576054"><ele>634.8</ele><time>2026-04-11T18:27:50Z</time></trkpt><trkpt lat="44.33378598781496" lon="7.490722848457238"><ele>634.4</ele><time>2026-04-11T18:27:51Z</time></trkpt><trkpt lat="44.33386537055617" lon="7.490805860728793"><ele>634.0</ele><time>2026-04-11T18:27:52Z</time></trkpt><trkpt lat="44.333943005592566" lon="7.490881571230639"><ele>634.0</ele><time>2026-04-11T18:27:53Z</time></trkpt><trkpt lat="44.33402365248985" lon="7.490962014406405"><ele>634.0</ele><time>2026-04-11T18:27:54Z</time></trkpt><trkpt lat="44.33410156238498" lon="7.49104213608902"><ele>634.0</ele><time>2026-04-11T18:27:55Z</time></trkpt><trkpt lat="44.33417593542599" lon="7.491123105788746"><ele>634.0</ele><time>2026-04-11T18:27:56Z</time></trkpt><trkpt lat="44.33425319764239" lon="7.491198678551232"><ele>634.0</ele><time>2026-04-11T18:27:57Z</time></trkpt><trkpt lat="44.334326430222774" lon="7.491272726514261"><ele>633.8333333333334</ele><time>2026-04-11T18:27:58Z</time></trkpt><trkpt lat="44.33439882887876" lon="7.491345358539491"><ele>633.6666666666667</ele><time>2026-04-11T18:27:59Z</time></trkpt><trkpt lat="44.334470006794064" lon="7.491414690554499"><ele>633.5</ele><time>2026-04-11T18:28:00Z</time></trkpt><trkpt lat="44.33453861477142" lon="7.4914829802920435"><ele>633.3333333333334</ele><time>2026-04-11T18:28:01Z</time></trkpt><trkpt lat="44.33460462078348" lon="7.4915540371084"><ele>633.1666666666666</ele><time>2026-04-11T18:28:02Z</time></trkpt><trkpt lat="44.334673372957965" lon="7.491612469586225"><ele>633.0</ele><time>2026-04-11T18:28:03Z</time></trkpt><trkpt lat="44.33474202201975" lon="7.491685986302566"><ele>633.0</ele><time>2026-04-11T18:28:04Z</time></trkpt><trkpt lat="44.33481101983845" lon="7.491770120038424"><ele>633.0</ele><time>2026-04-11T18:28:05Z</time></trkpt><trkpt lat="44.33489086391208" lon="7.491853126548072"><ele>633.0</ele><time>2026-04-11T18:28:06Z</time></trkpt><trkpt lat="44.334975854271185" lon="7.49191145833698"><ele>633.0</ele><time>2026-04-11T18:28:07Z</time></trkpt><trkpt lat="44.335040487836366" lon="7.492006304614084"><ele>633.0</ele><time>2026-04-11T18:28:08Z</time></trkpt><trkpt lat="44.3351294814736" lon="7.492097757735373"><ele>633.0</ele><time>2026-04-11T18:28:09Z</time></trkpt><trkpt lat="44.33522222722002" lon="7.492169611393061"><ele>633.0</ele><time>2026-04-11T18:28:10Z</time></trkpt><trkpt lat="44.33528153970803" lon="7.492251981539299"><ele>633.0</ele><time>2026-04-11T18:28:11Z</time></trkpt><trkpt lat="44.33536294040961" lon="7.492333496509047"><ele>633.0</ele><time>2026-04-11T18:28:12Z</time></trkpt><trkpt lat="44.335443062537685" lon="7.492410412574059"><ele>633.0</ele><time>2026-04-11T18:28:13Z</time></trkpt><trkpt lat="44.33552342846862" lon="7.492494416586762"><ele>632.8</ele><time>2026-04-11T18:28:13.999Z</time></trkpt><trkpt lat="44.33560165832644" lon="7.492573242356983"><ele>632.5999999999999</ele><time>2026-04-11T18:28:14.999Z</time></trkpt><trkpt lat="44.33567528755473" lon="7.4926513633565985"><ele>632.4000000000001</ele><time>2026-04-11T18:28:15.999Z</time></trkpt><trkpt lat="44.335754197010274" lon="7.4927255565376685"><ele>632.2</ele><time>2026-04-11T18:28:16.999Z</time></trkpt><trkpt lat="44.33583129307528" lon="7.492802499543762"><ele>632.0</ele><time>2026-04-11T18:28:17.999Z</time></trkpt><trkpt lat="44.33590687418382" lon="7.492878005306689"><ele>632.0</ele><time>2026-04-11T18:28:18.999Z</time></trkpt><trkpt lat="44.33598262219665" lon="7.492964890304754"><ele>632.0</ele><time>2026-04-11T18:28:19.999Z</time></trkpt><trkpt lat="44.33605778615218" lon="7.493034593652393"><ele>632.0</ele><time>2026-04-11T18:28:20.999Z</time></trkpt><trkpt lat="44.33612924502951" lon="7.4931095516868895"><ele>632.0</ele><time>2026-04-11T18:28:21.999Z</time></trkpt><trkpt lat="44.33620059848802" lon="7.49318715615958"><ele>632.0</ele><time>2026-04-11T18:28:22.999Z</time></trkpt><trkpt lat="44.336280535183135" lon="7.493260527028848"><ele>632.0</ele><time>2026-04-11T18:28:23.999Z</time></trkpt><trkpt lat="44.33635689449644" lon="7.493333462813812"><ele>632.0</ele><time>2026-04-11T18:28:24.999Z</time></trkpt><trkpt lat="44.336431351419634" lon="7.493418153323569"><ele>632.0</ele><time>2026-04-11T18:28:25.999Z</time></trkpt><trkpt lat="44.336507857059146" lon="7.493499390750811"><ele>632.0</ele><time>2026-04-11T18:28:26.999Z</time></trkpt><trkpt lat="44.336582540327065" lon="7.49357657447104"><ele>632.0</ele><time>2026-04-11T18:28:27.999Z</time></trkpt><trkpt lat="44.33666025447206" lon="7.49366273677426"><ele>631.8333333333333</ele><time>2026-04-11T18:28:28.999Z</time></trkpt><trkpt lat="44.33673902389907" lon="7.493740639115059"><ele>631.6666666666666</ele><time>2026-04-11T18:28:29.999Z</time></trkpt><trkpt lat="44.33680930407136" lon="7.493803243329284"><ele>631.5</ele><time>2026-04-11T18:28:30.999Z</time></trkpt><trkpt lat="44.336871060799965" lon="7.493865804985644"><ele>631.3333333333334</ele><time>2026-04-11T18:28:31.999Z</time></trkpt><trkpt lat="44.33692140241675" lon="7.49392669039833"><ele>631.1666666666667</ele><time>2026-04-11T18:28:33.999Z</time></trkpt><trkpt lat="44.336986064282044" lon="7.493975231423261"><ele>631.0</ele><time>2026-04-11T18:28:36.999Z</time></trkpt><trkpt lat="44.337120389394656" lon="7.493865728215687"><ele>631.0</ele><time>2026-04-11T18:28:39.999Z</time></trkpt><trkpt lat="44.337128171422115" lon="7.493772092705812"><ele>631.0</ele><time>2026-04-11T18:28:40.999Z</time></trkpt><trkpt lat="44.3371491089631" lon="7.493599075194884"><ele>631.0</ele><time>2026-04-11T18:28:42.999Z</time></trkpt><trkpt lat="44.33716490189205" lon="7.493436639416193"><ele>631.0</ele><time>2026-04-11T18:28:44.999Z</time></trkpt><trkpt lat="44.337170996618575" lon="7.493340720449571"><ele>631.0</ele><time>2026-04-11T18:28:45.999Z</time></trkpt><trkpt lat="44.337176162332916" lon="7.4931747145764955"><ele>631.0</ele><time>2026-04-11T18:28:47.999Z</time></trkpt><trkpt lat="44.3371817678837" lon="7.493042830249129"><ele>631.0</ele><time>2026-04-11T18:28:49.999Z</time></trkpt><trkpt lat="44.337056799626254" lon="7.492948592419585"><ele>631.0</ele><time>2026-04-11T18:28:54Z</time></trkpt><trkpt lat="44.33694390723916" lon="7.49296438736918"><ele>631.0</ele><time>2026-04-11T18:28:56Z</time></trkpt><trkpt lat="44.336858275994565" lon="7.492972295598706"><ele>631.0</ele><time>2026-04-11T18:28:58Z</time></trkpt></trkseg></trk></gpx>